<?xml version="1.0" encoding="UTF-8" standalone="no" ?>
<gpx xmlns="http://www.topografix.com/GPX/1/1" xmlns:xsi="http://www.w3.org/2001/XMLSchema-instance" xsi:schemaLocation="http://www.topografix.com/GPX/1/1 http://www.topografix.com/GPX/1/1/gpx.xsd" version="1.1" creator="VisuGPX - https://www.visugpx.com">
  <metadata>
    <name>2019 Vercors J2</name>
  </metadata>
  <trk>
    <name><![CDATA[Randonnée matinale]]></name>
    <trkseg>
      <trkpt lat="44.76693" lon="5.46782">
        <ele>1907.1</ele>
        <time>2019-05-30T04:36:07Z</time>
      </trkpt>
      <trkpt lat="44.76696" lon="5.46778">
        <ele>1906.7</ele>
        <time>2019-05-30T04:36:08Z</time>
      </trkpt>
      <trkpt lat="44.767" lon="5.46773">
        <ele>1906.3</ele>
        <time>2019-05-30T04:36:09Z</time>
      </trkpt>
      <trkpt lat="44.76693" lon="5.46778">
        <ele>1907</ele>
        <time>2019-05-30T04:37:34Z</time>
      </trkpt>
      <trkpt lat="44.76692" lon="5.46774">
        <ele>1906.8</ele>
        <time>2019-05-30T04:37:51Z</time>
      </trkpt>
      <trkpt lat="44.76691" lon="5.46769">
        <ele>1906.6</ele>
        <time>2019-05-30T04:37:54Z</time>
      </trkpt>
      <trkpt lat="44.7669" lon="5.46764">
        <ele>1906.7</ele>
        <time>2019-05-30T04:37:56Z</time>
      </trkpt>
      <trkpt lat="44.76689" lon="5.4676">
        <ele>1906.6</ele>
        <time>2019-05-30T04:37:57Z</time>
      </trkpt>
      <trkpt lat="44.76687" lon="5.46754">
        <ele>1906.6</ele>
        <time>2019-05-30T04:37:59Z</time>
      </trkpt>
      <trkpt lat="44.76685" lon="5.4675">
        <ele>1906.5</ele>
        <time>2019-05-30T04:38:01Z</time>
      </trkpt>
      <trkpt lat="44.76684" lon="5.46746">
        <ele>1906.9</ele>
        <time>2019-05-30T04:38:03Z</time>
      </trkpt>
      <trkpt lat="44.76682" lon="5.46742">
        <ele>1906.8</ele>
        <time>2019-05-30T04:38:06Z</time>
      </trkpt>
      <trkpt lat="44.76682" lon="5.46736">
        <ele>1906.5</ele>
        <time>2019-05-30T04:38:09Z</time>
      </trkpt>
      <trkpt lat="44.76683" lon="5.46732">
        <ele>1906.4</ele>
        <time>2019-05-30T04:38:12Z</time>
      </trkpt>
      <trkpt lat="44.76683" lon="5.46727">
        <ele>1906.2</ele>
        <time>2019-05-30T04:38:14Z</time>
      </trkpt>
      <trkpt lat="44.76683" lon="5.46721">
        <ele>1906.1</ele>
        <time>2019-05-30T04:38:16Z</time>
      </trkpt>
      <trkpt lat="44.76684" lon="5.46717">
        <ele>1905.9</ele>
        <time>2019-05-30T04:38:17Z</time>
      </trkpt>
      <trkpt lat="44.76686" lon="5.46711">
        <ele>1905</ele>
        <time>2019-05-30T04:38:19Z</time>
      </trkpt>
      <trkpt lat="44.76689" lon="5.46708">
        <ele>1904.4</ele>
        <time>2019-05-30T04:38:22Z</time>
      </trkpt>
      <trkpt lat="44.76693" lon="5.46705">
        <ele>1903.6</ele>
        <time>2019-05-30T04:38:25Z</time>
      </trkpt>
      <trkpt lat="44.76697" lon="5.46705">
        <ele>1903</ele>
        <time>2019-05-30T04:38:27Z</time>
      </trkpt>
      <trkpt lat="44.76701" lon="5.46705">
        <ele>1901.9</ele>
        <time>2019-05-30T04:38:29Z</time>
      </trkpt>
      <trkpt lat="44.76705" lon="5.46706">
        <ele>1901.4</ele>
        <time>2019-05-30T04:38:31Z</time>
      </trkpt>
      <trkpt lat="44.76709" lon="5.46707">
        <ele>1901</ele>
        <time>2019-05-30T04:38:34Z</time>
      </trkpt>
      <trkpt lat="44.76712" lon="5.46709">
        <ele>1900.9</ele>
        <time>2019-05-30T04:38:36Z</time>
      </trkpt>
      <trkpt lat="44.76714" lon="5.46706">
        <ele>1900.3</ele>
        <time>2019-05-30T04:38:39Z</time>
      </trkpt>
      <trkpt lat="44.76717" lon="5.46705">
        <ele>1900</ele>
        <time>2019-05-30T04:38:44Z</time>
      </trkpt>
      <trkpt lat="44.76719" lon="5.46709">
        <ele>1899.9</ele>
        <time>2019-05-30T04:38:48Z</time>
      </trkpt>
      <trkpt lat="44.76716" lon="5.46711">
        <ele>1900.2</ele>
        <time>2019-05-30T04:38:51Z</time>
      </trkpt>
      <trkpt lat="44.76718" lon="5.46713">
        <ele>1900.2</ele>
        <time>2019-05-30T04:38:56Z</time>
      </trkpt>
      <trkpt lat="44.76721" lon="5.46714">
        <ele>1900.2</ele>
        <time>2019-05-30T04:38:59Z</time>
      </trkpt>
      <trkpt lat="44.76725" lon="5.46714">
        <ele>1899.4</ele>
        <time>2019-05-30T04:39:02Z</time>
      </trkpt>
      <trkpt lat="44.76729" lon="5.46714">
        <ele>1899.2</ele>
        <time>2019-05-30T04:39:05Z</time>
      </trkpt>
      <trkpt lat="44.76732" lon="5.46713">
        <ele>1898.9</ele>
        <time>2019-05-30T04:39:07Z</time>
      </trkpt>
      <trkpt lat="44.76732" lon="5.46709">
        <ele>1898.7</ele>
        <time>2019-05-30T04:39:26Z</time>
      </trkpt>
      <trkpt lat="44.76733" lon="5.46704">
        <ele>1898.4</ele>
        <time>2019-05-30T04:39:29Z</time>
      </trkpt>
      <trkpt lat="44.76734" lon="5.46699">
        <ele>1898</ele>
        <time>2019-05-30T04:39:31Z</time>
      </trkpt>
      <trkpt lat="44.76735" lon="5.46695">
        <ele>1897.7</ele>
        <time>2019-05-30T04:39:33Z</time>
      </trkpt>
      <trkpt lat="44.76736" lon="5.4669">
        <ele>1897.5</ele>
        <time>2019-05-30T04:39:35Z</time>
      </trkpt>
      <trkpt lat="44.76737" lon="5.46686">
        <ele>1897.1</ele>
        <time>2019-05-30T04:39:37Z</time>
      </trkpt>
      <trkpt lat="44.76738" lon="5.46682">
        <ele>1896.8</ele>
        <time>2019-05-30T04:39:39Z</time>
      </trkpt>
      <trkpt lat="44.76738" lon="5.46677">
        <ele>1896.6</ele>
        <time>2019-05-30T04:39:42Z</time>
      </trkpt>
      <trkpt lat="44.7674" lon="5.46673">
        <ele>1896.1</ele>
        <time>2019-05-30T04:39:45Z</time>
      </trkpt>
      <trkpt lat="44.76742" lon="5.46669">
        <ele>1895.9</ele>
        <time>2019-05-30T04:39:48Z</time>
      </trkpt>
      <trkpt lat="44.76744" lon="5.46664">
        <ele>1895.3</ele>
        <time>2019-05-30T04:39:51Z</time>
      </trkpt>
      <trkpt lat="44.76746" lon="5.46659">
        <ele>1894.8</ele>
        <time>2019-05-30T04:39:53Z</time>
      </trkpt>
      <trkpt lat="44.76747" lon="5.46654">
        <ele>1894.7</ele>
        <time>2019-05-30T04:39:55Z</time>
      </trkpt>
      <trkpt lat="44.76748" lon="5.46649">
        <ele>1894.6</ele>
        <time>2019-05-30T04:39:58Z</time>
      </trkpt>
      <trkpt lat="44.76748" lon="5.46644">
        <ele>1894.5</ele>
        <time>2019-05-30T04:40:01Z</time>
      </trkpt>
      <trkpt lat="44.76749" lon="5.46639">
        <ele>1894.5</ele>
        <time>2019-05-30T04:40:04Z</time>
      </trkpt>
      <trkpt lat="44.76747" lon="5.46635">
        <ele>1894.5</ele>
        <time>2019-05-30T04:40:07Z</time>
      </trkpt>
      <trkpt lat="44.76745" lon="5.46631">
        <ele>1894.8</ele>
        <time>2019-05-30T04:40:10Z</time>
      </trkpt>
      <trkpt lat="44.76744" lon="5.46626">
        <ele>1894.9</ele>
        <time>2019-05-30T04:40:13Z</time>
      </trkpt>
      <trkpt lat="44.76743" lon="5.46623">
        <ele>1894.9</ele>
        <time>2019-05-30T04:40:16Z</time>
      </trkpt>
      <trkpt lat="44.76741" lon="5.46619">
        <ele>1895.3</ele>
        <time>2019-05-30T04:40:20Z</time>
      </trkpt>
      <trkpt lat="44.76739" lon="5.46615">
        <ele>1895.7</ele>
        <time>2019-05-30T04:40:24Z</time>
      </trkpt>
      <trkpt lat="44.76737" lon="5.46611">
        <ele>1895.8</ele>
        <time>2019-05-30T04:40:30Z</time>
      </trkpt>
      <trkpt lat="44.76737" lon="5.46607">
        <ele>1895.9</ele>
        <time>2019-05-30T04:40:33Z</time>
      </trkpt>
      <trkpt lat="44.76738" lon="5.46603">
        <ele>1896</ele>
        <time>2019-05-30T04:40:36Z</time>
      </trkpt>
      <trkpt lat="44.76741" lon="5.46601">
        <ele>1895.7</ele>
        <time>2019-05-30T04:41:37Z</time>
      </trkpt>
      <trkpt lat="44.76742" lon="5.46597">
        <ele>1895.9</ele>
        <time>2019-05-30T04:41:42Z</time>
      </trkpt>
      <trkpt lat="44.76743" lon="5.46593">
        <ele>1895.7</ele>
        <time>2019-05-30T04:41:46Z</time>
      </trkpt>
      <trkpt lat="44.76744" lon="5.46589">
        <ele>1895.9</ele>
        <time>2019-05-30T04:41:51Z</time>
      </trkpt>
      <trkpt lat="44.76746" lon="5.46585">
        <ele>1895.7</ele>
        <time>2019-05-30T04:41:54Z</time>
      </trkpt>
      <trkpt lat="44.76746" lon="5.46581">
        <ele>1895.9</ele>
        <time>2019-05-30T04:42:01Z</time>
      </trkpt>
      <trkpt lat="44.76745" lon="5.46576">
        <ele>1896.4</ele>
        <time>2019-05-30T04:42:05Z</time>
      </trkpt>
      <trkpt lat="44.76745" lon="5.46572">
        <ele>1896.6</ele>
        <time>2019-05-30T04:42:10Z</time>
      </trkpt>
      <trkpt lat="44.76744" lon="5.46568">
        <ele>1896.8</ele>
        <time>2019-05-30T04:42:16Z</time>
      </trkpt>
      <trkpt lat="44.76745" lon="5.46564">
        <ele>1897</ele>
        <time>2019-05-30T04:42:20Z</time>
      </trkpt>
      <trkpt lat="44.76745" lon="5.46559">
        <ele>1897.2</ele>
        <time>2019-05-30T04:42:23Z</time>
      </trkpt>
      <trkpt lat="44.76746" lon="5.46555">
        <ele>1897.1</ele>
        <time>2019-05-30T04:42:29Z</time>
      </trkpt>
      <trkpt lat="44.76747" lon="5.46552">
        <ele>1897.3</ele>
        <time>2019-05-30T04:42:36Z</time>
      </trkpt>
      <trkpt lat="44.76748" lon="5.46548">
        <ele>1897.6</ele>
        <time>2019-05-30T04:42:42Z</time>
      </trkpt>
      <trkpt lat="44.7675" lon="5.46544">
        <ele>1897.4</ele>
        <time>2019-05-30T04:42:45Z</time>
      </trkpt>
      <trkpt lat="44.76751" lon="5.46541">
        <ele>1897.4</ele>
        <time>2019-05-30T04:42:53Z</time>
      </trkpt>
      <trkpt lat="44.76752" lon="5.46536">
        <ele>1897.2</ele>
        <time>2019-05-30T04:42:57Z</time>
      </trkpt>
      <trkpt lat="44.76753" lon="5.46532">
        <ele>1897.3</ele>
        <time>2019-05-30T04:43:01Z</time>
      </trkpt>
      <trkpt lat="44.76754" lon="5.46528">
        <ele>1897.4</ele>
        <time>2019-05-30T04:43:06Z</time>
      </trkpt>
      <trkpt lat="44.76756" lon="5.46524">
        <ele>1897.1</ele>
        <time>2019-05-30T04:43:10Z</time>
      </trkpt>
      <trkpt lat="44.76758" lon="5.4652">
        <ele>1896.8</ele>
        <time>2019-05-30T04:43:14Z</time>
      </trkpt>
      <trkpt lat="44.76759" lon="5.46516">
        <ele>1896.9</ele>
        <time>2019-05-30T04:43:17Z</time>
      </trkpt>
      <trkpt lat="44.76761" lon="5.46512">
        <ele>1896.9</ele>
        <time>2019-05-30T04:43:20Z</time>
      </trkpt>
      <trkpt lat="44.76762" lon="5.46508">
        <ele>1896.6</ele>
        <time>2019-05-30T04:43:23Z</time>
      </trkpt>
      <trkpt lat="44.76763" lon="5.46505">
        <ele>1896.6</ele>
        <time>2019-05-30T04:43:26Z</time>
      </trkpt>
      <trkpt lat="44.76766" lon="5.465">
        <ele>1896.2</ele>
        <time>2019-05-30T04:43:29Z</time>
      </trkpt>
      <trkpt lat="44.76767" lon="5.46497">
        <ele>1895.8</ele>
        <time>2019-05-30T04:43:31Z</time>
      </trkpt>
      <trkpt lat="44.76769" lon="5.46493">
        <ele>1895.8</ele>
        <time>2019-05-30T04:43:34Z</time>
      </trkpt>
      <trkpt lat="44.76769" lon="5.46488">
        <ele>1896</ele>
        <time>2019-05-30T04:43:38Z</time>
      </trkpt>
      <trkpt lat="44.76771" lon="5.46484">
        <ele>1895.5</ele>
        <time>2019-05-30T04:43:41Z</time>
      </trkpt>
      <trkpt lat="44.76772" lon="5.46481">
        <ele>1895.6</ele>
        <time>2019-05-30T04:43:44Z</time>
      </trkpt>
      <trkpt lat="44.76774" lon="5.46476">
        <ele>1895.2</ele>
        <time>2019-05-30T04:43:47Z</time>
      </trkpt>
      <trkpt lat="44.76777" lon="5.46473">
        <ele>1894.8</ele>
        <time>2019-05-30T04:43:50Z</time>
      </trkpt>
      <trkpt lat="44.76779" lon="5.46468">
        <ele>1894.9</ele>
        <time>2019-05-30T04:43:53Z</time>
      </trkpt>
      <trkpt lat="44.76781" lon="5.46465">
        <ele>1894.5</ele>
        <time>2019-05-30T04:43:56Z</time>
      </trkpt>
      <trkpt lat="44.76782" lon="5.46462">
        <ele>1894.1</ele>
        <time>2019-05-30T04:43:59Z</time>
      </trkpt>
      <trkpt lat="44.76782" lon="5.46457">
        <ele>1894.2</ele>
        <time>2019-05-30T04:44:02Z</time>
      </trkpt>
      <trkpt lat="44.76784" lon="5.46454">
        <ele>1894.3</ele>
        <time>2019-05-30T04:44:05Z</time>
      </trkpt>
      <trkpt lat="44.76786" lon="5.4645">
        <ele>1893.7</ele>
        <time>2019-05-30T04:44:08Z</time>
      </trkpt>
      <trkpt lat="44.76788" lon="5.46447">
        <ele>1893.9</ele>
        <time>2019-05-30T04:44:11Z</time>
      </trkpt>
      <trkpt lat="44.7679" lon="5.46444">
        <ele>1893.4</ele>
        <time>2019-05-30T04:44:15Z</time>
      </trkpt>
      <trkpt lat="44.76792" lon="5.46442">
        <ele>1892.9</ele>
        <time>2019-05-30T04:44:18Z</time>
      </trkpt>
      <trkpt lat="44.76795" lon="5.4644">
        <ele>1892.6</ele>
        <time>2019-05-30T04:44:21Z</time>
      </trkpt>
      <trkpt lat="44.76797" lon="5.46439">
        <ele>1892.6</ele>
        <time>2019-05-30T04:44:24Z</time>
      </trkpt>
      <trkpt lat="44.768" lon="5.46437">
        <ele>1892.1</ele>
        <time>2019-05-30T04:44:28Z</time>
      </trkpt>
      <trkpt lat="44.76798" lon="5.46433">
        <ele>1892.2</ele>
        <time>2019-05-30T04:44:34Z</time>
      </trkpt>
      <trkpt lat="44.76796" lon="5.4643">
        <ele>1892.8</ele>
        <time>2019-05-30T04:44:38Z</time>
      </trkpt>
      <trkpt lat="44.76796" lon="5.46425">
        <ele>1892.9</ele>
        <time>2019-05-30T04:44:42Z</time>
      </trkpt>
      <trkpt lat="44.76795" lon="5.46421">
        <ele>1893</ele>
        <time>2019-05-30T04:44:46Z</time>
      </trkpt>
      <trkpt lat="44.76795" lon="5.46417">
        <ele>1893.1</ele>
        <time>2019-05-30T04:44:49Z</time>
      </trkpt>
      <trkpt lat="44.76794" lon="5.46412">
        <ele>1893.6</ele>
        <time>2019-05-30T04:44:52Z</time>
      </trkpt>
      <trkpt lat="44.76792" lon="5.46407">
        <ele>1893.7</ele>
        <time>2019-05-30T04:44:55Z</time>
      </trkpt>
      <trkpt lat="44.76792" lon="5.46403">
        <ele>1893.9</ele>
        <time>2019-05-30T04:44:58Z</time>
      </trkpt>
      <trkpt lat="44.76791" lon="5.46399">
        <ele>1894.5</ele>
        <time>2019-05-30T04:45:01Z</time>
      </trkpt>
      <trkpt lat="44.76791" lon="5.46394">
        <ele>1894.6</ele>
        <time>2019-05-30T04:45:04Z</time>
      </trkpt>
      <trkpt lat="44.76794" lon="5.46397">
        <ele>1894.1</ele>
        <time>2019-05-30T04:45:24Z</time>
      </trkpt>
      <trkpt lat="44.76795" lon="5.46401">
        <ele>1893.5</ele>
        <time>2019-05-30T04:45:27Z</time>
      </trkpt>
      <trkpt lat="44.76797" lon="5.46403">
        <ele>1892.9</ele>
        <time>2019-05-30T04:45:30Z</time>
      </trkpt>
      <trkpt lat="44.76801" lon="5.46403">
        <ele>1892.4</ele>
        <time>2019-05-30T04:45:33Z</time>
      </trkpt>
      <trkpt lat="44.76804" lon="5.46401">
        <ele>1891.9</ele>
        <time>2019-05-30T04:45:36Z</time>
      </trkpt>
      <trkpt lat="44.76807" lon="5.464">
        <ele>1891.3</ele>
        <time>2019-05-30T04:45:39Z</time>
      </trkpt>
      <trkpt lat="44.7681" lon="5.46397">
        <ele>1890.7</ele>
        <time>2019-05-30T04:45:43Z</time>
      </trkpt>
      <trkpt lat="44.76812" lon="5.46394">
        <ele>1890.7</ele>
        <time>2019-05-30T04:45:47Z</time>
      </trkpt>
      <trkpt lat="44.76815" lon="5.46393">
        <ele>1890.2</ele>
        <time>2019-05-30T04:45:53Z</time>
      </trkpt>
      <trkpt lat="44.76816" lon="5.46389">
        <ele>1889.6</ele>
        <time>2019-05-30T04:45:58Z</time>
      </trkpt>
      <trkpt lat="44.76818" lon="5.46386">
        <ele>1889.6</ele>
        <time>2019-05-30T04:46:02Z</time>
      </trkpt>
      <trkpt lat="44.76821" lon="5.46385">
        <ele>1889</ele>
        <time>2019-05-30T04:46:07Z</time>
      </trkpt>
      <trkpt lat="44.76823" lon="5.46388">
        <ele>1888.6</ele>
        <time>2019-05-30T04:46:57Z</time>
      </trkpt>
      <trkpt lat="44.76823" lon="5.46394">
        <ele>1888.7</ele>
        <time>2019-05-30T04:49:31Z</time>
      </trkpt>
      <trkpt lat="44.76825" lon="5.46392">
        <ele>1888.1</ele>
        <time>2019-05-30T04:49:38Z</time>
      </trkpt>
      <trkpt lat="44.76824" lon="5.46386">
        <ele>1888.6</ele>
        <time>2019-05-30T04:51:06Z</time>
      </trkpt>
      <trkpt lat="44.76825" lon="5.46382">
        <ele>1888.5</ele>
        <time>2019-05-30T04:52:10Z</time>
      </trkpt>
      <trkpt lat="44.76827" lon="5.4638">
        <ele>1887.9</ele>
        <time>2019-05-30T04:52:24Z</time>
      </trkpt>
      <trkpt lat="44.7683" lon="5.46378">
        <ele>1887.3</ele>
        <time>2019-05-30T04:52:29Z</time>
      </trkpt>
      <trkpt lat="44.76832" lon="5.46375">
        <ele>1886.7</ele>
        <time>2019-05-30T04:52:32Z</time>
      </trkpt>
      <trkpt lat="44.76832" lon="5.46371">
        <ele>1886.7</ele>
        <time>2019-05-30T04:52:36Z</time>
      </trkpt>
      <trkpt lat="44.7683" lon="5.46367">
        <ele>1887.3</ele>
        <time>2019-05-30T04:52:40Z</time>
      </trkpt>
      <trkpt lat="44.76827" lon="5.46362">
        <ele>1888</ele>
        <time>2019-05-30T04:52:42Z</time>
      </trkpt>
      <trkpt lat="44.76827" lon="5.46358">
        <ele>1888.1</ele>
        <time>2019-05-30T04:52:47Z</time>
      </trkpt>
      <trkpt lat="44.76827" lon="5.46354">
        <ele>1888.1</ele>
        <time>2019-05-30T04:52:50Z</time>
      </trkpt>
      <trkpt lat="44.76828" lon="5.4635">
        <ele>1887.6</ele>
        <time>2019-05-30T04:52:52Z</time>
      </trkpt>
      <trkpt lat="44.76829" lon="5.46346">
        <ele>1887.6</ele>
        <time>2019-05-30T04:52:55Z</time>
      </trkpt>
      <trkpt lat="44.76829" lon="5.46342">
        <ele>1887.7</ele>
        <time>2019-05-30T04:52:58Z</time>
      </trkpt>
      <trkpt lat="44.76828" lon="5.46338">
        <ele>1887.7</ele>
        <time>2019-05-30T04:53:02Z</time>
      </trkpt>
      <trkpt lat="44.76826" lon="5.46333">
        <ele>1888.4</ele>
        <time>2019-05-30T04:53:05Z</time>
      </trkpt>
      <trkpt lat="44.76825" lon="5.4633">
        <ele>1888.4</ele>
        <time>2019-05-30T04:53:08Z</time>
      </trkpt>
      <trkpt lat="44.76823" lon="5.46326">
        <ele>1889.1</ele>
        <time>2019-05-30T04:53:13Z</time>
      </trkpt>
      <trkpt lat="44.76822" lon="5.46323">
        <ele>1889.7</ele>
        <time>2019-05-30T04:53:17Z</time>
      </trkpt>
      <trkpt lat="44.7682" lon="5.46319">
        <ele>1889.8</ele>
        <time>2019-05-30T04:53:21Z</time>
      </trkpt>
      <trkpt lat="44.76818" lon="5.46317">
        <ele>1890.3</ele>
        <time>2019-05-30T04:53:25Z</time>
      </trkpt>
      <trkpt lat="44.76815" lon="5.46317">
        <ele>1890.8</ele>
        <time>2019-05-30T04:53:30Z</time>
      </trkpt>
      <trkpt lat="44.76811" lon="5.46317">
        <ele>1891.4</ele>
        <time>2019-05-30T04:53:33Z</time>
      </trkpt>
      <trkpt lat="44.76808" lon="5.46316">
        <ele>1892</ele>
        <time>2019-05-30T04:53:36Z</time>
      </trkpt>
      <trkpt lat="44.76804" lon="5.46314">
        <ele>1892.6</ele>
        <time>2019-05-30T04:53:39Z</time>
      </trkpt>
      <trkpt lat="44.76801" lon="5.46313">
        <ele>1893.2</ele>
        <time>2019-05-30T04:53:42Z</time>
      </trkpt>
      <trkpt lat="44.76799" lon="5.4631">
        <ele>1893.7</ele>
        <time>2019-05-30T04:53:45Z</time>
      </trkpt>
      <trkpt lat="44.76796" lon="5.46307">
        <ele>1894.2</ele>
        <time>2019-05-30T04:53:47Z</time>
      </trkpt>
      <trkpt lat="44.76794" lon="5.46304">
        <ele>1894.6</ele>
        <time>2019-05-30T04:53:49Z</time>
      </trkpt>
      <trkpt lat="44.76793" lon="5.463">
        <ele>1894.6</ele>
        <time>2019-05-30T04:53:52Z</time>
      </trkpt>
      <trkpt lat="44.76792" lon="5.46296">
        <ele>1894.6</ele>
        <time>2019-05-30T04:53:55Z</time>
      </trkpt>
      <trkpt lat="44.76791" lon="5.46292">
        <ele>1895.1</ele>
        <time>2019-05-30T04:53:58Z</time>
      </trkpt>
      <trkpt lat="44.76791" lon="5.46288">
        <ele>1894.6</ele>
        <time>2019-05-30T04:54:02Z</time>
      </trkpt>
      <trkpt lat="44.76793" lon="5.46284">
        <ele>1894.6</ele>
        <time>2019-05-30T04:54:05Z</time>
      </trkpt>
      <trkpt lat="44.76794" lon="5.46279">
        <ele>1894.6</ele>
        <time>2019-05-30T04:54:08Z</time>
      </trkpt>
      <trkpt lat="44.76795" lon="5.46274">
        <ele>1894.2</ele>
        <time>2019-05-30T04:54:11Z</time>
      </trkpt>
      <trkpt lat="44.76793" lon="5.46269">
        <ele>1894.6</ele>
        <time>2019-05-30T04:54:14Z</time>
      </trkpt>
      <trkpt lat="44.76791" lon="5.46264">
        <ele>1895</ele>
        <time>2019-05-30T04:54:17Z</time>
      </trkpt>
      <trkpt lat="44.7679" lon="5.4626">
        <ele>1895</ele>
        <time>2019-05-30T04:54:19Z</time>
      </trkpt>
      <trkpt lat="44.76789" lon="5.46256">
        <ele>1895.1</ele>
        <time>2019-05-30T04:54:22Z</time>
      </trkpt>
      <trkpt lat="44.76789" lon="5.46252">
        <ele>1895.2</ele>
        <time>2019-05-30T04:54:25Z</time>
      </trkpt>
      <trkpt lat="44.76789" lon="5.46248">
        <ele>1895.2</ele>
        <time>2019-05-30T04:54:28Z</time>
      </trkpt>
      <trkpt lat="44.76789" lon="5.46242">
        <ele>1895.3</ele>
        <time>2019-05-30T04:54:31Z</time>
      </trkpt>
      <trkpt lat="44.76789" lon="5.46238">
        <ele>1895.5</ele>
        <time>2019-05-30T04:54:34Z</time>
      </trkpt>
      <trkpt lat="44.76788" lon="5.46233">
        <ele>1896</ele>
        <time>2019-05-30T04:54:37Z</time>
      </trkpt>
      <trkpt lat="44.76788" lon="5.46228">
        <ele>1896.2</ele>
        <time>2019-05-30T04:54:40Z</time>
      </trkpt>
      <trkpt lat="44.76788" lon="5.46222">
        <ele>1896.3</ele>
        <time>2019-05-30T04:54:43Z</time>
      </trkpt>
      <trkpt lat="44.76787" lon="5.46219">
        <ele>1896.4</ele>
        <time>2019-05-30T04:54:45Z</time>
      </trkpt>
      <trkpt lat="44.76786" lon="5.46213">
        <ele>1896.7</ele>
        <time>2019-05-30T04:54:48Z</time>
      </trkpt>
      <trkpt lat="44.76785" lon="5.46209">
        <ele>1896.9</ele>
        <time>2019-05-30T04:54:50Z</time>
      </trkpt>
      <trkpt lat="44.76784" lon="5.46204">
        <ele>1897.6</ele>
        <time>2019-05-30T04:54:53Z</time>
      </trkpt>
      <trkpt lat="44.76784" lon="5.462">
        <ele>1897.8</ele>
        <time>2019-05-30T04:54:55Z</time>
      </trkpt>
      <trkpt lat="44.76784" lon="5.46195">
        <ele>1898</ele>
        <time>2019-05-30T04:54:58Z</time>
      </trkpt>
      <trkpt lat="44.76783" lon="5.46191">
        <ele>1898.2</ele>
        <time>2019-05-30T04:55:01Z</time>
      </trkpt>
      <trkpt lat="44.76781" lon="5.46187">
        <ele>1898.9</ele>
        <time>2019-05-30T04:55:04Z</time>
      </trkpt>
      <trkpt lat="44.7678" lon="5.46183">
        <ele>1899.1</ele>
        <time>2019-05-30T04:55:07Z</time>
      </trkpt>
      <trkpt lat="44.76778" lon="5.4618">
        <ele>1899.6</ele>
        <time>2019-05-30T04:55:10Z</time>
      </trkpt>
      <trkpt lat="44.76776" lon="5.46175">
        <ele>1899.8</ele>
        <time>2019-05-30T04:55:13Z</time>
      </trkpt>
      <trkpt lat="44.76775" lon="5.46171">
        <ele>1900.4</ele>
        <time>2019-05-30T04:55:16Z</time>
      </trkpt>
      <trkpt lat="44.76774" lon="5.46167">
        <ele>1900.7</ele>
        <time>2019-05-30T04:55:19Z</time>
      </trkpt>
      <trkpt lat="44.76772" lon="5.46164">
        <ele>1901.3</ele>
        <time>2019-05-30T04:55:22Z</time>
      </trkpt>
      <trkpt lat="44.7677" lon="5.4616">
        <ele>1902</ele>
        <time>2019-05-30T04:55:25Z</time>
      </trkpt>
      <trkpt lat="44.76767" lon="5.46158">
        <ele>1902.4</ele>
        <time>2019-05-30T04:55:29Z</time>
      </trkpt>
      <trkpt lat="44.76764" lon="5.46155">
        <ele>1902.7</ele>
        <time>2019-05-30T04:55:32Z</time>
      </trkpt>
      <trkpt lat="44.76762" lon="5.46153">
        <ele>1903.3</ele>
        <time>2019-05-30T04:55:35Z</time>
      </trkpt>
      <trkpt lat="44.7676" lon="5.46149">
        <ele>1904</ele>
        <time>2019-05-30T04:55:39Z</time>
      </trkpt>
      <trkpt lat="44.76758" lon="5.46146">
        <ele>1904.4</ele>
        <time>2019-05-30T04:55:43Z</time>
      </trkpt>
      <trkpt lat="44.76755" lon="5.46143">
        <ele>1904.7</ele>
        <time>2019-05-30T04:55:47Z</time>
      </trkpt>
      <trkpt lat="44.76753" lon="5.4614">
        <ele>1905.4</ele>
        <time>2019-05-30T04:55:50Z</time>
      </trkpt>
      <trkpt lat="44.76752" lon="5.46136">
        <ele>1905.7</ele>
        <time>2019-05-30T04:55:54Z</time>
      </trkpt>
      <trkpt lat="44.76754" lon="5.46133">
        <ele>1905.7</ele>
        <time>2019-05-30T04:55:58Z</time>
      </trkpt>
      <trkpt lat="44.76757" lon="5.46134">
        <ele>1905.3</ele>
        <time>2019-05-30T04:56:02Z</time>
      </trkpt>
      <trkpt lat="44.7676" lon="5.46135">
        <ele>1904.8</ele>
        <time>2019-05-30T04:56:06Z</time>
      </trkpt>
      <trkpt lat="44.76763" lon="5.46134">
        <ele>1904.3</ele>
        <time>2019-05-30T04:56:10Z</time>
      </trkpt>
      <trkpt lat="44.76766" lon="5.46135">
        <ele>1903.9</ele>
        <time>2019-05-30T04:56:13Z</time>
      </trkpt>
      <trkpt lat="44.7677" lon="5.46136">
        <ele>1903.5</ele>
        <time>2019-05-30T04:56:17Z</time>
      </trkpt>
      <trkpt lat="44.76773" lon="5.46135">
        <ele>1903.2</ele>
        <time>2019-05-30T04:56:20Z</time>
      </trkpt>
      <trkpt lat="44.76777" lon="5.46135">
        <ele>1902.9</ele>
        <time>2019-05-30T04:56:23Z</time>
      </trkpt>
      <trkpt lat="44.76781" lon="5.46135">
        <ele>1902.7</ele>
        <time>2019-05-30T04:56:26Z</time>
      </trkpt>
      <trkpt lat="44.76784" lon="5.46134">
        <ele>1902.4</ele>
        <time>2019-05-30T04:56:29Z</time>
      </trkpt>
      <trkpt lat="44.76787" lon="5.46135">
        <ele>1902</ele>
        <time>2019-05-30T04:56:32Z</time>
      </trkpt>
      <trkpt lat="44.76791" lon="5.46135">
        <ele>1901.7</ele>
        <time>2019-05-30T04:56:36Z</time>
      </trkpt>
      <trkpt lat="44.76794" lon="5.46135">
        <ele>1901.5</ele>
        <time>2019-05-30T04:56:39Z</time>
      </trkpt>
      <trkpt lat="44.76797" lon="5.46134">
        <ele>1901.2</ele>
        <time>2019-05-30T04:56:42Z</time>
      </trkpt>
      <trkpt lat="44.768" lon="5.46134">
        <ele>1900.8</ele>
        <time>2019-05-30T04:56:44Z</time>
      </trkpt>
      <trkpt lat="44.76803" lon="5.46133">
        <ele>1900.5</ele>
        <time>2019-05-30T04:56:46Z</time>
      </trkpt>
      <trkpt lat="44.76806" lon="5.46133">
        <ele>1900.1</ele>
        <time>2019-05-30T04:56:49Z</time>
      </trkpt>
      <trkpt lat="44.76809" lon="5.46134">
        <ele>1899.9</ele>
        <time>2019-05-30T04:56:52Z</time>
      </trkpt>
      <trkpt lat="44.76812" lon="5.46134">
        <ele>1899.7</ele>
        <time>2019-05-30T04:56:55Z</time>
      </trkpt>
      <trkpt lat="44.76816" lon="5.46133">
        <ele>1899.5</ele>
        <time>2019-05-30T04:56:58Z</time>
      </trkpt>
      <trkpt lat="44.76819" lon="5.46133">
        <ele>1899.4</ele>
        <time>2019-05-30T04:57:00Z</time>
      </trkpt>
      <trkpt lat="44.76823" lon="5.46133">
        <ele>1899.2</ele>
        <time>2019-05-30T04:57:02Z</time>
      </trkpt>
      <trkpt lat="44.76826" lon="5.46133">
        <ele>1899.1</ele>
        <time>2019-05-30T04:57:04Z</time>
      </trkpt>
      <trkpt lat="44.7683" lon="5.46134">
        <ele>1899</ele>
        <time>2019-05-30T04:57:06Z</time>
      </trkpt>
      <trkpt lat="44.76835" lon="5.46134">
        <ele>1898.8</ele>
        <time>2019-05-30T04:57:08Z</time>
      </trkpt>
      <trkpt lat="44.76839" lon="5.46134">
        <ele>1898.7</ele>
        <time>2019-05-30T04:57:10Z</time>
      </trkpt>
      <trkpt lat="44.76842" lon="5.46134">
        <ele>1898.6</ele>
        <time>2019-05-30T04:57:12Z</time>
      </trkpt>
      <trkpt lat="44.76845" lon="5.46134">
        <ele>1898.6</ele>
        <time>2019-05-30T04:57:14Z</time>
      </trkpt>
      <trkpt lat="44.76848" lon="5.46135">
        <ele>1898.5</ele>
        <time>2019-05-30T04:57:17Z</time>
      </trkpt>
      <trkpt lat="44.76851" lon="5.46135">
        <ele>1898.5</ele>
        <time>2019-05-30T04:57:20Z</time>
      </trkpt>
      <trkpt lat="44.76855" lon="5.46135">
        <ele>1898.4</ele>
        <time>2019-05-30T04:57:23Z</time>
      </trkpt>
      <trkpt lat="44.76858" lon="5.46135">
        <ele>1898.3</ele>
        <time>2019-05-30T04:57:26Z</time>
      </trkpt>
      <trkpt lat="44.76862" lon="5.46136">
        <ele>1898.2</ele>
        <time>2019-05-30T04:57:29Z</time>
      </trkpt>
      <trkpt lat="44.76866" lon="5.46136">
        <ele>1898.1</ele>
        <time>2019-05-30T04:57:32Z</time>
      </trkpt>
      <trkpt lat="44.76869" lon="5.46137">
        <ele>1898</ele>
        <time>2019-05-30T04:57:34Z</time>
      </trkpt>
      <trkpt lat="44.76872" lon="5.46138">
        <ele>1897.7</ele>
        <time>2019-05-30T04:57:36Z</time>
      </trkpt>
      <trkpt lat="44.76875" lon="5.4614">
        <ele>1897.3</ele>
        <time>2019-05-30T04:57:38Z</time>
      </trkpt>
      <trkpt lat="44.76878" lon="5.46142">
        <ele>1896.8</ele>
        <time>2019-05-30T04:57:41Z</time>
      </trkpt>
      <trkpt lat="44.76881" lon="5.46143">
        <ele>1896.8</ele>
        <time>2019-05-30T04:57:43Z</time>
      </trkpt>
      <trkpt lat="44.76884" lon="5.46144">
        <ele>1896.7</ele>
        <time>2019-05-30T04:57:46Z</time>
      </trkpt>
      <trkpt lat="44.76888" lon="5.46145">
        <ele>1896.6</ele>
        <time>2019-05-30T04:57:49Z</time>
      </trkpt>
      <trkpt lat="44.7689" lon="5.46145">
        <ele>1896.5</ele>
        <time>2019-05-30T04:57:51Z</time>
      </trkpt>
      <trkpt lat="44.76893" lon="5.46146">
        <ele>1896.4</ele>
        <time>2019-05-30T04:57:53Z</time>
      </trkpt>
      <trkpt lat="44.76897" lon="5.46147">
        <ele>1896</ele>
        <time>2019-05-30T04:57:56Z</time>
      </trkpt>
      <trkpt lat="44.76901" lon="5.46148">
        <ele>1895.5</ele>
        <time>2019-05-30T04:57:59Z</time>
      </trkpt>
      <trkpt lat="44.76904" lon="5.46148">
        <ele>1895</ele>
        <time>2019-05-30T04:58:02Z</time>
      </trkpt>
      <trkpt lat="44.76907" lon="5.46147">
        <ele>1894.8</ele>
        <time>2019-05-30T04:58:05Z</time>
      </trkpt>
      <trkpt lat="44.76911" lon="5.46147">
        <ele>1894.6</ele>
        <time>2019-05-30T04:58:08Z</time>
      </trkpt>
      <trkpt lat="44.76914" lon="5.46146">
        <ele>1894.5</ele>
        <time>2019-05-30T04:58:11Z</time>
      </trkpt>
      <trkpt lat="44.76917" lon="5.46145">
        <ele>1894.3</ele>
        <time>2019-05-30T04:58:14Z</time>
      </trkpt>
      <trkpt lat="44.76921" lon="5.46144">
        <ele>1894.2</ele>
        <time>2019-05-30T04:58:17Z</time>
      </trkpt>
      <trkpt lat="44.76924" lon="5.46145">
        <ele>1894</ele>
        <time>2019-05-30T04:58:20Z</time>
      </trkpt>
      <trkpt lat="44.76927" lon="5.46145">
        <ele>1893.8</ele>
        <time>2019-05-30T04:58:23Z</time>
      </trkpt>
      <trkpt lat="44.7693" lon="5.46146">
        <ele>1893.5</ele>
        <time>2019-05-30T04:58:26Z</time>
      </trkpt>
      <trkpt lat="44.76932" lon="5.46148">
        <ele>1893.3</ele>
        <time>2019-05-30T04:58:31Z</time>
      </trkpt>
      <trkpt lat="44.76936" lon="5.46148">
        <ele>1893.1</ele>
        <time>2019-05-30T04:58:37Z</time>
      </trkpt>
      <trkpt lat="44.76939" lon="5.46148">
        <ele>1892.9</ele>
        <time>2019-05-30T04:58:41Z</time>
      </trkpt>
      <trkpt lat="44.76942" lon="5.46146">
        <ele>1892.7</ele>
        <time>2019-05-30T04:58:44Z</time>
      </trkpt>
      <trkpt lat="44.76945" lon="5.46144">
        <ele>1892.6</ele>
        <time>2019-05-30T04:58:47Z</time>
      </trkpt>
      <trkpt lat="44.76948" lon="5.46145">
        <ele>1892.4</ele>
        <time>2019-05-30T04:58:51Z</time>
      </trkpt>
      <trkpt lat="44.76951" lon="5.46144">
        <ele>1892.7</ele>
        <time>2019-05-30T04:58:56Z</time>
      </trkpt>
      <trkpt lat="44.76954" lon="5.46144">
        <ele>1892.9</ele>
        <time>2019-05-30T04:59:00Z</time>
      </trkpt>
      <trkpt lat="44.76957" lon="5.46144">
        <ele>1893</ele>
        <time>2019-05-30T04:59:03Z</time>
      </trkpt>
      <trkpt lat="44.7696" lon="5.46144">
        <ele>1892.7</ele>
        <time>2019-05-30T04:59:06Z</time>
      </trkpt>
      <trkpt lat="44.76963" lon="5.46143">
        <ele>1892.5</ele>
        <time>2019-05-30T04:59:09Z</time>
      </trkpt>
      <trkpt lat="44.76967" lon="5.46143">
        <ele>1892.3</ele>
        <time>2019-05-30T04:59:12Z</time>
      </trkpt>
      <trkpt lat="44.7697" lon="5.46142">
        <ele>1892.1</ele>
        <time>2019-05-30T04:59:15Z</time>
      </trkpt>
      <trkpt lat="44.76973" lon="5.46141">
        <ele>1891.8</ele>
        <time>2019-05-30T04:59:18Z</time>
      </trkpt>
      <trkpt lat="44.76976" lon="5.46139">
        <ele>1891.5</ele>
        <time>2019-05-30T04:59:21Z</time>
      </trkpt>
      <trkpt lat="44.7698" lon="5.46136">
        <ele>1891.1</ele>
        <time>2019-05-30T04:59:24Z</time>
      </trkpt>
      <trkpt lat="44.76982" lon="5.46134">
        <ele>1891.1</ele>
        <time>2019-05-30T04:59:27Z</time>
      </trkpt>
      <trkpt lat="44.76986" lon="5.46133">
        <ele>1891.3</ele>
        <time>2019-05-30T04:59:31Z</time>
      </trkpt>
      <trkpt lat="44.76988" lon="5.46132">
        <ele>1891.5</ele>
        <time>2019-05-30T04:59:34Z</time>
      </trkpt>
      <trkpt lat="44.76992" lon="5.4613">
        <ele>1891.3</ele>
        <time>2019-05-30T04:59:37Z</time>
      </trkpt>
      <trkpt lat="44.76996" lon="5.46128">
        <ele>1890.9</ele>
        <time>2019-05-30T04:59:40Z</time>
      </trkpt>
      <trkpt lat="44.76998" lon="5.46126">
        <ele>1890.9</ele>
        <time>2019-05-30T04:59:42Z</time>
      </trkpt>
      <trkpt lat="44.77" lon="5.46123">
        <ele>1891.4</ele>
        <time>2019-05-30T04:59:44Z</time>
      </trkpt>
      <trkpt lat="44.77003" lon="5.4612">
        <ele>1892.1</ele>
        <time>2019-05-30T04:59:47Z</time>
      </trkpt>
      <trkpt lat="44.77006" lon="5.46117">
        <ele>1892.5</ele>
        <time>2019-05-30T04:59:50Z</time>
      </trkpt>
      <trkpt lat="44.77008" lon="5.46114">
        <ele>1892.7</ele>
        <time>2019-05-30T04:59:53Z</time>
      </trkpt>
      <trkpt lat="44.77011" lon="5.46112">
        <ele>1893</ele>
        <time>2019-05-30T04:59:56Z</time>
      </trkpt>
      <trkpt lat="44.77014" lon="5.46109">
        <ele>1893.4</ele>
        <time>2019-05-30T04:59:59Z</time>
      </trkpt>
      <trkpt lat="44.77016" lon="5.46107">
        <ele>1893.9</ele>
        <time>2019-05-30T05:00:01Z</time>
      </trkpt>
      <trkpt lat="44.77019" lon="5.46104">
        <ele>1894.6</ele>
        <time>2019-05-30T05:00:04Z</time>
      </trkpt>
      <trkpt lat="44.77022" lon="5.46101">
        <ele>1894.8</ele>
        <time>2019-05-30T05:00:07Z</time>
      </trkpt>
      <trkpt lat="44.77025" lon="5.46099">
        <ele>1895</ele>
        <time>2019-05-30T05:00:10Z</time>
      </trkpt>
      <trkpt lat="44.77028" lon="5.46099">
        <ele>1895.1</ele>
        <time>2019-05-30T05:00:13Z</time>
      </trkpt>
      <trkpt lat="44.77031" lon="5.46096">
        <ele>1895.7</ele>
        <time>2019-05-30T05:00:16Z</time>
      </trkpt>
      <trkpt lat="44.77035" lon="5.46094">
        <ele>1896.4</ele>
        <time>2019-05-30T05:00:19Z</time>
      </trkpt>
      <trkpt lat="44.77038" lon="5.46092">
        <ele>1896.9</ele>
        <time>2019-05-30T05:00:21Z</time>
      </trkpt>
      <trkpt lat="44.7704" lon="5.4609">
        <ele>1897.2</ele>
        <time>2019-05-30T05:00:23Z</time>
      </trkpt>
      <trkpt lat="44.77043" lon="5.46087">
        <ele>1897.5</ele>
        <time>2019-05-30T05:00:26Z</time>
      </trkpt>
      <trkpt lat="44.77046" lon="5.46084">
        <ele>1898.1</ele>
        <time>2019-05-30T05:00:29Z</time>
      </trkpt>
      <trkpt lat="44.77049" lon="5.46082">
        <ele>1898.7</ele>
        <time>2019-05-30T05:00:32Z</time>
      </trkpt>
      <trkpt lat="44.77052" lon="5.46083">
        <ele>1899.4</ele>
        <time>2019-05-30T05:00:36Z</time>
      </trkpt>
      <trkpt lat="44.77055" lon="5.46081">
        <ele>1900.2</ele>
        <time>2019-05-30T05:00:40Z</time>
      </trkpt>
      <trkpt lat="44.77057" lon="5.46077">
        <ele>1900.9</ele>
        <time>2019-05-30T05:00:44Z</time>
      </trkpt>
      <trkpt lat="44.77058" lon="5.46073">
        <ele>1901.5</ele>
        <time>2019-05-30T05:00:49Z</time>
      </trkpt>
      <trkpt lat="44.77062" lon="5.46067">
        <ele>1901.2</ele>
        <time>2019-05-30T05:02:42Z</time>
      </trkpt>
      <trkpt lat="44.77065" lon="5.46069">
        <ele>1901.5</ele>
        <time>2019-05-30T05:02:46Z</time>
      </trkpt>
      <trkpt lat="44.77065" lon="5.46073">
        <ele>1901.9</ele>
        <time>2019-05-30T05:02:49Z</time>
      </trkpt>
      <trkpt lat="44.77064" lon="5.46077">
        <ele>1902</ele>
        <time>2019-05-30T05:02:54Z</time>
      </trkpt>
      <trkpt lat="44.77065" lon="5.46081">
        <ele>1902</ele>
        <time>2019-05-30T05:03:50Z</time>
      </trkpt>
      <trkpt lat="44.77069" lon="5.46082">
        <ele>1901.9</ele>
        <time>2019-05-30T05:04:06Z</time>
      </trkpt>
      <trkpt lat="44.77071" lon="5.46085">
        <ele>1901.7</ele>
        <time>2019-05-30T05:04:09Z</time>
      </trkpt>
      <trkpt lat="44.77071" lon="5.46089">
        <ele>1901.5</ele>
        <time>2019-05-30T05:04:14Z</time>
      </trkpt>
      <trkpt lat="44.77073" lon="5.46093">
        <ele>1901.7</ele>
        <time>2019-05-30T05:04:17Z</time>
      </trkpt>
      <trkpt lat="44.77075" lon="5.46096">
        <ele>1902</ele>
        <time>2019-05-30T05:04:20Z</time>
      </trkpt>
      <trkpt lat="44.77077" lon="5.461">
        <ele>1902.1</ele>
        <time>2019-05-30T05:04:24Z</time>
      </trkpt>
      <trkpt lat="44.77079" lon="5.46103">
        <ele>1902.2</ele>
        <time>2019-05-30T05:04:27Z</time>
      </trkpt>
      <trkpt lat="44.7708" lon="5.46108">
        <ele>1902.3</ele>
        <time>2019-05-30T05:04:31Z</time>
      </trkpt>
      <trkpt lat="44.77082" lon="5.46111">
        <ele>1902.8</ele>
        <time>2019-05-30T05:04:34Z</time>
      </trkpt>
      <trkpt lat="44.77083" lon="5.46115">
        <ele>1903.3</ele>
        <time>2019-05-30T05:04:36Z</time>
      </trkpt>
      <trkpt lat="44.77085" lon="5.46119">
        <ele>1903.4</ele>
        <time>2019-05-30T05:04:40Z</time>
      </trkpt>
      <trkpt lat="44.77085" lon="5.46123">
        <ele>1902.8</ele>
        <time>2019-05-30T05:04:43Z</time>
      </trkpt>
      <trkpt lat="44.77085" lon="5.46129">
        <ele>1902</ele>
        <time>2019-05-30T05:04:46Z</time>
      </trkpt>
      <trkpt lat="44.77085" lon="5.46134">
        <ele>1901.7</ele>
        <time>2019-05-30T05:04:48Z</time>
      </trkpt>
      <trkpt lat="44.77085" lon="5.46141">
        <ele>1901.5</ele>
        <time>2019-05-30T05:04:50Z</time>
      </trkpt>
      <trkpt lat="44.77085" lon="5.46147">
        <ele>1901.2</ele>
        <time>2019-05-30T05:04:52Z</time>
      </trkpt>
      <trkpt lat="44.77085" lon="5.46152">
        <ele>1900.8</ele>
        <time>2019-05-30T05:04:54Z</time>
      </trkpt>
      <trkpt lat="44.77085" lon="5.46156">
        <ele>1900.4</ele>
        <time>2019-05-30T05:04:56Z</time>
      </trkpt>
      <trkpt lat="44.77085" lon="5.4616">
        <ele>1900.1</ele>
        <time>2019-05-30T05:04:58Z</time>
      </trkpt>
      <trkpt lat="44.77085" lon="5.46165">
        <ele>1899.7</ele>
        <time>2019-05-30T05:05:01Z</time>
      </trkpt>
      <trkpt lat="44.77085" lon="5.4617">
        <ele>1899.3</ele>
        <time>2019-05-30T05:05:05Z</time>
      </trkpt>
      <trkpt lat="44.77086" lon="5.46175">
        <ele>1898.9</ele>
        <time>2019-05-30T05:05:08Z</time>
      </trkpt>
      <trkpt lat="44.77087" lon="5.4618">
        <ele>1898.4</ele>
        <time>2019-05-30T05:05:11Z</time>
      </trkpt>
      <trkpt lat="44.77087" lon="5.46185">
        <ele>1898.2</ele>
        <time>2019-05-30T05:05:14Z</time>
      </trkpt>
      <trkpt lat="44.77088" lon="5.46189">
        <ele>1898</ele>
        <time>2019-05-30T05:05:17Z</time>
      </trkpt>
      <trkpt lat="44.77089" lon="5.46194">
        <ele>1897.8</ele>
        <time>2019-05-30T05:05:21Z</time>
      </trkpt>
      <trkpt lat="44.7709" lon="5.46198">
        <ele>1897.4</ele>
        <time>2019-05-30T05:05:24Z</time>
      </trkpt>
      <trkpt lat="44.77092" lon="5.46202">
        <ele>1897</ele>
        <time>2019-05-30T05:05:27Z</time>
      </trkpt>
      <trkpt lat="44.77094" lon="5.46206">
        <ele>1896.5</ele>
        <time>2019-05-30T05:05:31Z</time>
      </trkpt>
      <trkpt lat="44.77096" lon="5.46209">
        <ele>1895.9</ele>
        <time>2019-05-30T05:05:34Z</time>
      </trkpt>
      <trkpt lat="44.77096" lon="5.46214">
        <ele>1895.2</ele>
        <time>2019-05-30T05:05:37Z</time>
      </trkpt>
      <trkpt lat="44.77097" lon="5.46218">
        <ele>1894.5</ele>
        <time>2019-05-30T05:05:40Z</time>
      </trkpt>
      <trkpt lat="44.77098" lon="5.46223">
        <ele>1894.3</ele>
        <time>2019-05-30T05:05:43Z</time>
      </trkpt>
      <trkpt lat="44.771" lon="5.46227">
        <ele>1894.1</ele>
        <time>2019-05-30T05:05:45Z</time>
      </trkpt>
      <trkpt lat="44.77101" lon="5.4623">
        <ele>1894</ele>
        <time>2019-05-30T05:05:47Z</time>
      </trkpt>
      <trkpt lat="44.77102" lon="5.46234">
        <ele>1893.6</ele>
        <time>2019-05-30T05:05:49Z</time>
      </trkpt>
      <trkpt lat="44.77104" lon="5.46238">
        <ele>1893</ele>
        <time>2019-05-30T05:05:52Z</time>
      </trkpt>
      <trkpt lat="44.77106" lon="5.46242">
        <ele>1892.6</ele>
        <time>2019-05-30T05:05:54Z</time>
      </trkpt>
      <trkpt lat="44.77107" lon="5.46245">
        <ele>1892.1</ele>
        <time>2019-05-30T05:05:56Z</time>
      </trkpt>
      <trkpt lat="44.77108" lon="5.4625">
        <ele>1891.7</ele>
        <time>2019-05-30T05:05:58Z</time>
      </trkpt>
      <trkpt lat="44.77109" lon="5.46253">
        <ele>1891.3</ele>
        <time>2019-05-30T05:06:00Z</time>
      </trkpt>
      <trkpt lat="44.7711" lon="5.46257">
        <ele>1890.9</ele>
        <time>2019-05-30T05:06:02Z</time>
      </trkpt>
      <trkpt lat="44.77111" lon="5.46261">
        <ele>1890.6</ele>
        <time>2019-05-30T05:06:04Z</time>
      </trkpt>
      <trkpt lat="44.77112" lon="5.46266">
        <ele>1890.1</ele>
        <time>2019-05-30T05:06:07Z</time>
      </trkpt>
      <trkpt lat="44.77113" lon="5.4627">
        <ele>1889.9</ele>
        <time>2019-05-30T05:06:10Z</time>
      </trkpt>
      <trkpt lat="44.77114" lon="5.46274">
        <ele>1889.8</ele>
        <time>2019-05-30T05:06:13Z</time>
      </trkpt>
      <trkpt lat="44.77116" lon="5.46278">
        <ele>1889.6</ele>
        <time>2019-05-30T05:06:16Z</time>
      </trkpt>
      <trkpt lat="44.77117" lon="5.46282">
        <ele>1889.3</ele>
        <time>2019-05-30T05:06:18Z</time>
      </trkpt>
      <trkpt lat="44.7712" lon="5.46286">
        <ele>1888.8</ele>
        <time>2019-05-30T05:06:21Z</time>
      </trkpt>
      <trkpt lat="44.77121" lon="5.46291">
        <ele>1888.3</ele>
        <time>2019-05-30T05:06:24Z</time>
      </trkpt>
      <trkpt lat="44.77123" lon="5.46294">
        <ele>1887.8</ele>
        <time>2019-05-30T05:06:26Z</time>
      </trkpt>
      <trkpt lat="44.77126" lon="5.46297">
        <ele>1887.2</ele>
        <time>2019-05-30T05:06:29Z</time>
      </trkpt>
      <trkpt lat="44.77127" lon="5.46301">
        <ele>1886.8</ele>
        <time>2019-05-30T05:06:32Z</time>
      </trkpt>
      <trkpt lat="44.77128" lon="5.46305">
        <ele>1886.6</ele>
        <time>2019-05-30T05:06:35Z</time>
      </trkpt>
      <trkpt lat="44.77129" lon="5.4631">
        <ele>1886.4</ele>
        <time>2019-05-30T05:06:38Z</time>
      </trkpt>
      <trkpt lat="44.77129" lon="5.46314">
        <ele>1886.2</ele>
        <time>2019-05-30T05:06:40Z</time>
      </trkpt>
      <trkpt lat="44.7713" lon="5.46318">
        <ele>1885.8</ele>
        <time>2019-05-30T05:06:43Z</time>
      </trkpt>
      <trkpt lat="44.7713" lon="5.46323">
        <ele>1885.4</ele>
        <time>2019-05-30T05:06:45Z</time>
      </trkpt>
      <trkpt lat="44.77131" lon="5.46326">
        <ele>1885.1</ele>
        <time>2019-05-30T05:06:47Z</time>
      </trkpt>
      <trkpt lat="44.77133" lon="5.46331">
        <ele>1884.7</ele>
        <time>2019-05-30T05:06:50Z</time>
      </trkpt>
      <trkpt lat="44.77134" lon="5.46335">
        <ele>1884.4</ele>
        <time>2019-05-30T05:06:53Z</time>
      </trkpt>
      <trkpt lat="44.77135" lon="5.46339">
        <ele>1884.1</ele>
        <time>2019-05-30T05:06:56Z</time>
      </trkpt>
      <trkpt lat="44.77137" lon="5.46342">
        <ele>1883.9</ele>
        <time>2019-05-30T05:06:59Z</time>
      </trkpt>
      <trkpt lat="44.77139" lon="5.46345">
        <ele>1883.6</ele>
        <time>2019-05-30T05:07:02Z</time>
      </trkpt>
      <trkpt lat="44.7714" lon="5.46349">
        <ele>1883.4</ele>
        <time>2019-05-30T05:07:05Z</time>
      </trkpt>
      <trkpt lat="44.7714" lon="5.46353">
        <ele>1883.4</ele>
        <time>2019-05-30T05:07:09Z</time>
      </trkpt>
      <trkpt lat="44.77142" lon="5.46356">
        <ele>1883.3</ele>
        <time>2019-05-30T05:07:13Z</time>
      </trkpt>
      <trkpt lat="44.77144" lon="5.46359">
        <ele>1883.2</ele>
        <time>2019-05-30T05:07:15Z</time>
      </trkpt>
      <trkpt lat="44.77144" lon="5.46363">
        <ele>1883.1</ele>
        <time>2019-05-30T05:07:23Z</time>
      </trkpt>
      <trkpt lat="44.77144" lon="5.46367">
        <ele>1882.9</ele>
        <time>2019-05-30T05:07:26Z</time>
      </trkpt>
      <trkpt lat="44.77145" lon="5.46371">
        <ele>1882.8</ele>
        <time>2019-05-30T05:07:30Z</time>
      </trkpt>
      <trkpt lat="44.77148" lon="5.46373">
        <ele>1882.5</ele>
        <time>2019-05-30T05:07:34Z</time>
      </trkpt>
      <trkpt lat="44.77149" lon="5.46376">
        <ele>1882.3</ele>
        <time>2019-05-30T05:07:37Z</time>
      </trkpt>
      <trkpt lat="44.77151" lon="5.46379">
        <ele>1882.1</ele>
        <time>2019-05-30T05:07:42Z</time>
      </trkpt>
      <trkpt lat="44.7715" lon="5.46383">
        <ele>1882</ele>
        <time>2019-05-30T05:07:52Z</time>
      </trkpt>
      <trkpt lat="44.77149" lon="5.46388">
        <ele>1882</ele>
        <time>2019-05-30T05:07:56Z</time>
      </trkpt>
      <trkpt lat="44.7715" lon="5.46392">
        <ele>1881.9</ele>
        <time>2019-05-30T05:07:59Z</time>
      </trkpt>
      <trkpt lat="44.7715" lon="5.46397">
        <ele>1881.8</ele>
        <time>2019-05-30T05:08:02Z</time>
      </trkpt>
      <trkpt lat="44.7715" lon="5.46402">
        <ele>1881.6</ele>
        <time>2019-05-30T05:08:05Z</time>
      </trkpt>
      <trkpt lat="44.7715" lon="5.46407">
        <ele>1881.5</ele>
        <time>2019-05-30T05:08:08Z</time>
      </trkpt>
      <trkpt lat="44.77151" lon="5.46413">
        <ele>1881.3</ele>
        <time>2019-05-30T05:08:11Z</time>
      </trkpt>
      <trkpt lat="44.77151" lon="5.46417">
        <ele>1881.2</ele>
        <time>2019-05-30T05:08:13Z</time>
      </trkpt>
      <trkpt lat="44.77152" lon="5.46421">
        <ele>1881.1</ele>
        <time>2019-05-30T05:08:15Z</time>
      </trkpt>
      <trkpt lat="44.77152" lon="5.46425">
        <ele>1881</ele>
        <time>2019-05-30T05:08:17Z</time>
      </trkpt>
      <trkpt lat="44.77153" lon="5.46429">
        <ele>1880.9</ele>
        <time>2019-05-30T05:08:19Z</time>
      </trkpt>
      <trkpt lat="44.77154" lon="5.46434">
        <ele>1880.7</ele>
        <time>2019-05-30T05:08:22Z</time>
      </trkpt>
      <trkpt lat="44.77155" lon="5.46438">
        <ele>1880.5</ele>
        <time>2019-05-30T05:08:25Z</time>
      </trkpt>
      <trkpt lat="44.77157" lon="5.46442">
        <ele>1880.3</ele>
        <time>2019-05-30T05:08:28Z</time>
      </trkpt>
      <trkpt lat="44.77159" lon="5.46446">
        <ele>1880</ele>
        <time>2019-05-30T05:08:31Z</time>
      </trkpt>
      <trkpt lat="44.77162" lon="5.4645">
        <ele>1879.7</ele>
        <time>2019-05-30T05:08:34Z</time>
      </trkpt>
      <trkpt lat="44.77164" lon="5.46455">
        <ele>1879.5</ele>
        <time>2019-05-30T05:08:36Z</time>
      </trkpt>
      <trkpt lat="44.77165" lon="5.46459">
        <ele>1879.3</ele>
        <time>2019-05-30T05:08:38Z</time>
      </trkpt>
      <trkpt lat="44.77167" lon="5.46463">
        <ele>1879.1</ele>
        <time>2019-05-30T05:08:41Z</time>
      </trkpt>
      <trkpt lat="44.77168" lon="5.46467">
        <ele>1878.9</ele>
        <time>2019-05-30T05:08:44Z</time>
      </trkpt>
      <trkpt lat="44.77169" lon="5.46472">
        <ele>1878.7</ele>
        <time>2019-05-30T05:08:47Z</time>
      </trkpt>
      <trkpt lat="44.7717" lon="5.46476">
        <ele>1878.5</ele>
        <time>2019-05-30T05:08:51Z</time>
      </trkpt>
      <trkpt lat="44.77171" lon="5.46481">
        <ele>1878.4</ele>
        <time>2019-05-30T05:08:55Z</time>
      </trkpt>
      <trkpt lat="44.77172" lon="5.46485">
        <ele>1878.4</ele>
        <time>2019-05-30T05:08:58Z</time>
      </trkpt>
      <trkpt lat="44.77174" lon="5.46488">
        <ele>1878.3</ele>
        <time>2019-05-30T05:09:01Z</time>
      </trkpt>
      <trkpt lat="44.77176" lon="5.46491">
        <ele>1878.4</ele>
        <time>2019-05-30T05:09:04Z</time>
      </trkpt>
      <trkpt lat="44.77178" lon="5.46494">
        <ele>1878.5</ele>
        <time>2019-05-30T05:09:07Z</time>
      </trkpt>
      <trkpt lat="44.7718" lon="5.46499">
        <ele>1878.6</ele>
        <time>2019-05-30T05:09:10Z</time>
      </trkpt>
      <trkpt lat="44.77182" lon="5.46503">
        <ele>1879</ele>
        <time>2019-05-30T05:09:13Z</time>
      </trkpt>
      <trkpt lat="44.77184" lon="5.46506">
        <ele>1879.2</ele>
        <time>2019-05-30T05:09:15Z</time>
      </trkpt>
      <trkpt lat="44.77186" lon="5.46511">
        <ele>1879.4</ele>
        <time>2019-05-30T05:09:18Z</time>
      </trkpt>
      <trkpt lat="44.77189" lon="5.46514">
        <ele>1879.5</ele>
        <time>2019-05-30T05:09:21Z</time>
      </trkpt>
      <trkpt lat="44.77192" lon="5.46516">
        <ele>1879.7</ele>
        <time>2019-05-30T05:09:24Z</time>
      </trkpt>
      <trkpt lat="44.77195" lon="5.4652">
        <ele>1880</ele>
        <time>2019-05-30T05:09:27Z</time>
      </trkpt>
      <trkpt lat="44.77198" lon="5.46522">
        <ele>1880.3</ele>
        <time>2019-05-30T05:09:29Z</time>
      </trkpt>
      <trkpt lat="44.77201" lon="5.46524">
        <ele>1880.5</ele>
        <time>2019-05-30T05:09:32Z</time>
      </trkpt>
      <trkpt lat="44.77203" lon="5.46527">
        <ele>1880.7</ele>
        <time>2019-05-30T05:09:35Z</time>
      </trkpt>
      <trkpt lat="44.77205" lon="5.46529">
        <ele>1880.8</ele>
        <time>2019-05-30T05:09:37Z</time>
      </trkpt>
      <trkpt lat="44.77208" lon="5.4653">
        <ele>1881</ele>
        <time>2019-05-30T05:09:39Z</time>
      </trkpt>
      <trkpt lat="44.77212" lon="5.46532">
        <ele>1881.3</ele>
        <time>2019-05-30T05:09:42Z</time>
      </trkpt>
      <trkpt lat="44.77215" lon="5.46534">
        <ele>1881.6</ele>
        <time>2019-05-30T05:09:44Z</time>
      </trkpt>
      <trkpt lat="44.77217" lon="5.46536">
        <ele>1881.9</ele>
        <time>2019-05-30T05:09:46Z</time>
      </trkpt>
      <trkpt lat="44.7722" lon="5.4654">
        <ele>1882.3</ele>
        <time>2019-05-30T05:09:49Z</time>
      </trkpt>
      <trkpt lat="44.77222" lon="5.46543">
        <ele>1882.6</ele>
        <time>2019-05-30T05:09:52Z</time>
      </trkpt>
      <trkpt lat="44.77225" lon="5.46542">
        <ele>1882.7</ele>
        <time>2019-05-30T05:10:01Z</time>
      </trkpt>
      <trkpt lat="44.77228" lon="5.46544">
        <ele>1882.9</ele>
        <time>2019-05-30T05:10:05Z</time>
      </trkpt>
      <trkpt lat="44.77231" lon="5.46545">
        <ele>1883</ele>
        <time>2019-05-30T05:10:07Z</time>
      </trkpt>
      <trkpt lat="44.77234" lon="5.46546">
        <ele>1883.1</ele>
        <time>2019-05-30T05:10:09Z</time>
      </trkpt>
      <trkpt lat="44.77237" lon="5.46547">
        <ele>1883.2</ele>
        <time>2019-05-30T05:10:11Z</time>
      </trkpt>
      <trkpt lat="44.77241" lon="5.46548">
        <ele>1883.2</ele>
        <time>2019-05-30T05:10:14Z</time>
      </trkpt>
      <trkpt lat="44.77244" lon="5.46548">
        <ele>1883.2</ele>
        <time>2019-05-30T05:10:16Z</time>
      </trkpt>
      <trkpt lat="44.77247" lon="5.46549">
        <ele>1883.2</ele>
        <time>2019-05-30T05:10:18Z</time>
      </trkpt>
      <trkpt lat="44.77251" lon="5.46549">
        <ele>1883.3</ele>
        <time>2019-05-30T05:10:21Z</time>
      </trkpt>
      <trkpt lat="44.77254" lon="5.4655">
        <ele>1883.4</ele>
        <time>2019-05-30T05:10:23Z</time>
      </trkpt>
      <trkpt lat="44.77257" lon="5.46549">
        <ele>1883.5</ele>
        <time>2019-05-30T05:10:25Z</time>
      </trkpt>
      <trkpt lat="44.7726" lon="5.46547">
        <ele>1883.5</ele>
        <time>2019-05-30T05:10:29Z</time>
      </trkpt>
      <trkpt lat="44.77263" lon="5.46546">
        <ele>1883.6</ele>
        <time>2019-05-30T05:10:32Z</time>
      </trkpt>
      <trkpt lat="44.77266" lon="5.46546">
        <ele>1883.7</ele>
        <time>2019-05-30T05:10:36Z</time>
      </trkpt>
      <trkpt lat="44.77268" lon="5.46544">
        <ele>1883.7</ele>
        <time>2019-05-30T05:10:42Z</time>
      </trkpt>
      <trkpt lat="44.77271" lon="5.46545">
        <ele>1883.7</ele>
        <time>2019-05-30T05:10:46Z</time>
      </trkpt>
      <trkpt lat="44.77274" lon="5.46546">
        <ele>1883.7</ele>
        <time>2019-05-30T05:10:50Z</time>
      </trkpt>
      <trkpt lat="44.77277" lon="5.46546">
        <ele>1883.6</ele>
        <time>2019-05-30T05:10:54Z</time>
      </trkpt>
      <trkpt lat="44.7728" lon="5.46545">
        <ele>1883.4</ele>
        <time>2019-05-30T05:10:58Z</time>
      </trkpt>
      <trkpt lat="44.77283" lon="5.46543">
        <ele>1883.4</ele>
        <time>2019-05-30T05:11:01Z</time>
      </trkpt>
      <trkpt lat="44.77286" lon="5.4654">
        <ele>1883.3</ele>
        <time>2019-05-30T05:11:05Z</time>
      </trkpt>
      <trkpt lat="44.77289" lon="5.46539">
        <ele>1883.2</ele>
        <time>2019-05-30T05:11:08Z</time>
      </trkpt>
      <trkpt lat="44.77291" lon="5.46536">
        <ele>1883.2</ele>
        <time>2019-05-30T05:11:13Z</time>
      </trkpt>
      <trkpt lat="44.77294" lon="5.46534">
        <ele>1883.1</ele>
        <time>2019-05-30T05:11:17Z</time>
      </trkpt>
      <trkpt lat="44.77297" lon="5.46532">
        <ele>1883.1</ele>
        <time>2019-05-30T05:11:21Z</time>
      </trkpt>
      <trkpt lat="44.773" lon="5.46531">
        <ele>1883.1</ele>
        <time>2019-05-30T05:11:29Z</time>
      </trkpt>
      <trkpt lat="44.77302" lon="5.46529">
        <ele>1883.1</ele>
        <time>2019-05-30T05:11:32Z</time>
      </trkpt>
      <trkpt lat="44.77305" lon="5.46526">
        <ele>1883.1</ele>
        <time>2019-05-30T05:11:35Z</time>
      </trkpt>
      <trkpt lat="44.77309" lon="5.46525">
        <ele>1883.2</ele>
        <time>2019-05-30T05:11:38Z</time>
      </trkpt>
      <trkpt lat="44.77312" lon="5.46525">
        <ele>1883.2</ele>
        <time>2019-05-30T05:11:41Z</time>
      </trkpt>
      <trkpt lat="44.77315" lon="5.46524">
        <ele>1883.3</ele>
        <time>2019-05-30T05:11:44Z</time>
      </trkpt>
      <trkpt lat="44.77317" lon="5.46521">
        <ele>1883.3</ele>
        <time>2019-05-30T05:11:47Z</time>
      </trkpt>
      <trkpt lat="44.7732" lon="5.4652">
        <ele>1883.4</ele>
        <time>2019-05-30T05:11:51Z</time>
      </trkpt>
      <trkpt lat="44.77323" lon="5.4652">
        <ele>1883.5</ele>
        <time>2019-05-30T05:11:54Z</time>
      </trkpt>
      <trkpt lat="44.77327" lon="5.46519">
        <ele>1883.6</ele>
        <time>2019-05-30T05:11:57Z</time>
      </trkpt>
      <trkpt lat="44.7733" lon="5.46516">
        <ele>1883.7</ele>
        <time>2019-05-30T05:12:00Z</time>
      </trkpt>
      <trkpt lat="44.77333" lon="5.46514">
        <ele>1883.8</ele>
        <time>2019-05-30T05:12:02Z</time>
      </trkpt>
      <trkpt lat="44.77336" lon="5.46514">
        <ele>1883.8</ele>
        <time>2019-05-30T05:12:04Z</time>
      </trkpt>
      <trkpt lat="44.7734" lon="5.46513">
        <ele>1883.9</ele>
        <time>2019-05-30T05:12:07Z</time>
      </trkpt>
      <trkpt lat="44.77344" lon="5.46511">
        <ele>1884</ele>
        <time>2019-05-30T05:12:10Z</time>
      </trkpt>
      <trkpt lat="44.77346" lon="5.46509">
        <ele>1884</ele>
        <time>2019-05-30T05:12:13Z</time>
      </trkpt>
      <trkpt lat="44.77349" lon="5.46507">
        <ele>1884.1</ele>
        <time>2019-05-30T05:12:16Z</time>
      </trkpt>
      <trkpt lat="44.77352" lon="5.46505">
        <ele>1884.1</ele>
        <time>2019-05-30T05:12:20Z</time>
      </trkpt>
      <trkpt lat="44.77356" lon="5.46503">
        <ele>1884.1</ele>
        <time>2019-05-30T05:12:24Z</time>
      </trkpt>
      <trkpt lat="44.77358" lon="5.46501">
        <ele>1884.1</ele>
        <time>2019-05-30T05:12:26Z</time>
      </trkpt>
      <trkpt lat="44.77362" lon="5.46499">
        <ele>1884.1</ele>
        <time>2019-05-30T05:12:29Z</time>
      </trkpt>
      <trkpt lat="44.77365" lon="5.46497">
        <ele>1884</ele>
        <time>2019-05-30T05:12:32Z</time>
      </trkpt>
      <trkpt lat="44.77368" lon="5.46494">
        <ele>1884.1</ele>
        <time>2019-05-30T05:12:35Z</time>
      </trkpt>
      <trkpt lat="44.7737" lon="5.46492">
        <ele>1884.3</ele>
        <time>2019-05-30T05:12:37Z</time>
      </trkpt>
      <trkpt lat="44.77374" lon="5.4649">
        <ele>1884.5</ele>
        <time>2019-05-30T05:12:40Z</time>
      </trkpt>
      <trkpt lat="44.77378" lon="5.4649">
        <ele>1884.6</ele>
        <time>2019-05-30T05:12:43Z</time>
      </trkpt>
      <trkpt lat="44.7738" lon="5.46489">
        <ele>1884.7</ele>
        <time>2019-05-30T05:12:46Z</time>
      </trkpt>
      <trkpt lat="44.77384" lon="5.46488">
        <ele>1884.8</ele>
        <time>2019-05-30T05:12:49Z</time>
      </trkpt>
      <trkpt lat="44.77386" lon="5.46488">
        <ele>1884.9</ele>
        <time>2019-05-30T05:12:52Z</time>
      </trkpt>
      <trkpt lat="44.77389" lon="5.46487">
        <ele>1885</ele>
        <time>2019-05-30T05:12:55Z</time>
      </trkpt>
      <trkpt lat="44.77392" lon="5.4649">
        <ele>1885.4</ele>
        <time>2019-05-30T05:12:59Z</time>
      </trkpt>
      <trkpt lat="44.77395" lon="5.46492">
        <ele>1885.7</ele>
        <time>2019-05-30T05:13:04Z</time>
      </trkpt>
      <trkpt lat="44.77398" lon="5.46491">
        <ele>1885.9</ele>
        <time>2019-05-30T05:13:09Z</time>
      </trkpt>
      <trkpt lat="44.77401" lon="5.46492">
        <ele>1886.1</ele>
        <time>2019-05-30T05:13:14Z</time>
      </trkpt>
      <trkpt lat="44.77405" lon="5.46494">
        <ele>1886.4</ele>
        <time>2019-05-30T05:13:18Z</time>
      </trkpt>
      <trkpt lat="44.77408" lon="5.46493">
        <ele>1886.4</ele>
        <time>2019-05-30T05:13:22Z</time>
      </trkpt>
      <trkpt lat="44.7741" lon="5.46491">
        <ele>1886.4</ele>
        <time>2019-05-30T05:13:26Z</time>
      </trkpt>
      <trkpt lat="44.77413" lon="5.46491">
        <ele>1886.4</ele>
        <time>2019-05-30T05:13:30Z</time>
      </trkpt>
      <trkpt lat="44.77416" lon="5.46491">
        <ele>1886.4</ele>
        <time>2019-05-30T05:13:34Z</time>
      </trkpt>
      <trkpt lat="44.7742" lon="5.46491">
        <ele>1886.5</ele>
        <time>2019-05-30T05:13:37Z</time>
      </trkpt>
      <trkpt lat="44.77422" lon="5.46491">
        <ele>1886.5</ele>
        <time>2019-05-30T05:13:39Z</time>
      </trkpt>
      <trkpt lat="44.77426" lon="5.46491">
        <ele>1886.5</ele>
        <time>2019-05-30T05:13:42Z</time>
      </trkpt>
      <trkpt lat="44.7743" lon="5.46491">
        <ele>1886.5</ele>
        <time>2019-05-30T05:13:45Z</time>
      </trkpt>
      <trkpt lat="44.77433" lon="5.46492">
        <ele>1886.6</ele>
        <time>2019-05-30T05:13:48Z</time>
      </trkpt>
      <trkpt lat="44.77437" lon="5.46491">
        <ele>1886.6</ele>
        <time>2019-05-30T05:13:51Z</time>
      </trkpt>
      <trkpt lat="44.7744" lon="5.4649">
        <ele>1886.7</ele>
        <time>2019-05-30T05:13:54Z</time>
      </trkpt>
      <trkpt lat="44.77443" lon="5.4649">
        <ele>1886.8</ele>
        <time>2019-05-30T05:13:57Z</time>
      </trkpt>
      <trkpt lat="44.77446" lon="5.46489">
        <ele>1886.8</ele>
        <time>2019-05-30T05:14:00Z</time>
      </trkpt>
      <trkpt lat="44.77449" lon="5.46489">
        <ele>1886.8</ele>
        <time>2019-05-30T05:14:04Z</time>
      </trkpt>
      <trkpt lat="44.77452" lon="5.46488">
        <ele>1886.9</ele>
        <time>2019-05-30T05:14:09Z</time>
      </trkpt>
      <trkpt lat="44.77455" lon="5.46488">
        <ele>1886.9</ele>
        <time>2019-05-30T05:14:13Z</time>
      </trkpt>
      <trkpt lat="44.77457" lon="5.46486">
        <ele>1886.9</ele>
        <time>2019-05-30T05:14:19Z</time>
      </trkpt>
      <trkpt lat="44.7746" lon="5.46484">
        <ele>1887</ele>
        <time>2019-05-30T05:14:23Z</time>
      </trkpt>
      <trkpt lat="44.77463" lon="5.46482">
        <ele>1887</ele>
        <time>2019-05-30T05:14:26Z</time>
      </trkpt>
      <trkpt lat="44.77465" lon="5.46479">
        <ele>1887</ele>
        <time>2019-05-30T05:14:29Z</time>
      </trkpt>
      <trkpt lat="44.77467" lon="5.46476">
        <ele>1887</ele>
        <time>2019-05-30T05:14:32Z</time>
      </trkpt>
      <trkpt lat="44.7747" lon="5.46473">
        <ele>1887</ele>
        <time>2019-05-30T05:14:35Z</time>
      </trkpt>
      <trkpt lat="44.77472" lon="5.4647">
        <ele>1887</ele>
        <time>2019-05-30T05:14:38Z</time>
      </trkpt>
      <trkpt lat="44.77475" lon="5.46468">
        <ele>1887.1</ele>
        <time>2019-05-30T05:14:41Z</time>
      </trkpt>
      <trkpt lat="44.77477" lon="5.46465">
        <ele>1887.2</ele>
        <time>2019-05-30T05:14:44Z</time>
      </trkpt>
      <trkpt lat="44.77479" lon="5.46461">
        <ele>1887.2</ele>
        <time>2019-05-30T05:14:48Z</time>
      </trkpt>
      <trkpt lat="44.77481" lon="5.46458">
        <ele>1887.2</ele>
        <time>2019-05-30T05:14:51Z</time>
      </trkpt>
      <trkpt lat="44.77483" lon="5.46454">
        <ele>1887.2</ele>
        <time>2019-05-30T05:14:54Z</time>
      </trkpt>
      <trkpt lat="44.77485" lon="5.4645">
        <ele>1887.2</ele>
        <time>2019-05-30T05:14:57Z</time>
      </trkpt>
      <trkpt lat="44.77487" lon="5.46446">
        <ele>1887.2</ele>
        <time>2019-05-30T05:15:00Z</time>
      </trkpt>
      <trkpt lat="44.77489" lon="5.46442">
        <ele>1887.1</ele>
        <time>2019-05-30T05:15:03Z</time>
      </trkpt>
      <trkpt lat="44.7749" lon="5.46437">
        <ele>1886.9</ele>
        <time>2019-05-30T05:15:06Z</time>
      </trkpt>
      <trkpt lat="44.77492" lon="5.46433">
        <ele>1886.7</ele>
        <time>2019-05-30T05:15:08Z</time>
      </trkpt>
      <trkpt lat="44.77494" lon="5.46429">
        <ele>1886.8</ele>
        <time>2019-05-30T05:15:10Z</time>
      </trkpt>
      <trkpt lat="44.77496" lon="5.46426">
        <ele>1886.8</ele>
        <time>2019-05-30T05:15:13Z</time>
      </trkpt>
      <trkpt lat="44.77498" lon="5.46423">
        <ele>1886.9</ele>
        <time>2019-05-30T05:15:16Z</time>
      </trkpt>
      <trkpt lat="44.775" lon="5.4642">
        <ele>1887.2</ele>
        <time>2019-05-30T05:15:19Z</time>
      </trkpt>
      <trkpt lat="44.77502" lon="5.46417">
        <ele>1887.5</ele>
        <time>2019-05-30T05:15:22Z</time>
      </trkpt>
      <trkpt lat="44.77504" lon="5.46415">
        <ele>1887.8</ele>
        <time>2019-05-30T05:15:25Z</time>
      </trkpt>
      <trkpt lat="44.77507" lon="5.46413">
        <ele>1888</ele>
        <time>2019-05-30T05:15:28Z</time>
      </trkpt>
      <trkpt lat="44.7751" lon="5.46411">
        <ele>1888.3</ele>
        <time>2019-05-30T05:15:30Z</time>
      </trkpt>
      <trkpt lat="44.77513" lon="5.46407">
        <ele>1888.6</ele>
        <time>2019-05-30T05:15:32Z</time>
      </trkpt>
      <trkpt lat="44.77515" lon="5.46403">
        <ele>1888.9</ele>
        <time>2019-05-30T05:15:34Z</time>
      </trkpt>
      <trkpt lat="44.77518" lon="5.464">
        <ele>1889.2</ele>
        <time>2019-05-30T05:15:36Z</time>
      </trkpt>
      <trkpt lat="44.77522" lon="5.46397">
        <ele>1889.5</ele>
        <time>2019-05-30T05:15:39Z</time>
      </trkpt>
      <trkpt lat="44.77524" lon="5.46394">
        <ele>1889.7</ele>
        <time>2019-05-30T05:15:41Z</time>
      </trkpt>
      <trkpt lat="44.77527" lon="5.46392">
        <ele>1889.9</ele>
        <time>2019-05-30T05:15:45Z</time>
      </trkpt>
      <trkpt lat="44.7753" lon="5.46389">
        <ele>1889.9</ele>
        <time>2019-05-30T05:15:48Z</time>
      </trkpt>
      <trkpt lat="44.77532" lon="5.46387">
        <ele>1889.9</ele>
        <time>2019-05-30T05:15:50Z</time>
      </trkpt>
      <trkpt lat="44.77535" lon="5.46385">
        <ele>1889.9</ele>
        <time>2019-05-30T05:15:52Z</time>
      </trkpt>
      <trkpt lat="44.77538" lon="5.46382">
        <ele>1889.9</ele>
        <time>2019-05-30T05:15:55Z</time>
      </trkpt>
      <trkpt lat="44.77542" lon="5.4638">
        <ele>1890</ele>
        <time>2019-05-30T05:15:58Z</time>
      </trkpt>
      <trkpt lat="44.77544" lon="5.46378">
        <ele>1890.1</ele>
        <time>2019-05-30T05:16:02Z</time>
      </trkpt>
      <trkpt lat="44.77547" lon="5.46376">
        <ele>1890.2</ele>
        <time>2019-05-30T05:16:06Z</time>
      </trkpt>
      <trkpt lat="44.7755" lon="5.46374">
        <ele>1890.3</ele>
        <time>2019-05-30T05:16:09Z</time>
      </trkpt>
      <trkpt lat="44.77553" lon="5.46371">
        <ele>1890.4</ele>
        <time>2019-05-30T05:16:12Z</time>
      </trkpt>
      <trkpt lat="44.77555" lon="5.46368">
        <ele>1890.4</ele>
        <time>2019-05-30T05:16:14Z</time>
      </trkpt>
      <trkpt lat="44.77557" lon="5.46365">
        <ele>1890.4</ele>
        <time>2019-05-30T05:16:18Z</time>
      </trkpt>
      <trkpt lat="44.77558" lon="5.46362">
        <ele>1890.3</ele>
        <time>2019-05-30T05:16:24Z</time>
      </trkpt>
      <trkpt lat="44.7756" lon="5.46359">
        <ele>1890.5</ele>
        <time>2019-05-30T05:16:28Z</time>
      </trkpt>
      <trkpt lat="44.77563" lon="5.46356">
        <ele>1890.7</ele>
        <time>2019-05-30T05:16:31Z</time>
      </trkpt>
      <trkpt lat="44.77565" lon="5.46353">
        <ele>1890.8</ele>
        <time>2019-05-30T05:16:34Z</time>
      </trkpt>
      <trkpt lat="44.77568" lon="5.4635">
        <ele>1890.7</ele>
        <time>2019-05-30T05:16:36Z</time>
      </trkpt>
      <trkpt lat="44.7757" lon="5.46347">
        <ele>1890.7</ele>
        <time>2019-05-30T05:16:37Z</time>
      </trkpt>
      <trkpt lat="44.77573" lon="5.46345">
        <ele>1890.7</ele>
        <time>2019-05-30T05:16:38Z</time>
      </trkpt>
      <trkpt lat="44.77575" lon="5.46343">
        <ele>1890.8</ele>
        <time>2019-05-30T05:16:39Z</time>
      </trkpt>
      <trkpt lat="44.77579" lon="5.4634">
        <ele>1891</ele>
        <time>2019-05-30T05:16:41Z</time>
      </trkpt>
      <trkpt lat="44.77583" lon="5.46338">
        <ele>1891</ele>
        <time>2019-05-30T05:16:43Z</time>
      </trkpt>
      <trkpt lat="44.77585" lon="5.46335">
        <ele>1890.9</ele>
        <time>2019-05-30T05:16:45Z</time>
      </trkpt>
      <trkpt lat="44.77589" lon="5.46333">
        <ele>1890.7</ele>
        <time>2019-05-30T05:16:48Z</time>
      </trkpt>
      <trkpt lat="44.77591" lon="5.4633">
        <ele>1890.5</ele>
        <time>2019-05-30T05:16:51Z</time>
      </trkpt>
      <trkpt lat="44.77593" lon="5.46327">
        <ele>1890.3</ele>
        <time>2019-05-30T05:16:54Z</time>
      </trkpt>
      <trkpt lat="44.77595" lon="5.46323">
        <ele>1890.1</ele>
        <time>2019-05-30T05:16:57Z</time>
      </trkpt>
      <trkpt lat="44.77598" lon="5.46321">
        <ele>1890.1</ele>
        <time>2019-05-30T05:17:01Z</time>
      </trkpt>
      <trkpt lat="44.77601" lon="5.4632">
        <ele>1890.2</ele>
        <time>2019-05-30T05:17:06Z</time>
      </trkpt>
      <trkpt lat="44.77604" lon="5.46319">
        <ele>1890.2</ele>
        <time>2019-05-30T05:17:10Z</time>
      </trkpt>
      <trkpt lat="44.77607" lon="5.46318">
        <ele>1890.2</ele>
        <time>2019-05-30T05:17:14Z</time>
      </trkpt>
      <trkpt lat="44.7761" lon="5.46319">
        <ele>1890.3</ele>
        <time>2019-05-30T05:17:18Z</time>
      </trkpt>
      <trkpt lat="44.77614" lon="5.46319">
        <ele>1890.1</ele>
        <time>2019-05-30T05:17:22Z</time>
      </trkpt>
      <trkpt lat="44.77617" lon="5.46319">
        <ele>1889.7</ele>
        <time>2019-05-30T05:17:25Z</time>
      </trkpt>
      <trkpt lat="44.7762" lon="5.46318">
        <ele>1889.3</ele>
        <time>2019-05-30T05:17:29Z</time>
      </trkpt>
      <trkpt lat="44.77623" lon="5.46318">
        <ele>1889</ele>
        <time>2019-05-30T05:17:33Z</time>
      </trkpt>
      <trkpt lat="44.77626" lon="5.46319">
        <ele>1888.8</ele>
        <time>2019-05-30T05:17:36Z</time>
      </trkpt>
      <trkpt lat="44.77629" lon="5.4632">
        <ele>1888.6</ele>
        <time>2019-05-30T05:17:39Z</time>
      </trkpt>
      <trkpt lat="44.77633" lon="5.46321">
        <ele>1888.4</ele>
        <time>2019-05-30T05:17:42Z</time>
      </trkpt>
      <trkpt lat="44.77636" lon="5.46322">
        <ele>1888.2</ele>
        <time>2019-05-30T05:17:44Z</time>
      </trkpt>
      <trkpt lat="44.7764" lon="5.46325">
        <ele>1888</ele>
        <time>2019-05-30T05:17:46Z</time>
      </trkpt>
      <trkpt lat="44.77642" lon="5.46327">
        <ele>1887.9</ele>
        <time>2019-05-30T05:17:48Z</time>
      </trkpt>
      <trkpt lat="44.77645" lon="5.46329">
        <ele>1887.7</ele>
        <time>2019-05-30T05:17:51Z</time>
      </trkpt>
      <trkpt lat="44.77648" lon="5.4633">
        <ele>1887.6</ele>
        <time>2019-05-30T05:17:54Z</time>
      </trkpt>
      <trkpt lat="44.77651" lon="5.46332">
        <ele>1887.5</ele>
        <time>2019-05-30T05:17:57Z</time>
      </trkpt>
      <trkpt lat="44.77653" lon="5.46334">
        <ele>1887</ele>
        <time>2019-05-30T05:18:00Z</time>
      </trkpt>
      <trkpt lat="44.77656" lon="5.46336">
        <ele>1886.6</ele>
        <time>2019-05-30T05:18:03Z</time>
      </trkpt>
      <trkpt lat="44.77659" lon="5.46338">
        <ele>1886.2</ele>
        <time>2019-05-30T05:18:07Z</time>
      </trkpt>
      <trkpt lat="44.77662" lon="5.46339">
        <ele>1886</ele>
        <time>2019-05-30T05:18:12Z</time>
      </trkpt>
      <trkpt lat="44.77665" lon="5.4634">
        <ele>1885.8</ele>
        <time>2019-05-30T05:18:16Z</time>
      </trkpt>
      <trkpt lat="44.77668" lon="5.4634">
        <ele>1885.7</ele>
        <time>2019-05-30T05:18:19Z</time>
      </trkpt>
      <trkpt lat="44.77671" lon="5.46342">
        <ele>1885.6</ele>
        <time>2019-05-30T05:18:22Z</time>
      </trkpt>
      <trkpt lat="44.77674" lon="5.46342">
        <ele>1885.5</ele>
        <time>2019-05-30T05:18:24Z</time>
      </trkpt>
      <trkpt lat="44.77678" lon="5.46341">
        <ele>1885.4</ele>
        <time>2019-05-30T05:18:27Z</time>
      </trkpt>
      <trkpt lat="44.77681" lon="5.46342">
        <ele>1885.2</ele>
        <time>2019-05-30T05:18:32Z</time>
      </trkpt>
      <trkpt lat="44.77684" lon="5.46342">
        <ele>1885.1</ele>
        <time>2019-05-30T05:18:36Z</time>
      </trkpt>
      <trkpt lat="44.77687" lon="5.4634">
        <ele>1885</ele>
        <time>2019-05-30T05:18:40Z</time>
      </trkpt>
      <trkpt lat="44.77689" lon="5.46343">
        <ele>1884.9</ele>
        <time>2019-05-30T05:19:28Z</time>
      </trkpt>
      <trkpt lat="44.7769" lon="5.46346">
        <ele>1884.8</ele>
        <time>2019-05-30T05:19:58Z</time>
      </trkpt>
      <trkpt lat="44.77692" lon="5.46349">
        <ele>1884.8</ele>
        <time>2019-05-30T05:21:19Z</time>
      </trkpt>
      <trkpt lat="44.77689" lon="5.46348">
        <ele>1884.7</ele>
        <time>2019-05-30T05:21:29Z</time>
      </trkpt>
      <trkpt lat="44.77692" lon="5.46348">
        <ele>1884.7</ele>
        <time>2019-05-30T05:21:59Z</time>
      </trkpt>
      <trkpt lat="44.77695" lon="5.46348">
        <ele>1884.7</ele>
        <time>2019-05-30T05:22:03Z</time>
      </trkpt>
      <trkpt lat="44.77698" lon="5.46349">
        <ele>1884.7</ele>
        <time>2019-05-30T05:22:06Z</time>
      </trkpt>
      <trkpt lat="44.77702" lon="5.46349">
        <ele>1885</ele>
        <time>2019-05-30T05:22:12Z</time>
      </trkpt>
      <trkpt lat="44.77704" lon="5.46346">
        <ele>1885.3</ele>
        <time>2019-05-30T05:22:15Z</time>
      </trkpt>
      <trkpt lat="44.7771" lon="5.46341">
        <ele>1885.8</ele>
        <time>2019-05-30T05:22:19Z</time>
      </trkpt>
      <trkpt lat="44.77712" lon="5.46339">
        <ele>1886</ele>
        <time>2019-05-30T05:22:21Z</time>
      </trkpt>
      <trkpt lat="44.77717" lon="5.46335">
        <ele>1886.3</ele>
        <time>2019-05-30T05:22:31Z</time>
      </trkpt>
      <trkpt lat="44.77716" lon="5.4633">
        <ele>1886.5</ele>
        <time>2019-05-30T05:22:35Z</time>
      </trkpt>
      <trkpt lat="44.77716" lon="5.46326">
        <ele>1886.7</ele>
        <time>2019-05-30T05:22:39Z</time>
      </trkpt>
      <trkpt lat="44.77717" lon="5.46321">
        <ele>1887</ele>
        <time>2019-05-30T05:23:28Z</time>
      </trkpt>
      <trkpt lat="44.77715" lon="5.46323">
        <ele>1887.2</ele>
        <time>2019-05-30T05:23:36Z</time>
      </trkpt>
      <trkpt lat="44.77712" lon="5.46325">
        <ele>1887.4</ele>
        <time>2019-05-30T05:23:39Z</time>
      </trkpt>
      <trkpt lat="44.77709" lon="5.46331">
        <ele>1887.7</ele>
        <time>2019-05-30T05:23:42Z</time>
      </trkpt>
      <trkpt lat="44.77707" lon="5.46336">
        <ele>1888</ele>
        <time>2019-05-30T05:23:43Z</time>
      </trkpt>
      <trkpt lat="44.77706" lon="5.46342">
        <ele>1888.4</ele>
        <time>2019-05-30T05:23:45Z</time>
      </trkpt>
      <trkpt lat="44.77706" lon="5.46346">
        <ele>1888.6</ele>
        <time>2019-05-30T05:23:47Z</time>
      </trkpt>
      <trkpt lat="44.77708" lon="5.4635">
        <ele>1889.1</ele>
        <time>2019-05-30T05:23:50Z</time>
      </trkpt>
      <trkpt lat="44.77711" lon="5.46353">
        <ele>1889.3</ele>
        <time>2019-05-30T05:23:53Z</time>
      </trkpt>
      <trkpt lat="44.77714" lon="5.46354">
        <ele>1889.7</ele>
        <time>2019-05-30T05:23:57Z</time>
      </trkpt>
      <trkpt lat="44.77717" lon="5.46356">
        <ele>1890.1</ele>
        <time>2019-05-30T05:24:00Z</time>
      </trkpt>
      <trkpt lat="44.7772" lon="5.46358">
        <ele>1890.4</ele>
        <time>2019-05-30T05:24:02Z</time>
      </trkpt>
      <trkpt lat="44.77723" lon="5.46358">
        <ele>1890.8</ele>
        <time>2019-05-30T05:24:06Z</time>
      </trkpt>
      <trkpt lat="44.77726" lon="5.46358">
        <ele>1891.4</ele>
        <time>2019-05-30T05:24:10Z</time>
      </trkpt>
      <trkpt lat="44.77729" lon="5.4636">
        <ele>1892.1</ele>
        <time>2019-05-30T05:24:13Z</time>
      </trkpt>
      <trkpt lat="44.77733" lon="5.46361">
        <ele>1892.7</ele>
        <time>2019-05-30T05:24:15Z</time>
      </trkpt>
      <trkpt lat="44.77735" lon="5.46362">
        <ele>1893.2</ele>
        <time>2019-05-30T05:24:17Z</time>
      </trkpt>
      <trkpt lat="44.77738" lon="5.46363">
        <ele>1893.8</ele>
        <time>2019-05-30T05:24:20Z</time>
      </trkpt>
      <trkpt lat="44.77741" lon="5.46366">
        <ele>1894.4</ele>
        <time>2019-05-30T05:24:23Z</time>
      </trkpt>
      <trkpt lat="44.77744" lon="5.46368">
        <ele>1894.9</ele>
        <time>2019-05-30T05:24:26Z</time>
      </trkpt>
      <trkpt lat="44.77747" lon="5.46371">
        <ele>1895.5</ele>
        <time>2019-05-30T05:24:29Z</time>
      </trkpt>
      <trkpt lat="44.77749" lon="5.46372">
        <ele>1896.1</ele>
        <time>2019-05-30T05:24:32Z</time>
      </trkpt>
      <trkpt lat="44.77752" lon="5.46374">
        <ele>1896.7</ele>
        <time>2019-05-30T05:24:35Z</time>
      </trkpt>
      <trkpt lat="44.77755" lon="5.46375">
        <ele>1897.3</ele>
        <time>2019-05-30T05:24:38Z</time>
      </trkpt>
      <trkpt lat="44.77757" lon="5.46377">
        <ele>1897.8</ele>
        <time>2019-05-30T05:24:41Z</time>
      </trkpt>
      <trkpt lat="44.7776" lon="5.46379">
        <ele>1898.3</ele>
        <time>2019-05-30T05:24:44Z</time>
      </trkpt>
      <trkpt lat="44.77763" lon="5.4638">
        <ele>1898.7</ele>
        <time>2019-05-30T05:24:47Z</time>
      </trkpt>
      <trkpt lat="44.77766" lon="5.4638">
        <ele>1899</ele>
        <time>2019-05-30T05:24:50Z</time>
      </trkpt>
      <trkpt lat="44.77769" lon="5.4638">
        <ele>1899.3</ele>
        <time>2019-05-30T05:24:54Z</time>
      </trkpt>
      <trkpt lat="44.77772" lon="5.46381">
        <ele>1899.4</ele>
        <time>2019-05-30T05:24:57Z</time>
      </trkpt>
      <trkpt lat="44.77775" lon="5.46381">
        <ele>1899.6</ele>
        <time>2019-05-30T05:25:00Z</time>
      </trkpt>
      <trkpt lat="44.77778" lon="5.46382">
        <ele>1899.8</ele>
        <time>2019-05-30T05:25:03Z</time>
      </trkpt>
      <trkpt lat="44.77781" lon="5.46382">
        <ele>1899.9</ele>
        <time>2019-05-30T05:25:06Z</time>
      </trkpt>
      <trkpt lat="44.77784" lon="5.46382">
        <ele>1900</ele>
        <time>2019-05-30T05:25:09Z</time>
      </trkpt>
      <trkpt lat="44.77787" lon="5.46382">
        <ele>1900.1</ele>
        <time>2019-05-30T05:25:12Z</time>
      </trkpt>
      <trkpt lat="44.77791" lon="5.46382">
        <ele>1900.2</ele>
        <time>2019-05-30T05:25:15Z</time>
      </trkpt>
      <trkpt lat="44.77794" lon="5.46382">
        <ele>1900.2</ele>
        <time>2019-05-30T05:25:18Z</time>
      </trkpt>
      <trkpt lat="44.77797" lon="5.46385">
        <ele>1900.1</ele>
        <time>2019-05-30T05:25:22Z</time>
      </trkpt>
      <trkpt lat="44.77799" lon="5.46388">
        <ele>1900.1</ele>
        <time>2019-05-30T05:25:27Z</time>
      </trkpt>
      <trkpt lat="44.77801" lon="5.46391">
        <ele>1900.1</ele>
        <time>2019-05-30T05:25:31Z</time>
      </trkpt>
      <trkpt lat="44.77804" lon="5.46395">
        <ele>1900</ele>
        <time>2019-05-30T05:25:35Z</time>
      </trkpt>
      <trkpt lat="44.77806" lon="5.46397">
        <ele>1900</ele>
        <time>2019-05-30T05:25:38Z</time>
      </trkpt>
      <trkpt lat="44.77809" lon="5.46399">
        <ele>1900</ele>
        <time>2019-05-30T05:25:42Z</time>
      </trkpt>
      <trkpt lat="44.77811" lon="5.46402">
        <ele>1899.9</ele>
        <time>2019-05-30T05:25:46Z</time>
      </trkpt>
      <trkpt lat="44.77814" lon="5.46404">
        <ele>1899.9</ele>
        <time>2019-05-30T05:25:49Z</time>
      </trkpt>
      <trkpt lat="44.77816" lon="5.46406">
        <ele>1899.8</ele>
        <time>2019-05-30T05:25:52Z</time>
      </trkpt>
      <trkpt lat="44.77819" lon="5.46408">
        <ele>1899.8</ele>
        <time>2019-05-30T05:25:55Z</time>
      </trkpt>
      <trkpt lat="44.77822" lon="5.4641">
        <ele>1899.7</ele>
        <time>2019-05-30T05:25:58Z</time>
      </trkpt>
      <trkpt lat="44.77825" lon="5.46412">
        <ele>1899.6</ele>
        <time>2019-05-30T05:26:01Z</time>
      </trkpt>
      <trkpt lat="44.77828" lon="5.46414">
        <ele>1899.5</ele>
        <time>2019-05-30T05:26:04Z</time>
      </trkpt>
      <trkpt lat="44.77829" lon="5.46418">
        <ele>1899.4</ele>
        <time>2019-05-30T05:26:07Z</time>
      </trkpt>
      <trkpt lat="44.77831" lon="5.46422">
        <ele>1899.2</ele>
        <time>2019-05-30T05:26:11Z</time>
      </trkpt>
      <trkpt lat="44.77834" lon="5.46424">
        <ele>1899.1</ele>
        <time>2019-05-30T05:26:15Z</time>
      </trkpt>
      <trkpt lat="44.77837" lon="5.46427">
        <ele>1898.9</ele>
        <time>2019-05-30T05:26:19Z</time>
      </trkpt>
      <trkpt lat="44.7784" lon="5.4643">
        <ele>1898.7</ele>
        <time>2019-05-30T05:26:23Z</time>
      </trkpt>
      <trkpt lat="44.77843" lon="5.46431">
        <ele>1898.6</ele>
        <time>2019-05-30T05:26:26Z</time>
      </trkpt>
      <trkpt lat="44.77846" lon="5.46433">
        <ele>1898.4</ele>
        <time>2019-05-30T05:26:30Z</time>
      </trkpt>
      <trkpt lat="44.77849" lon="5.46436">
        <ele>1898.2</ele>
        <time>2019-05-30T05:26:33Z</time>
      </trkpt>
      <trkpt lat="44.77852" lon="5.46437">
        <ele>1898</ele>
        <time>2019-05-30T05:26:36Z</time>
      </trkpt>
      <trkpt lat="44.77855" lon="5.46439">
        <ele>1897.8</ele>
        <time>2019-05-30T05:26:39Z</time>
      </trkpt>
      <trkpt lat="44.77857" lon="5.46442">
        <ele>1897.6</ele>
        <time>2019-05-30T05:26:43Z</time>
      </trkpt>
      <trkpt lat="44.7786" lon="5.46444">
        <ele>1897.4</ele>
        <time>2019-05-30T05:26:46Z</time>
      </trkpt>
      <trkpt lat="44.77863" lon="5.46447">
        <ele>1897.2</ele>
        <time>2019-05-30T05:26:50Z</time>
      </trkpt>
      <trkpt lat="44.77865" lon="5.4645">
        <ele>1897</ele>
        <time>2019-05-30T05:26:53Z</time>
      </trkpt>
      <trkpt lat="44.77868" lon="5.46453">
        <ele>1896.8</ele>
        <time>2019-05-30T05:27:03Z</time>
      </trkpt>
      <trkpt lat="44.77867" lon="5.46457">
        <ele>1896.6</ele>
        <time>2019-05-30T05:27:06Z</time>
      </trkpt>
      <trkpt lat="44.77867" lon="5.46463">
        <ele>1896.3</ele>
        <time>2019-05-30T05:27:09Z</time>
      </trkpt>
      <trkpt lat="44.77867" lon="5.46467">
        <ele>1896</ele>
        <time>2019-05-30T05:27:12Z</time>
      </trkpt>
      <trkpt lat="44.77867" lon="5.46472">
        <ele>1895.7</ele>
        <time>2019-05-30T05:27:16Z</time>
      </trkpt>
      <trkpt lat="44.77868" lon="5.46475">
        <ele>1895.6</ele>
        <time>2019-05-30T05:27:19Z</time>
      </trkpt>
      <trkpt lat="44.77869" lon="5.46479">
        <ele>1895.4</ele>
        <time>2019-05-30T05:27:22Z</time>
      </trkpt>
      <trkpt lat="44.77869" lon="5.46483">
        <ele>1895.2</ele>
        <time>2019-05-30T05:27:27Z</time>
      </trkpt>
      <trkpt lat="44.77872" lon="5.46485">
        <ele>1895</ele>
        <time>2019-05-30T05:28:03Z</time>
      </trkpt>
      <trkpt lat="44.77874" lon="5.46489">
        <ele>1894.7</ele>
        <time>2019-05-30T05:28:07Z</time>
      </trkpt>
      <trkpt lat="44.77876" lon="5.46492">
        <ele>1894.5</ele>
        <time>2019-05-30T05:28:10Z</time>
      </trkpt>
      <trkpt lat="44.77879" lon="5.46493">
        <ele>1894.2</ele>
        <time>2019-05-30T05:28:14Z</time>
      </trkpt>
      <trkpt lat="44.77882" lon="5.46495">
        <ele>1894</ele>
        <time>2019-05-30T05:28:17Z</time>
      </trkpt>
      <trkpt lat="44.77885" lon="5.46498">
        <ele>1893.9</ele>
        <time>2019-05-30T05:28:20Z</time>
      </trkpt>
      <trkpt lat="44.77888" lon="5.46498">
        <ele>1893.8</ele>
        <time>2019-05-30T05:28:23Z</time>
      </trkpt>
      <trkpt lat="44.77891" lon="5.46499">
        <ele>1893.7</ele>
        <time>2019-05-30T05:28:26Z</time>
      </trkpt>
      <trkpt lat="44.77893" lon="5.46502">
        <ele>1893.6</ele>
        <time>2019-05-30T05:28:29Z</time>
      </trkpt>
      <trkpt lat="44.77896" lon="5.46504">
        <ele>1893.4</ele>
        <time>2019-05-30T05:28:33Z</time>
      </trkpt>
      <trkpt lat="44.77899" lon="5.46506">
        <ele>1893.2</ele>
        <time>2019-05-30T05:28:36Z</time>
      </trkpt>
      <trkpt lat="44.77902" lon="5.46509">
        <ele>1892.9</ele>
        <time>2019-05-30T05:28:39Z</time>
      </trkpt>
      <trkpt lat="44.77905" lon="5.46512">
        <ele>1892.6</ele>
        <time>2019-05-30T05:28:42Z</time>
      </trkpt>
      <trkpt lat="44.77908" lon="5.46514">
        <ele>1892.4</ele>
        <time>2019-05-30T05:28:45Z</time>
      </trkpt>
      <trkpt lat="44.77911" lon="5.46516">
        <ele>1892</ele>
        <time>2019-05-30T05:28:48Z</time>
      </trkpt>
      <trkpt lat="44.77913" lon="5.46519">
        <ele>1891.8</ele>
        <time>2019-05-30T05:28:51Z</time>
      </trkpt>
      <trkpt lat="44.77915" lon="5.46522">
        <ele>1891.5</ele>
        <time>2019-05-30T05:28:54Z</time>
      </trkpt>
      <trkpt lat="44.77917" lon="5.46525">
        <ele>1891.3</ele>
        <time>2019-05-30T05:28:57Z</time>
      </trkpt>
      <trkpt lat="44.7792" lon="5.46528">
        <ele>1891</ele>
        <time>2019-05-30T05:29:01Z</time>
      </trkpt>
      <trkpt lat="44.77922" lon="5.4653">
        <ele>1890.7</ele>
        <time>2019-05-30T05:29:05Z</time>
      </trkpt>
      <trkpt lat="44.77921" lon="5.46534">
        <ele>1890.5</ele>
        <time>2019-05-30T05:29:09Z</time>
      </trkpt>
      <trkpt lat="44.77922" lon="5.46538">
        <ele>1890.4</ele>
        <time>2019-05-30T05:29:13Z</time>
      </trkpt>
      <trkpt lat="44.77921" lon="5.46542">
        <ele>1890.4</ele>
        <time>2019-05-30T05:29:18Z</time>
      </trkpt>
      <trkpt lat="44.77923" lon="5.46545">
        <ele>1890.4</ele>
        <time>2019-05-30T05:29:21Z</time>
      </trkpt>
      <trkpt lat="44.77923" lon="5.46549">
        <ele>1890.2</ele>
        <time>2019-05-30T05:29:24Z</time>
      </trkpt>
      <trkpt lat="44.77923" lon="5.46553">
        <ele>1890</ele>
        <time>2019-05-30T05:29:28Z</time>
      </trkpt>
      <trkpt lat="44.77924" lon="5.46558">
        <ele>1889.8</ele>
        <time>2019-05-30T05:29:32Z</time>
      </trkpt>
      <trkpt lat="44.77926" lon="5.46562">
        <ele>1889.7</ele>
        <time>2019-05-30T05:29:35Z</time>
      </trkpt>
      <trkpt lat="44.77927" lon="5.46567">
        <ele>1889.6</ele>
        <time>2019-05-30T05:29:39Z</time>
      </trkpt>
      <trkpt lat="44.77928" lon="5.4657">
        <ele>1889.5</ele>
        <time>2019-05-30T05:29:42Z</time>
      </trkpt>
      <trkpt lat="44.77929" lon="5.46575">
        <ele>1889.3</ele>
        <time>2019-05-30T05:29:45Z</time>
      </trkpt>
      <trkpt lat="44.77929" lon="5.46579">
        <ele>1889.1</ele>
        <time>2019-05-30T05:29:49Z</time>
      </trkpt>
      <trkpt lat="44.77931" lon="5.46582">
        <ele>1888.9</ele>
        <time>2019-05-30T05:29:53Z</time>
      </trkpt>
      <trkpt lat="44.77933" lon="5.46585">
        <ele>1888.7</ele>
        <time>2019-05-30T05:29:58Z</time>
      </trkpt>
      <trkpt lat="44.77934" lon="5.46589">
        <ele>1888.3</ele>
        <time>2019-05-30T05:30:03Z</time>
      </trkpt>
      <trkpt lat="44.77935" lon="5.46593">
        <ele>1887.8</ele>
        <time>2019-05-30T05:30:07Z</time>
      </trkpt>
      <trkpt lat="44.77937" lon="5.46596">
        <ele>1887.4</ele>
        <time>2019-05-30T05:30:11Z</time>
      </trkpt>
      <trkpt lat="44.77939" lon="5.46599">
        <ele>1887.2</ele>
        <time>2019-05-30T05:30:15Z</time>
      </trkpt>
      <trkpt lat="44.77942" lon="5.46601">
        <ele>1887</ele>
        <time>2019-05-30T05:30:19Z</time>
      </trkpt>
      <trkpt lat="44.77943" lon="5.46605">
        <ele>1886.7</ele>
        <time>2019-05-30T05:30:24Z</time>
      </trkpt>
      <trkpt lat="44.77946" lon="5.46607">
        <ele>1886.4</ele>
        <time>2019-05-30T05:30:27Z</time>
      </trkpt>
      <trkpt lat="44.77948" lon="5.46609">
        <ele>1886.1</ele>
        <time>2019-05-30T05:30:30Z</time>
      </trkpt>
      <trkpt lat="44.77951" lon="5.46611">
        <ele>1885.7</ele>
        <time>2019-05-30T05:30:33Z</time>
      </trkpt>
      <trkpt lat="44.77954" lon="5.46614">
        <ele>1885.2</ele>
        <time>2019-05-30T05:30:36Z</time>
      </trkpt>
      <trkpt lat="44.77955" lon="5.46618">
        <ele>1884.7</ele>
        <time>2019-05-30T05:30:40Z</time>
      </trkpt>
      <trkpt lat="44.77958" lon="5.46621">
        <ele>1884.1</ele>
        <time>2019-05-30T05:30:47Z</time>
      </trkpt>
      <trkpt lat="44.77961" lon="5.46623">
        <ele>1883.5</ele>
        <time>2019-05-30T05:30:50Z</time>
      </trkpt>
      <trkpt lat="44.77963" lon="5.46626">
        <ele>1882.8</ele>
        <time>2019-05-30T05:30:53Z</time>
      </trkpt>
      <trkpt lat="44.77966" lon="5.46629">
        <ele>1882.1</ele>
        <time>2019-05-30T05:30:56Z</time>
      </trkpt>
      <trkpt lat="44.77968" lon="5.46631">
        <ele>1881.2</ele>
        <time>2019-05-30T05:30:59Z</time>
      </trkpt>
      <trkpt lat="44.77971" lon="5.46634">
        <ele>1880</ele>
        <time>2019-05-30T05:31:02Z</time>
      </trkpt>
      <trkpt lat="44.77974" lon="5.46636">
        <ele>1879.1</ele>
        <time>2019-05-30T05:31:06Z</time>
      </trkpt>
      <trkpt lat="44.77977" lon="5.46635">
        <ele>1878.3</ele>
        <time>2019-05-30T05:31:10Z</time>
      </trkpt>
      <trkpt lat="44.77979" lon="5.46638">
        <ele>1877.5</ele>
        <time>2019-05-30T05:31:15Z</time>
      </trkpt>
      <trkpt lat="44.7798" lon="5.46642">
        <ele>1876.7</ele>
        <time>2019-05-30T05:31:21Z</time>
      </trkpt>
      <trkpt lat="44.7798" lon="5.46646">
        <ele>1875.8</ele>
        <time>2019-05-30T05:31:26Z</time>
      </trkpt>
      <trkpt lat="44.77983" lon="5.46646">
        <ele>1874.9</ele>
        <time>2019-05-30T05:31:39Z</time>
      </trkpt>
      <trkpt lat="44.77985" lon="5.46648">
        <ele>1873.9</ele>
        <time>2019-05-30T05:31:42Z</time>
      </trkpt>
      <trkpt lat="44.77987" lon="5.46651">
        <ele>1872.9</ele>
        <time>2019-05-30T05:31:46Z</time>
      </trkpt>
      <trkpt lat="44.77989" lon="5.46654">
        <ele>1872.2</ele>
        <time>2019-05-30T05:31:51Z</time>
      </trkpt>
      <trkpt lat="44.7799" lon="5.46657">
        <ele>1871.5</ele>
        <time>2019-05-30T05:31:54Z</time>
      </trkpt>
      <trkpt lat="44.77993" lon="5.46661">
        <ele>1870.6</ele>
        <time>2019-05-30T05:31:57Z</time>
      </trkpt>
      <trkpt lat="44.77995" lon="5.46665">
        <ele>1869.8</ele>
        <time>2019-05-30T05:32:00Z</time>
      </trkpt>
      <trkpt lat="44.77996" lon="5.46669">
        <ele>1869.1</ele>
        <time>2019-05-30T05:32:02Z</time>
      </trkpt>
      <trkpt lat="44.77997" lon="5.46673">
        <ele>1868.1</ele>
        <time>2019-05-30T05:32:05Z</time>
      </trkpt>
      <trkpt lat="44.77998" lon="5.46678">
        <ele>1867.3</ele>
        <time>2019-05-30T05:32:08Z</time>
      </trkpt>
      <trkpt lat="44.77999" lon="5.46682">
        <ele>1866.2</ele>
        <time>2019-05-30T05:32:12Z</time>
      </trkpt>
      <trkpt lat="44.78002" lon="5.46684">
        <ele>1865.2</ele>
        <time>2019-05-30T05:32:16Z</time>
      </trkpt>
      <trkpt lat="44.78004" lon="5.46686">
        <ele>1864</ele>
        <time>2019-05-30T05:32:20Z</time>
      </trkpt>
      <trkpt lat="44.78007" lon="5.46688">
        <ele>1863</ele>
        <time>2019-05-30T05:32:23Z</time>
      </trkpt>
      <trkpt lat="44.7801" lon="5.4669">
        <ele>1861.8</ele>
        <time>2019-05-30T05:32:27Z</time>
      </trkpt>
      <trkpt lat="44.78012" lon="5.46694">
        <ele>1860.6</ele>
        <time>2019-05-30T05:32:31Z</time>
      </trkpt>
      <trkpt lat="44.78015" lon="5.46697">
        <ele>1859.7</ele>
        <time>2019-05-30T05:32:34Z</time>
      </trkpt>
      <trkpt lat="44.78016" lon="5.46701">
        <ele>1859</ele>
        <time>2019-05-30T05:32:37Z</time>
      </trkpt>
      <trkpt lat="44.78017" lon="5.46705">
        <ele>1858.1</ele>
        <time>2019-05-30T05:32:40Z</time>
      </trkpt>
      <trkpt lat="44.78019" lon="5.46709">
        <ele>1857</ele>
        <time>2019-05-30T05:32:44Z</time>
      </trkpt>
      <trkpt lat="44.78021" lon="5.46714">
        <ele>1855.9</ele>
        <time>2019-05-30T05:32:48Z</time>
      </trkpt>
      <trkpt lat="44.78024" lon="5.46716">
        <ele>1855.1</ele>
        <time>2019-05-30T05:32:52Z</time>
      </trkpt>
      <trkpt lat="44.78026" lon="5.46719">
        <ele>1854.2</ele>
        <time>2019-05-30T05:32:56Z</time>
      </trkpt>
      <trkpt lat="44.78029" lon="5.46721">
        <ele>1853.3</ele>
        <time>2019-05-30T05:32:59Z</time>
      </trkpt>
      <trkpt lat="44.78032" lon="5.46723">
        <ele>1852.3</ele>
        <time>2019-05-30T05:33:03Z</time>
      </trkpt>
      <trkpt lat="44.78034" lon="5.46725">
        <ele>1851.3</ele>
        <time>2019-05-30T05:33:07Z</time>
      </trkpt>
      <trkpt lat="44.78036" lon="5.46729">
        <ele>1850.5</ele>
        <time>2019-05-30T05:33:11Z</time>
      </trkpt>
      <trkpt lat="44.78038" lon="5.46732">
        <ele>1849.7</ele>
        <time>2019-05-30T05:33:15Z</time>
      </trkpt>
      <trkpt lat="44.7804" lon="5.46734">
        <ele>1848.9</ele>
        <time>2019-05-30T05:33:19Z</time>
      </trkpt>
      <trkpt lat="44.78043" lon="5.46737">
        <ele>1848.1</ele>
        <time>2019-05-30T05:33:23Z</time>
      </trkpt>
      <trkpt lat="44.78045" lon="5.46739">
        <ele>1847.3</ele>
        <time>2019-05-30T05:33:27Z</time>
      </trkpt>
      <trkpt lat="44.78047" lon="5.46742">
        <ele>1846.6</ele>
        <time>2019-05-30T05:33:31Z</time>
      </trkpt>
      <trkpt lat="44.78049" lon="5.46745">
        <ele>1845.6</ele>
        <time>2019-05-30T05:33:34Z</time>
      </trkpt>
      <trkpt lat="44.7805" lon="5.46748">
        <ele>1844.6</ele>
        <time>2019-05-30T05:33:37Z</time>
      </trkpt>
      <trkpt lat="44.78051" lon="5.46753">
        <ele>1843.4</ele>
        <time>2019-05-30T05:33:40Z</time>
      </trkpt>
      <trkpt lat="44.78053" lon="5.46756">
        <ele>1842.4</ele>
        <time>2019-05-30T05:33:43Z</time>
      </trkpt>
      <trkpt lat="44.78055" lon="5.46758">
        <ele>1841.5</ele>
        <time>2019-05-30T05:33:47Z</time>
      </trkpt>
      <trkpt lat="44.78058" lon="5.46761">
        <ele>1840.5</ele>
        <time>2019-05-30T05:33:51Z</time>
      </trkpt>
      <trkpt lat="44.7806" lon="5.46762">
        <ele>1839.8</ele>
        <time>2019-05-30T05:33:54Z</time>
      </trkpt>
      <trkpt lat="44.78062" lon="5.46765">
        <ele>1839</ele>
        <time>2019-05-30T05:33:58Z</time>
      </trkpt>
      <trkpt lat="44.78061" lon="5.46768">
        <ele>1838</ele>
        <time>2019-05-30T05:34:02Z</time>
      </trkpt>
      <trkpt lat="44.78061" lon="5.46773">
        <ele>1836.7</ele>
        <time>2019-05-30T05:34:09Z</time>
      </trkpt>
      <trkpt lat="44.78063" lon="5.46775">
        <ele>1835.6</ele>
        <time>2019-05-30T05:34:14Z</time>
      </trkpt>
      <trkpt lat="44.78065" lon="5.46779">
        <ele>1834.3</ele>
        <time>2019-05-30T05:34:23Z</time>
      </trkpt>
      <trkpt lat="44.78065" lon="5.46783">
        <ele>1833.2</ele>
        <time>2019-05-30T05:34:26Z</time>
      </trkpt>
      <trkpt lat="44.78067" lon="5.46787">
        <ele>1831.9</ele>
        <time>2019-05-30T05:34:29Z</time>
      </trkpt>
      <trkpt lat="44.78069" lon="5.4679">
        <ele>1831.1</ele>
        <time>2019-05-30T05:34:33Z</time>
      </trkpt>
      <trkpt lat="44.78071" lon="5.46794">
        <ele>1830.2</ele>
        <time>2019-05-30T05:34:37Z</time>
      </trkpt>
      <trkpt lat="44.78073" lon="5.46797">
        <ele>1829.3</ele>
        <time>2019-05-30T05:34:40Z</time>
      </trkpt>
      <trkpt lat="44.78075" lon="5.46801">
        <ele>1828.1</ele>
        <time>2019-05-30T05:34:43Z</time>
      </trkpt>
      <trkpt lat="44.78077" lon="5.46804">
        <ele>1827</ele>
        <time>2019-05-30T05:34:47Z</time>
      </trkpt>
      <trkpt lat="44.78079" lon="5.46807">
        <ele>1826</ele>
        <time>2019-05-30T05:34:52Z</time>
      </trkpt>
      <trkpt lat="44.78081" lon="5.4681">
        <ele>1824.9</ele>
        <time>2019-05-30T05:34:58Z</time>
      </trkpt>
      <trkpt lat="44.78082" lon="5.46813">
        <ele>1824</ele>
        <time>2019-05-30T05:35:17Z</time>
      </trkpt>
      <trkpt lat="44.78086" lon="5.46818">
        <ele>1822.3</ele>
        <time>2019-05-30T05:36:22Z</time>
      </trkpt>
      <trkpt lat="44.78089" lon="5.4682">
        <ele>1821.2</ele>
        <time>2019-05-30T05:36:26Z</time>
      </trkpt>
      <trkpt lat="44.78092" lon="5.4682">
        <ele>1820</ele>
        <time>2019-05-30T05:36:29Z</time>
      </trkpt>
      <trkpt lat="44.78095" lon="5.46819">
        <ele>1818.7</ele>
        <time>2019-05-30T05:36:32Z</time>
      </trkpt>
      <trkpt lat="44.78098" lon="5.46819">
        <ele>1817.6</ele>
        <time>2019-05-30T05:36:39Z</time>
      </trkpt>
      <trkpt lat="44.78101" lon="5.46818">
        <ele>1816.5</ele>
        <time>2019-05-30T05:36:44Z</time>
      </trkpt>
      <trkpt lat="44.78103" lon="5.4682">
        <ele>1815.4</ele>
        <time>2019-05-30T05:36:49Z</time>
      </trkpt>
      <trkpt lat="44.78105" lon="5.46823">
        <ele>1814.1</ele>
        <time>2019-05-30T05:36:54Z</time>
      </trkpt>
      <trkpt lat="44.78108" lon="5.46825">
        <ele>1813.2</ele>
        <time>2019-05-30T05:37:00Z</time>
      </trkpt>
      <trkpt lat="44.78111" lon="5.46827">
        <ele>1812.5</ele>
        <time>2019-05-30T05:37:11Z</time>
      </trkpt>
      <trkpt lat="44.78111" lon="5.46831">
        <ele>1811.7</ele>
        <time>2019-05-30T05:37:14Z</time>
      </trkpt>
      <trkpt lat="44.78112" lon="5.46836">
        <ele>1810.6</ele>
        <time>2019-05-30T05:37:19Z</time>
      </trkpt>
      <trkpt lat="44.78113" lon="5.46841">
        <ele>1809.3</ele>
        <time>2019-05-30T05:37:23Z</time>
      </trkpt>
      <trkpt lat="44.78113" lon="5.46846">
        <ele>1808</ele>
        <time>2019-05-30T05:37:26Z</time>
      </trkpt>
      <trkpt lat="44.78113" lon="5.46851">
        <ele>1806.7</ele>
        <time>2019-05-30T05:37:29Z</time>
      </trkpt>
      <trkpt lat="44.78112" lon="5.46856">
        <ele>1805.5</ele>
        <time>2019-05-30T05:37:32Z</time>
      </trkpt>
      <trkpt lat="44.78112" lon="5.4686">
        <ele>1804.5</ele>
        <time>2019-05-30T05:37:35Z</time>
      </trkpt>
      <trkpt lat="44.78114" lon="5.46864">
        <ele>1803.5</ele>
        <time>2019-05-30T05:37:38Z</time>
      </trkpt>
      <trkpt lat="44.78115" lon="5.46867">
        <ele>1802.6</ele>
        <time>2019-05-30T05:37:41Z</time>
      </trkpt>
      <trkpt lat="44.78118" lon="5.46868">
        <ele>1801.5</ele>
        <time>2019-05-30T05:37:44Z</time>
      </trkpt>
      <trkpt lat="44.78121" lon="5.4687">
        <ele>1800.5</ele>
        <time>2019-05-30T05:37:47Z</time>
      </trkpt>
      <trkpt lat="44.78122" lon="5.46876">
        <ele>1799.3</ele>
        <time>2019-05-30T05:37:50Z</time>
      </trkpt>
      <trkpt lat="44.78122" lon="5.46881">
        <ele>1798.1</ele>
        <time>2019-05-30T05:37:53Z</time>
      </trkpt>
      <trkpt lat="44.78123" lon="5.46886">
        <ele>1797</ele>
        <time>2019-05-30T05:37:56Z</time>
      </trkpt>
      <trkpt lat="44.78126" lon="5.46887">
        <ele>1796</ele>
        <time>2019-05-30T05:38:00Z</time>
      </trkpt>
      <trkpt lat="44.78129" lon="5.4689">
        <ele>1795.1</ele>
        <time>2019-05-30T05:38:04Z</time>
      </trkpt>
      <trkpt lat="44.7813" lon="5.46894">
        <ele>1794.1</ele>
        <time>2019-05-30T05:38:10Z</time>
      </trkpt>
      <trkpt lat="44.78133" lon="5.46896">
        <ele>1793.1</ele>
        <time>2019-05-30T05:38:17Z</time>
      </trkpt>
      <trkpt lat="44.78133" lon="5.46901">
        <ele>1791.9</ele>
        <time>2019-05-30T05:38:21Z</time>
      </trkpt>
      <trkpt lat="44.78133" lon="5.46905">
        <ele>1790.9</ele>
        <time>2019-05-30T05:38:28Z</time>
      </trkpt>
      <trkpt lat="44.78136" lon="5.46904">
        <ele>1789.9</ele>
        <time>2019-05-30T05:38:34Z</time>
      </trkpt>
      <trkpt lat="44.78139" lon="5.46904">
        <ele>1788.9</ele>
        <time>2019-05-30T05:38:38Z</time>
      </trkpt>
      <trkpt lat="44.78142" lon="5.46904">
        <ele>1787.8</ele>
        <time>2019-05-30T05:38:43Z</time>
      </trkpt>
      <trkpt lat="44.78145" lon="5.46906">
        <ele>1786.7</ele>
        <time>2019-05-30T05:38:47Z</time>
      </trkpt>
      <trkpt lat="44.78148" lon="5.46907">
        <ele>1785.5</ele>
        <time>2019-05-30T05:38:50Z</time>
      </trkpt>
      <trkpt lat="44.7815" lon="5.46909">
        <ele>1784.4</ele>
        <time>2019-05-30T05:38:53Z</time>
      </trkpt>
      <trkpt lat="44.78154" lon="5.46911">
        <ele>1782.9</ele>
        <time>2019-05-30T05:38:57Z</time>
      </trkpt>
      <trkpt lat="44.78157" lon="5.46912">
        <ele>1781.8</ele>
        <time>2019-05-30T05:39:00Z</time>
      </trkpt>
      <trkpt lat="44.7816" lon="5.46914">
        <ele>1781</ele>
        <time>2019-05-30T05:39:03Z</time>
      </trkpt>
      <trkpt lat="44.78163" lon="5.46915">
        <ele>1779.9</ele>
        <time>2019-05-30T05:39:08Z</time>
      </trkpt>
      <trkpt lat="44.78166" lon="5.46917">
        <ele>1778.4</ele>
        <time>2019-05-30T05:39:12Z</time>
      </trkpt>
      <trkpt lat="44.78168" lon="5.46919">
        <ele>1777</ele>
        <time>2019-05-30T05:39:16Z</time>
      </trkpt>
      <trkpt lat="44.78171" lon="5.46921">
        <ele>1775.7</ele>
        <time>2019-05-30T05:39:23Z</time>
      </trkpt>
      <trkpt lat="44.78172" lon="5.46924">
        <ele>1774.6</ele>
        <time>2019-05-30T05:39:26Z</time>
      </trkpt>
      <trkpt lat="44.78172" lon="5.46928">
        <ele>1773.9</ele>
        <time>2019-05-30T05:39:29Z</time>
      </trkpt>
      <trkpt lat="44.78172" lon="5.46933">
        <ele>1773.2</ele>
        <time>2019-05-30T05:39:34Z</time>
      </trkpt>
      <trkpt lat="44.78172" lon="5.46938">
        <ele>1772.4</ele>
        <time>2019-05-30T05:39:39Z</time>
      </trkpt>
      <trkpt lat="44.78171" lon="5.46941">
        <ele>1772.6</ele>
        <time>2019-05-30T05:39:44Z</time>
      </trkpt>
      <trkpt lat="44.78173" lon="5.46945">
        <ele>1770.6</ele>
        <time>2019-05-30T05:39:48Z</time>
      </trkpt>
      <trkpt lat="44.78175" lon="5.46949">
        <ele>1768.6</ele>
        <time>2019-05-30T05:39:56Z</time>
      </trkpt>
      <trkpt lat="44.78174" lon="5.46953">
        <ele>1768.5</ele>
        <time>2019-05-30T05:40:14Z</time>
      </trkpt>
      <trkpt lat="44.78174" lon="5.46958">
        <ele>1767.4</ele>
        <time>2019-05-30T05:40:19Z</time>
      </trkpt>
      <trkpt lat="44.78172" lon="5.46961">
        <ele>1766.3</ele>
        <time>2019-05-30T05:40:23Z</time>
      </trkpt>
      <trkpt lat="44.78169" lon="5.46962">
        <ele>1767.2</ele>
        <time>2019-05-30T05:40:26Z</time>
      </trkpt>
      <trkpt lat="44.78167" lon="5.46965">
        <ele>1766.9</ele>
        <time>2019-05-30T05:40:30Z</time>
      </trkpt>
      <trkpt lat="44.78165" lon="5.46968">
        <ele>1767.7</ele>
        <time>2019-05-30T05:40:36Z</time>
      </trkpt>
      <trkpt lat="44.78162" lon="5.46969">
        <ele>1768.4</ele>
        <time>2019-05-30T05:40:41Z</time>
      </trkpt>
      <trkpt lat="44.78159" lon="5.46969">
        <ele>1767.8</ele>
        <time>2019-05-30T05:40:45Z</time>
      </trkpt>
      <trkpt lat="44.78156" lon="5.46971">
        <ele>1767.8</ele>
        <time>2019-05-30T05:40:48Z</time>
      </trkpt>
      <trkpt lat="44.78154" lon="5.46968">
        <ele>1769.7</ele>
        <time>2019-05-30T05:40:52Z</time>
      </trkpt>
      <trkpt lat="44.78157" lon="5.46969">
        <ele>1767.8</ele>
        <time>2019-05-30T05:41:06Z</time>
      </trkpt>
      <trkpt lat="44.7816" lon="5.46972">
        <ele>1767.1</ele>
        <time>2019-05-30T05:41:10Z</time>
      </trkpt>
      <trkpt lat="44.78161" lon="5.46975">
        <ele>1765.9</ele>
        <time>2019-05-30T05:41:17Z</time>
      </trkpt>
      <trkpt lat="44.78161" lon="5.4698">
        <ele>1764.6</ele>
        <time>2019-05-30T05:41:24Z</time>
      </trkpt>
      <trkpt lat="44.78162" lon="5.46984">
        <ele>1762.6</ele>
        <time>2019-05-30T05:41:28Z</time>
      </trkpt>
      <trkpt lat="44.78165" lon="5.46991">
        <ele>1760</ele>
        <time>2019-05-30T05:41:31Z</time>
      </trkpt>
      <trkpt lat="44.78166" lon="5.46994">
        <ele>1759.2</ele>
        <time>2019-05-30T05:41:35Z</time>
      </trkpt>
      <trkpt lat="44.78168" lon="5.46998">
        <ele>1757.8</ele>
        <time>2019-05-30T05:41:39Z</time>
      </trkpt>
      <trkpt lat="44.7817" lon="5.47001">
        <ele>1755.6</ele>
        <time>2019-05-30T05:41:43Z</time>
      </trkpt>
      <trkpt lat="44.78173" lon="5.47004">
        <ele>1753.4</ele>
        <time>2019-05-30T05:41:46Z</time>
      </trkpt>
      <trkpt lat="44.78177" lon="5.47006">
        <ele>1752.6</ele>
        <time>2019-05-30T05:41:50Z</time>
      </trkpt>
      <trkpt lat="44.7818" lon="5.47007">
        <ele>1751.8</ele>
        <time>2019-05-30T05:41:54Z</time>
      </trkpt>
      <trkpt lat="44.78183" lon="5.47009">
        <ele>1749.8</ele>
        <time>2019-05-30T05:41:59Z</time>
      </trkpt>
      <trkpt lat="44.78186" lon="5.47012">
        <ele>1749.1</ele>
        <time>2019-05-30T05:42:01Z</time>
      </trkpt>
      <trkpt lat="44.78188" lon="5.47014">
        <ele>1747</ele>
        <time>2019-05-30T05:42:04Z</time>
      </trkpt>
      <trkpt lat="44.78191" lon="5.47015">
        <ele>1746.2</ele>
        <time>2019-05-30T05:42:07Z</time>
      </trkpt>
      <trkpt lat="44.78194" lon="5.47016">
        <ele>1745.3</ele>
        <time>2019-05-30T05:42:11Z</time>
      </trkpt>
      <trkpt lat="44.78198" lon="5.47016">
        <ele>1744.3</ele>
        <time>2019-05-30T05:42:15Z</time>
      </trkpt>
      <trkpt lat="44.78201" lon="5.47016">
        <ele>1743.4</ele>
        <time>2019-05-30T05:42:19Z</time>
      </trkpt>
      <trkpt lat="44.78204" lon="5.47015">
        <ele>1742.5</ele>
        <time>2019-05-30T05:42:26Z</time>
      </trkpt>
      <trkpt lat="44.78206" lon="5.47018">
        <ele>1740.6</ele>
        <time>2019-05-30T05:42:36Z</time>
      </trkpt>
      <trkpt lat="44.78209" lon="5.47021">
        <ele>1738.7</ele>
        <time>2019-05-30T05:42:41Z</time>
      </trkpt>
      <trkpt lat="44.78212" lon="5.47026">
        <ele>1736.8</ele>
        <time>2019-05-30T05:42:51Z</time>
      </trkpt>
      <trkpt lat="44.78215" lon="5.47028">
        <ele>1736</ele>
        <time>2019-05-30T05:42:54Z</time>
      </trkpt>
      <trkpt lat="44.78217" lon="5.47031">
        <ele>1733.9</ele>
        <time>2019-05-30T05:42:58Z</time>
      </trkpt>
      <trkpt lat="44.7822" lon="5.47033">
        <ele>1733.9</ele>
        <time>2019-05-30T05:43:04Z</time>
      </trkpt>
      <trkpt lat="44.78222" lon="5.47035">
        <ele>1731.9</ele>
        <time>2019-05-30T05:43:10Z</time>
      </trkpt>
      <trkpt lat="44.78224" lon="5.47038">
        <ele>1729.8</ele>
        <time>2019-05-30T05:43:14Z</time>
      </trkpt>
      <trkpt lat="44.78225" lon="5.47044">
        <ele>1728.6</ele>
        <time>2019-05-30T05:43:19Z</time>
      </trkpt>
      <trkpt lat="44.78224" lon="5.47048">
        <ele>1727.4</ele>
        <time>2019-05-30T05:43:22Z</time>
      </trkpt>
      <trkpt lat="44.78222" lon="5.47051">
        <ele>1727.1</ele>
        <time>2019-05-30T05:43:30Z</time>
      </trkpt>
      <trkpt lat="44.7822" lon="5.47053">
        <ele>1727.9</ele>
        <time>2019-05-30T05:43:40Z</time>
      </trkpt>
      <trkpt lat="44.78219" lon="5.47057">
        <ele>1726.7</ele>
        <time>2019-05-30T05:43:45Z</time>
      </trkpt>
      <trkpt lat="44.78218" lon="5.4706">
        <ele>1725.6</ele>
        <time>2019-05-30T05:43:49Z</time>
      </trkpt>
      <trkpt lat="44.78217" lon="5.47064">
        <ele>1725.4</ele>
        <time>2019-05-30T05:43:54Z</time>
      </trkpt>
      <trkpt lat="44.78215" lon="5.47068">
        <ele>1724.4</ele>
        <time>2019-05-30T05:43:58Z</time>
      </trkpt>
      <trkpt lat="44.78213" lon="5.4707">
        <ele>1725.1</ele>
        <time>2019-05-30T05:44:05Z</time>
      </trkpt>
      <trkpt lat="44.7821" lon="5.47072">
        <ele>1725.7</ele>
        <time>2019-05-30T05:44:09Z</time>
      </trkpt>
      <trkpt lat="44.78208" lon="5.47073">
        <ele>1725.3</ele>
        <time>2019-05-30T05:44:12Z</time>
      </trkpt>
      <trkpt lat="44.78208" lon="5.47078">
        <ele>1723.6</ele>
        <time>2019-05-30T05:44:28Z</time>
      </trkpt>
      <trkpt lat="44.7821" lon="5.47081">
        <ele>1722.5</ele>
        <time>2019-05-30T05:44:31Z</time>
      </trkpt>
      <trkpt lat="44.78212" lon="5.47085">
        <ele>1721.8</ele>
        <time>2019-05-30T05:44:34Z</time>
      </trkpt>
      <trkpt lat="44.78214" lon="5.47089">
        <ele>1720</ele>
        <time>2019-05-30T05:44:38Z</time>
      </trkpt>
      <trkpt lat="44.78215" lon="5.47092">
        <ele>1718.8</ele>
        <time>2019-05-30T05:44:40Z</time>
      </trkpt>
      <trkpt lat="44.78218" lon="5.47096">
        <ele>1717</ele>
        <time>2019-05-30T05:44:42Z</time>
      </trkpt>
      <trkpt lat="44.78221" lon="5.47099">
        <ele>1715.2</ele>
        <time>2019-05-30T05:44:44Z</time>
      </trkpt>
      <trkpt lat="44.78224" lon="5.471">
        <ele>1714.5</ele>
        <time>2019-05-30T05:44:47Z</time>
      </trkpt>
      <trkpt lat="44.78227" lon="5.47097">
        <ele>1714.8</ele>
        <time>2019-05-30T05:44:52Z</time>
      </trkpt>
      <trkpt lat="44.7823" lon="5.47095">
        <ele>1714.2</ele>
        <time>2019-05-30T05:44:55Z</time>
      </trkpt>
      <trkpt lat="44.78232" lon="5.47092">
        <ele>1714.6</ele>
        <time>2019-05-30T05:44:59Z</time>
      </trkpt>
      <trkpt lat="44.78235" lon="5.4709">
        <ele>1714.6</ele>
        <time>2019-05-30T05:45:10Z</time>
      </trkpt>
      <trkpt lat="44.78237" lon="5.47095">
        <ele>1712.9</ele>
        <time>2019-05-30T05:45:27Z</time>
      </trkpt>
      <trkpt lat="44.78238" lon="5.47099">
        <ele>1711.9</ele>
        <time>2019-05-30T05:45:31Z</time>
      </trkpt>
      <trkpt lat="44.7824" lon="5.47099">
        <ele>1711.2</ele>
        <time>2019-05-30T05:45:34Z</time>
      </trkpt>
      <trkpt lat="44.78244" lon="5.47098">
        <ele>1710.5</ele>
        <time>2019-05-30T05:45:37Z</time>
      </trkpt>
      <trkpt lat="44.78247" lon="5.47096">
        <ele>1710.8</ele>
        <time>2019-05-30T05:45:39Z</time>
      </trkpt>
      <trkpt lat="44.7825" lon="5.47096">
        <ele>1710</ele>
        <time>2019-05-30T05:45:43Z</time>
      </trkpt>
      <trkpt lat="44.78253" lon="5.47097">
        <ele>1709.2</ele>
        <time>2019-05-30T05:45:48Z</time>
      </trkpt>
      <trkpt lat="44.78255" lon="5.47099">
        <ele>1707.5</ele>
        <time>2019-05-30T05:45:52Z</time>
      </trkpt>
      <trkpt lat="44.78259" lon="5.47099">
        <ele>1706.7</ele>
        <time>2019-05-30T05:45:55Z</time>
      </trkpt>
      <trkpt lat="44.78262" lon="5.47098">
        <ele>1706</ele>
        <time>2019-05-30T05:45:58Z</time>
      </trkpt>
      <trkpt lat="44.78265" lon="5.47096">
        <ele>1706.2</ele>
        <time>2019-05-30T05:46:02Z</time>
      </trkpt>
      <trkpt lat="44.78267" lon="5.47093">
        <ele>1706.5</ele>
        <time>2019-05-30T05:46:06Z</time>
      </trkpt>
      <trkpt lat="44.78268" lon="5.47089">
        <ele>1707.5</ele>
        <time>2019-05-30T05:46:11Z</time>
      </trkpt>
      <trkpt lat="44.78271" lon="5.47087">
        <ele>1706.7</ele>
        <time>2019-05-30T05:46:18Z</time>
      </trkpt>
      <trkpt lat="44.78274" lon="5.47088">
        <ele>1705.9</ele>
        <time>2019-05-30T05:46:25Z</time>
      </trkpt>
      <trkpt lat="44.78276" lon="5.47091">
        <ele>1704.1</ele>
        <time>2019-05-30T05:46:36Z</time>
      </trkpt>
      <trkpt lat="44.78277" lon="5.47095">
        <ele>1703.2</ele>
        <time>2019-05-30T05:46:40Z</time>
      </trkpt>
      <trkpt lat="44.78278" lon="5.47098">
        <ele>1701.4</ele>
        <time>2019-05-30T05:46:44Z</time>
      </trkpt>
      <trkpt lat="44.7828" lon="5.47103">
        <ele>1700.5</ele>
        <time>2019-05-30T05:46:51Z</time>
      </trkpt>
      <trkpt lat="44.78283" lon="5.47107">
        <ele>1698.8</ele>
        <time>2019-05-30T05:46:54Z</time>
      </trkpt>
      <trkpt lat="44.78286" lon="5.4711">
        <ele>1698</ele>
        <time>2019-05-30T05:46:56Z</time>
      </trkpt>
      <trkpt lat="44.78288" lon="5.47114">
        <ele>1696.5</ele>
        <time>2019-05-30T05:46:58Z</time>
      </trkpt>
      <trkpt lat="44.78291" lon="5.47118">
        <ele>1695.1</ele>
        <time>2019-05-30T05:47:00Z</time>
      </trkpt>
      <trkpt lat="44.78293" lon="5.47121">
        <ele>1693.3</ele>
        <time>2019-05-30T05:47:03Z</time>
      </trkpt>
      <trkpt lat="44.78295" lon="5.47124">
        <ele>1692.6</ele>
        <time>2019-05-30T05:47:05Z</time>
      </trkpt>
      <trkpt lat="44.78298" lon="5.47126">
        <ele>1692</ele>
        <time>2019-05-30T05:47:08Z</time>
      </trkpt>
      <trkpt lat="44.78301" lon="5.47127">
        <ele>1691.4</ele>
        <time>2019-05-30T05:47:11Z</time>
      </trkpt>
      <trkpt lat="44.78304" lon="5.47127">
        <ele>1690.7</ele>
        <time>2019-05-30T05:47:16Z</time>
      </trkpt>
      <trkpt lat="44.78306" lon="5.47125">
        <ele>1690</ele>
        <time>2019-05-30T05:47:22Z</time>
      </trkpt>
      <trkpt lat="44.78308" lon="5.4712">
        <ele>1690.7</ele>
        <time>2019-05-30T05:47:25Z</time>
      </trkpt>
      <trkpt lat="44.7831" lon="5.47117">
        <ele>1691</ele>
        <time>2019-05-30T05:47:29Z</time>
      </trkpt>
      <trkpt lat="44.78313" lon="5.47114">
        <ele>1691</ele>
        <time>2019-05-30T05:47:32Z</time>
      </trkpt>
      <trkpt lat="44.78316" lon="5.47112">
        <ele>1690.3</ele>
        <time>2019-05-30T05:47:35Z</time>
      </trkpt>
      <trkpt lat="44.78319" lon="5.47111">
        <ele>1689.6</ele>
        <time>2019-05-30T05:47:39Z</time>
      </trkpt>
      <trkpt lat="44.78322" lon="5.4711">
        <ele>1689.6</ele>
        <time>2019-05-30T05:47:41Z</time>
      </trkpt>
      <trkpt lat="44.78325" lon="5.47109">
        <ele>1688.8</ele>
        <time>2019-05-30T05:47:44Z</time>
      </trkpt>
      <trkpt lat="44.78329" lon="5.47107">
        <ele>1688</ele>
        <time>2019-05-30T05:47:47Z</time>
      </trkpt>
      <trkpt lat="44.78332" lon="5.47105">
        <ele>1687.7</ele>
        <time>2019-05-30T05:47:50Z</time>
      </trkpt>
      <trkpt lat="44.78336" lon="5.47103">
        <ele>1686.8</ele>
        <time>2019-05-30T05:47:53Z</time>
      </trkpt>
      <trkpt lat="44.78339" lon="5.47101">
        <ele>1686.5</ele>
        <time>2019-05-30T05:47:56Z</time>
      </trkpt>
      <trkpt lat="44.78342" lon="5.47099">
        <ele>1684.7</ele>
        <time>2019-05-30T05:47:59Z</time>
      </trkpt>
      <trkpt lat="44.78345" lon="5.47097">
        <ele>1684.5</ele>
        <time>2019-05-30T05:48:02Z</time>
      </trkpt>
      <trkpt lat="44.78348" lon="5.47095">
        <ele>1683.6</ele>
        <time>2019-05-30T05:48:05Z</time>
      </trkpt>
      <trkpt lat="44.78351" lon="5.47093">
        <ele>1684.2</ele>
        <time>2019-05-30T05:48:10Z</time>
      </trkpt>
      <trkpt lat="44.78353" lon="5.47092">
        <ele>1683.2</ele>
        <time>2019-05-30T05:48:13Z</time>
      </trkpt>
      <trkpt lat="44.78357" lon="5.47093">
        <ele>1682.3</ele>
        <time>2019-05-30T05:48:15Z</time>
      </trkpt>
      <trkpt lat="44.7836" lon="5.47094">
        <ele>1680.8</ele>
        <time>2019-05-30T05:48:17Z</time>
      </trkpt>
      <trkpt lat="44.78363" lon="5.47095">
        <ele>1678.8</ele>
        <time>2019-05-30T05:48:20Z</time>
      </trkpt>
      <trkpt lat="44.78366" lon="5.47097">
        <ele>1678.8</ele>
        <time>2019-05-30T05:48:24Z</time>
      </trkpt>
      <trkpt lat="44.78367" lon="5.471">
        <ele>1677.3</ele>
        <time>2019-05-30T05:48:30Z</time>
      </trkpt>
      <trkpt lat="44.78371" lon="5.47101">
        <ele>1676.4</ele>
        <time>2019-05-30T05:48:33Z</time>
      </trkpt>
      <trkpt lat="44.78374" lon="5.47102">
        <ele>1675.1</ele>
        <time>2019-05-30T05:48:36Z</time>
      </trkpt>
      <trkpt lat="44.78377" lon="5.47102">
        <ele>1674.8</ele>
        <time>2019-05-30T05:48:38Z</time>
      </trkpt>
      <trkpt lat="44.7838" lon="5.47102">
        <ele>1673.6</ele>
        <time>2019-05-30T05:48:42Z</time>
      </trkpt>
      <trkpt lat="44.78379" lon="5.47106">
        <ele>1673.6</ele>
        <time>2019-05-30T05:48:51Z</time>
      </trkpt>
      <trkpt lat="44.78379" lon="5.47111">
        <ele>1673.2</ele>
        <time>2019-05-30T05:48:55Z</time>
      </trkpt>
      <trkpt lat="44.7838" lon="5.47114">
        <ele>1672.8</ele>
        <time>2019-05-30T05:49:01Z</time>
      </trkpt>
      <trkpt lat="44.78381" lon="5.47118">
        <ele>1672.4</ele>
        <time>2019-05-30T05:49:07Z</time>
      </trkpt>
      <trkpt lat="44.78383" lon="5.47122">
        <ele>1671.1</ele>
        <time>2019-05-30T05:49:11Z</time>
      </trkpt>
      <trkpt lat="44.78386" lon="5.47124">
        <ele>1670</ele>
        <time>2019-05-30T05:49:15Z</time>
      </trkpt>
      <trkpt lat="44.78389" lon="5.47125">
        <ele>1669.2</ele>
        <time>2019-05-30T05:49:17Z</time>
      </trkpt>
      <trkpt lat="44.78392" lon="5.47126">
        <ele>1668.5</ele>
        <time>2019-05-30T05:49:20Z</time>
      </trkpt>
      <trkpt lat="44.78395" lon="5.47128">
        <ele>1667.4</ele>
        <time>2019-05-30T05:49:22Z</time>
      </trkpt>
      <trkpt lat="44.78397" lon="5.4713">
        <ele>1666.7</ele>
        <time>2019-05-30T05:49:24Z</time>
      </trkpt>
      <trkpt lat="44.78399" lon="5.47133">
        <ele>1666.4</ele>
        <time>2019-05-30T05:49:27Z</time>
      </trkpt>
      <trkpt lat="44.78401" lon="5.47136">
        <ele>1665.8</ele>
        <time>2019-05-30T05:49:30Z</time>
      </trkpt>
      <trkpt lat="44.78403" lon="5.4714">
        <ele>1664.9</ele>
        <time>2019-05-30T05:49:32Z</time>
      </trkpt>
      <trkpt lat="44.78406" lon="5.47145">
        <ele>1663.8</ele>
        <time>2019-05-30T05:49:34Z</time>
      </trkpt>
      <trkpt lat="44.78409" lon="5.4715">
        <ele>1663.5</ele>
        <time>2019-05-30T05:49:36Z</time>
      </trkpt>
      <trkpt lat="44.78411" lon="5.47154">
        <ele>1662.5</ele>
        <time>2019-05-30T05:49:38Z</time>
      </trkpt>
      <trkpt lat="44.78414" lon="5.47159">
        <ele>1661.4</ele>
        <time>2019-05-30T05:49:40Z</time>
      </trkpt>
      <trkpt lat="44.78416" lon="5.47165">
        <ele>1660.1</ele>
        <time>2019-05-30T05:49:42Z</time>
      </trkpt>
      <trkpt lat="44.78418" lon="5.47169">
        <ele>1658.8</ele>
        <time>2019-05-30T05:49:44Z</time>
      </trkpt>
      <trkpt lat="44.78421" lon="5.47172">
        <ele>1658.2</ele>
        <time>2019-05-30T05:49:46Z</time>
      </trkpt>
      <trkpt lat="44.78423" lon="5.47176">
        <ele>1656.7</ele>
        <time>2019-05-30T05:49:48Z</time>
      </trkpt>
      <trkpt lat="44.78426" lon="5.47178">
        <ele>1656</ele>
        <time>2019-05-30T05:49:51Z</time>
      </trkpt>
      <trkpt lat="44.78427" lon="5.47181">
        <ele>1654.7</ele>
        <time>2019-05-30T05:49:54Z</time>
      </trkpt>
      <trkpt lat="44.78429" lon="5.47184">
        <ele>1654</ele>
        <time>2019-05-30T05:49:57Z</time>
      </trkpt>
      <trkpt lat="44.78432" lon="5.47187">
        <ele>1653.3</ele>
        <time>2019-05-30T05:50:00Z</time>
      </trkpt>
      <trkpt lat="44.78435" lon="5.4719">
        <ele>1652</ele>
        <time>2019-05-30T05:50:02Z</time>
      </trkpt>
      <trkpt lat="44.78438" lon="5.47193">
        <ele>1650.7</ele>
        <time>2019-05-30T05:50:04Z</time>
      </trkpt>
      <trkpt lat="44.78441" lon="5.47195">
        <ele>1650</ele>
        <time>2019-05-30T05:50:06Z</time>
      </trkpt>
      <trkpt lat="44.78444" lon="5.47196">
        <ele>1649.4</ele>
        <time>2019-05-30T05:50:09Z</time>
      </trkpt>
      <trkpt lat="44.78448" lon="5.47197">
        <ele>1648.1</ele>
        <time>2019-05-30T05:50:13Z</time>
      </trkpt>
      <trkpt lat="44.78451" lon="5.47198">
        <ele>1647.5</ele>
        <time>2019-05-30T05:50:16Z</time>
      </trkpt>
      <trkpt lat="44.78454" lon="5.472">
        <ele>1647</ele>
        <time>2019-05-30T05:50:19Z</time>
      </trkpt>
      <trkpt lat="44.78458" lon="5.47201">
        <ele>1645.5</ele>
        <time>2019-05-30T05:50:22Z</time>
      </trkpt>
      <trkpt lat="44.78461" lon="5.47203">
        <ele>1645.1</ele>
        <time>2019-05-30T05:50:24Z</time>
      </trkpt>
      <trkpt lat="44.78464" lon="5.47205">
        <ele>1644.6</ele>
        <time>2019-05-30T05:50:26Z</time>
      </trkpt>
      <trkpt lat="44.78466" lon="5.47208">
        <ele>1644.2</ele>
        <time>2019-05-30T05:50:28Z</time>
      </trkpt>
      <trkpt lat="44.78469" lon="5.47211">
        <ele>1643.4</ele>
        <time>2019-05-30T05:50:31Z</time>
      </trkpt>
      <trkpt lat="44.78471" lon="5.47214">
        <ele>1642.5</ele>
        <time>2019-05-30T05:50:34Z</time>
      </trkpt>
      <trkpt lat="44.78474" lon="5.47217">
        <ele>1642.2</ele>
        <time>2019-05-30T05:50:37Z</time>
      </trkpt>
      <trkpt lat="44.78477" lon="5.4722">
        <ele>1641.4</ele>
        <time>2019-05-30T05:50:40Z</time>
      </trkpt>
      <trkpt lat="44.7848" lon="5.47223">
        <ele>1640.7</ele>
        <time>2019-05-30T05:50:44Z</time>
      </trkpt>
      <trkpt lat="44.78482" lon="5.47226">
        <ele>1640.5</ele>
        <time>2019-05-30T05:50:47Z</time>
      </trkpt>
      <trkpt lat="44.78485" lon="5.47228">
        <ele>1640.1</ele>
        <time>2019-05-30T05:50:50Z</time>
      </trkpt>
      <trkpt lat="44.78488" lon="5.47228">
        <ele>1639.8</ele>
        <time>2019-05-30T05:50:54Z</time>
      </trkpt>
      <trkpt lat="44.78491" lon="5.47227">
        <ele>1639.8</ele>
        <time>2019-05-30T05:50:57Z</time>
      </trkpt>
      <trkpt lat="44.78494" lon="5.47229">
        <ele>1639.7</ele>
        <time>2019-05-30T05:51:01Z</time>
      </trkpt>
      <trkpt lat="44.78496" lon="5.47226">
        <ele>1639.8</ele>
        <time>2019-05-30T05:51:06Z</time>
      </trkpt>
      <trkpt lat="44.78499" lon="5.47224">
        <ele>1639.6</ele>
        <time>2019-05-30T05:51:11Z</time>
      </trkpt>
      <trkpt lat="44.78501" lon="5.47222">
        <ele>1639.4</ele>
        <time>2019-05-30T05:51:15Z</time>
      </trkpt>
      <trkpt lat="44.78505" lon="5.47222">
        <ele>1639.4</ele>
        <time>2019-05-30T05:51:18Z</time>
      </trkpt>
      <trkpt lat="44.78508" lon="5.47222">
        <ele>1639</ele>
        <time>2019-05-30T05:51:21Z</time>
      </trkpt>
      <trkpt lat="44.78511" lon="5.47223">
        <ele>1638.8</ele>
        <time>2019-05-30T05:51:24Z</time>
      </trkpt>
      <trkpt lat="44.78515" lon="5.47225">
        <ele>1638.7</ele>
        <time>2019-05-30T05:51:27Z</time>
      </trkpt>
      <trkpt lat="44.78518" lon="5.47226">
        <ele>1638.6</ele>
        <time>2019-05-30T05:51:29Z</time>
      </trkpt>
      <trkpt lat="44.78521" lon="5.47228">
        <ele>1638.3</ele>
        <time>2019-05-30T05:51:32Z</time>
      </trkpt>
      <trkpt lat="44.78524" lon="5.47231">
        <ele>1638.2</ele>
        <time>2019-05-30T05:51:35Z</time>
      </trkpt>
      <trkpt lat="44.78527" lon="5.47233">
        <ele>1638</ele>
        <time>2019-05-30T05:51:38Z</time>
      </trkpt>
      <trkpt lat="44.7853" lon="5.47234">
        <ele>1637.8</ele>
        <time>2019-05-30T05:51:48Z</time>
      </trkpt>
      <trkpt lat="44.78534" lon="5.47235">
        <ele>1637.5</ele>
        <time>2019-05-30T05:51:51Z</time>
      </trkpt>
      <trkpt lat="44.78536" lon="5.47238">
        <ele>1637.3</ele>
        <time>2019-05-30T05:51:54Z</time>
      </trkpt>
      <trkpt lat="44.7854" lon="5.47238">
        <ele>1637.1</ele>
        <time>2019-05-30T05:51:57Z</time>
      </trkpt>
      <trkpt lat="44.78543" lon="5.47239">
        <ele>1636.6</ele>
        <time>2019-05-30T05:52:00Z</time>
      </trkpt>
      <trkpt lat="44.78547" lon="5.47242">
        <ele>1636.3</ele>
        <time>2019-05-30T05:52:03Z</time>
      </trkpt>
      <trkpt lat="44.78549" lon="5.47244">
        <ele>1635.9</ele>
        <time>2019-05-30T05:52:05Z</time>
      </trkpt>
      <trkpt lat="44.78553" lon="5.47246">
        <ele>1635.6</ele>
        <time>2019-05-30T05:52:08Z</time>
      </trkpt>
      <trkpt lat="44.78555" lon="5.47248">
        <ele>1635.1</ele>
        <time>2019-05-30T05:52:10Z</time>
      </trkpt>
      <trkpt lat="44.78558" lon="5.4725">
        <ele>1635.1</ele>
        <time>2019-05-30T05:52:12Z</time>
      </trkpt>
      <trkpt lat="44.78562" lon="5.47251">
        <ele>1634.4</ele>
        <time>2019-05-30T05:52:15Z</time>
      </trkpt>
      <trkpt lat="44.78566" lon="5.47251">
        <ele>1634</ele>
        <time>2019-05-30T05:52:18Z</time>
      </trkpt>
      <trkpt lat="44.78569" lon="5.47254">
        <ele>1633.7</ele>
        <time>2019-05-30T05:52:20Z</time>
      </trkpt>
      <trkpt lat="44.78571" lon="5.47255">
        <ele>1633.4</ele>
        <time>2019-05-30T05:52:22Z</time>
      </trkpt>
      <trkpt lat="44.78574" lon="5.47253">
        <ele>1632.9</ele>
        <time>2019-05-30T05:52:25Z</time>
      </trkpt>
      <trkpt lat="44.78577" lon="5.47251">
        <ele>1632.5</ele>
        <time>2019-05-30T05:52:28Z</time>
      </trkpt>
      <trkpt lat="44.78581" lon="5.47251">
        <ele>1632.1</ele>
        <time>2019-05-30T05:52:31Z</time>
      </trkpt>
      <trkpt lat="44.78584" lon="5.47251">
        <ele>1631.7</ele>
        <time>2019-05-30T05:52:34Z</time>
      </trkpt>
      <trkpt lat="44.78587" lon="5.47254">
        <ele>1631.3</ele>
        <time>2019-05-30T05:52:37Z</time>
      </trkpt>
      <trkpt lat="44.7859" lon="5.47257">
        <ele>1631</ele>
        <time>2019-05-30T05:52:40Z</time>
      </trkpt>
      <trkpt lat="44.78593" lon="5.4726">
        <ele>1630.5</ele>
        <time>2019-05-30T05:52:43Z</time>
      </trkpt>
      <trkpt lat="44.78595" lon="5.47262">
        <ele>1630.2</ele>
        <time>2019-05-30T05:52:46Z</time>
      </trkpt>
      <trkpt lat="44.78597" lon="5.47266">
        <ele>1630.3</ele>
        <time>2019-05-30T05:52:49Z</time>
      </trkpt>
      <trkpt lat="44.78599" lon="5.4727">
        <ele>1629.8</ele>
        <time>2019-05-30T05:52:52Z</time>
      </trkpt>
      <trkpt lat="44.78602" lon="5.47272">
        <ele>1629.3</ele>
        <time>2019-05-30T05:52:55Z</time>
      </trkpt>
      <trkpt lat="44.78604" lon="5.47275">
        <ele>1628.7</ele>
        <time>2019-05-30T05:52:57Z</time>
      </trkpt>
      <trkpt lat="44.78608" lon="5.47277">
        <ele>1628.1</ele>
        <time>2019-05-30T05:53:00Z</time>
      </trkpt>
      <trkpt lat="44.78611" lon="5.47279">
        <ele>1627.4</ele>
        <time>2019-05-30T05:53:03Z</time>
      </trkpt>
      <trkpt lat="44.78612" lon="5.47283">
        <ele>1627.3</ele>
        <time>2019-05-30T05:53:10Z</time>
      </trkpt>
      <trkpt lat="44.78614" lon="5.47285">
        <ele>1626.6</ele>
        <time>2019-05-30T05:53:19Z</time>
      </trkpt>
      <trkpt lat="44.78616" lon="5.47289">
        <ele>1626.6</ele>
        <time>2019-05-30T05:53:23Z</time>
      </trkpt>
      <trkpt lat="44.78618" lon="5.47292">
        <ele>1625.9</ele>
        <time>2019-05-30T05:53:25Z</time>
      </trkpt>
      <trkpt lat="44.7862" lon="5.47296">
        <ele>1625.1</ele>
        <time>2019-05-30T05:53:27Z</time>
      </trkpt>
      <trkpt lat="44.78622" lon="5.473">
        <ele>1624.4</ele>
        <time>2019-05-30T05:53:29Z</time>
      </trkpt>
      <trkpt lat="44.78626" lon="5.47304">
        <ele>1623.8</ele>
        <time>2019-05-30T05:53:31Z</time>
      </trkpt>
      <trkpt lat="44.78629" lon="5.47307">
        <ele>1623</ele>
        <time>2019-05-30T05:53:33Z</time>
      </trkpt>
      <trkpt lat="44.78632" lon="5.47309">
        <ele>1622.2</ele>
        <time>2019-05-30T05:53:35Z</time>
      </trkpt>
      <trkpt lat="44.78634" lon="5.4731">
        <ele>1621.5</ele>
        <time>2019-05-30T05:53:37Z</time>
      </trkpt>
      <trkpt lat="44.78637" lon="5.47311">
        <ele>1621.5</ele>
        <time>2019-05-30T05:53:39Z</time>
      </trkpt>
      <trkpt lat="44.78641" lon="5.4731">
        <ele>1620</ele>
        <time>2019-05-30T05:53:42Z</time>
      </trkpt>
      <trkpt lat="44.78644" lon="5.47311">
        <ele>1619.3</ele>
        <time>2019-05-30T05:53:47Z</time>
      </trkpt>
      <trkpt lat="44.78642" lon="5.47314">
        <ele>1620</ele>
        <time>2019-05-30T05:53:51Z</time>
      </trkpt>
      <trkpt lat="44.78641" lon="5.47318">
        <ele>1620.1</ele>
        <time>2019-05-30T05:53:53Z</time>
      </trkpt>
      <trkpt lat="44.78642" lon="5.47322">
        <ele>1620.1</ele>
        <time>2019-05-30T05:53:57Z</time>
      </trkpt>
      <trkpt lat="44.78645" lon="5.47323">
        <ele>1619.5</ele>
        <time>2019-05-30T05:54:01Z</time>
      </trkpt>
      <trkpt lat="44.78649" lon="5.47325">
        <ele>1618.9</ele>
        <time>2019-05-30T05:54:04Z</time>
      </trkpt>
      <trkpt lat="44.78651" lon="5.47328">
        <ele>1618.4</ele>
        <time>2019-05-30T05:54:06Z</time>
      </trkpt>
      <trkpt lat="44.78653" lon="5.47331">
        <ele>1618</ele>
        <time>2019-05-30T05:54:08Z</time>
      </trkpt>
      <trkpt lat="44.78654" lon="5.47335">
        <ele>1618.1</ele>
        <time>2019-05-30T05:54:11Z</time>
      </trkpt>
      <trkpt lat="44.78657" lon="5.47341">
        <ele>1617.7</ele>
        <time>2019-05-30T05:54:13Z</time>
      </trkpt>
      <trkpt lat="44.78659" lon="5.47344">
        <ele>1617.2</ele>
        <time>2019-05-30T05:54:14Z</time>
      </trkpt>
      <trkpt lat="44.78661" lon="5.47348">
        <ele>1617.3</ele>
        <time>2019-05-30T05:54:17Z</time>
      </trkpt>
      <trkpt lat="44.78664" lon="5.47351">
        <ele>1616.7</ele>
        <time>2019-05-30T05:54:19Z</time>
      </trkpt>
      <trkpt lat="44.78665" lon="5.47355">
        <ele>1616.1</ele>
        <time>2019-05-30T05:54:22Z</time>
      </trkpt>
      <trkpt lat="44.78667" lon="5.47359">
        <ele>1616.1</ele>
        <time>2019-05-30T05:54:25Z</time>
      </trkpt>
      <trkpt lat="44.78669" lon="5.47364">
        <ele>1615.5</ele>
        <time>2019-05-30T05:54:27Z</time>
      </trkpt>
      <trkpt lat="44.78672" lon="5.47367">
        <ele>1615</ele>
        <time>2019-05-30T05:54:29Z</time>
      </trkpt>
      <trkpt lat="44.78675" lon="5.47369">
        <ele>1614.4</ele>
        <time>2019-05-30T05:54:31Z</time>
      </trkpt>
      <trkpt lat="44.78678" lon="5.47371">
        <ele>1613.9</ele>
        <time>2019-05-30T05:54:33Z</time>
      </trkpt>
      <trkpt lat="44.78681" lon="5.47374">
        <ele>1613.5</ele>
        <time>2019-05-30T05:54:35Z</time>
      </trkpt>
      <trkpt lat="44.78684" lon="5.47377">
        <ele>1613</ele>
        <time>2019-05-30T05:54:37Z</time>
      </trkpt>
      <trkpt lat="44.78685" lon="5.4738">
        <ele>1613.1</ele>
        <time>2019-05-30T05:54:39Z</time>
      </trkpt>
      <trkpt lat="44.78687" lon="5.47384">
        <ele>1612.8</ele>
        <time>2019-05-30T05:54:42Z</time>
      </trkpt>
      <trkpt lat="44.78689" lon="5.47388">
        <ele>1613</ele>
        <time>2019-05-30T05:54:45Z</time>
      </trkpt>
      <trkpt lat="44.78692" lon="5.47391">
        <ele>1612.6</ele>
        <time>2019-05-30T05:54:48Z</time>
      </trkpt>
      <trkpt lat="44.78694" lon="5.47394">
        <ele>1612.2</ele>
        <time>2019-05-30T05:54:51Z</time>
      </trkpt>
      <trkpt lat="44.78697" lon="5.47398">
        <ele>1611.6</ele>
        <time>2019-05-30T05:54:54Z</time>
      </trkpt>
      <trkpt lat="44.78699" lon="5.474">
        <ele>1611.2</ele>
        <time>2019-05-30T05:54:56Z</time>
      </trkpt>
      <trkpt lat="44.78702" lon="5.47402">
        <ele>1610.6</ele>
        <time>2019-05-30T05:54:59Z</time>
      </trkpt>
      <trkpt lat="44.78704" lon="5.47405">
        <ele>1610.2</ele>
        <time>2019-05-30T05:55:02Z</time>
      </trkpt>
      <trkpt lat="44.78707" lon="5.47408">
        <ele>1610.3</ele>
        <time>2019-05-30T05:55:05Z</time>
      </trkpt>
      <trkpt lat="44.7871" lon="5.4741">
        <ele>1609.8</ele>
        <time>2019-05-30T05:55:08Z</time>
      </trkpt>
      <trkpt lat="44.78713" lon="5.47412">
        <ele>1609.3</ele>
        <time>2019-05-30T05:55:11Z</time>
      </trkpt>
      <trkpt lat="44.78715" lon="5.47415">
        <ele>1608.8</ele>
        <time>2019-05-30T05:55:14Z</time>
      </trkpt>
      <trkpt lat="44.78718" lon="5.4742">
        <ele>1608.1</ele>
        <time>2019-05-30T05:55:17Z</time>
      </trkpt>
      <trkpt lat="44.78719" lon="5.47424">
        <ele>1608.3</ele>
        <time>2019-05-30T05:55:20Z</time>
      </trkpt>
      <trkpt lat="44.78721" lon="5.47429">
        <ele>1607.8</ele>
        <time>2019-05-30T05:55:23Z</time>
      </trkpt>
      <trkpt lat="44.78723" lon="5.47432">
        <ele>1607.1</ele>
        <time>2019-05-30T05:55:25Z</time>
      </trkpt>
      <trkpt lat="44.78725" lon="5.47435">
        <ele>1607.2</ele>
        <time>2019-05-30T05:55:27Z</time>
      </trkpt>
      <trkpt lat="44.78726" lon="5.47439">
        <ele>1606.7</ele>
        <time>2019-05-30T05:55:29Z</time>
      </trkpt>
      <trkpt lat="44.78728" lon="5.47441">
        <ele>1606.8</ele>
        <time>2019-05-30T05:55:31Z</time>
      </trkpt>
      <trkpt lat="44.7873" lon="5.47445">
        <ele>1606.3</ele>
        <time>2019-05-30T05:55:33Z</time>
      </trkpt>
      <trkpt lat="44.78732" lon="5.47449">
        <ele>1605.8</ele>
        <time>2019-05-30T05:55:36Z</time>
      </trkpt>
      <trkpt lat="44.78735" lon="5.47453">
        <ele>1605.9</ele>
        <time>2019-05-30T05:55:39Z</time>
      </trkpt>
      <trkpt lat="44.78736" lon="5.47456">
        <ele>1605.4</ele>
        <time>2019-05-30T05:55:41Z</time>
      </trkpt>
      <trkpt lat="44.78739" lon="5.47459">
        <ele>1604.9</ele>
        <time>2019-05-30T05:55:45Z</time>
      </trkpt>
      <trkpt lat="44.78741" lon="5.47462">
        <ele>1604.4</ele>
        <time>2019-05-30T05:55:49Z</time>
      </trkpt>
      <trkpt lat="44.78744" lon="5.47465">
        <ele>1603.8</ele>
        <time>2019-05-30T05:55:52Z</time>
      </trkpt>
      <trkpt lat="44.78747" lon="5.47467">
        <ele>1603.8</ele>
        <time>2019-05-30T05:55:56Z</time>
      </trkpt>
      <trkpt lat="44.78749" lon="5.47469">
        <ele>1603.2</ele>
        <time>2019-05-30T05:55:58Z</time>
      </trkpt>
      <trkpt lat="44.78752" lon="5.47471">
        <ele>1602.5</ele>
        <time>2019-05-30T05:56:00Z</time>
      </trkpt>
      <trkpt lat="44.78756" lon="5.47472">
        <ele>1601.3</ele>
        <time>2019-05-30T05:56:03Z</time>
      </trkpt>
      <trkpt lat="44.78759" lon="5.47474">
        <ele>1601.2</ele>
        <time>2019-05-30T05:56:05Z</time>
      </trkpt>
      <trkpt lat="44.78762" lon="5.47476">
        <ele>1600.5</ele>
        <time>2019-05-30T05:56:07Z</time>
      </trkpt>
      <trkpt lat="44.78765" lon="5.47479">
        <ele>1599.9</ele>
        <time>2019-05-30T05:56:09Z</time>
      </trkpt>
      <trkpt lat="44.78767" lon="5.47482">
        <ele>1599.2</ele>
        <time>2019-05-30T05:56:11Z</time>
      </trkpt>
      <trkpt lat="44.78769" lon="5.47484">
        <ele>1598.7</ele>
        <time>2019-05-30T05:56:13Z</time>
      </trkpt>
      <trkpt lat="44.78772" lon="5.47484">
        <ele>1597.9</ele>
        <time>2019-05-30T05:56:15Z</time>
      </trkpt>
      <trkpt lat="44.78775" lon="5.47484">
        <ele>1597.5</ele>
        <time>2019-05-30T05:56:17Z</time>
      </trkpt>
      <trkpt lat="44.78778" lon="5.47482">
        <ele>1596.8</ele>
        <time>2019-05-30T05:56:20Z</time>
      </trkpt>
      <trkpt lat="44.78781" lon="5.47479">
        <ele>1596.3</ele>
        <time>2019-05-30T05:56:23Z</time>
      </trkpt>
      <trkpt lat="44.78784" lon="5.47476">
        <ele>1595.7</ele>
        <time>2019-05-30T05:56:26Z</time>
      </trkpt>
      <trkpt lat="44.78786" lon="5.47472">
        <ele>1595.7</ele>
        <time>2019-05-30T05:56:29Z</time>
      </trkpt>
      <trkpt lat="44.78789" lon="5.4747">
        <ele>1595.1</ele>
        <time>2019-05-30T05:56:31Z</time>
      </trkpt>
      <trkpt lat="44.78792" lon="5.47469">
        <ele>1594.5</ele>
        <time>2019-05-30T05:56:34Z</time>
      </trkpt>
      <trkpt lat="44.78796" lon="5.47466">
        <ele>1593.9</ele>
        <time>2019-05-30T05:56:37Z</time>
      </trkpt>
      <trkpt lat="44.78799" lon="5.47464">
        <ele>1592.8</ele>
        <time>2019-05-30T05:56:40Z</time>
      </trkpt>
      <trkpt lat="44.78801" lon="5.47461">
        <ele>1592.7</ele>
        <time>2019-05-30T05:56:42Z</time>
      </trkpt>
      <trkpt lat="44.78804" lon="5.47459">
        <ele>1592.2</ele>
        <time>2019-05-30T05:56:45Z</time>
      </trkpt>
      <trkpt lat="44.78807" lon="5.47455">
        <ele>1591.5</ele>
        <time>2019-05-30T05:56:48Z</time>
      </trkpt>
      <trkpt lat="44.7881" lon="5.47452">
        <ele>1590.9</ele>
        <time>2019-05-30T05:56:52Z</time>
      </trkpt>
      <trkpt lat="44.78813" lon="5.4745">
        <ele>1590.5</ele>
        <time>2019-05-30T05:56:55Z</time>
      </trkpt>
      <trkpt lat="44.78816" lon="5.47449">
        <ele>1590.4</ele>
        <time>2019-05-30T05:56:58Z</time>
      </trkpt>
      <trkpt lat="44.78819" lon="5.4745">
        <ele>1590.3</ele>
        <time>2019-05-30T05:57:01Z</time>
      </trkpt>
      <trkpt lat="44.78822" lon="5.47453">
        <ele>1590.3</ele>
        <time>2019-05-30T05:57:05Z</time>
      </trkpt>
      <trkpt lat="44.78819" lon="5.47454">
        <ele>1590.3</ele>
        <time>2019-05-30T05:57:08Z</time>
      </trkpt>
      <trkpt lat="44.78821" lon="5.47458">
        <ele>1590.3</ele>
        <time>2019-05-30T05:57:13Z</time>
      </trkpt>
      <trkpt lat="44.78823" lon="5.47462">
        <ele>1590.3</ele>
        <time>2019-05-30T05:57:17Z</time>
      </trkpt>
      <trkpt lat="44.78824" lon="5.47467">
        <ele>1590.3</ele>
        <time>2019-05-30T05:57:20Z</time>
      </trkpt>
      <trkpt lat="44.78826" lon="5.4747">
        <ele>1589.9</ele>
        <time>2019-05-30T05:57:22Z</time>
      </trkpt>
      <trkpt lat="44.78827" lon="5.47475">
        <ele>1589.6</ele>
        <time>2019-05-30T05:57:25Z</time>
      </trkpt>
      <trkpt lat="44.78828" lon="5.4748">
        <ele>1589.3</ele>
        <time>2019-05-30T05:57:28Z</time>
      </trkpt>
      <trkpt lat="44.7883" lon="5.47484">
        <ele>1589.1</ele>
        <time>2019-05-30T05:57:30Z</time>
      </trkpt>
      <trkpt lat="44.78831" lon="5.47487">
        <ele>1588.8</ele>
        <time>2019-05-30T05:57:32Z</time>
      </trkpt>
      <trkpt lat="44.78832" lon="5.47491">
        <ele>1588.5</ele>
        <time>2019-05-30T05:57:34Z</time>
      </trkpt>
      <trkpt lat="44.78833" lon="5.47495">
        <ele>1588.2</ele>
        <time>2019-05-30T05:57:36Z</time>
      </trkpt>
      <trkpt lat="44.78834" lon="5.47498">
        <ele>1587.9</ele>
        <time>2019-05-30T05:57:38Z</time>
      </trkpt>
      <trkpt lat="44.78835" lon="5.47502">
        <ele>1587.5</ele>
        <time>2019-05-30T05:57:41Z</time>
      </trkpt>
      <trkpt lat="44.78837" lon="5.47506">
        <ele>1587.1</ele>
        <time>2019-05-30T05:57:44Z</time>
      </trkpt>
      <trkpt lat="44.78838" lon="5.47511">
        <ele>1586.8</ele>
        <time>2019-05-30T05:57:47Z</time>
      </trkpt>
      <trkpt lat="44.78839" lon="5.47515">
        <ele>1586.5</ele>
        <time>2019-05-30T05:57:50Z</time>
      </trkpt>
      <trkpt lat="44.7884" lon="5.47519">
        <ele>1586.3</ele>
        <time>2019-05-30T05:57:52Z</time>
      </trkpt>
      <trkpt lat="44.78841" lon="5.47523">
        <ele>1586.1</ele>
        <time>2019-05-30T05:57:54Z</time>
      </trkpt>
      <trkpt lat="44.78842" lon="5.47527">
        <ele>1585.9</ele>
        <time>2019-05-30T05:57:56Z</time>
      </trkpt>
      <trkpt lat="44.78843" lon="5.4753">
        <ele>1585.7</ele>
        <time>2019-05-30T05:57:58Z</time>
      </trkpt>
      <trkpt lat="44.78844" lon="5.47535">
        <ele>1585.5</ele>
        <time>2019-05-30T05:58:00Z</time>
      </trkpt>
      <trkpt lat="44.78845" lon="5.47539">
        <ele>1585.3</ele>
        <time>2019-05-30T05:58:02Z</time>
      </trkpt>
      <trkpt lat="44.78846" lon="5.47544">
        <ele>1585.2</ele>
        <time>2019-05-30T05:58:05Z</time>
      </trkpt>
      <trkpt lat="44.78847" lon="5.47548">
        <ele>1585</ele>
        <time>2019-05-30T05:58:08Z</time>
      </trkpt>
      <trkpt lat="44.78848" lon="5.47552">
        <ele>1584.9</ele>
        <time>2019-05-30T05:58:10Z</time>
      </trkpt>
      <trkpt lat="44.78849" lon="5.47556">
        <ele>1584.8</ele>
        <time>2019-05-30T05:58:12Z</time>
      </trkpt>
      <trkpt lat="44.7885" lon="5.4756">
        <ele>1584.6</ele>
        <time>2019-05-30T05:58:14Z</time>
      </trkpt>
      <trkpt lat="44.7885" lon="5.47564">
        <ele>1584.5</ele>
        <time>2019-05-30T05:58:16Z</time>
      </trkpt>
      <trkpt lat="44.78851" lon="5.47568">
        <ele>1584.3</ele>
        <time>2019-05-30T05:58:18Z</time>
      </trkpt>
      <trkpt lat="44.78852" lon="5.47572">
        <ele>1584.2</ele>
        <time>2019-05-30T05:58:20Z</time>
      </trkpt>
      <trkpt lat="44.78852" lon="5.47576">
        <ele>1584.1</ele>
        <time>2019-05-30T05:58:22Z</time>
      </trkpt>
      <trkpt lat="44.78852" lon="5.47581">
        <ele>1583.9</ele>
        <time>2019-05-30T05:58:25Z</time>
      </trkpt>
      <trkpt lat="44.78853" lon="5.47586">
        <ele>1583.8</ele>
        <time>2019-05-30T05:58:28Z</time>
      </trkpt>
      <trkpt lat="44.78853" lon="5.4759">
        <ele>1583.7</ele>
        <time>2019-05-30T05:58:30Z</time>
      </trkpt>
      <trkpt lat="44.78854" lon="5.47595">
        <ele>1583.6</ele>
        <time>2019-05-30T05:58:33Z</time>
      </trkpt>
      <trkpt lat="44.78855" lon="5.47599">
        <ele>1583.4</ele>
        <time>2019-05-30T05:58:36Z</time>
      </trkpt>
      <trkpt lat="44.78856" lon="5.47603">
        <ele>1583.3</ele>
        <time>2019-05-30T05:58:39Z</time>
      </trkpt>
      <trkpt lat="44.78856" lon="5.47607">
        <ele>1583.3</ele>
        <time>2019-05-30T05:58:42Z</time>
      </trkpt>
      <trkpt lat="44.78857" lon="5.47611">
        <ele>1583.2</ele>
        <time>2019-05-30T05:58:45Z</time>
      </trkpt>
      <trkpt lat="44.78857" lon="5.47615">
        <ele>1583.2</ele>
        <time>2019-05-30T05:58:47Z</time>
      </trkpt>
      <trkpt lat="44.78858" lon="5.4762">
        <ele>1583.1</ele>
        <time>2019-05-30T05:58:50Z</time>
      </trkpt>
      <trkpt lat="44.78858" lon="5.47624">
        <ele>1583.1</ele>
        <time>2019-05-30T05:58:52Z</time>
      </trkpt>
      <trkpt lat="44.78858" lon="5.47629">
        <ele>1583</ele>
        <time>2019-05-30T05:58:54Z</time>
      </trkpt>
      <trkpt lat="44.78859" lon="5.47633">
        <ele>1583</ele>
        <time>2019-05-30T05:58:57Z</time>
      </trkpt>
      <trkpt lat="44.78861" lon="5.47637">
        <ele>1582.9</ele>
        <time>2019-05-30T05:59:51Z</time>
      </trkpt>
      <trkpt lat="44.78863" lon="5.47642">
        <ele>1582.9</ele>
        <time>2019-05-30T05:59:54Z</time>
      </trkpt>
      <trkpt lat="44.78865" lon="5.47646">
        <ele>1583</ele>
        <time>2019-05-30T05:59:56Z</time>
      </trkpt>
      <trkpt lat="44.78867" lon="5.4765">
        <ele>1583</ele>
        <time>2019-05-30T05:59:58Z</time>
      </trkpt>
      <trkpt lat="44.78869" lon="5.47654">
        <ele>1583.1</ele>
        <time>2019-05-30T06:00:00Z</time>
      </trkpt>
      <trkpt lat="44.78871" lon="5.47657">
        <ele>1583.2</ele>
        <time>2019-05-30T06:00:02Z</time>
      </trkpt>
      <trkpt lat="44.78873" lon="5.47661">
        <ele>1583.2</ele>
        <time>2019-05-30T06:00:05Z</time>
      </trkpt>
      <trkpt lat="44.78876" lon="5.47664">
        <ele>1583.3</ele>
        <time>2019-05-30T06:00:08Z</time>
      </trkpt>
      <trkpt lat="44.78879" lon="5.47666">
        <ele>1583.4</ele>
        <time>2019-05-30T06:00:10Z</time>
      </trkpt>
      <trkpt lat="44.78882" lon="5.47667">
        <ele>1583.5</ele>
        <time>2019-05-30T06:00:12Z</time>
      </trkpt>
      <trkpt lat="44.78886" lon="5.47669">
        <ele>1583.6</ele>
        <time>2019-05-30T06:00:15Z</time>
      </trkpt>
      <trkpt lat="44.78889" lon="5.4767">
        <ele>1583.8</ele>
        <time>2019-05-30T06:00:18Z</time>
      </trkpt>
      <trkpt lat="44.78893" lon="5.47671">
        <ele>1584</ele>
        <time>2019-05-30T06:00:21Z</time>
      </trkpt>
      <trkpt lat="44.78896" lon="5.47671">
        <ele>1584</ele>
        <time>2019-05-30T06:00:24Z</time>
      </trkpt>
      <trkpt lat="44.78899" lon="5.4767">
        <ele>1584.1</ele>
        <time>2019-05-30T06:00:28Z</time>
      </trkpt>
      <trkpt lat="44.78902" lon="5.47669">
        <ele>1584.1</ele>
        <time>2019-05-30T06:00:32Z</time>
      </trkpt>
      <trkpt lat="44.78905" lon="5.47667">
        <ele>1584.2</ele>
        <time>2019-05-30T06:00:35Z</time>
      </trkpt>
      <trkpt lat="44.78908" lon="5.47665">
        <ele>1584.3</ele>
        <time>2019-05-30T06:00:38Z</time>
      </trkpt>
      <trkpt lat="44.78912" lon="5.47664">
        <ele>1584.4</ele>
        <time>2019-05-30T06:00:41Z</time>
      </trkpt>
      <trkpt lat="44.78916" lon="5.47663">
        <ele>1584.5</ele>
        <time>2019-05-30T06:00:44Z</time>
      </trkpt>
      <trkpt lat="44.78919" lon="5.47662">
        <ele>1584.6</ele>
        <time>2019-05-30T06:00:47Z</time>
      </trkpt>
      <trkpt lat="44.78923" lon="5.47662">
        <ele>1584.7</ele>
        <time>2019-05-30T06:00:50Z</time>
      </trkpt>
      <trkpt lat="44.78926" lon="5.47661">
        <ele>1584.8</ele>
        <time>2019-05-30T06:00:53Z</time>
      </trkpt>
      <trkpt lat="44.78929" lon="5.47661">
        <ele>1584.9</ele>
        <time>2019-05-30T06:00:56Z</time>
      </trkpt>
      <trkpt lat="44.78933" lon="5.4766">
        <ele>1585</ele>
        <time>2019-05-30T06:00:59Z</time>
      </trkpt>
      <trkpt lat="44.78936" lon="5.47661">
        <ele>1585.2</ele>
        <time>2019-05-30T06:01:02Z</time>
      </trkpt>
      <trkpt lat="44.7894" lon="5.47662">
        <ele>1585.4</ele>
        <time>2019-05-30T06:01:05Z</time>
      </trkpt>
      <trkpt lat="44.78943" lon="5.47663">
        <ele>1585.5</ele>
        <time>2019-05-30T06:01:08Z</time>
      </trkpt>
      <trkpt lat="44.78947" lon="5.47665">
        <ele>1585.6</ele>
        <time>2019-05-30T06:01:11Z</time>
      </trkpt>
      <trkpt lat="44.7895" lon="5.47667">
        <ele>1585.8</ele>
        <time>2019-05-30T06:01:14Z</time>
      </trkpt>
      <trkpt lat="44.78954" lon="5.47668">
        <ele>1586</ele>
        <time>2019-05-30T06:01:17Z</time>
      </trkpt>
      <trkpt lat="44.78957" lon="5.47669">
        <ele>1586.1</ele>
        <time>2019-05-30T06:01:20Z</time>
      </trkpt>
      <trkpt lat="44.7896" lon="5.47669">
        <ele>1586.2</ele>
        <time>2019-05-30T06:01:22Z</time>
      </trkpt>
      <trkpt lat="44.78964" lon="5.47668">
        <ele>1586.3</ele>
        <time>2019-05-30T06:01:25Z</time>
      </trkpt>
      <trkpt lat="44.78967" lon="5.47668">
        <ele>1586.4</ele>
        <time>2019-05-30T06:01:28Z</time>
      </trkpt>
      <trkpt lat="44.78971" lon="5.47668">
        <ele>1586.5</ele>
        <time>2019-05-30T06:01:31Z</time>
      </trkpt>
      <trkpt lat="44.78973" lon="5.47668">
        <ele>1586.6</ele>
        <time>2019-05-30T06:01:34Z</time>
      </trkpt>
      <trkpt lat="44.78977" lon="5.47668">
        <ele>1586.8</ele>
        <time>2019-05-30T06:01:37Z</time>
      </trkpt>
      <trkpt lat="44.78981" lon="5.47669">
        <ele>1587</ele>
        <time>2019-05-30T06:01:40Z</time>
      </trkpt>
      <trkpt lat="44.78984" lon="5.47671">
        <ele>1587.2</ele>
        <time>2019-05-30T06:01:43Z</time>
      </trkpt>
      <trkpt lat="44.78987" lon="5.47674">
        <ele>1587.3</ele>
        <time>2019-05-30T06:01:46Z</time>
      </trkpt>
      <trkpt lat="44.78991" lon="5.47676">
        <ele>1587.5</ele>
        <time>2019-05-30T06:01:49Z</time>
      </trkpt>
      <trkpt lat="44.78994" lon="5.47678">
        <ele>1587.6</ele>
        <time>2019-05-30T06:01:51Z</time>
      </trkpt>
      <trkpt lat="44.78997" lon="5.4768">
        <ele>1587.8</ele>
        <time>2019-05-30T06:01:54Z</time>
      </trkpt>
      <trkpt lat="44.79" lon="5.47682">
        <ele>1588</ele>
        <time>2019-05-30T06:01:57Z</time>
      </trkpt>
      <trkpt lat="44.79003" lon="5.47684">
        <ele>1588.2</ele>
        <time>2019-05-30T06:02:00Z</time>
      </trkpt>
      <trkpt lat="44.79006" lon="5.47686">
        <ele>1588.3</ele>
        <time>2019-05-30T06:02:03Z</time>
      </trkpt>
      <trkpt lat="44.7901" lon="5.47689">
        <ele>1588.4</ele>
        <time>2019-05-30T06:02:06Z</time>
      </trkpt>
      <trkpt lat="44.79012" lon="5.47692">
        <ele>1588.6</ele>
        <time>2019-05-30T06:02:09Z</time>
      </trkpt>
      <trkpt lat="44.79015" lon="5.47695">
        <ele>1588.7</ele>
        <time>2019-05-30T06:02:12Z</time>
      </trkpt>
      <trkpt lat="44.79018" lon="5.47698">
        <ele>1588.8</ele>
        <time>2019-05-30T06:02:15Z</time>
      </trkpt>
      <trkpt lat="44.79021" lon="5.47701">
        <ele>1588.9</ele>
        <time>2019-05-30T06:02:18Z</time>
      </trkpt>
      <trkpt lat="44.79025" lon="5.47704">
        <ele>1589</ele>
        <time>2019-05-30T06:02:21Z</time>
      </trkpt>
      <trkpt lat="44.79027" lon="5.47708">
        <ele>1589.1</ele>
        <time>2019-05-30T06:02:24Z</time>
      </trkpt>
      <trkpt lat="44.79029" lon="5.4771">
        <ele>1589.2</ele>
        <time>2019-05-30T06:02:26Z</time>
      </trkpt>
      <trkpt lat="44.79031" lon="5.47714">
        <ele>1589.2</ele>
        <time>2019-05-30T06:02:29Z</time>
      </trkpt>
      <trkpt lat="44.79034" lon="5.47718">
        <ele>1589.3</ele>
        <time>2019-05-30T06:02:32Z</time>
      </trkpt>
      <trkpt lat="44.79036" lon="5.47721">
        <ele>1589.4</ele>
        <time>2019-05-30T06:02:35Z</time>
      </trkpt>
      <trkpt lat="44.79038" lon="5.47725">
        <ele>1589.5</ele>
        <time>2019-05-30T06:02:38Z</time>
      </trkpt>
      <trkpt lat="44.79041" lon="5.47728">
        <ele>1589.5</ele>
        <time>2019-05-30T06:02:41Z</time>
      </trkpt>
      <trkpt lat="44.79043" lon="5.47731">
        <ele>1589.5</ele>
        <time>2019-05-30T06:02:44Z</time>
      </trkpt>
      <trkpt lat="44.79046" lon="5.47734">
        <ele>1589.6</ele>
        <time>2019-05-30T06:02:47Z</time>
      </trkpt>
      <trkpt lat="44.79048" lon="5.47738">
        <ele>1589.7</ele>
        <time>2019-05-30T06:02:50Z</time>
      </trkpt>
      <trkpt lat="44.79051" lon="5.47741">
        <ele>1589.7</ele>
        <time>2019-05-30T06:02:53Z</time>
      </trkpt>
      <trkpt lat="44.79054" lon="5.47745">
        <ele>1589.7</ele>
        <time>2019-05-30T06:02:56Z</time>
      </trkpt>
      <trkpt lat="44.79055" lon="5.47748">
        <ele>1589.7</ele>
        <time>2019-05-30T06:02:58Z</time>
      </trkpt>
      <trkpt lat="44.79058" lon="5.47752">
        <ele>1589.7</ele>
        <time>2019-05-30T06:03:01Z</time>
      </trkpt>
      <trkpt lat="44.7906" lon="5.47756">
        <ele>1589.7</ele>
        <time>2019-05-30T06:03:04Z</time>
      </trkpt>
      <trkpt lat="44.79061" lon="5.47759">
        <ele>1589.8</ele>
        <time>2019-05-30T06:03:07Z</time>
      </trkpt>
      <trkpt lat="44.79063" lon="5.47763">
        <ele>1589.9</ele>
        <time>2019-05-30T06:03:10Z</time>
      </trkpt>
      <trkpt lat="44.79066" lon="5.47766">
        <ele>1590</ele>
        <time>2019-05-30T06:03:13Z</time>
      </trkpt>
      <trkpt lat="44.79068" lon="5.4777">
        <ele>1590.1</ele>
        <time>2019-05-30T06:03:16Z</time>
      </trkpt>
      <trkpt lat="44.7907" lon="5.47773">
        <ele>1590.2</ele>
        <time>2019-05-30T06:03:18Z</time>
      </trkpt>
      <trkpt lat="44.79072" lon="5.47776">
        <ele>1590.3</ele>
        <time>2019-05-30T06:03:20Z</time>
      </trkpt>
      <trkpt lat="44.79074" lon="5.47779">
        <ele>1590.4</ele>
        <time>2019-05-30T06:03:23Z</time>
      </trkpt>
      <trkpt lat="44.79077" lon="5.47783">
        <ele>1590.6</ele>
        <time>2019-05-30T06:03:26Z</time>
      </trkpt>
      <trkpt lat="44.79079" lon="5.47787">
        <ele>1590.7</ele>
        <time>2019-05-30T06:03:29Z</time>
      </trkpt>
      <trkpt lat="44.7908" lon="5.47791">
        <ele>1590.8</ele>
        <time>2019-05-30T06:03:32Z</time>
      </trkpt>
      <trkpt lat="44.79082" lon="5.47793">
        <ele>1590.9</ele>
        <time>2019-05-30T06:03:52Z</time>
      </trkpt>
      <trkpt lat="44.79085" lon="5.47797">
        <ele>1591</ele>
        <time>2019-05-30T06:03:56Z</time>
      </trkpt>
      <trkpt lat="44.79087" lon="5.478">
        <ele>1591.1</ele>
        <time>2019-05-30T06:03:59Z</time>
      </trkpt>
      <trkpt lat="44.79091" lon="5.47805">
        <ele>1591.2</ele>
        <time>2019-05-30T06:06:57Z</time>
      </trkpt>
      <trkpt lat="44.79093" lon="5.47809">
        <ele>1591.3</ele>
        <time>2019-05-30T06:07:02Z</time>
      </trkpt>
      <trkpt lat="44.79095" lon="5.47812">
        <ele>1591.4</ele>
        <time>2019-05-30T06:07:05Z</time>
      </trkpt>
      <trkpt lat="44.79097" lon="5.47816">
        <ele>1591.4</ele>
        <time>2019-05-30T06:07:11Z</time>
      </trkpt>
      <trkpt lat="44.79099" lon="5.47818">
        <ele>1591.5</ele>
        <time>2019-05-30T06:07:13Z</time>
      </trkpt>
      <trkpt lat="44.79103" lon="5.47823">
        <ele>1591.5</ele>
        <time>2019-05-30T06:07:15Z</time>
      </trkpt>
      <trkpt lat="44.79106" lon="5.47828">
        <ele>1591.6</ele>
        <time>2019-05-30T06:07:17Z</time>
      </trkpt>
      <trkpt lat="44.79108" lon="5.47832">
        <ele>1591.7</ele>
        <time>2019-05-30T06:07:19Z</time>
      </trkpt>
      <trkpt lat="44.79111" lon="5.47837">
        <ele>1591.8</ele>
        <time>2019-05-30T06:07:21Z</time>
      </trkpt>
      <trkpt lat="44.79113" lon="5.4784">
        <ele>1591.8</ele>
        <time>2019-05-30T06:07:23Z</time>
      </trkpt>
      <trkpt lat="44.79115" lon="5.47844">
        <ele>1591.9</ele>
        <time>2019-05-30T06:07:25Z</time>
      </trkpt>
      <trkpt lat="44.79117" lon="5.47848">
        <ele>1591.9</ele>
        <time>2019-05-30T06:07:27Z</time>
      </trkpt>
      <trkpt lat="44.79119" lon="5.47852">
        <ele>1591.9</ele>
        <time>2019-05-30T06:07:30Z</time>
      </trkpt>
      <trkpt lat="44.79121" lon="5.47855">
        <ele>1592</ele>
        <time>2019-05-30T06:07:33Z</time>
      </trkpt>
      <trkpt lat="44.79124" lon="5.47858">
        <ele>1592</ele>
        <time>2019-05-30T06:07:36Z</time>
      </trkpt>
      <trkpt lat="44.79126" lon="5.47861">
        <ele>1592</ele>
        <time>2019-05-30T06:07:38Z</time>
      </trkpt>
      <trkpt lat="44.79129" lon="5.47864">
        <ele>1592</ele>
        <time>2019-05-30T06:07:41Z</time>
      </trkpt>
      <trkpt lat="44.79131" lon="5.47868">
        <ele>1592</ele>
        <time>2019-05-30T06:07:44Z</time>
      </trkpt>
      <trkpt lat="44.79134" lon="5.47872">
        <ele>1592</ele>
        <time>2019-05-30T06:07:47Z</time>
      </trkpt>
      <trkpt lat="44.79137" lon="5.47876">
        <ele>1592</ele>
        <time>2019-05-30T06:07:50Z</time>
      </trkpt>
      <trkpt lat="44.79139" lon="5.4788">
        <ele>1591.9</ele>
        <time>2019-05-30T06:07:53Z</time>
      </trkpt>
      <trkpt lat="44.79141" lon="5.47883">
        <ele>1591.9</ele>
        <time>2019-05-30T06:07:55Z</time>
      </trkpt>
      <trkpt lat="44.79143" lon="5.47885">
        <ele>1591.9</ele>
        <time>2019-05-30T06:07:57Z</time>
      </trkpt>
      <trkpt lat="44.79145" lon="5.47889">
        <ele>1591.8</ele>
        <time>2019-05-30T06:07:59Z</time>
      </trkpt>
      <trkpt lat="44.79147" lon="5.47893">
        <ele>1591.8</ele>
        <time>2019-05-30T06:08:02Z</time>
      </trkpt>
      <trkpt lat="44.79149" lon="5.47898">
        <ele>1591.7</ele>
        <time>2019-05-30T06:08:05Z</time>
      </trkpt>
      <trkpt lat="44.7915" lon="5.47902">
        <ele>1591.7</ele>
        <time>2019-05-30T06:08:08Z</time>
      </trkpt>
      <trkpt lat="44.79152" lon="5.47907">
        <ele>1591.6</ele>
        <time>2019-05-30T06:08:11Z</time>
      </trkpt>
      <trkpt lat="44.79154" lon="5.4791">
        <ele>1591.6</ele>
        <time>2019-05-30T06:08:13Z</time>
      </trkpt>
      <trkpt lat="44.79156" lon="5.47914">
        <ele>1591.6</ele>
        <time>2019-05-30T06:08:16Z</time>
      </trkpt>
      <trkpt lat="44.79157" lon="5.47917">
        <ele>1591.6</ele>
        <time>2019-05-30T06:08:18Z</time>
      </trkpt>
      <trkpt lat="44.79159" lon="5.47921">
        <ele>1591.6</ele>
        <time>2019-05-30T06:08:20Z</time>
      </trkpt>
      <trkpt lat="44.7916" lon="5.47925">
        <ele>1591.6</ele>
        <time>2019-05-30T06:08:23Z</time>
      </trkpt>
      <trkpt lat="44.79162" lon="5.4793">
        <ele>1591.6</ele>
        <time>2019-05-30T06:08:26Z</time>
      </trkpt>
      <trkpt lat="44.79163" lon="5.47934">
        <ele>1591.7</ele>
        <time>2019-05-30T06:08:29Z</time>
      </trkpt>
      <trkpt lat="44.79165" lon="5.47939">
        <ele>1591.7</ele>
        <time>2019-05-30T06:08:32Z</time>
      </trkpt>
      <trkpt lat="44.79167" lon="5.47943">
        <ele>1591.7</ele>
        <time>2019-05-30T06:08:35Z</time>
      </trkpt>
      <trkpt lat="44.79169" lon="5.47948">
        <ele>1591.7</ele>
        <time>2019-05-30T06:08:38Z</time>
      </trkpt>
      <trkpt lat="44.79172" lon="5.47952">
        <ele>1591.8</ele>
        <time>2019-05-30T06:08:41Z</time>
      </trkpt>
      <trkpt lat="44.79174" lon="5.47955">
        <ele>1591.9</ele>
        <time>2019-05-30T06:08:44Z</time>
      </trkpt>
      <trkpt lat="44.79177" lon="5.47957">
        <ele>1591.9</ele>
        <time>2019-05-30T06:08:48Z</time>
      </trkpt>
      <trkpt lat="44.79178" lon="5.47962">
        <ele>1592</ele>
        <time>2019-05-30T06:09:06Z</time>
      </trkpt>
      <trkpt lat="44.7918" lon="5.47965">
        <ele>1592.1</ele>
        <time>2019-05-30T06:09:09Z</time>
      </trkpt>
      <trkpt lat="44.79182" lon="5.47969">
        <ele>1592.1</ele>
        <time>2019-05-30T06:09:12Z</time>
      </trkpt>
      <trkpt lat="44.79184" lon="5.47972">
        <ele>1592.1</ele>
        <time>2019-05-30T06:09:14Z</time>
      </trkpt>
      <trkpt lat="44.79186" lon="5.47975">
        <ele>1592.1</ele>
        <time>2019-05-30T06:09:16Z</time>
      </trkpt>
      <trkpt lat="44.79189" lon="5.47978">
        <ele>1592</ele>
        <time>2019-05-30T06:09:18Z</time>
      </trkpt>
      <trkpt lat="44.79191" lon="5.47981">
        <ele>1592</ele>
        <time>2019-05-30T06:09:20Z</time>
      </trkpt>
      <trkpt lat="44.79194" lon="5.47984">
        <ele>1592</ele>
        <time>2019-05-30T06:09:22Z</time>
      </trkpt>
      <trkpt lat="44.79196" lon="5.47987">
        <ele>1592</ele>
        <time>2019-05-30T06:09:24Z</time>
      </trkpt>
      <trkpt lat="44.79198" lon="5.4799">
        <ele>1592.1</ele>
        <time>2019-05-30T06:09:26Z</time>
      </trkpt>
      <trkpt lat="44.79201" lon="5.47992">
        <ele>1592.1</ele>
        <time>2019-05-30T06:09:28Z</time>
      </trkpt>
      <trkpt lat="44.79203" lon="5.47995">
        <ele>1592.1</ele>
        <time>2019-05-30T06:09:30Z</time>
      </trkpt>
      <trkpt lat="44.79206" lon="5.47998">
        <ele>1592.2</ele>
        <time>2019-05-30T06:09:32Z</time>
      </trkpt>
      <trkpt lat="44.79208" lon="5.48">
        <ele>1592.2</ele>
        <time>2019-05-30T06:09:34Z</time>
      </trkpt>
      <trkpt lat="44.79212" lon="5.48003">
        <ele>1592.2</ele>
        <time>2019-05-30T06:09:37Z</time>
      </trkpt>
      <trkpt lat="44.79214" lon="5.48005">
        <ele>1592.3</ele>
        <time>2019-05-30T06:09:40Z</time>
      </trkpt>
      <trkpt lat="44.79217" lon="5.48008">
        <ele>1592.3</ele>
        <time>2019-05-30T06:09:43Z</time>
      </trkpt>
      <trkpt lat="44.7922" lon="5.48012">
        <ele>1592.3</ele>
        <time>2019-05-30T06:09:46Z</time>
      </trkpt>
      <trkpt lat="44.79223" lon="5.48011">
        <ele>1592.3</ele>
        <time>2019-05-30T06:09:49Z</time>
      </trkpt>
      <trkpt lat="44.79227" lon="5.48014">
        <ele>1592.4</ele>
        <time>2019-05-30T06:09:58Z</time>
      </trkpt>
      <trkpt lat="44.7923" lon="5.48017">
        <ele>1592.4</ele>
        <time>2019-05-30T06:10:00Z</time>
      </trkpt>
      <trkpt lat="44.79232" lon="5.4802">
        <ele>1592.4</ele>
        <time>2019-05-30T06:10:02Z</time>
      </trkpt>
      <trkpt lat="44.79236" lon="5.48023">
        <ele>1592.4</ele>
        <time>2019-05-30T06:10:04Z</time>
      </trkpt>
      <trkpt lat="44.79239" lon="5.48026">
        <ele>1592.4</ele>
        <time>2019-05-30T06:10:06Z</time>
      </trkpt>
      <trkpt lat="44.79242" lon="5.48028">
        <ele>1592.4</ele>
        <time>2019-05-30T06:10:08Z</time>
      </trkpt>
      <trkpt lat="44.79244" lon="5.48031">
        <ele>1592.4</ele>
        <time>2019-05-30T06:10:10Z</time>
      </trkpt>
      <trkpt lat="44.79247" lon="5.48033">
        <ele>1592.4</ele>
        <time>2019-05-30T06:10:12Z</time>
      </trkpt>
      <trkpt lat="44.79249" lon="5.48034">
        <ele>1592.4</ele>
        <time>2019-05-30T06:10:14Z</time>
      </trkpt>
      <trkpt lat="44.79252" lon="5.48036">
        <ele>1592.4</ele>
        <time>2019-05-30T06:10:16Z</time>
      </trkpt>
      <trkpt lat="44.79255" lon="5.48038">
        <ele>1592.3</ele>
        <time>2019-05-30T06:10:19Z</time>
      </trkpt>
      <trkpt lat="44.79258" lon="5.48039">
        <ele>1592.3</ele>
        <time>2019-05-30T06:10:22Z</time>
      </trkpt>
      <trkpt lat="44.79262" lon="5.48039">
        <ele>1592.3</ele>
        <time>2019-05-30T06:10:25Z</time>
      </trkpt>
      <trkpt lat="44.79265" lon="5.4804">
        <ele>1592.2</ele>
        <time>2019-05-30T06:10:28Z</time>
      </trkpt>
      <trkpt lat="44.79268" lon="5.4804">
        <ele>1592.2</ele>
        <time>2019-05-30T06:10:31Z</time>
      </trkpt>
      <trkpt lat="44.79271" lon="5.48041">
        <ele>1592.1</ele>
        <time>2019-05-30T06:10:34Z</time>
      </trkpt>
      <trkpt lat="44.79274" lon="5.4804">
        <ele>1592.1</ele>
        <time>2019-05-30T06:10:37Z</time>
      </trkpt>
      <trkpt lat="44.79277" lon="5.48038">
        <ele>1592</ele>
        <time>2019-05-30T06:10:40Z</time>
      </trkpt>
      <trkpt lat="44.7928" lon="5.48035">
        <ele>1592</ele>
        <time>2019-05-30T06:10:43Z</time>
      </trkpt>
      <trkpt lat="44.79284" lon="5.48032">
        <ele>1592.1</ele>
        <time>2019-05-30T06:10:46Z</time>
      </trkpt>
      <trkpt lat="44.79286" lon="5.4803">
        <ele>1592.1</ele>
        <time>2019-05-30T06:10:48Z</time>
      </trkpt>
      <trkpt lat="44.79288" lon="5.48028">
        <ele>1592.1</ele>
        <time>2019-05-30T06:10:50Z</time>
      </trkpt>
      <trkpt lat="44.79292" lon="5.48025">
        <ele>1592.2</ele>
        <time>2019-05-30T06:10:53Z</time>
      </trkpt>
      <trkpt lat="44.79295" lon="5.48025">
        <ele>1592.2</ele>
        <time>2019-05-30T06:10:56Z</time>
      </trkpt>
      <trkpt lat="44.79299" lon="5.48025">
        <ele>1592.3</ele>
        <time>2019-05-30T06:10:59Z</time>
      </trkpt>
      <trkpt lat="44.79302" lon="5.48025">
        <ele>1592.3</ele>
        <time>2019-05-30T06:11:02Z</time>
      </trkpt>
      <trkpt lat="44.79304" lon="5.48025">
        <ele>1592.3</ele>
        <time>2019-05-30T06:11:05Z</time>
      </trkpt>
      <trkpt lat="44.79308" lon="5.48025">
        <ele>1592.2</ele>
        <time>2019-05-30T06:11:08Z</time>
      </trkpt>
      <trkpt lat="44.79312" lon="5.48025">
        <ele>1592.2</ele>
        <time>2019-05-30T06:11:11Z</time>
      </trkpt>
      <trkpt lat="44.79315" lon="5.48025">
        <ele>1592.1</ele>
        <time>2019-05-30T06:11:14Z</time>
      </trkpt>
      <trkpt lat="44.79319" lon="5.48025">
        <ele>1592</ele>
        <time>2019-05-30T06:11:17Z</time>
      </trkpt>
      <trkpt lat="44.79323" lon="5.48024">
        <ele>1591.8</ele>
        <time>2019-05-30T06:11:20Z</time>
      </trkpt>
      <trkpt lat="44.79326" lon="5.48022">
        <ele>1591.7</ele>
        <time>2019-05-30T06:11:23Z</time>
      </trkpt>
      <trkpt lat="44.79329" lon="5.48019">
        <ele>1591.5</ele>
        <time>2019-05-30T06:11:25Z</time>
      </trkpt>
      <trkpt lat="44.79332" lon="5.48017">
        <ele>1591.9</ele>
        <time>2019-05-30T06:11:28Z</time>
      </trkpt>
      <trkpt lat="44.79335" lon="5.48013">
        <ele>1592.3</ele>
        <time>2019-05-30T06:11:31Z</time>
      </trkpt>
      <trkpt lat="44.79338" lon="5.4801">
        <ele>1592.6</ele>
        <time>2019-05-30T06:11:34Z</time>
      </trkpt>
      <trkpt lat="44.7934" lon="5.48008">
        <ele>1593</ele>
        <time>2019-05-30T06:11:36Z</time>
      </trkpt>
      <trkpt lat="44.79343" lon="5.48006">
        <ele>1593.3</ele>
        <time>2019-05-30T06:11:38Z</time>
      </trkpt>
      <trkpt lat="44.79346" lon="5.48005">
        <ele>1593.7</ele>
        <time>2019-05-30T06:11:40Z</time>
      </trkpt>
      <trkpt lat="44.79349" lon="5.48003">
        <ele>1594.1</ele>
        <time>2019-05-30T06:11:43Z</time>
      </trkpt>
      <trkpt lat="44.79353" lon="5.48002">
        <ele>1594.6</ele>
        <time>2019-05-30T06:11:46Z</time>
      </trkpt>
      <trkpt lat="44.79357" lon="5.48001">
        <ele>1595</ele>
        <time>2019-05-30T06:11:49Z</time>
      </trkpt>
      <trkpt lat="44.7936" lon="5.48">
        <ele>1595.3</ele>
        <time>2019-05-30T06:11:52Z</time>
      </trkpt>
      <trkpt lat="44.79363" lon="5.48">
        <ele>1595.7</ele>
        <time>2019-05-30T06:11:55Z</time>
      </trkpt>
      <trkpt lat="44.79366" lon="5.48">
        <ele>1596</ele>
        <time>2019-05-30T06:11:58Z</time>
      </trkpt>
      <trkpt lat="44.7937" lon="5.47999">
        <ele>1596.3</ele>
        <time>2019-05-30T06:12:01Z</time>
      </trkpt>
      <trkpt lat="44.79374" lon="5.47998">
        <ele>1596.7</ele>
        <time>2019-05-30T06:12:04Z</time>
      </trkpt>
      <trkpt lat="44.79377" lon="5.47995">
        <ele>1596.9</ele>
        <time>2019-05-30T06:12:07Z</time>
      </trkpt>
      <trkpt lat="44.7938" lon="5.47992">
        <ele>1597.2</ele>
        <time>2019-05-30T06:12:10Z</time>
      </trkpt>
      <trkpt lat="44.79381" lon="5.47989">
        <ele>1597.4</ele>
        <time>2019-05-30T06:12:13Z</time>
      </trkpt>
      <trkpt lat="44.79382" lon="5.47984">
        <ele>1597.6</ele>
        <time>2019-05-30T06:12:17Z</time>
      </trkpt>
      <trkpt lat="44.79384" lon="5.4798">
        <ele>1597.7</ele>
        <time>2019-05-30T06:12:20Z</time>
      </trkpt>
      <trkpt lat="44.79385" lon="5.47976">
        <ele>1597.9</ele>
        <time>2019-05-30T06:12:23Z</time>
      </trkpt>
      <trkpt lat="44.79387" lon="5.47972">
        <ele>1598.1</ele>
        <time>2019-05-30T06:12:26Z</time>
      </trkpt>
      <trkpt lat="44.79388" lon="5.47968">
        <ele>1598.3</ele>
        <time>2019-05-30T06:12:29Z</time>
      </trkpt>
      <trkpt lat="44.79389" lon="5.47963">
        <ele>1598.6</ele>
        <time>2019-05-30T06:12:33Z</time>
      </trkpt>
      <trkpt lat="44.7939" lon="5.47959">
        <ele>1598.8</ele>
        <time>2019-05-30T06:12:36Z</time>
      </trkpt>
      <trkpt lat="44.79391" lon="5.47955">
        <ele>1598.9</ele>
        <time>2019-05-30T06:12:38Z</time>
      </trkpt>
      <trkpt lat="44.79392" lon="5.47951">
        <ele>1599.1</ele>
        <time>2019-05-30T06:12:41Z</time>
      </trkpt>
      <trkpt lat="44.79394" lon="5.47947">
        <ele>1599.3</ele>
        <time>2019-05-30T06:12:44Z</time>
      </trkpt>
      <trkpt lat="44.79394" lon="5.47942">
        <ele>1599.5</ele>
        <time>2019-05-30T06:12:47Z</time>
      </trkpt>
      <trkpt lat="44.79395" lon="5.47937">
        <ele>1599.6</ele>
        <time>2019-05-30T06:12:50Z</time>
      </trkpt>
      <trkpt lat="44.79396" lon="5.47932">
        <ele>1599.8</ele>
        <time>2019-05-30T06:12:53Z</time>
      </trkpt>
      <trkpt lat="44.79397" lon="5.47927">
        <ele>1600</ele>
        <time>2019-05-30T06:12:56Z</time>
      </trkpt>
      <trkpt lat="44.79398" lon="5.47923">
        <ele>1600.2</ele>
        <time>2019-05-30T06:12:59Z</time>
      </trkpt>
      <trkpt lat="44.794" lon="5.4792">
        <ele>1600.4</ele>
        <time>2019-05-30T06:13:02Z</time>
      </trkpt>
      <trkpt lat="44.79402" lon="5.47916">
        <ele>1600.7</ele>
        <time>2019-05-30T06:13:05Z</time>
      </trkpt>
      <trkpt lat="44.79403" lon="5.47911">
        <ele>1601</ele>
        <time>2019-05-30T06:13:08Z</time>
      </trkpt>
      <trkpt lat="44.79404" lon="5.47907">
        <ele>1601.2</ele>
        <time>2019-05-30T06:13:11Z</time>
      </trkpt>
      <trkpt lat="44.79403" lon="5.47903">
        <ele>1601.4</ele>
        <time>2019-05-30T06:13:14Z</time>
      </trkpt>
      <trkpt lat="44.79406" lon="5.47903">
        <ele>1601.6</ele>
        <time>2019-05-30T06:13:28Z</time>
      </trkpt>
      <trkpt lat="44.79409" lon="5.479">
        <ele>1601.8</ele>
        <time>2019-05-30T06:13:31Z</time>
      </trkpt>
      <trkpt lat="44.79411" lon="5.47897">
        <ele>1602</ele>
        <time>2019-05-30T06:13:34Z</time>
      </trkpt>
      <trkpt lat="44.79414" lon="5.47893">
        <ele>1602.2</ele>
        <time>2019-05-30T06:13:37Z</time>
      </trkpt>
      <trkpt lat="44.79415" lon="5.47889">
        <ele>1602.4</ele>
        <time>2019-05-30T06:13:39Z</time>
      </trkpt>
      <trkpt lat="44.79417" lon="5.47886">
        <ele>1602.6</ele>
        <time>2019-05-30T06:13:41Z</time>
      </trkpt>
      <trkpt lat="44.79419" lon="5.47883">
        <ele>1602.8</ele>
        <time>2019-05-30T06:13:44Z</time>
      </trkpt>
      <trkpt lat="44.7942" lon="5.47879">
        <ele>1603</ele>
        <time>2019-05-30T06:13:47Z</time>
      </trkpt>
      <trkpt lat="44.79421" lon="5.47875">
        <ele>1603.1</ele>
        <time>2019-05-30T06:13:50Z</time>
      </trkpt>
      <trkpt lat="44.79423" lon="5.4787">
        <ele>1603.3</ele>
        <time>2019-05-30T06:13:53Z</time>
      </trkpt>
      <trkpt lat="44.79425" lon="5.47867">
        <ele>1603.5</ele>
        <time>2019-05-30T06:13:56Z</time>
      </trkpt>
      <trkpt lat="44.79427" lon="5.47864">
        <ele>1603.7</ele>
        <time>2019-05-30T06:13:58Z</time>
      </trkpt>
      <trkpt lat="44.79429" lon="5.47861">
        <ele>1603.9</ele>
        <time>2019-05-30T06:14:01Z</time>
      </trkpt>
      <trkpt lat="44.79431" lon="5.47857">
        <ele>1604.1</ele>
        <time>2019-05-30T06:14:05Z</time>
      </trkpt>
      <trkpt lat="44.79432" lon="5.47853">
        <ele>1604.3</ele>
        <time>2019-05-30T06:14:08Z</time>
      </trkpt>
      <trkpt lat="44.79434" lon="5.4785">
        <ele>1604.4</ele>
        <time>2019-05-30T06:14:11Z</time>
      </trkpt>
      <trkpt lat="44.79435" lon="5.47846">
        <ele>1604.6</ele>
        <time>2019-05-30T06:14:14Z</time>
      </trkpt>
      <trkpt lat="44.79436" lon="5.47842">
        <ele>1604.8</ele>
        <time>2019-05-30T06:14:17Z</time>
      </trkpt>
      <trkpt lat="44.79438" lon="5.47839">
        <ele>1605.1</ele>
        <time>2019-05-30T06:14:20Z</time>
      </trkpt>
      <trkpt lat="44.79439" lon="5.47834">
        <ele>1605.5</ele>
        <time>2019-05-30T06:14:23Z</time>
      </trkpt>
      <trkpt lat="44.7944" lon="5.47831">
        <ele>1605.8</ele>
        <time>2019-05-30T06:14:26Z</time>
      </trkpt>
      <trkpt lat="44.79441" lon="5.47827">
        <ele>1606</ele>
        <time>2019-05-30T06:14:29Z</time>
      </trkpt>
      <trkpt lat="44.79441" lon="5.47822">
        <ele>1606.4</ele>
        <time>2019-05-30T06:14:33Z</time>
      </trkpt>
      <trkpt lat="44.79441" lon="5.47818">
        <ele>1606.7</ele>
        <time>2019-05-30T06:14:36Z</time>
      </trkpt>
      <trkpt lat="44.79443" lon="5.47813">
        <ele>1607</ele>
        <time>2019-05-30T06:14:39Z</time>
      </trkpt>
      <trkpt lat="44.79444" lon="5.4781">
        <ele>1607.3</ele>
        <time>2019-05-30T06:14:41Z</time>
      </trkpt>
      <trkpt lat="44.79445" lon="5.47805">
        <ele>1607.7</ele>
        <time>2019-05-30T06:14:44Z</time>
      </trkpt>
      <trkpt lat="44.79446" lon="5.478">
        <ele>1607.9</ele>
        <time>2019-05-30T06:14:47Z</time>
      </trkpt>
      <trkpt lat="44.79447" lon="5.47795">
        <ele>1608.2</ele>
        <time>2019-05-30T06:14:50Z</time>
      </trkpt>
      <trkpt lat="44.79447" lon="5.47792">
        <ele>1608.4</ele>
        <time>2019-05-30T06:14:52Z</time>
      </trkpt>
      <trkpt lat="44.79449" lon="5.47787">
        <ele>1608.7</ele>
        <time>2019-05-30T06:14:55Z</time>
      </trkpt>
      <trkpt lat="44.7945" lon="5.47782">
        <ele>1609</ele>
        <time>2019-05-30T06:14:58Z</time>
      </trkpt>
      <trkpt lat="44.79452" lon="5.47779">
        <ele>1609.2</ele>
        <time>2019-05-30T06:15:01Z</time>
      </trkpt>
      <trkpt lat="44.79453" lon="5.47775">
        <ele>1609.5</ele>
        <time>2019-05-30T06:15:04Z</time>
      </trkpt>
      <trkpt lat="44.79454" lon="5.4777">
        <ele>1609.8</ele>
        <time>2019-05-30T06:15:07Z</time>
      </trkpt>
      <trkpt lat="44.79455" lon="5.47765">
        <ele>1610.1</ele>
        <time>2019-05-30T06:15:10Z</time>
      </trkpt>
      <trkpt lat="44.79456" lon="5.47761">
        <ele>1610.4</ele>
        <time>2019-05-30T06:15:13Z</time>
      </trkpt>
      <trkpt lat="44.79456" lon="5.47757">
        <ele>1610.6</ele>
        <time>2019-05-30T06:15:16Z</time>
      </trkpt>
      <trkpt lat="44.79456" lon="5.47753">
        <ele>1610.9</ele>
        <time>2019-05-30T06:15:19Z</time>
      </trkpt>
      <trkpt lat="44.79456" lon="5.47749">
        <ele>1611.1</ele>
        <time>2019-05-30T06:15:22Z</time>
      </trkpt>
      <trkpt lat="44.79456" lon="5.47745">
        <ele>1611.4</ele>
        <time>2019-05-30T06:15:25Z</time>
      </trkpt>
      <trkpt lat="44.79456" lon="5.4774">
        <ele>1611.6</ele>
        <time>2019-05-30T06:15:29Z</time>
      </trkpt>
      <trkpt lat="44.79456" lon="5.47735">
        <ele>1611.9</ele>
        <time>2019-05-30T06:15:33Z</time>
      </trkpt>
      <trkpt lat="44.79456" lon="5.47731">
        <ele>1612.1</ele>
        <time>2019-05-30T06:15:37Z</time>
      </trkpt>
      <trkpt lat="44.79457" lon="5.47727">
        <ele>1612.3</ele>
        <time>2019-05-30T06:15:40Z</time>
      </trkpt>
      <trkpt lat="44.79458" lon="5.47723">
        <ele>1612.6</ele>
        <time>2019-05-30T06:15:44Z</time>
      </trkpt>
      <trkpt lat="44.79458" lon="5.47719">
        <ele>1612.7</ele>
        <time>2019-05-30T06:15:48Z</time>
      </trkpt>
      <trkpt lat="44.79459" lon="5.47715">
        <ele>1612.9</ele>
        <time>2019-05-30T06:15:53Z</time>
      </trkpt>
      <trkpt lat="44.7946" lon="5.47711">
        <ele>1613</ele>
        <time>2019-05-30T06:15:57Z</time>
      </trkpt>
      <trkpt lat="44.79462" lon="5.47708">
        <ele>1613</ele>
        <time>2019-05-30T06:16:01Z</time>
      </trkpt>
      <trkpt lat="44.79464" lon="5.47706">
        <ele>1613.1</ele>
        <time>2019-05-30T06:16:04Z</time>
      </trkpt>
      <trkpt lat="44.79467" lon="5.47703">
        <ele>1613.2</ele>
        <time>2019-05-30T06:16:07Z</time>
      </trkpt>
      <trkpt lat="44.79469" lon="5.47699">
        <ele>1613.2</ele>
        <time>2019-05-30T06:16:10Z</time>
      </trkpt>
      <trkpt lat="44.79472" lon="5.47695">
        <ele>1613.3</ele>
        <time>2019-05-30T06:16:13Z</time>
      </trkpt>
      <trkpt lat="44.79473" lon="5.47693">
        <ele>1613.3</ele>
        <time>2019-05-30T06:16:15Z</time>
      </trkpt>
      <trkpt lat="44.79476" lon="5.47688">
        <ele>1613.4</ele>
        <time>2019-05-30T06:16:18Z</time>
      </trkpt>
      <trkpt lat="44.79478" lon="5.47685">
        <ele>1613.4</ele>
        <time>2019-05-30T06:16:21Z</time>
      </trkpt>
      <trkpt lat="44.7948" lon="5.47682">
        <ele>1613.3</ele>
        <time>2019-05-30T06:16:24Z</time>
      </trkpt>
      <trkpt lat="44.79482" lon="5.47678">
        <ele>1613.3</ele>
        <time>2019-05-30T06:16:27Z</time>
      </trkpt>
      <trkpt lat="44.79484" lon="5.47676">
        <ele>1613.2</ele>
        <time>2019-05-30T06:16:30Z</time>
      </trkpt>
      <trkpt lat="44.79487" lon="5.47674">
        <ele>1613.2</ele>
        <time>2019-05-30T06:16:33Z</time>
      </trkpt>
      <trkpt lat="44.7949" lon="5.47674">
        <ele>1613.1</ele>
        <time>2019-05-30T06:16:36Z</time>
      </trkpt>
      <trkpt lat="44.79493" lon="5.47672">
        <ele>1613</ele>
        <time>2019-05-30T06:16:39Z</time>
      </trkpt>
      <trkpt lat="44.79496" lon="5.47669">
        <ele>1612.9</ele>
        <time>2019-05-30T06:16:42Z</time>
      </trkpt>
      <trkpt lat="44.79499" lon="5.47667">
        <ele>1612.7</ele>
        <time>2019-05-30T06:16:45Z</time>
      </trkpt>
      <trkpt lat="44.79502" lon="5.47667">
        <ele>1612.4</ele>
        <time>2019-05-30T06:16:49Z</time>
      </trkpt>
      <trkpt lat="44.79505" lon="5.47668">
        <ele>1612.3</ele>
        <time>2019-05-30T06:16:52Z</time>
      </trkpt>
      <trkpt lat="44.79507" lon="5.4767">
        <ele>1612.3</ele>
        <time>2019-05-30T06:16:55Z</time>
      </trkpt>
      <trkpt lat="44.79509" lon="5.47671">
        <ele>1612.2</ele>
        <time>2019-05-30T06:17:25Z</time>
      </trkpt>
      <trkpt lat="44.79511" lon="5.47675">
        <ele>1612.2</ele>
        <time>2019-05-30T06:17:30Z</time>
      </trkpt>
      <trkpt lat="44.79511" lon="5.4768">
        <ele>1612.1</ele>
        <time>2019-05-30T06:17:34Z</time>
      </trkpt>
      <trkpt lat="44.7951" lon="5.47684">
        <ele>1612</ele>
        <time>2019-05-30T06:17:38Z</time>
      </trkpt>
      <trkpt lat="44.79508" lon="5.47687">
        <ele>1612</ele>
        <time>2019-05-30T06:17:45Z</time>
      </trkpt>
      <trkpt lat="44.79506" lon="5.4769">
        <ele>1611.9</ele>
        <time>2019-05-30T06:18:55Z</time>
      </trkpt>
      <trkpt lat="44.79507" lon="5.47693">
        <ele>1611.8</ele>
        <time>2019-05-30T06:19:50Z</time>
      </trkpt>
      <trkpt lat="44.79509" lon="5.47696">
        <ele>1611.7</ele>
        <time>2019-05-30T06:20:34Z</time>
      </trkpt>
      <trkpt lat="44.79507" lon="5.47699">
        <ele>1611.6</ele>
        <time>2019-05-30T06:22:06Z</time>
      </trkpt>
      <trkpt lat="44.79506" lon="5.47702">
        <ele>1611.5</ele>
        <time>2019-05-30T06:22:20Z</time>
      </trkpt>
      <trkpt lat="44.79507" lon="5.47699">
        <ele>1611.4</ele>
        <time>2019-05-30T06:23:01Z</time>
      </trkpt>
      <trkpt lat="44.79504" lon="5.47697">
        <ele>1611.2</ele>
        <time>2019-05-30T06:23:40Z</time>
      </trkpt>
      <trkpt lat="44.79506" lon="5.477">
        <ele>1611.1</ele>
        <time>2019-05-30T06:23:46Z</time>
      </trkpt>
      <trkpt lat="44.79509" lon="5.47704">
        <ele>1610.8</ele>
        <time>2019-05-30T06:23:48Z</time>
      </trkpt>
      <trkpt lat="44.79506" lon="5.47702">
        <ele>1610.6</ele>
        <time>2019-05-30T06:23:57Z</time>
      </trkpt>
      <trkpt lat="44.79503" lon="5.47698">
        <ele>1610.5</ele>
        <time>2019-05-30T06:24:18Z</time>
      </trkpt>
      <trkpt lat="44.79506" lon="5.47701">
        <ele>1610.4</ele>
        <time>2019-05-30T06:24:26Z</time>
      </trkpt>
      <trkpt lat="44.79504" lon="5.47705">
        <ele>1610.3</ele>
        <time>2019-05-30T06:24:44Z</time>
      </trkpt>
      <trkpt lat="44.79503" lon="5.47709">
        <ele>1610.3</ele>
        <time>2019-05-30T06:24:49Z</time>
      </trkpt>
      <trkpt lat="44.79504" lon="5.47715">
        <ele>1610.1</ele>
        <time>2019-05-30T06:24:51Z</time>
      </trkpt>
      <trkpt lat="44.79507" lon="5.47716">
        <ele>1610.1</ele>
        <time>2019-05-30T06:24:54Z</time>
      </trkpt>
      <trkpt lat="44.79507" lon="5.4771">
        <ele>1610</ele>
        <time>2019-05-30T06:24:56Z</time>
      </trkpt>
      <trkpt lat="44.79504" lon="5.47709">
        <ele>1610</ele>
        <time>2019-05-30T06:25:05Z</time>
      </trkpt>
      <trkpt lat="44.79506" lon="5.47705">
        <ele>1610</ele>
        <time>2019-05-30T06:25:54Z</time>
      </trkpt>
      <trkpt lat="44.79507" lon="5.47702">
        <ele>1610</ele>
        <time>2019-05-30T06:26:28Z</time>
      </trkpt>
      <trkpt lat="44.79507" lon="5.47698">
        <ele>1610.1</ele>
        <time>2019-05-30T06:26:48Z</time>
      </trkpt>
      <trkpt lat="44.79507" lon="5.47694">
        <ele>1610.2</ele>
        <time>2019-05-30T06:27:06Z</time>
      </trkpt>
      <trkpt lat="44.79506" lon="5.4769">
        <ele>1610.4</ele>
        <time>2019-05-30T06:27:15Z</time>
      </trkpt>
      <trkpt lat="44.79509" lon="5.47689">
        <ele>1610.6</ele>
        <time>2019-05-30T06:29:34Z</time>
      </trkpt>
      <trkpt lat="44.7951" lon="5.47683">
        <ele>1610.9</ele>
        <time>2019-05-30T06:29:37Z</time>
      </trkpt>
      <trkpt lat="44.79511" lon="5.47679">
        <ele>1611.1</ele>
        <time>2019-05-30T06:29:40Z</time>
      </trkpt>
      <trkpt lat="44.79513" lon="5.47682">
        <ele>1611.3</ele>
        <time>2019-05-30T06:30:29Z</time>
      </trkpt>
      <trkpt lat="44.79512" lon="5.47686">
        <ele>1611.5</ele>
        <time>2019-05-30T06:30:37Z</time>
      </trkpt>
      <trkpt lat="44.79511" lon="5.4769">
        <ele>1611.8</ele>
        <time>2019-05-30T06:30:50Z</time>
      </trkpt>
      <trkpt lat="44.79509" lon="5.47687">
        <ele>1612.1</ele>
        <time>2019-05-30T06:31:42Z</time>
      </trkpt>
      <trkpt lat="44.79506" lon="5.47689">
        <ele>1612.4</ele>
        <time>2019-05-30T06:32:27Z</time>
      </trkpt>
      <trkpt lat="44.79505" lon="5.47693">
        <ele>1612.6</ele>
        <time>2019-05-30T06:32:51Z</time>
      </trkpt>
      <trkpt lat="44.79507" lon="5.4769">
        <ele>1612.9</ele>
        <time>2019-05-30T06:33:42Z</time>
      </trkpt>
      <trkpt lat="44.79506" lon="5.47693">
        <ele>1613.1</ele>
        <time>2019-05-30T06:33:54Z</time>
      </trkpt>
      <trkpt lat="44.79508" lon="5.4769">
        <ele>1613.3</ele>
        <time>2019-05-30T06:37:12Z</time>
      </trkpt>
      <trkpt lat="44.79512" lon="5.47686">
        <ele>1613.6</ele>
        <time>2019-05-30T06:37:57Z</time>
      </trkpt>
      <trkpt lat="44.79515" lon="5.47685">
        <ele>1613.7</ele>
        <time>2019-05-30T06:38:04Z</time>
      </trkpt>
      <trkpt lat="44.79512" lon="5.47684">
        <ele>1613.8</ele>
        <time>2019-05-30T06:39:39Z</time>
      </trkpt>
      <trkpt lat="44.79511" lon="5.47688">
        <ele>1613.9</ele>
        <time>2019-05-30T06:39:53Z</time>
      </trkpt>
      <trkpt lat="44.7951" lon="5.47692">
        <ele>1613.9</ele>
        <time>2019-05-30T06:41:33Z</time>
      </trkpt>
      <trkpt lat="44.79513" lon="5.47694">
        <ele>1613.9</ele>
        <time>2019-05-30T06:41:52Z</time>
      </trkpt>
      <trkpt lat="44.79515" lon="5.47697">
        <ele>1613.9</ele>
        <time>2019-05-30T06:41:54Z</time>
      </trkpt>
      <trkpt lat="44.79517" lon="5.47701">
        <ele>1613.9</ele>
        <time>2019-05-30T06:41:57Z</time>
      </trkpt>
      <trkpt lat="44.7952" lon="5.47704">
        <ele>1614</ele>
        <time>2019-05-30T06:41:59Z</time>
      </trkpt>
      <trkpt lat="44.79522" lon="5.47707">
        <ele>1614</ele>
        <time>2019-05-30T06:42:01Z</time>
      </trkpt>
      <trkpt lat="44.79524" lon="5.47709">
        <ele>1614</ele>
        <time>2019-05-30T06:42:04Z</time>
      </trkpt>
      <trkpt lat="44.79527" lon="5.47711">
        <ele>1614.1</ele>
        <time>2019-05-30T06:42:07Z</time>
      </trkpt>
      <trkpt lat="44.7953" lon="5.47712">
        <ele>1614.2</ele>
        <time>2019-05-30T06:42:10Z</time>
      </trkpt>
      <trkpt lat="44.79534" lon="5.47713">
        <ele>1614.3</ele>
        <time>2019-05-30T06:42:14Z</time>
      </trkpt>
      <trkpt lat="44.79537" lon="5.47713">
        <ele>1614.3</ele>
        <time>2019-05-30T06:42:17Z</time>
      </trkpt>
      <trkpt lat="44.79539" lon="5.47712">
        <ele>1614.4</ele>
        <time>2019-05-30T06:42:19Z</time>
      </trkpt>
      <trkpt lat="44.79542" lon="5.47711">
        <ele>1614.5</ele>
        <time>2019-05-30T06:42:21Z</time>
      </trkpt>
      <trkpt lat="44.79545" lon="5.47709">
        <ele>1614.5</ele>
        <time>2019-05-30T06:42:23Z</time>
      </trkpt>
      <trkpt lat="44.79548" lon="5.47707">
        <ele>1614.6</ele>
        <time>2019-05-30T06:42:25Z</time>
      </trkpt>
      <trkpt lat="44.79551" lon="5.47705">
        <ele>1614.7</ele>
        <time>2019-05-30T06:42:27Z</time>
      </trkpt>
      <trkpt lat="44.79554" lon="5.47703">
        <ele>1614.8</ele>
        <time>2019-05-30T06:42:29Z</time>
      </trkpt>
      <trkpt lat="44.79557" lon="5.47701">
        <ele>1614.8</ele>
        <time>2019-05-30T06:42:32Z</time>
      </trkpt>
      <trkpt lat="44.79561" lon="5.477">
        <ele>1614.8</ele>
        <time>2019-05-30T06:42:35Z</time>
      </trkpt>
      <trkpt lat="44.79564" lon="5.47699">
        <ele>1614.8</ele>
        <time>2019-05-30T06:42:38Z</time>
      </trkpt>
      <trkpt lat="44.79567" lon="5.477">
        <ele>1614.8</ele>
        <time>2019-05-30T06:42:42Z</time>
      </trkpt>
      <trkpt lat="44.7957" lon="5.47702">
        <ele>1614.7</ele>
        <time>2019-05-30T06:42:47Z</time>
      </trkpt>
      <trkpt lat="44.79573" lon="5.47703">
        <ele>1614.6</ele>
        <time>2019-05-30T06:42:50Z</time>
      </trkpt>
      <trkpt lat="44.79576" lon="5.47706">
        <ele>1614.4</ele>
        <time>2019-05-30T06:42:54Z</time>
      </trkpt>
      <trkpt lat="44.79579" lon="5.47708">
        <ele>1614.3</ele>
        <time>2019-05-30T06:42:57Z</time>
      </trkpt>
      <trkpt lat="44.79582" lon="5.47709">
        <ele>1614</ele>
        <time>2019-05-30T06:43:00Z</time>
      </trkpt>
      <trkpt lat="44.79585" lon="5.47709">
        <ele>1613.8</ele>
        <time>2019-05-30T06:43:04Z</time>
      </trkpt>
      <trkpt lat="44.79588" lon="5.4771">
        <ele>1613.6</ele>
        <time>2019-05-30T06:43:08Z</time>
      </trkpt>
      <trkpt lat="44.79591" lon="5.47712">
        <ele>1613.3</ele>
        <time>2019-05-30T06:43:12Z</time>
      </trkpt>
      <trkpt lat="44.79594" lon="5.47714">
        <ele>1613.1</ele>
        <time>2019-05-30T06:43:15Z</time>
      </trkpt>
      <trkpt lat="44.79596" lon="5.47717">
        <ele>1612.9</ele>
        <time>2019-05-30T06:43:18Z</time>
      </trkpt>
      <trkpt lat="44.79598" lon="5.47721">
        <ele>1612.7</ele>
        <time>2019-05-30T06:43:21Z</time>
      </trkpt>
      <trkpt lat="44.796" lon="5.47725">
        <ele>1612.5</ele>
        <time>2019-05-30T06:43:25Z</time>
      </trkpt>
      <trkpt lat="44.79601" lon="5.47728">
        <ele>1612.4</ele>
        <time>2019-05-30T06:43:29Z</time>
      </trkpt>
      <trkpt lat="44.79603" lon="5.47732">
        <ele>1612.3</ele>
        <time>2019-05-30T06:43:32Z</time>
      </trkpt>
      <trkpt lat="44.79603" lon="5.47736">
        <ele>1612.3</ele>
        <time>2019-05-30T06:43:35Z</time>
      </trkpt>
      <trkpt lat="44.79603" lon="5.47741">
        <ele>1612.3</ele>
        <time>2019-05-30T06:43:38Z</time>
      </trkpt>
      <trkpt lat="44.79603" lon="5.47745">
        <ele>1612.4</ele>
        <time>2019-05-30T06:43:41Z</time>
      </trkpt>
      <trkpt lat="44.79604" lon="5.4775">
        <ele>1612.6</ele>
        <time>2019-05-30T06:43:44Z</time>
      </trkpt>
      <trkpt lat="44.79606" lon="5.47755">
        <ele>1612.8</ele>
        <time>2019-05-30T06:43:47Z</time>
      </trkpt>
      <trkpt lat="44.79608" lon="5.47759">
        <ele>1613</ele>
        <time>2019-05-30T06:43:49Z</time>
      </trkpt>
      <trkpt lat="44.79609" lon="5.47764">
        <ele>1613.3</ele>
        <time>2019-05-30T06:43:52Z</time>
      </trkpt>
      <trkpt lat="44.7961" lon="5.47768">
        <ele>1613.6</ele>
        <time>2019-05-30T06:43:55Z</time>
      </trkpt>
      <trkpt lat="44.79612" lon="5.47774">
        <ele>1613.9</ele>
        <time>2019-05-30T06:43:58Z</time>
      </trkpt>
      <trkpt lat="44.79614" lon="5.47778">
        <ele>1614.2</ele>
        <time>2019-05-30T06:44:00Z</time>
      </trkpt>
      <trkpt lat="44.79616" lon="5.47782">
        <ele>1614.4</ele>
        <time>2019-05-30T06:44:02Z</time>
      </trkpt>
      <trkpt lat="44.79619" lon="5.47785">
        <ele>1614.6</ele>
        <time>2019-05-30T06:44:04Z</time>
      </trkpt>
      <trkpt lat="44.7962" lon="5.47789">
        <ele>1614.7</ele>
        <time>2019-05-30T06:44:06Z</time>
      </trkpt>
      <trkpt lat="44.79623" lon="5.47793">
        <ele>1614.8</ele>
        <time>2019-05-30T06:44:09Z</time>
      </trkpt>
      <trkpt lat="44.79625" lon="5.47795">
        <ele>1614.9</ele>
        <time>2019-05-30T06:44:12Z</time>
      </trkpt>
      <trkpt lat="44.79628" lon="5.47799">
        <ele>1614.9</ele>
        <time>2019-05-30T06:44:15Z</time>
      </trkpt>
      <trkpt lat="44.79632" lon="5.47799">
        <ele>1614.9</ele>
        <time>2019-05-30T06:44:19Z</time>
      </trkpt>
      <trkpt lat="44.79634" lon="5.478">
        <ele>1614.9</ele>
        <time>2019-05-30T06:44:22Z</time>
      </trkpt>
      <trkpt lat="44.79637" lon="5.47801">
        <ele>1614.8</ele>
        <time>2019-05-30T06:44:25Z</time>
      </trkpt>
      <trkpt lat="44.79641" lon="5.47802">
        <ele>1614.7</ele>
        <time>2019-05-30T06:44:28Z</time>
      </trkpt>
      <trkpt lat="44.79644" lon="5.47802">
        <ele>1614.6</ele>
        <time>2019-05-30T06:44:31Z</time>
      </trkpt>
      <trkpt lat="44.79647" lon="5.47801">
        <ele>1614.5</ele>
        <time>2019-05-30T06:44:34Z</time>
      </trkpt>
      <trkpt lat="44.7965" lon="5.47802">
        <ele>1614.3</ele>
        <time>2019-05-30T06:44:37Z</time>
      </trkpt>
      <trkpt lat="44.79654" lon="5.47804">
        <ele>1614.2</ele>
        <time>2019-05-30T06:44:40Z</time>
      </trkpt>
      <trkpt lat="44.79658" lon="5.47802">
        <ele>1614.1</ele>
        <time>2019-05-30T06:44:43Z</time>
      </trkpt>
      <trkpt lat="44.79661" lon="5.478">
        <ele>1614</ele>
        <time>2019-05-30T06:44:46Z</time>
      </trkpt>
      <trkpt lat="44.79664" lon="5.47798">
        <ele>1613.9</ele>
        <time>2019-05-30T06:44:49Z</time>
      </trkpt>
      <trkpt lat="44.79667" lon="5.47795">
        <ele>1613.9</ele>
        <time>2019-05-30T06:44:52Z</time>
      </trkpt>
      <trkpt lat="44.79669" lon="5.47791">
        <ele>1613.8</ele>
        <time>2019-05-30T06:44:56Z</time>
      </trkpt>
      <trkpt lat="44.79671" lon="5.47788">
        <ele>1613.8</ele>
        <time>2019-05-30T06:45:00Z</time>
      </trkpt>
      <trkpt lat="44.79674" lon="5.47786">
        <ele>1613.8</ele>
        <time>2019-05-30T06:45:04Z</time>
      </trkpt>
      <trkpt lat="44.79677" lon="5.47785">
        <ele>1613.7</ele>
        <time>2019-05-30T06:45:07Z</time>
      </trkpt>
      <trkpt lat="44.7968" lon="5.47783">
        <ele>1613.7</ele>
        <time>2019-05-30T06:45:11Z</time>
      </trkpt>
      <trkpt lat="44.79683" lon="5.4778">
        <ele>1613.6</ele>
        <time>2019-05-30T06:45:15Z</time>
      </trkpt>
      <trkpt lat="44.79686" lon="5.47778">
        <ele>1613.5</ele>
        <time>2019-05-30T06:45:19Z</time>
      </trkpt>
      <trkpt lat="44.7969" lon="5.47776">
        <ele>1613.4</ele>
        <time>2019-05-30T06:45:22Z</time>
      </trkpt>
      <trkpt lat="44.79693" lon="5.47775">
        <ele>1613.3</ele>
        <time>2019-05-30T06:45:25Z</time>
      </trkpt>
      <trkpt lat="44.79696" lon="5.47775">
        <ele>1613.1</ele>
        <time>2019-05-30T06:45:28Z</time>
      </trkpt>
      <trkpt lat="44.79699" lon="5.47775">
        <ele>1613</ele>
        <time>2019-05-30T06:45:31Z</time>
      </trkpt>
      <trkpt lat="44.79703" lon="5.47774">
        <ele>1612.9</ele>
        <time>2019-05-30T06:45:34Z</time>
      </trkpt>
      <trkpt lat="44.79706" lon="5.47773">
        <ele>1612.9</ele>
        <time>2019-05-30T06:45:36Z</time>
      </trkpt>
      <trkpt lat="44.79708" lon="5.4777">
        <ele>1612.8</ele>
        <time>2019-05-30T06:45:39Z</time>
      </trkpt>
      <trkpt lat="44.7971" lon="5.47767">
        <ele>1612.8</ele>
        <time>2019-05-30T06:45:42Z</time>
      </trkpt>
      <trkpt lat="44.79712" lon="5.47762">
        <ele>1612.9</ele>
        <time>2019-05-30T06:45:46Z</time>
      </trkpt>
      <trkpt lat="44.79715" lon="5.4776">
        <ele>1613</ele>
        <time>2019-05-30T06:45:50Z</time>
      </trkpt>
      <trkpt lat="44.79719" lon="5.47759">
        <ele>1613.1</ele>
        <time>2019-05-30T06:45:53Z</time>
      </trkpt>
      <trkpt lat="44.79723" lon="5.47759">
        <ele>1613.3</ele>
        <time>2019-05-30T06:45:56Z</time>
      </trkpt>
      <trkpt lat="44.79725" lon="5.4776">
        <ele>1613.5</ele>
        <time>2019-05-30T06:45:58Z</time>
      </trkpt>
      <trkpt lat="44.79728" lon="5.47761">
        <ele>1613.8</ele>
        <time>2019-05-30T06:46:00Z</time>
      </trkpt>
      <trkpt lat="44.79731" lon="5.47762">
        <ele>1614</ele>
        <time>2019-05-30T06:46:03Z</time>
      </trkpt>
      <trkpt lat="44.79734" lon="5.47762">
        <ele>1614.3</ele>
        <time>2019-05-30T06:46:07Z</time>
      </trkpt>
      <trkpt lat="44.79737" lon="5.47761">
        <ele>1614.6</ele>
        <time>2019-05-30T06:46:11Z</time>
      </trkpt>
      <trkpt lat="44.7974" lon="5.47761">
        <ele>1614.9</ele>
        <time>2019-05-30T06:46:14Z</time>
      </trkpt>
      <trkpt lat="44.79743" lon="5.47761">
        <ele>1615.2</ele>
        <time>2019-05-30T06:46:17Z</time>
      </trkpt>
      <trkpt lat="44.79747" lon="5.4776">
        <ele>1615.5</ele>
        <time>2019-05-30T06:46:20Z</time>
      </trkpt>
      <trkpt lat="44.7975" lon="5.47758">
        <ele>1615.9</ele>
        <time>2019-05-30T06:46:23Z</time>
      </trkpt>
      <trkpt lat="44.79753" lon="5.47756">
        <ele>1616.2</ele>
        <time>2019-05-30T06:46:25Z</time>
      </trkpt>
      <trkpt lat="44.79756" lon="5.47755">
        <ele>1616.5</ele>
        <time>2019-05-30T06:46:27Z</time>
      </trkpt>
      <trkpt lat="44.79759" lon="5.47755">
        <ele>1616.7</ele>
        <time>2019-05-30T06:46:29Z</time>
      </trkpt>
      <trkpt lat="44.79762" lon="5.47754">
        <ele>1616.9</ele>
        <time>2019-05-30T06:46:31Z</time>
      </trkpt>
      <trkpt lat="44.79765" lon="5.47754">
        <ele>1617.1</ele>
        <time>2019-05-30T06:46:33Z</time>
      </trkpt>
      <trkpt lat="44.79768" lon="5.47753">
        <ele>1617.3</ele>
        <time>2019-05-30T06:46:35Z</time>
      </trkpt>
      <trkpt lat="44.79771" lon="5.47753">
        <ele>1617.4</ele>
        <time>2019-05-30T06:46:37Z</time>
      </trkpt>
      <trkpt lat="44.79774" lon="5.47753">
        <ele>1617.5</ele>
        <time>2019-05-30T06:46:39Z</time>
      </trkpt>
      <trkpt lat="44.79778" lon="5.47752">
        <ele>1617.6</ele>
        <time>2019-05-30T06:46:41Z</time>
      </trkpt>
      <trkpt lat="44.79781" lon="5.47753">
        <ele>1617.8</ele>
        <time>2019-05-30T06:46:43Z</time>
      </trkpt>
      <trkpt lat="44.79784" lon="5.47754">
        <ele>1617.9</ele>
        <time>2019-05-30T06:46:46Z</time>
      </trkpt>
      <trkpt lat="44.79787" lon="5.47755">
        <ele>1618</ele>
        <time>2019-05-30T06:46:49Z</time>
      </trkpt>
      <trkpt lat="44.7979" lon="5.47755">
        <ele>1618.2</ele>
        <time>2019-05-30T06:46:52Z</time>
      </trkpt>
      <trkpt lat="44.79794" lon="5.47754">
        <ele>1618.4</ele>
        <time>2019-05-30T06:46:55Z</time>
      </trkpt>
      <trkpt lat="44.79796" lon="5.47756">
        <ele>1618.6</ele>
        <time>2019-05-30T06:46:58Z</time>
      </trkpt>
      <trkpt lat="44.79799" lon="5.47758">
        <ele>1618.7</ele>
        <time>2019-05-30T06:47:02Z</time>
      </trkpt>
      <trkpt lat="44.79801" lon="5.4776">
        <ele>1618.9</ele>
        <time>2019-05-30T06:47:06Z</time>
      </trkpt>
      <trkpt lat="44.79804" lon="5.47761">
        <ele>1619.2</ele>
        <time>2019-05-30T06:47:10Z</time>
      </trkpt>
      <trkpt lat="44.79807" lon="5.47761">
        <ele>1619.4</ele>
        <time>2019-05-30T06:47:14Z</time>
      </trkpt>
      <trkpt lat="44.7981" lon="5.47759">
        <ele>1619.6</ele>
        <time>2019-05-30T06:47:18Z</time>
      </trkpt>
      <trkpt lat="44.79812" lon="5.47757">
        <ele>1619.9</ele>
        <time>2019-05-30T06:47:23Z</time>
      </trkpt>
      <trkpt lat="44.79813" lon="5.47761">
        <ele>1620.2</ele>
        <time>2019-05-30T06:47:51Z</time>
      </trkpt>
      <trkpt lat="44.79814" lon="5.47766">
        <ele>1620.5</ele>
        <time>2019-05-30T06:47:56Z</time>
      </trkpt>
      <trkpt lat="44.79817" lon="5.47767">
        <ele>1620.9</ele>
        <time>2019-05-30T06:48:02Z</time>
      </trkpt>
      <trkpt lat="44.7982" lon="5.47767">
        <ele>1621.4</ele>
        <time>2019-05-30T06:48:06Z</time>
      </trkpt>
      <trkpt lat="44.79824" lon="5.47765">
        <ele>1622</ele>
        <time>2019-05-30T06:48:09Z</time>
      </trkpt>
      <trkpt lat="44.79827" lon="5.47763">
        <ele>1622.5</ele>
        <time>2019-05-30T06:48:11Z</time>
      </trkpt>
      <trkpt lat="44.7983" lon="5.47762">
        <ele>1623.1</ele>
        <time>2019-05-30T06:48:14Z</time>
      </trkpt>
      <trkpt lat="44.79833" lon="5.47759">
        <ele>1623.6</ele>
        <time>2019-05-30T06:48:17Z</time>
      </trkpt>
      <trkpt lat="44.79835" lon="5.47756">
        <ele>1624.1</ele>
        <time>2019-05-30T06:48:21Z</time>
      </trkpt>
      <trkpt lat="44.79838" lon="5.47753">
        <ele>1624.7</ele>
        <time>2019-05-30T06:48:26Z</time>
      </trkpt>
      <trkpt lat="44.7984" lon="5.47751">
        <ele>1625.1</ele>
        <time>2019-05-30T06:48:29Z</time>
      </trkpt>
      <trkpt lat="44.79843" lon="5.4775">
        <ele>1625.5</ele>
        <time>2019-05-30T06:48:32Z</time>
      </trkpt>
      <trkpt lat="44.79845" lon="5.47748">
        <ele>1625.9</ele>
        <time>2019-05-30T06:48:35Z</time>
      </trkpt>
      <trkpt lat="44.79848" lon="5.47748">
        <ele>1626.2</ele>
        <time>2019-05-30T06:48:39Z</time>
      </trkpt>
      <trkpt lat="44.79852" lon="5.47747">
        <ele>1626.5</ele>
        <time>2019-05-30T06:48:41Z</time>
      </trkpt>
      <trkpt lat="44.79854" lon="5.47747">
        <ele>1626.7</ele>
        <time>2019-05-30T06:48:42Z</time>
      </trkpt>
      <trkpt lat="44.79858" lon="5.47746">
        <ele>1626.8</ele>
        <time>2019-05-30T06:48:44Z</time>
      </trkpt>
      <trkpt lat="44.79861" lon="5.47746">
        <ele>1626.9</ele>
        <time>2019-05-30T06:48:47Z</time>
      </trkpt>
      <trkpt lat="44.79864" lon="5.47745">
        <ele>1627</ele>
        <time>2019-05-30T06:48:51Z</time>
      </trkpt>
      <trkpt lat="44.79867" lon="5.47744">
        <ele>1627.1</ele>
        <time>2019-05-30T06:48:54Z</time>
      </trkpt>
      <trkpt lat="44.79869" lon="5.47743">
        <ele>1627.2</ele>
        <time>2019-05-30T06:49:01Z</time>
      </trkpt>
      <trkpt lat="44.79872" lon="5.47742">
        <ele>1627.3</ele>
        <time>2019-05-30T06:49:07Z</time>
      </trkpt>
      <trkpt lat="44.79875" lon="5.47741">
        <ele>1627.4</ele>
        <time>2019-05-30T06:49:10Z</time>
      </trkpt>
      <trkpt lat="44.79878" lon="5.4774">
        <ele>1627.5</ele>
        <time>2019-05-30T06:49:13Z</time>
      </trkpt>
      <trkpt lat="44.79881" lon="5.4774">
        <ele>1627.7</ele>
        <time>2019-05-30T06:49:17Z</time>
      </trkpt>
      <trkpt lat="44.79885" lon="5.4774">
        <ele>1627.9</ele>
        <time>2019-05-30T06:49:20Z</time>
      </trkpt>
      <trkpt lat="44.79888" lon="5.4774">
        <ele>1628.1</ele>
        <time>2019-05-30T06:49:23Z</time>
      </trkpt>
      <trkpt lat="44.79892" lon="5.47739">
        <ele>1628.4</ele>
        <time>2019-05-30T06:49:26Z</time>
      </trkpt>
      <trkpt lat="44.79894" lon="5.47739">
        <ele>1628.6</ele>
        <time>2019-05-30T06:49:28Z</time>
      </trkpt>
      <trkpt lat="44.79898" lon="5.47738">
        <ele>1628.8</ele>
        <time>2019-05-30T06:49:31Z</time>
      </trkpt>
      <trkpt lat="44.79901" lon="5.47737">
        <ele>1629.1</ele>
        <time>2019-05-30T06:49:33Z</time>
      </trkpt>
      <trkpt lat="44.79905" lon="5.47737">
        <ele>1629.3</ele>
        <time>2019-05-30T06:49:35Z</time>
      </trkpt>
      <trkpt lat="44.79908" lon="5.47738">
        <ele>1629.5</ele>
        <time>2019-05-30T06:49:37Z</time>
      </trkpt>
      <trkpt lat="44.79911" lon="5.47738">
        <ele>1629.7</ele>
        <time>2019-05-30T06:49:39Z</time>
      </trkpt>
      <trkpt lat="44.79915" lon="5.47738">
        <ele>1629.9</ele>
        <time>2019-05-30T06:49:42Z</time>
      </trkpt>
      <trkpt lat="44.79918" lon="5.47738">
        <ele>1630.1</ele>
        <time>2019-05-30T06:49:45Z</time>
      </trkpt>
      <trkpt lat="44.79921" lon="5.4774">
        <ele>1630.3</ele>
        <time>2019-05-30T06:49:48Z</time>
      </trkpt>
      <trkpt lat="44.79924" lon="5.47742">
        <ele>1630.6</ele>
        <time>2019-05-30T06:49:51Z</time>
      </trkpt>
      <trkpt lat="44.79927" lon="5.47743">
        <ele>1630.8</ele>
        <time>2019-05-30T06:49:54Z</time>
      </trkpt>
      <trkpt lat="44.7993" lon="5.47743">
        <ele>1631.1</ele>
        <time>2019-05-30T06:49:58Z</time>
      </trkpt>
      <trkpt lat="44.79932" lon="5.47742">
        <ele>1631.3</ele>
        <time>2019-05-30T06:50:04Z</time>
      </trkpt>
      <trkpt lat="44.79935" lon="5.47738">
        <ele>1631.7</ele>
        <time>2019-05-30T06:50:08Z</time>
      </trkpt>
      <trkpt lat="44.79937" lon="5.47736">
        <ele>1632</ele>
        <time>2019-05-30T06:50:11Z</time>
      </trkpt>
      <trkpt lat="44.79939" lon="5.47734">
        <ele>1632.3</ele>
        <time>2019-05-30T06:50:14Z</time>
      </trkpt>
      <trkpt lat="44.79943" lon="5.47732">
        <ele>1632.9</ele>
        <time>2019-05-30T06:50:18Z</time>
      </trkpt>
      <trkpt lat="44.79945" lon="5.47729">
        <ele>1633.3</ele>
        <time>2019-05-30T06:50:20Z</time>
      </trkpt>
      <trkpt lat="44.79949" lon="5.47726">
        <ele>1633.9</ele>
        <time>2019-05-30T06:50:23Z</time>
      </trkpt>
      <trkpt lat="44.79952" lon="5.47724">
        <ele>1634.5</ele>
        <time>2019-05-30T06:50:26Z</time>
      </trkpt>
      <trkpt lat="44.79956" lon="5.47723">
        <ele>1635.3</ele>
        <time>2019-05-30T06:50:29Z</time>
      </trkpt>
      <trkpt lat="44.7996" lon="5.47722">
        <ele>1635.9</ele>
        <time>2019-05-30T06:50:32Z</time>
      </trkpt>
      <trkpt lat="44.79963" lon="5.4772">
        <ele>1636.5</ele>
        <time>2019-05-30T06:50:35Z</time>
      </trkpt>
      <trkpt lat="44.79966" lon="5.47719">
        <ele>1637.2</ele>
        <time>2019-05-30T06:50:37Z</time>
      </trkpt>
      <trkpt lat="44.79969" lon="5.47718">
        <ele>1637.8</ele>
        <time>2019-05-30T06:50:39Z</time>
      </trkpt>
      <trkpt lat="44.79972" lon="5.47718">
        <ele>1638.5</ele>
        <time>2019-05-30T06:50:42Z</time>
      </trkpt>
      <trkpt lat="44.79974" lon="5.47718">
        <ele>1639.1</ele>
        <time>2019-05-30T06:50:45Z</time>
      </trkpt>
      <trkpt lat="44.79978" lon="5.47717">
        <ele>1639.9</ele>
        <time>2019-05-30T06:50:50Z</time>
      </trkpt>
      <trkpt lat="44.79981" lon="5.47717">
        <ele>1640.6</ele>
        <time>2019-05-30T06:50:56Z</time>
      </trkpt>
      <trkpt lat="44.79984" lon="5.47716">
        <ele>1641.3</ele>
        <time>2019-05-30T06:51:00Z</time>
      </trkpt>
      <trkpt lat="44.79987" lon="5.47716">
        <ele>1642</ele>
        <time>2019-05-30T06:51:04Z</time>
      </trkpt>
      <trkpt lat="44.7999" lon="5.47717">
        <ele>1642.7</ele>
        <time>2019-05-30T06:51:08Z</time>
      </trkpt>
      <trkpt lat="44.79993" lon="5.47716">
        <ele>1643.4</ele>
        <time>2019-05-30T06:51:13Z</time>
      </trkpt>
      <trkpt lat="44.79996" lon="5.47714">
        <ele>1644.1</ele>
        <time>2019-05-30T06:51:16Z</time>
      </trkpt>
      <trkpt lat="44.79999" lon="5.47714">
        <ele>1644.8</ele>
        <time>2019-05-30T06:51:19Z</time>
      </trkpt>
      <trkpt lat="44.80002" lon="5.47713">
        <ele>1645.5</ele>
        <time>2019-05-30T06:51:23Z</time>
      </trkpt>
      <trkpt lat="44.80005" lon="5.47714">
        <ele>1646.1</ele>
        <time>2019-05-30T06:51:28Z</time>
      </trkpt>
      <trkpt lat="44.80008" lon="5.47715">
        <ele>1646.8</ele>
        <time>2019-05-30T06:51:34Z</time>
      </trkpt>
      <trkpt lat="44.8001" lon="5.47716">
        <ele>1647.4</ele>
        <time>2019-05-30T06:51:39Z</time>
      </trkpt>
      <trkpt lat="44.80013" lon="5.47716">
        <ele>1648</ele>
        <time>2019-05-30T06:51:44Z</time>
      </trkpt>
      <trkpt lat="44.80016" lon="5.47715">
        <ele>1648.6</ele>
        <time>2019-05-30T06:51:49Z</time>
      </trkpt>
      <trkpt lat="44.80019" lon="5.47713">
        <ele>1649.2</ele>
        <time>2019-05-30T06:51:55Z</time>
      </trkpt>
      <trkpt lat="44.80022" lon="5.47712">
        <ele>1649.8</ele>
        <time>2019-05-30T06:52:01Z</time>
      </trkpt>
      <trkpt lat="44.80025" lon="5.47712">
        <ele>1650.4</ele>
        <time>2019-05-30T06:52:06Z</time>
      </trkpt>
      <trkpt lat="44.80028" lon="5.47712">
        <ele>1651</ele>
        <time>2019-05-30T06:52:11Z</time>
      </trkpt>
      <trkpt lat="44.80031" lon="5.47712">
        <ele>1651.5</ele>
        <time>2019-05-30T06:52:16Z</time>
      </trkpt>
      <trkpt lat="44.80034" lon="5.47713">
        <ele>1652</ele>
        <time>2019-05-30T06:52:21Z</time>
      </trkpt>
      <trkpt lat="44.80037" lon="5.47713">
        <ele>1652.5</ele>
        <time>2019-05-30T06:52:25Z</time>
      </trkpt>
      <trkpt lat="44.8004" lon="5.47715">
        <ele>1652.9</ele>
        <time>2019-05-30T06:52:28Z</time>
      </trkpt>
      <trkpt lat="44.80044" lon="5.47715">
        <ele>1653.4</ele>
        <time>2019-05-30T06:52:32Z</time>
      </trkpt>
      <trkpt lat="44.80047" lon="5.47715">
        <ele>1653.7</ele>
        <time>2019-05-30T06:52:35Z</time>
      </trkpt>
      <trkpt lat="44.8005" lon="5.47714">
        <ele>1654.1</ele>
        <time>2019-05-30T06:52:39Z</time>
      </trkpt>
      <trkpt lat="44.80054" lon="5.47714">
        <ele>1654.4</ele>
        <time>2019-05-30T06:52:43Z</time>
      </trkpt>
      <trkpt lat="44.80057" lon="5.47713">
        <ele>1654.8</ele>
        <time>2019-05-30T06:52:47Z</time>
      </trkpt>
      <trkpt lat="44.80061" lon="5.47713">
        <ele>1655.1</ele>
        <time>2019-05-30T06:52:51Z</time>
      </trkpt>
      <trkpt lat="44.80064" lon="5.47712">
        <ele>1655.4</ele>
        <time>2019-05-30T06:52:55Z</time>
      </trkpt>
      <trkpt lat="44.80067" lon="5.47712">
        <ele>1655.7</ele>
        <time>2019-05-30T06:52:59Z</time>
      </trkpt>
      <trkpt lat="44.8007" lon="5.47711">
        <ele>1656.1</ele>
        <time>2019-05-30T06:53:03Z</time>
      </trkpt>
      <trkpt lat="44.80073" lon="5.4771">
        <ele>1656.3</ele>
        <time>2019-05-30T06:53:07Z</time>
      </trkpt>
      <trkpt lat="44.80076" lon="5.47709">
        <ele>1656.4</ele>
        <time>2019-05-30T06:53:11Z</time>
      </trkpt>
      <trkpt lat="44.80078" lon="5.47706">
        <ele>1656.5</ele>
        <time>2019-05-30T06:53:15Z</time>
      </trkpt>
      <trkpt lat="44.80081" lon="5.47704">
        <ele>1656.6</ele>
        <time>2019-05-30T06:53:19Z</time>
      </trkpt>
      <trkpt lat="44.80083" lon="5.47702">
        <ele>1656.7</ele>
        <time>2019-05-30T06:53:22Z</time>
      </trkpt>
      <trkpt lat="44.80086" lon="5.47701">
        <ele>1656.7</ele>
        <time>2019-05-30T06:53:25Z</time>
      </trkpt>
      <trkpt lat="44.80089" lon="5.47699">
        <ele>1656.8</ele>
        <time>2019-05-30T06:53:28Z</time>
      </trkpt>
      <trkpt lat="44.80093" lon="5.47698">
        <ele>1656.8</ele>
        <time>2019-05-30T06:53:31Z</time>
      </trkpt>
      <trkpt lat="44.80096" lon="5.47698">
        <ele>1656.8</ele>
        <time>2019-05-30T06:53:33Z</time>
      </trkpt>
      <trkpt lat="44.80099" lon="5.47698">
        <ele>1656.8</ele>
        <time>2019-05-30T06:53:36Z</time>
      </trkpt>
      <trkpt lat="44.80102" lon="5.477">
        <ele>1656.8</ele>
        <time>2019-05-30T06:53:39Z</time>
      </trkpt>
      <trkpt lat="44.80105" lon="5.47701">
        <ele>1656.7</ele>
        <time>2019-05-30T06:53:42Z</time>
      </trkpt>
      <trkpt lat="44.80108" lon="5.47701">
        <ele>1656.7</ele>
        <time>2019-05-30T06:53:45Z</time>
      </trkpt>
      <trkpt lat="44.80111" lon="5.477">
        <ele>1656.7</ele>
        <time>2019-05-30T06:53:48Z</time>
      </trkpt>
      <trkpt lat="44.80113" lon="5.47698">
        <ele>1656.6</ele>
        <time>2019-05-30T06:53:51Z</time>
      </trkpt>
      <trkpt lat="44.80116" lon="5.47697">
        <ele>1656.6</ele>
        <time>2019-05-30T06:53:54Z</time>
      </trkpt>
      <trkpt lat="44.80119" lon="5.47697">
        <ele>1655.7</ele>
        <time>2019-05-30T06:53:57Z</time>
      </trkpt>
      <trkpt lat="44.80122" lon="5.47696">
        <ele>1655.1</ele>
        <time>2019-05-30T06:53:59Z</time>
      </trkpt>
      <trkpt lat="44.80125" lon="5.47697">
        <ele>1654.3</ele>
        <time>2019-05-30T06:54:02Z</time>
      </trkpt>
      <trkpt lat="44.80127" lon="5.47701">
        <ele>1653.5</ele>
        <time>2019-05-30T06:54:06Z</time>
      </trkpt>
      <trkpt lat="44.80125" lon="5.47705">
        <ele>1652.7</ele>
        <time>2019-05-30T06:54:12Z</time>
      </trkpt>
      <trkpt lat="44.80123" lon="5.47709">
        <ele>1651.8</ele>
        <time>2019-05-30T06:54:17Z</time>
      </trkpt>
      <trkpt lat="44.8012" lon="5.4771">
        <ele>1650.9</ele>
        <time>2019-05-30T06:54:31Z</time>
      </trkpt>
      <trkpt lat="44.80119" lon="5.47714">
        <ele>1650.1</ele>
        <time>2019-05-30T06:54:47Z</time>
      </trkpt>
      <trkpt lat="44.80118" lon="5.47718">
        <ele>1649.3</ele>
        <time>2019-05-30T06:54:55Z</time>
      </trkpt>
      <trkpt lat="44.8012" lon="5.47715">
        <ele>1648.5</ele>
        <time>2019-05-30T06:56:47Z</time>
      </trkpt>
      <trkpt lat="44.80123" lon="5.47716">
        <ele>1647.5</ele>
        <time>2019-05-30T06:57:30Z</time>
      </trkpt>
      <trkpt lat="44.80127" lon="5.47714">
        <ele>1646.5</ele>
        <time>2019-05-30T06:57:33Z</time>
      </trkpt>
      <trkpt lat="44.8013" lon="5.47713">
        <ele>1645.7</ele>
        <time>2019-05-30T06:57:36Z</time>
      </trkpt>
      <trkpt lat="44.80134" lon="5.47714">
        <ele>1645.1</ele>
        <time>2019-05-30T06:57:38Z</time>
      </trkpt>
      <trkpt lat="44.80137" lon="5.47714">
        <ele>1644.5</ele>
        <time>2019-05-30T06:57:40Z</time>
      </trkpt>
      <trkpt lat="44.80139" lon="5.47712">
        <ele>1643.8</ele>
        <time>2019-05-30T06:57:44Z</time>
      </trkpt>
      <trkpt lat="44.80142" lon="5.47708">
        <ele>1643.1</ele>
        <time>2019-05-30T06:57:48Z</time>
      </trkpt>
      <trkpt lat="44.80145" lon="5.47705">
        <ele>1642.3</ele>
        <time>2019-05-30T06:57:51Z</time>
      </trkpt>
      <trkpt lat="44.80148" lon="5.47703">
        <ele>1641.8</ele>
        <time>2019-05-30T06:57:53Z</time>
      </trkpt>
      <trkpt lat="44.80151" lon="5.47701">
        <ele>1641.3</ele>
        <time>2019-05-30T06:57:56Z</time>
      </trkpt>
      <trkpt lat="44.80154" lon="5.477">
        <ele>1640.8</ele>
        <time>2019-05-30T06:58:00Z</time>
      </trkpt>
      <trkpt lat="44.80157" lon="5.47698">
        <ele>1640.3</ele>
        <time>2019-05-30T06:58:03Z</time>
      </trkpt>
      <trkpt lat="44.8016" lon="5.47697">
        <ele>1639.9</ele>
        <time>2019-05-30T06:58:05Z</time>
      </trkpt>
      <trkpt lat="44.80163" lon="5.47696">
        <ele>1639.5</ele>
        <time>2019-05-30T06:58:09Z</time>
      </trkpt>
      <trkpt lat="44.80166" lon="5.47694">
        <ele>1639.1</ele>
        <time>2019-05-30T06:58:13Z</time>
      </trkpt>
      <trkpt lat="44.8017" lon="5.47693">
        <ele>1638.6</ele>
        <time>2019-05-30T06:58:16Z</time>
      </trkpt>
      <trkpt lat="44.80172" lon="5.47692">
        <ele>1638.2</ele>
        <time>2019-05-30T06:58:18Z</time>
      </trkpt>
      <trkpt lat="44.80175" lon="5.4769">
        <ele>1637.8</ele>
        <time>2019-05-30T06:58:23Z</time>
      </trkpt>
      <trkpt lat="44.80177" lon="5.47689">
        <ele>1637.5</ele>
        <time>2019-05-30T06:58:25Z</time>
      </trkpt>
      <trkpt lat="44.8018" lon="5.47686">
        <ele>1637.1</ele>
        <time>2019-05-30T06:58:27Z</time>
      </trkpt>
      <trkpt lat="44.80184" lon="5.47683">
        <ele>1636.6</ele>
        <time>2019-05-30T06:58:29Z</time>
      </trkpt>
      <trkpt lat="44.80187" lon="5.4768">
        <ele>1636.2</ele>
        <time>2019-05-30T06:58:31Z</time>
      </trkpt>
      <trkpt lat="44.8019" lon="5.47679">
        <ele>1635.6</ele>
        <time>2019-05-30T06:58:33Z</time>
      </trkpt>
      <trkpt lat="44.80192" lon="5.47678">
        <ele>1635.1</ele>
        <time>2019-05-30T06:58:35Z</time>
      </trkpt>
      <trkpt lat="44.80195" lon="5.47678">
        <ele>1634.6</ele>
        <time>2019-05-30T06:58:37Z</time>
      </trkpt>
      <trkpt lat="44.80198" lon="5.47677">
        <ele>1634</ele>
        <time>2019-05-30T06:58:39Z</time>
      </trkpt>
      <trkpt lat="44.80201" lon="5.47676">
        <ele>1633.4</ele>
        <time>2019-05-30T06:58:41Z</time>
      </trkpt>
      <trkpt lat="44.80204" lon="5.47675">
        <ele>1632.9</ele>
        <time>2019-05-30T06:58:43Z</time>
      </trkpt>
      <trkpt lat="44.80208" lon="5.47673">
        <ele>1632.1</ele>
        <time>2019-05-30T06:58:46Z</time>
      </trkpt>
      <trkpt lat="44.8021" lon="5.47671">
        <ele>1631.5</ele>
        <time>2019-05-30T06:58:48Z</time>
      </trkpt>
      <trkpt lat="44.80213" lon="5.4767">
        <ele>1631</ele>
        <time>2019-05-30T06:58:50Z</time>
      </trkpt>
      <trkpt lat="44.80215" lon="5.47666">
        <ele>1630.2</ele>
        <time>2019-05-30T06:58:53Z</time>
      </trkpt>
      <trkpt lat="44.80218" lon="5.47662">
        <ele>1629.6</ele>
        <time>2019-05-30T06:58:57Z</time>
      </trkpt>
      <trkpt lat="44.80221" lon="5.4766">
        <ele>1629</ele>
        <time>2019-05-30T06:59:00Z</time>
      </trkpt>
      <trkpt lat="44.80224" lon="5.4766">
        <ele>1628.4</ele>
        <time>2019-05-30T06:59:04Z</time>
      </trkpt>
      <trkpt lat="44.80228" lon="5.47659">
        <ele>1627.9</ele>
        <time>2019-05-30T06:59:07Z</time>
      </trkpt>
      <trkpt lat="44.80231" lon="5.4766">
        <ele>1627.5</ele>
        <time>2019-05-30T06:59:10Z</time>
      </trkpt>
      <trkpt lat="44.80234" lon="5.47658">
        <ele>1627.2</ele>
        <time>2019-05-30T06:59:13Z</time>
      </trkpt>
      <trkpt lat="44.80237" lon="5.47657">
        <ele>1626.9</ele>
        <time>2019-05-30T06:59:16Z</time>
      </trkpt>
      <trkpt lat="44.8024" lon="5.47654">
        <ele>1626.5</ele>
        <time>2019-05-30T06:59:19Z</time>
      </trkpt>
      <trkpt lat="44.80243" lon="5.47653">
        <ele>1626.3</ele>
        <time>2019-05-30T06:59:22Z</time>
      </trkpt>
      <trkpt lat="44.80246" lon="5.47651">
        <ele>1626.1</ele>
        <time>2019-05-30T06:59:25Z</time>
      </trkpt>
      <trkpt lat="44.80249" lon="5.47649">
        <ele>1625.8</ele>
        <time>2019-05-30T06:59:28Z</time>
      </trkpt>
      <trkpt lat="44.80253" lon="5.47647">
        <ele>1625.5</ele>
        <time>2019-05-30T06:59:31Z</time>
      </trkpt>
      <trkpt lat="44.80256" lon="5.47646">
        <ele>1625.2</ele>
        <time>2019-05-30T06:59:33Z</time>
      </trkpt>
      <trkpt lat="44.80259" lon="5.47645">
        <ele>1624.9</ele>
        <time>2019-05-30T06:59:36Z</time>
      </trkpt>
      <trkpt lat="44.80263" lon="5.47644">
        <ele>1624.7</ele>
        <time>2019-05-30T06:59:39Z</time>
      </trkpt>
      <trkpt lat="44.80265" lon="5.47643">
        <ele>1624.5</ele>
        <time>2019-05-30T06:59:41Z</time>
      </trkpt>
      <trkpt lat="44.80269" lon="5.47641">
        <ele>1624.2</ele>
        <time>2019-05-30T06:59:44Z</time>
      </trkpt>
      <trkpt lat="44.80272" lon="5.47638">
        <ele>1624</ele>
        <time>2019-05-30T06:59:47Z</time>
      </trkpt>
      <trkpt lat="44.80274" lon="5.47636">
        <ele>1623.7</ele>
        <time>2019-05-30T06:59:50Z</time>
      </trkpt>
      <trkpt lat="44.80277" lon="5.47634">
        <ele>1623.5</ele>
        <time>2019-05-30T06:59:53Z</time>
      </trkpt>
      <trkpt lat="44.8028" lon="5.47632">
        <ele>1623.2</ele>
        <time>2019-05-30T06:59:56Z</time>
      </trkpt>
      <trkpt lat="44.80283" lon="5.47631">
        <ele>1623</ele>
        <time>2019-05-30T06:59:59Z</time>
      </trkpt>
      <trkpt lat="44.8029" lon="5.47628">
        <ele>1622.6</ele>
        <time>2019-05-30T07:01:41Z</time>
      </trkpt>
      <trkpt lat="44.80292" lon="5.47624">
        <ele>1622.3</ele>
        <time>2019-05-30T07:01:45Z</time>
      </trkpt>
      <trkpt lat="44.80295" lon="5.47622">
        <ele>1622.1</ele>
        <time>2019-05-30T07:01:49Z</time>
      </trkpt>
      <trkpt lat="44.80298" lon="5.47621">
        <ele>1621.8</ele>
        <time>2019-05-30T07:01:52Z</time>
      </trkpt>
      <trkpt lat="44.80301" lon="5.47622">
        <ele>1621.5</ele>
        <time>2019-05-30T07:01:55Z</time>
      </trkpt>
      <trkpt lat="44.80304" lon="5.47624">
        <ele>1621.1</ele>
        <time>2019-05-30T07:01:58Z</time>
      </trkpt>
      <trkpt lat="44.80308" lon="5.47624">
        <ele>1620.7</ele>
        <time>2019-05-30T07:02:01Z</time>
      </trkpt>
      <trkpt lat="44.80312" lon="5.47624">
        <ele>1620.3</ele>
        <time>2019-05-30T07:02:04Z</time>
      </trkpt>
      <trkpt lat="44.80315" lon="5.47624">
        <ele>1619.9</ele>
        <time>2019-05-30T07:02:06Z</time>
      </trkpt>
      <trkpt lat="44.80318" lon="5.47624">
        <ele>1619.6</ele>
        <time>2019-05-30T07:02:08Z</time>
      </trkpt>
      <trkpt lat="44.80322" lon="5.47623">
        <ele>1619.2</ele>
        <time>2019-05-30T07:02:10Z</time>
      </trkpt>
      <trkpt lat="44.80325" lon="5.47623">
        <ele>1618.9</ele>
        <time>2019-05-30T07:02:12Z</time>
      </trkpt>
      <trkpt lat="44.80329" lon="5.47621">
        <ele>1618.5</ele>
        <time>2019-05-30T07:02:14Z</time>
      </trkpt>
      <trkpt lat="44.80332" lon="5.4762">
        <ele>1618.1</ele>
        <time>2019-05-30T07:02:16Z</time>
      </trkpt>
      <trkpt lat="44.80336" lon="5.47619">
        <ele>1617.6</ele>
        <time>2019-05-30T07:02:18Z</time>
      </trkpt>
      <trkpt lat="44.80339" lon="5.47618">
        <ele>1617.5</ele>
        <time>2019-05-30T07:02:20Z</time>
      </trkpt>
      <trkpt lat="44.80342" lon="5.47617">
        <ele>1617.3</ele>
        <time>2019-05-30T07:02:22Z</time>
      </trkpt>
      <trkpt lat="44.80345" lon="5.47617">
        <ele>1617.1</ele>
        <time>2019-05-30T07:02:24Z</time>
      </trkpt>
      <trkpt lat="44.80349" lon="5.47616">
        <ele>1616.8</ele>
        <time>2019-05-30T07:02:26Z</time>
      </trkpt>
      <trkpt lat="44.80352" lon="5.47615">
        <ele>1616.7</ele>
        <time>2019-05-30T07:02:28Z</time>
      </trkpt>
      <trkpt lat="44.80355" lon="5.47614">
        <ele>1616.4</ele>
        <time>2019-05-30T07:02:31Z</time>
      </trkpt>
      <trkpt lat="44.80359" lon="5.47613">
        <ele>1616.2</ele>
        <time>2019-05-30T07:02:34Z</time>
      </trkpt>
      <trkpt lat="44.80362" lon="5.47612">
        <ele>1616</ele>
        <time>2019-05-30T07:02:37Z</time>
      </trkpt>
      <trkpt lat="44.80365" lon="5.47611">
        <ele>1615.9</ele>
        <time>2019-05-30T07:02:40Z</time>
      </trkpt>
      <trkpt lat="44.80368" lon="5.4761">
        <ele>1615.8</ele>
        <time>2019-05-30T07:02:42Z</time>
      </trkpt>
      <trkpt lat="44.80371" lon="5.47608">
        <ele>1615.7</ele>
        <time>2019-05-30T07:02:44Z</time>
      </trkpt>
      <trkpt lat="44.80374" lon="5.47608">
        <ele>1615.6</ele>
        <time>2019-05-30T07:02:46Z</time>
      </trkpt>
      <trkpt lat="44.80378" lon="5.47607">
        <ele>1615.4</ele>
        <time>2019-05-30T07:02:49Z</time>
      </trkpt>
      <trkpt lat="44.80381" lon="5.47607">
        <ele>1615.4</ele>
        <time>2019-05-30T07:02:52Z</time>
      </trkpt>
      <trkpt lat="44.80385" lon="5.47606">
        <ele>1615.3</ele>
        <time>2019-05-30T07:02:55Z</time>
      </trkpt>
      <trkpt lat="44.80388" lon="5.47605">
        <ele>1615.2</ele>
        <time>2019-05-30T07:02:58Z</time>
      </trkpt>
      <trkpt lat="44.80391" lon="5.47604">
        <ele>1615.2</ele>
        <time>2019-05-30T07:03:00Z</time>
      </trkpt>
      <trkpt lat="44.80395" lon="5.47604">
        <ele>1615.1</ele>
        <time>2019-05-30T07:03:02Z</time>
      </trkpt>
      <trkpt lat="44.80398" lon="5.47605">
        <ele>1615</ele>
        <time>2019-05-30T07:03:04Z</time>
      </trkpt>
      <trkpt lat="44.80402" lon="5.47606">
        <ele>1614.9</ele>
        <time>2019-05-30T07:03:07Z</time>
      </trkpt>
      <trkpt lat="44.80405" lon="5.47606">
        <ele>1614.8</ele>
        <time>2019-05-30T07:03:09Z</time>
      </trkpt>
      <trkpt lat="44.80408" lon="5.47607">
        <ele>1614.7</ele>
        <time>2019-05-30T07:03:11Z</time>
      </trkpt>
      <trkpt lat="44.80411" lon="5.47608">
        <ele>1614.6</ele>
        <time>2019-05-30T07:03:13Z</time>
      </trkpt>
      <trkpt lat="44.80415" lon="5.47609">
        <ele>1614.5</ele>
        <time>2019-05-30T07:03:16Z</time>
      </trkpt>
      <trkpt lat="44.80418" lon="5.47612">
        <ele>1614.3</ele>
        <time>2019-05-30T07:03:19Z</time>
      </trkpt>
      <trkpt lat="44.8042" lon="5.47615">
        <ele>1614.2</ele>
        <time>2019-05-30T07:03:22Z</time>
      </trkpt>
      <trkpt lat="44.80422" lon="5.47618">
        <ele>1614</ele>
        <time>2019-05-30T07:03:24Z</time>
      </trkpt>
      <trkpt lat="44.80424" lon="5.47622">
        <ele>1613.9</ele>
        <time>2019-05-30T07:03:26Z</time>
      </trkpt>
      <trkpt lat="44.80426" lon="5.47625">
        <ele>1613.7</ele>
        <time>2019-05-30T07:03:28Z</time>
      </trkpt>
      <trkpt lat="44.80428" lon="5.47628">
        <ele>1613.6</ele>
        <time>2019-05-30T07:03:30Z</time>
      </trkpt>
      <trkpt lat="44.8043" lon="5.47631">
        <ele>1613.6</ele>
        <time>2019-05-30T07:03:32Z</time>
      </trkpt>
      <trkpt lat="44.80433" lon="5.47634">
        <ele>1613.5</ele>
        <time>2019-05-30T07:03:35Z</time>
      </trkpt>
      <trkpt lat="44.80437" lon="5.47636">
        <ele>1613.5</ele>
        <time>2019-05-30T07:03:38Z</time>
      </trkpt>
      <trkpt lat="44.8044" lon="5.47638">
        <ele>1613.6</ele>
        <time>2019-05-30T07:03:41Z</time>
      </trkpt>
      <trkpt lat="44.80443" lon="5.4764">
        <ele>1613.7</ele>
        <time>2019-05-30T07:03:43Z</time>
      </trkpt>
      <trkpt lat="44.80447" lon="5.47641">
        <ele>1613.8</ele>
        <time>2019-05-30T07:03:45Z</time>
      </trkpt>
      <trkpt lat="44.8045" lon="5.47643">
        <ele>1614</ele>
        <time>2019-05-30T07:03:48Z</time>
      </trkpt>
      <trkpt lat="44.80453" lon="5.47645">
        <ele>1614.3</ele>
        <time>2019-05-30T07:03:51Z</time>
      </trkpt>
      <trkpt lat="44.80457" lon="5.47647">
        <ele>1614.5</ele>
        <time>2019-05-30T07:03:54Z</time>
      </trkpt>
      <trkpt lat="44.8046" lon="5.47648">
        <ele>1614.9</ele>
        <time>2019-05-30T07:03:57Z</time>
      </trkpt>
      <trkpt lat="44.80462" lon="5.47649">
        <ele>1615.1</ele>
        <time>2019-05-30T07:04:00Z</time>
      </trkpt>
      <trkpt lat="44.80466" lon="5.4765">
        <ele>1615.5</ele>
        <time>2019-05-30T07:04:04Z</time>
      </trkpt>
      <trkpt lat="44.80469" lon="5.47648">
        <ele>1616</ele>
        <time>2019-05-30T07:04:07Z</time>
      </trkpt>
      <trkpt lat="44.80472" lon="5.47647">
        <ele>1616.4</ele>
        <time>2019-05-30T07:04:10Z</time>
      </trkpt>
      <trkpt lat="44.80475" lon="5.47646">
        <ele>1616.9</ele>
        <time>2019-05-30T07:04:13Z</time>
      </trkpt>
      <trkpt lat="44.80477" lon="5.47644">
        <ele>1617.4</ele>
        <time>2019-05-30T07:04:17Z</time>
      </trkpt>
      <trkpt lat="44.8048" lon="5.47642">
        <ele>1618</ele>
        <time>2019-05-30T07:04:21Z</time>
      </trkpt>
      <trkpt lat="44.80482" lon="5.47639">
        <ele>1618.6</ele>
        <time>2019-05-30T07:04:25Z</time>
      </trkpt>
      <trkpt lat="44.80484" lon="5.47636">
        <ele>1619.1</ele>
        <time>2019-05-30T07:04:28Z</time>
      </trkpt>
      <trkpt lat="44.80487" lon="5.47633">
        <ele>1619.6</ele>
        <time>2019-05-30T07:04:31Z</time>
      </trkpt>
      <trkpt lat="44.80489" lon="5.4763">
        <ele>1620.2</ele>
        <time>2019-05-30T07:04:34Z</time>
      </trkpt>
      <trkpt lat="44.80491" lon="5.47626">
        <ele>1620.8</ele>
        <time>2019-05-30T07:04:37Z</time>
      </trkpt>
      <trkpt lat="44.80493" lon="5.47623">
        <ele>1621.3</ele>
        <time>2019-05-30T07:04:40Z</time>
      </trkpt>
      <trkpt lat="44.80496" lon="5.47621">
        <ele>1621.8</ele>
        <time>2019-05-30T07:04:43Z</time>
      </trkpt>
      <trkpt lat="44.80499" lon="5.47621">
        <ele>1622.3</ele>
        <time>2019-05-30T07:04:46Z</time>
      </trkpt>
      <trkpt lat="44.80503" lon="5.4762">
        <ele>1622.8</ele>
        <time>2019-05-30T07:04:50Z</time>
      </trkpt>
      <trkpt lat="44.80506" lon="5.4762">
        <ele>1623.3</ele>
        <time>2019-05-30T07:04:53Z</time>
      </trkpt>
      <trkpt lat="44.80509" lon="5.4762">
        <ele>1623.8</ele>
        <time>2019-05-30T07:04:57Z</time>
      </trkpt>
      <trkpt lat="44.80512" lon="5.47621">
        <ele>1624.2</ele>
        <time>2019-05-30T07:05:01Z</time>
      </trkpt>
      <trkpt lat="44.80515" lon="5.47622">
        <ele>1624.7</ele>
        <time>2019-05-30T07:05:05Z</time>
      </trkpt>
      <trkpt lat="44.80518" lon="5.4762">
        <ele>1625</ele>
        <time>2019-05-30T07:05:11Z</time>
      </trkpt>
      <trkpt lat="44.80521" lon="5.47619">
        <ele>1625.5</ele>
        <time>2019-05-30T07:05:15Z</time>
      </trkpt>
      <trkpt lat="44.80524" lon="5.47617">
        <ele>1626</ele>
        <time>2019-05-30T07:05:19Z</time>
      </trkpt>
      <trkpt lat="44.80527" lon="5.47616">
        <ele>1626.4</ele>
        <time>2019-05-30T07:05:21Z</time>
      </trkpt>
      <trkpt lat="44.8053" lon="5.47614">
        <ele>1626.6</ele>
        <time>2019-05-30T07:05:23Z</time>
      </trkpt>
      <trkpt lat="44.80533" lon="5.47613">
        <ele>1626.8</ele>
        <time>2019-05-30T07:05:26Z</time>
      </trkpt>
      <trkpt lat="44.80536" lon="5.47613">
        <ele>1627</ele>
        <time>2019-05-30T07:05:29Z</time>
      </trkpt>
      <trkpt lat="44.80539" lon="5.47614">
        <ele>1627.3</ele>
        <time>2019-05-30T07:05:32Z</time>
      </trkpt>
      <trkpt lat="44.80543" lon="5.47614">
        <ele>1627.5</ele>
        <time>2019-05-30T07:05:36Z</time>
      </trkpt>
      <trkpt lat="44.80545" lon="5.47615">
        <ele>1627.7</ele>
        <time>2019-05-30T07:05:39Z</time>
      </trkpt>
      <trkpt lat="44.80549" lon="5.47617">
        <ele>1627.9</ele>
        <time>2019-05-30T07:05:43Z</time>
      </trkpt>
      <trkpt lat="44.80552" lon="5.47618">
        <ele>1628</ele>
        <time>2019-05-30T07:05:47Z</time>
      </trkpt>
      <trkpt lat="44.80555" lon="5.4762">
        <ele>1628.1</ele>
        <time>2019-05-30T07:05:50Z</time>
      </trkpt>
      <trkpt lat="44.80558" lon="5.4762">
        <ele>1628.2</ele>
        <time>2019-05-30T07:05:53Z</time>
      </trkpt>
      <trkpt lat="44.80561" lon="5.47622">
        <ele>1628.2</ele>
        <time>2019-05-30T07:05:56Z</time>
      </trkpt>
      <trkpt lat="44.80564" lon="5.47621">
        <ele>1628.2</ele>
        <time>2019-05-30T07:05:59Z</time>
      </trkpt>
      <trkpt lat="44.80567" lon="5.47622">
        <ele>1628.1</ele>
        <time>2019-05-30T07:06:01Z</time>
      </trkpt>
      <trkpt lat="44.80571" lon="5.47622">
        <ele>1628.1</ele>
        <time>2019-05-30T07:06:03Z</time>
      </trkpt>
      <trkpt lat="44.80574" lon="5.47622">
        <ele>1628</ele>
        <time>2019-05-30T07:06:05Z</time>
      </trkpt>
      <trkpt lat="44.80578" lon="5.47624">
        <ele>1627.9</ele>
        <time>2019-05-30T07:06:07Z</time>
      </trkpt>
      <trkpt lat="44.80581" lon="5.47625">
        <ele>1627.8</ele>
        <time>2019-05-30T07:06:09Z</time>
      </trkpt>
      <trkpt lat="44.80584" lon="5.47626">
        <ele>1627.7</ele>
        <time>2019-05-30T07:06:11Z</time>
      </trkpt>
      <trkpt lat="44.80587" lon="5.47627">
        <ele>1627.6</ele>
        <time>2019-05-30T07:06:14Z</time>
      </trkpt>
      <trkpt lat="44.80591" lon="5.47627">
        <ele>1627.5</ele>
        <time>2019-05-30T07:06:17Z</time>
      </trkpt>
      <trkpt lat="44.80595" lon="5.47626">
        <ele>1627.4</ele>
        <time>2019-05-30T07:06:20Z</time>
      </trkpt>
      <trkpt lat="44.80598" lon="5.47625">
        <ele>1627.3</ele>
        <time>2019-05-30T07:06:23Z</time>
      </trkpt>
      <trkpt lat="44.80601" lon="5.47625">
        <ele>1627.3</ele>
        <time>2019-05-30T07:06:25Z</time>
      </trkpt>
      <trkpt lat="44.80604" lon="5.47625">
        <ele>1627.2</ele>
        <time>2019-05-30T07:06:28Z</time>
      </trkpt>
      <trkpt lat="44.80607" lon="5.47626">
        <ele>1627.2</ele>
        <time>2019-05-30T07:06:30Z</time>
      </trkpt>
      <trkpt lat="44.8061" lon="5.47626">
        <ele>1627.1</ele>
        <time>2019-05-30T07:06:32Z</time>
      </trkpt>
      <trkpt lat="44.80614" lon="5.47627">
        <ele>1626.9</ele>
        <time>2019-05-30T07:06:35Z</time>
      </trkpt>
      <trkpt lat="44.80616" lon="5.47628">
        <ele>1626.8</ele>
        <time>2019-05-30T07:06:37Z</time>
      </trkpt>
      <trkpt lat="44.8062" lon="5.47629">
        <ele>1626.6</ele>
        <time>2019-05-30T07:06:39Z</time>
      </trkpt>
      <trkpt lat="44.80622" lon="5.4763">
        <ele>1626.5</ele>
        <time>2019-05-30T07:06:41Z</time>
      </trkpt>
      <trkpt lat="44.80625" lon="5.4763">
        <ele>1626.4</ele>
        <time>2019-05-30T07:06:44Z</time>
      </trkpt>
      <trkpt lat="44.80629" lon="5.47631">
        <ele>1626.1</ele>
        <time>2019-05-30T07:06:48Z</time>
      </trkpt>
      <trkpt lat="44.80629" lon="5.47635">
        <ele>1625.9</ele>
        <time>2019-05-30T07:06:57Z</time>
      </trkpt>
      <trkpt lat="44.80633" lon="5.47636">
        <ele>1625.6</ele>
        <time>2019-05-30T07:07:01Z</time>
      </trkpt>
      <trkpt lat="44.80636" lon="5.47635">
        <ele>1625.3</ele>
        <time>2019-05-30T07:07:04Z</time>
      </trkpt>
      <trkpt lat="44.80639" lon="5.47635">
        <ele>1625</ele>
        <time>2019-05-30T07:07:06Z</time>
      </trkpt>
      <trkpt lat="44.80642" lon="5.47632">
        <ele>1624.7</ele>
        <time>2019-05-30T07:07:09Z</time>
      </trkpt>
      <trkpt lat="44.80645" lon="5.47629">
        <ele>1624.3</ele>
        <time>2019-05-30T07:07:12Z</time>
      </trkpt>
      <trkpt lat="44.80649" lon="5.47628">
        <ele>1623.9</ele>
        <time>2019-05-30T07:07:15Z</time>
      </trkpt>
      <trkpt lat="44.80652" lon="5.47627">
        <ele>1623.5</ele>
        <time>2019-05-30T07:07:17Z</time>
      </trkpt>
      <trkpt lat="44.80655" lon="5.47624">
        <ele>1622.9</ele>
        <time>2019-05-30T07:07:20Z</time>
      </trkpt>
      <trkpt lat="44.80657" lon="5.47621">
        <ele>1622.4</ele>
        <time>2019-05-30T07:07:25Z</time>
      </trkpt>
      <trkpt lat="44.8066" lon="5.47619">
        <ele>1621.8</ele>
        <time>2019-05-30T07:07:31Z</time>
      </trkpt>
      <trkpt lat="44.80663" lon="5.47617">
        <ele>1621.3</ele>
        <time>2019-05-30T07:07:35Z</time>
      </trkpt>
      <trkpt lat="44.80666" lon="5.47615">
        <ele>1620.8</ele>
        <time>2019-05-30T07:07:38Z</time>
      </trkpt>
      <trkpt lat="44.80669" lon="5.47613">
        <ele>1620.2</ele>
        <time>2019-05-30T07:07:41Z</time>
      </trkpt>
      <trkpt lat="44.80673" lon="5.47611">
        <ele>1619.6</ele>
        <time>2019-05-30T07:07:44Z</time>
      </trkpt>
      <trkpt lat="44.80677" lon="5.47608">
        <ele>1619</ele>
        <time>2019-05-30T07:07:47Z</time>
      </trkpt>
      <trkpt lat="44.8068" lon="5.47607">
        <ele>1618.6</ele>
        <time>2019-05-30T07:07:50Z</time>
      </trkpt>
      <trkpt lat="44.80682" lon="5.47606">
        <ele>1618.2</ele>
        <time>2019-05-30T07:07:55Z</time>
      </trkpt>
      <trkpt lat="44.80685" lon="5.47604">
        <ele>1618</ele>
        <time>2019-05-30T07:07:57Z</time>
      </trkpt>
      <trkpt lat="44.80688" lon="5.47601">
        <ele>1617.7</ele>
        <time>2019-05-30T07:08:08Z</time>
      </trkpt>
      <trkpt lat="44.8069" lon="5.47598">
        <ele>1617.5</ele>
        <time>2019-05-30T07:08:44Z</time>
      </trkpt>
      <trkpt lat="44.80693" lon="5.47595">
        <ele>1617.4</ele>
        <time>2019-05-30T07:08:48Z</time>
      </trkpt>
      <trkpt lat="44.80696" lon="5.47593">
        <ele>1617.3</ele>
        <time>2019-05-30T07:08:51Z</time>
      </trkpt>
      <trkpt lat="44.80701" lon="5.4759">
        <ele>1617.2</ele>
        <time>2019-05-30T07:08:53Z</time>
      </trkpt>
      <trkpt lat="44.80703" lon="5.47588">
        <ele>1617.1</ele>
        <time>2019-05-30T07:08:56Z</time>
      </trkpt>
      <trkpt lat="44.80707" lon="5.47587">
        <ele>1617</ele>
        <time>2019-05-30T07:08:59Z</time>
      </trkpt>
      <trkpt lat="44.8071" lon="5.47587">
        <ele>1616.9</ele>
        <time>2019-05-30T07:09:02Z</time>
      </trkpt>
      <trkpt lat="44.80714" lon="5.47587">
        <ele>1616.8</ele>
        <time>2019-05-30T07:09:04Z</time>
      </trkpt>
      <trkpt lat="44.80718" lon="5.47586">
        <ele>1616.8</ele>
        <time>2019-05-30T07:09:07Z</time>
      </trkpt>
      <trkpt lat="44.80721" lon="5.47584">
        <ele>1616.7</ele>
        <time>2019-05-30T07:09:09Z</time>
      </trkpt>
      <trkpt lat="44.80725" lon="5.47583">
        <ele>1616.7</ele>
        <time>2019-05-30T07:09:11Z</time>
      </trkpt>
      <trkpt lat="44.80728" lon="5.47583">
        <ele>1616.6</ele>
        <time>2019-05-30T07:09:15Z</time>
      </trkpt>
      <trkpt lat="44.80732" lon="5.47582">
        <ele>1616.6</ele>
        <time>2019-05-30T07:09:18Z</time>
      </trkpt>
      <trkpt lat="44.80735" lon="5.47582">
        <ele>1616.6</ele>
        <time>2019-05-30T07:09:21Z</time>
      </trkpt>
      <trkpt lat="44.80737" lon="5.47581">
        <ele>1616.6</ele>
        <time>2019-05-30T07:09:26Z</time>
      </trkpt>
      <trkpt lat="44.8074" lon="5.4758">
        <ele>1616.6</ele>
        <time>2019-05-30T07:09:29Z</time>
      </trkpt>
      <trkpt lat="44.80744" lon="5.4758">
        <ele>1616.6</ele>
        <time>2019-05-30T07:09:32Z</time>
      </trkpt>
      <trkpt lat="44.80747" lon="5.47579">
        <ele>1617.1</ele>
        <time>2019-05-30T07:09:34Z</time>
      </trkpt>
      <trkpt lat="44.8075" lon="5.47579">
        <ele>1617.6</ele>
        <time>2019-05-30T07:09:36Z</time>
      </trkpt>
      <trkpt lat="44.80754" lon="5.47579">
        <ele>1618.2</ele>
        <time>2019-05-30T07:09:39Z</time>
      </trkpt>
      <trkpt lat="44.80758" lon="5.47577">
        <ele>1618.8</ele>
        <time>2019-05-30T07:09:42Z</time>
      </trkpt>
      <trkpt lat="44.8076" lon="5.47576">
        <ele>1619.3</ele>
        <time>2019-05-30T07:09:45Z</time>
      </trkpt>
      <trkpt lat="44.80764" lon="5.47575">
        <ele>1619.8</ele>
        <time>2019-05-30T07:09:49Z</time>
      </trkpt>
      <trkpt lat="44.80767" lon="5.47576">
        <ele>1620.4</ele>
        <time>2019-05-30T07:09:53Z</time>
      </trkpt>
      <trkpt lat="44.8077" lon="5.47577">
        <ele>1621.1</ele>
        <time>2019-05-30T07:09:56Z</time>
      </trkpt>
      <trkpt lat="44.80773" lon="5.47578">
        <ele>1622.1</ele>
        <time>2019-05-30T07:10:00Z</time>
      </trkpt>
      <trkpt lat="44.80776" lon="5.4758">
        <ele>1622.7</ele>
        <time>2019-05-30T07:10:04Z</time>
      </trkpt>
      <trkpt lat="44.80779" lon="5.47581">
        <ele>1623.1</ele>
        <time>2019-05-30T07:10:08Z</time>
      </trkpt>
      <trkpt lat="44.80781" lon="5.47582">
        <ele>1623.4</ele>
        <time>2019-05-30T07:10:11Z</time>
      </trkpt>
      <trkpt lat="44.80784" lon="5.47584">
        <ele>1623.7</ele>
        <time>2019-05-30T07:10:14Z</time>
      </trkpt>
      <trkpt lat="44.80787" lon="5.47586">
        <ele>1624.1</ele>
        <time>2019-05-30T07:10:17Z</time>
      </trkpt>
      <trkpt lat="44.80789" lon="5.47588">
        <ele>1624.4</ele>
        <time>2019-05-30T07:10:20Z</time>
      </trkpt>
      <trkpt lat="44.80792" lon="5.4759">
        <ele>1624.9</ele>
        <time>2019-05-30T07:10:23Z</time>
      </trkpt>
      <trkpt lat="44.80796" lon="5.4759">
        <ele>1625.4</ele>
        <time>2019-05-30T07:10:26Z</time>
      </trkpt>
      <trkpt lat="44.808" lon="5.4759">
        <ele>1625.8</ele>
        <time>2019-05-30T07:10:29Z</time>
      </trkpt>
      <trkpt lat="44.80803" lon="5.47591">
        <ele>1626.2</ele>
        <time>2019-05-30T07:10:32Z</time>
      </trkpt>
      <trkpt lat="44.80806" lon="5.47591">
        <ele>1626.5</ele>
        <time>2019-05-30T07:10:36Z</time>
      </trkpt>
      <trkpt lat="44.80809" lon="5.4759">
        <ele>1627.2</ele>
        <time>2019-05-30T07:10:42Z</time>
      </trkpt>
      <trkpt lat="44.80813" lon="5.4759">
        <ele>1627.8</ele>
        <time>2019-05-30T07:10:46Z</time>
      </trkpt>
      <trkpt lat="44.80816" lon="5.47589">
        <ele>1628.4</ele>
        <time>2019-05-30T07:10:49Z</time>
      </trkpt>
      <trkpt lat="44.80819" lon="5.47588">
        <ele>1628.9</ele>
        <time>2019-05-30T07:10:52Z</time>
      </trkpt>
      <trkpt lat="44.80823" lon="5.47588">
        <ele>1629.4</ele>
        <time>2019-05-30T07:10:55Z</time>
      </trkpt>
      <trkpt lat="44.80826" lon="5.47588">
        <ele>1629.8</ele>
        <time>2019-05-30T07:10:58Z</time>
      </trkpt>
      <trkpt lat="44.80829" lon="5.47588">
        <ele>1630.1</ele>
        <time>2019-05-30T07:11:01Z</time>
      </trkpt>
      <trkpt lat="44.80832" lon="5.47588">
        <ele>1630.3</ele>
        <time>2019-05-30T07:11:03Z</time>
      </trkpt>
      <trkpt lat="44.80835" lon="5.47588">
        <ele>1630.5</ele>
        <time>2019-05-30T07:11:05Z</time>
      </trkpt>
      <trkpt lat="44.80839" lon="5.47588">
        <ele>1630.8</ele>
        <time>2019-05-30T07:11:08Z</time>
      </trkpt>
      <trkpt lat="44.80842" lon="5.47589">
        <ele>1631.1</ele>
        <time>2019-05-30T07:11:12Z</time>
      </trkpt>
      <trkpt lat="44.80845" lon="5.4759">
        <ele>1631.3</ele>
        <time>2019-05-30T07:11:16Z</time>
      </trkpt>
      <trkpt lat="44.80849" lon="5.47589">
        <ele>1631.6</ele>
        <time>2019-05-30T07:11:20Z</time>
      </trkpt>
      <trkpt lat="44.80851" lon="5.47589">
        <ele>1631.8</ele>
        <time>2019-05-30T07:11:23Z</time>
      </trkpt>
      <trkpt lat="44.80854" lon="5.4759">
        <ele>1632.2</ele>
        <time>2019-05-30T07:11:27Z</time>
      </trkpt>
      <trkpt lat="44.80857" lon="5.47593">
        <ele>1632.5</ele>
        <time>2019-05-30T07:11:31Z</time>
      </trkpt>
      <trkpt lat="44.8086" lon="5.47594">
        <ele>1632.8</ele>
        <time>2019-05-30T07:11:35Z</time>
      </trkpt>
      <trkpt lat="44.80863" lon="5.47595">
        <ele>1633.1</ele>
        <time>2019-05-30T07:11:40Z</time>
      </trkpt>
      <trkpt lat="44.80866" lon="5.47597">
        <ele>1633.3</ele>
        <time>2019-05-30T07:11:44Z</time>
      </trkpt>
      <trkpt lat="44.80868" lon="5.476">
        <ele>1633.6</ele>
        <time>2019-05-30T07:11:51Z</time>
      </trkpt>
      <trkpt lat="44.80871" lon="5.47601">
        <ele>1633.9</ele>
        <time>2019-05-30T07:11:55Z</time>
      </trkpt>
      <trkpt lat="44.80874" lon="5.47602">
        <ele>1634.1</ele>
        <time>2019-05-30T07:11:59Z</time>
      </trkpt>
      <trkpt lat="44.80877" lon="5.47603">
        <ele>1634.4</ele>
        <time>2019-05-30T07:12:02Z</time>
      </trkpt>
      <trkpt lat="44.8088" lon="5.47603">
        <ele>1634.8</ele>
        <time>2019-05-30T07:12:06Z</time>
      </trkpt>
      <trkpt lat="44.80884" lon="5.47604">
        <ele>1635.1</ele>
        <time>2019-05-30T07:12:10Z</time>
      </trkpt>
      <trkpt lat="44.80887" lon="5.47605">
        <ele>1635.5</ele>
        <time>2019-05-30T07:12:14Z</time>
      </trkpt>
      <trkpt lat="44.80889" lon="5.47606">
        <ele>1635.8</ele>
        <time>2019-05-30T07:12:18Z</time>
      </trkpt>
      <trkpt lat="44.80892" lon="5.47607">
        <ele>1636.1</ele>
        <time>2019-05-30T07:12:22Z</time>
      </trkpt>
      <trkpt lat="44.80895" lon="5.47607">
        <ele>1636.3</ele>
        <time>2019-05-30T07:12:25Z</time>
      </trkpt>
      <trkpt lat="44.80898" lon="5.47608">
        <ele>1636.6</ele>
        <time>2019-05-30T07:12:28Z</time>
      </trkpt>
      <trkpt lat="44.80901" lon="5.47609">
        <ele>1636.8</ele>
        <time>2019-05-30T07:12:31Z</time>
      </trkpt>
      <trkpt lat="44.80904" lon="5.47611">
        <ele>1637</ele>
        <time>2019-05-30T07:12:34Z</time>
      </trkpt>
      <trkpt lat="44.80907" lon="5.47612">
        <ele>1637.2</ele>
        <time>2019-05-30T07:12:37Z</time>
      </trkpt>
      <trkpt lat="44.8091" lon="5.47612">
        <ele>1637.4</ele>
        <time>2019-05-30T07:12:41Z</time>
      </trkpt>
      <trkpt lat="44.80914" lon="5.47613">
        <ele>1637.6</ele>
        <time>2019-05-30T07:12:45Z</time>
      </trkpt>
      <trkpt lat="44.80917" lon="5.47614">
        <ele>1637.8</ele>
        <time>2019-05-30T07:12:50Z</time>
      </trkpt>
      <trkpt lat="44.80919" lon="5.47615">
        <ele>1638</ele>
        <time>2019-05-30T07:12:56Z</time>
      </trkpt>
      <trkpt lat="44.80922" lon="5.47616">
        <ele>1638.2</ele>
        <time>2019-05-30T07:13:02Z</time>
      </trkpt>
      <trkpt lat="44.80926" lon="5.47616">
        <ele>1638.4</ele>
        <time>2019-05-30T07:13:06Z</time>
      </trkpt>
      <trkpt lat="44.80929" lon="5.47616">
        <ele>1638.5</ele>
        <time>2019-05-30T07:13:09Z</time>
      </trkpt>
      <trkpt lat="44.80933" lon="5.47616">
        <ele>1638.6</ele>
        <time>2019-05-30T07:13:12Z</time>
      </trkpt>
      <trkpt lat="44.80936" lon="5.47615">
        <ele>1638.7</ele>
        <time>2019-05-30T07:13:14Z</time>
      </trkpt>
      <trkpt lat="44.80939" lon="5.47615">
        <ele>1638.8</ele>
        <time>2019-05-30T07:13:16Z</time>
      </trkpt>
      <trkpt lat="44.80942" lon="5.47615">
        <ele>1638.9</ele>
        <time>2019-05-30T07:13:19Z</time>
      </trkpt>
      <trkpt lat="44.80946" lon="5.47615">
        <ele>1639.1</ele>
        <time>2019-05-30T07:13:22Z</time>
      </trkpt>
      <trkpt lat="44.80949" lon="5.47615">
        <ele>1639.2</ele>
        <time>2019-05-30T07:13:25Z</time>
      </trkpt>
      <trkpt lat="44.80952" lon="5.47615">
        <ele>1639.2</ele>
        <time>2019-05-30T07:13:29Z</time>
      </trkpt>
      <trkpt lat="44.80955" lon="5.47615">
        <ele>1639.3</ele>
        <time>2019-05-30T07:13:34Z</time>
      </trkpt>
      <trkpt lat="44.80957" lon="5.47615">
        <ele>1639.3</ele>
        <time>2019-05-30T07:13:37Z</time>
      </trkpt>
      <trkpt lat="44.80962" lon="5.47616">
        <ele>1639.4</ele>
        <time>2019-05-30T07:13:40Z</time>
      </trkpt>
      <trkpt lat="44.80966" lon="5.47617">
        <ele>1639.4</ele>
        <time>2019-05-30T07:13:42Z</time>
      </trkpt>
      <trkpt lat="44.80968" lon="5.47618">
        <ele>1639.4</ele>
        <time>2019-05-30T07:13:45Z</time>
      </trkpt>
      <trkpt lat="44.80972" lon="5.47618">
        <ele>1639.4</ele>
        <time>2019-05-30T07:13:49Z</time>
      </trkpt>
      <trkpt lat="44.80975" lon="5.47618">
        <ele>1639.4</ele>
        <time>2019-05-30T07:13:52Z</time>
      </trkpt>
      <trkpt lat="44.80978" lon="5.47618">
        <ele>1639.4</ele>
        <time>2019-05-30T07:13:55Z</time>
      </trkpt>
      <trkpt lat="44.80981" lon="5.47617">
        <ele>1639.4</ele>
        <time>2019-05-30T07:13:58Z</time>
      </trkpt>
      <trkpt lat="44.80984" lon="5.47617">
        <ele>1639.4</ele>
        <time>2019-05-30T07:14:02Z</time>
      </trkpt>
      <trkpt lat="44.80987" lon="5.47616">
        <ele>1639.3</ele>
        <time>2019-05-30T07:14:05Z</time>
      </trkpt>
      <trkpt lat="44.80991" lon="5.47615">
        <ele>1639.3</ele>
        <time>2019-05-30T07:14:09Z</time>
      </trkpt>
      <trkpt lat="44.80995" lon="5.47615">
        <ele>1639.2</ele>
        <time>2019-05-30T07:14:12Z</time>
      </trkpt>
      <trkpt lat="44.80998" lon="5.47614">
        <ele>1639.2</ele>
        <time>2019-05-30T07:14:14Z</time>
      </trkpt>
      <trkpt lat="44.81001" lon="5.47612">
        <ele>1639.1</ele>
        <time>2019-05-30T07:14:16Z</time>
      </trkpt>
      <trkpt lat="44.81004" lon="5.47612">
        <ele>1639.1</ele>
        <time>2019-05-30T07:14:18Z</time>
      </trkpt>
      <trkpt lat="44.81008" lon="5.47611">
        <ele>1639</ele>
        <time>2019-05-30T07:14:20Z</time>
      </trkpt>
      <trkpt lat="44.81012" lon="5.47611">
        <ele>1638.9</ele>
        <time>2019-05-30T07:14:22Z</time>
      </trkpt>
      <trkpt lat="44.81015" lon="5.47612">
        <ele>1638.9</ele>
        <time>2019-05-30T07:14:24Z</time>
      </trkpt>
      <trkpt lat="44.81018" lon="5.47613">
        <ele>1638.8</ele>
        <time>2019-05-30T07:14:26Z</time>
      </trkpt>
      <trkpt lat="44.81021" lon="5.47612">
        <ele>1638.8</ele>
        <time>2019-05-30T07:14:28Z</time>
      </trkpt>
      <trkpt lat="44.81025" lon="5.47612">
        <ele>1638.8</ele>
        <time>2019-05-30T07:14:31Z</time>
      </trkpt>
      <trkpt lat="44.81028" lon="5.47614">
        <ele>1638.8</ele>
        <time>2019-05-30T07:14:34Z</time>
      </trkpt>
      <trkpt lat="44.81031" lon="5.47615">
        <ele>1638.8</ele>
        <time>2019-05-30T07:14:37Z</time>
      </trkpt>
      <trkpt lat="44.81035" lon="5.47616">
        <ele>1638.8</ele>
        <time>2019-05-30T07:14:40Z</time>
      </trkpt>
      <trkpt lat="44.81038" lon="5.47616">
        <ele>1638.8</ele>
        <time>2019-05-30T07:14:43Z</time>
      </trkpt>
      <trkpt lat="44.81041" lon="5.47615">
        <ele>1638.9</ele>
        <time>2019-05-30T07:14:46Z</time>
      </trkpt>
      <trkpt lat="44.81044" lon="5.47616">
        <ele>1638.9</ele>
        <time>2019-05-30T07:14:49Z</time>
      </trkpt>
      <trkpt lat="44.81047" lon="5.47618">
        <ele>1639</ele>
        <time>2019-05-30T07:14:52Z</time>
      </trkpt>
      <trkpt lat="44.8105" lon="5.47619">
        <ele>1639.1</ele>
        <time>2019-05-30T07:14:55Z</time>
      </trkpt>
      <trkpt lat="44.81053" lon="5.47619">
        <ele>1639.1</ele>
        <time>2019-05-30T07:14:58Z</time>
      </trkpt>
      <trkpt lat="44.81055" lon="5.47618">
        <ele>1639.2</ele>
        <time>2019-05-30T07:15:01Z</time>
      </trkpt>
      <trkpt lat="44.81058" lon="5.47617">
        <ele>1639.2</ele>
        <time>2019-05-30T07:15:04Z</time>
      </trkpt>
      <trkpt lat="44.81061" lon="5.47615">
        <ele>1639.3</ele>
        <time>2019-05-30T07:15:07Z</time>
      </trkpt>
      <trkpt lat="44.81064" lon="5.47611">
        <ele>1639.3</ele>
        <time>2019-05-30T07:15:10Z</time>
      </trkpt>
      <trkpt lat="44.81066" lon="5.47608">
        <ele>1639.4</ele>
        <time>2019-05-30T07:15:12Z</time>
      </trkpt>
      <trkpt lat="44.81068" lon="5.47605">
        <ele>1639.4</ele>
        <time>2019-05-30T07:15:15Z</time>
      </trkpt>
      <trkpt lat="44.81071" lon="5.47603">
        <ele>1639.4</ele>
        <time>2019-05-30T07:15:41Z</time>
      </trkpt>
      <trkpt lat="44.81075" lon="5.47601">
        <ele>1639.4</ele>
        <time>2019-05-30T07:15:44Z</time>
      </trkpt>
      <trkpt lat="44.81078" lon="5.47599">
        <ele>1639.4</ele>
        <time>2019-05-30T07:15:46Z</time>
      </trkpt>
      <trkpt lat="44.81081" lon="5.47596">
        <ele>1639.4</ele>
        <time>2019-05-30T07:15:49Z</time>
      </trkpt>
      <trkpt lat="44.81084" lon="5.47593">
        <ele>1639.3</ele>
        <time>2019-05-30T07:15:52Z</time>
      </trkpt>
      <trkpt lat="44.81087" lon="5.47592">
        <ele>1639.2</ele>
        <time>2019-05-30T07:15:55Z</time>
      </trkpt>
      <trkpt lat="44.81089" lon="5.47588">
        <ele>1639.1</ele>
        <time>2019-05-30T07:15:59Z</time>
      </trkpt>
      <trkpt lat="44.81091" lon="5.47592">
        <ele>1638.9</ele>
        <time>2019-05-30T07:16:31Z</time>
      </trkpt>
      <trkpt lat="44.81095" lon="5.47595">
        <ele>1638.8</ele>
        <time>2019-05-30T07:16:34Z</time>
      </trkpt>
      <trkpt lat="44.81098" lon="5.47597">
        <ele>1638.6</ele>
        <time>2019-05-30T07:16:36Z</time>
      </trkpt>
      <trkpt lat="44.81101" lon="5.47598">
        <ele>1638.5</ele>
        <time>2019-05-30T07:16:39Z</time>
      </trkpt>
      <trkpt lat="44.81104" lon="5.476">
        <ele>1638.2</ele>
        <time>2019-05-30T07:16:42Z</time>
      </trkpt>
      <trkpt lat="44.81108" lon="5.476">
        <ele>1637.9</ele>
        <time>2019-05-30T07:16:45Z</time>
      </trkpt>
      <trkpt lat="44.81111" lon="5.47599">
        <ele>1637.6</ele>
        <time>2019-05-30T07:16:48Z</time>
      </trkpt>
      <trkpt lat="44.81114" lon="5.476">
        <ele>1637.3</ele>
        <time>2019-05-30T07:16:53Z</time>
      </trkpt>
      <trkpt lat="44.81117" lon="5.47601">
        <ele>1636.9</ele>
        <time>2019-05-30T07:16:56Z</time>
      </trkpt>
      <trkpt lat="44.8112" lon="5.47602">
        <ele>1636.6</ele>
        <time>2019-05-30T07:16:59Z</time>
      </trkpt>
      <trkpt lat="44.81123" lon="5.47603">
        <ele>1636</ele>
        <time>2019-05-30T07:17:02Z</time>
      </trkpt>
      <trkpt lat="44.81126" lon="5.47604">
        <ele>1635.5</ele>
        <time>2019-05-30T07:17:05Z</time>
      </trkpt>
      <trkpt lat="44.8113" lon="5.47605">
        <ele>1634.9</ele>
        <time>2019-05-30T07:17:08Z</time>
      </trkpt>
      <trkpt lat="44.81132" lon="5.47608">
        <ele>1634.6</ele>
        <time>2019-05-30T07:17:11Z</time>
      </trkpt>
      <trkpt lat="44.81135" lon="5.47612">
        <ele>1634.2</ele>
        <time>2019-05-30T07:17:15Z</time>
      </trkpt>
      <trkpt lat="44.81138" lon="5.47616">
        <ele>1633.9</ele>
        <time>2019-05-30T07:17:18Z</time>
      </trkpt>
      <trkpt lat="44.8114" lon="5.47619">
        <ele>1633.7</ele>
        <time>2019-05-30T07:17:20Z</time>
      </trkpt>
      <trkpt lat="44.81143" lon="5.47621">
        <ele>1633.3</ele>
        <time>2019-05-30T07:17:22Z</time>
      </trkpt>
      <trkpt lat="44.81146" lon="5.47624">
        <ele>1633</ele>
        <time>2019-05-30T07:17:24Z</time>
      </trkpt>
      <trkpt lat="44.8115" lon="5.47627">
        <ele>1632.7</ele>
        <time>2019-05-30T07:17:26Z</time>
      </trkpt>
      <trkpt lat="44.81154" lon="5.4763">
        <ele>1632.4</ele>
        <time>2019-05-30T07:17:28Z</time>
      </trkpt>
      <trkpt lat="44.81157" lon="5.47633">
        <ele>1632.2</ele>
        <time>2019-05-30T07:17:30Z</time>
      </trkpt>
      <trkpt lat="44.81159" lon="5.47635">
        <ele>1632</ele>
        <time>2019-05-30T07:17:32Z</time>
      </trkpt>
      <trkpt lat="44.81161" lon="5.47638">
        <ele>1631.8</ele>
        <time>2019-05-30T07:17:35Z</time>
      </trkpt>
      <trkpt lat="44.81163" lon="5.47641">
        <ele>1631.7</ele>
        <time>2019-05-30T07:17:38Z</time>
      </trkpt>
      <trkpt lat="44.81165" lon="5.47644">
        <ele>1631.5</ele>
        <time>2019-05-30T07:17:41Z</time>
      </trkpt>
      <trkpt lat="44.81168" lon="5.47647">
        <ele>1631.3</ele>
        <time>2019-05-30T07:17:45Z</time>
      </trkpt>
      <trkpt lat="44.81171" lon="5.4765">
        <ele>1631.2</ele>
        <time>2019-05-30T07:17:48Z</time>
      </trkpt>
      <trkpt lat="44.81174" lon="5.47654">
        <ele>1631.1</ele>
        <time>2019-05-30T07:17:51Z</time>
      </trkpt>
      <trkpt lat="44.81177" lon="5.47658">
        <ele>1631</ele>
        <time>2019-05-30T07:17:53Z</time>
      </trkpt>
      <trkpt lat="44.81181" lon="5.47662">
        <ele>1630.9</ele>
        <time>2019-05-30T07:17:55Z</time>
      </trkpt>
      <trkpt lat="44.81183" lon="5.47665">
        <ele>1630.8</ele>
        <time>2019-05-30T07:17:57Z</time>
      </trkpt>
      <trkpt lat="44.81186" lon="5.47669">
        <ele>1630.7</ele>
        <time>2019-05-30T07:18:00Z</time>
      </trkpt>
      <trkpt lat="44.81189" lon="5.47672">
        <ele>1630.5</ele>
        <time>2019-05-30T07:18:03Z</time>
      </trkpt>
      <trkpt lat="44.81192" lon="5.47674">
        <ele>1630.4</ele>
        <time>2019-05-30T07:18:07Z</time>
      </trkpt>
      <trkpt lat="44.81193" lon="5.47671">
        <ele>1630.3</ele>
        <time>2019-05-30T07:18:11Z</time>
      </trkpt>
      <trkpt lat="44.81194" lon="5.47667">
        <ele>1630.2</ele>
        <time>2019-05-30T07:18:15Z</time>
      </trkpt>
      <trkpt lat="44.81195" lon="5.47663">
        <ele>1630.1</ele>
        <time>2019-05-30T07:18:18Z</time>
      </trkpt>
      <trkpt lat="44.81198" lon="5.47661">
        <ele>1630</ele>
        <time>2019-05-30T07:18:22Z</time>
      </trkpt>
      <trkpt lat="44.81201" lon="5.47659">
        <ele>1629.9</ele>
        <time>2019-05-30T07:18:26Z</time>
      </trkpt>
      <trkpt lat="44.81204" lon="5.47657">
        <ele>1629.9</ele>
        <time>2019-05-30T07:18:30Z</time>
      </trkpt>
      <trkpt lat="44.81207" lon="5.47656">
        <ele>1629.8</ele>
        <time>2019-05-30T07:18:33Z</time>
      </trkpt>
      <trkpt lat="44.8121" lon="5.47655">
        <ele>1629.8</ele>
        <time>2019-05-30T07:18:36Z</time>
      </trkpt>
      <trkpt lat="44.81213" lon="5.47655">
        <ele>1629.7</ele>
        <time>2019-05-30T07:18:39Z</time>
      </trkpt>
      <trkpt lat="44.81216" lon="5.47657">
        <ele>1629.6</ele>
        <time>2019-05-30T07:18:43Z</time>
      </trkpt>
      <trkpt lat="44.8122" lon="5.47658">
        <ele>1629.5</ele>
        <time>2019-05-30T07:18:46Z</time>
      </trkpt>
      <trkpt lat="44.81223" lon="5.47657">
        <ele>1629.5</ele>
        <time>2019-05-30T07:18:49Z</time>
      </trkpt>
      <trkpt lat="44.81226" lon="5.47653">
        <ele>1629.4</ele>
        <time>2019-05-30T07:18:52Z</time>
      </trkpt>
      <trkpt lat="44.81228" lon="5.47651">
        <ele>1629.3</ele>
        <time>2019-05-30T07:18:54Z</time>
      </trkpt>
      <trkpt lat="44.8123" lon="5.47648">
        <ele>1629.3</ele>
        <time>2019-05-30T07:18:56Z</time>
      </trkpt>
      <trkpt lat="44.81232" lon="5.47645">
        <ele>1629.2</ele>
        <time>2019-05-30T07:18:59Z</time>
      </trkpt>
      <trkpt lat="44.81234" lon="5.47641">
        <ele>1629.1</ele>
        <time>2019-05-30T07:19:02Z</time>
      </trkpt>
      <trkpt lat="44.81235" lon="5.47638">
        <ele>1629</ele>
        <time>2019-05-30T07:19:05Z</time>
      </trkpt>
      <trkpt lat="44.81236" lon="5.47633">
        <ele>1628.9</ele>
        <time>2019-05-30T07:19:09Z</time>
      </trkpt>
      <trkpt lat="44.81237" lon="5.4763">
        <ele>1628.8</ele>
        <time>2019-05-30T07:19:12Z</time>
      </trkpt>
      <trkpt lat="44.81239" lon="5.47626">
        <ele>1628.7</ele>
        <time>2019-05-30T07:19:15Z</time>
      </trkpt>
      <trkpt lat="44.8124" lon="5.47622">
        <ele>1628.5</ele>
        <time>2019-05-30T07:19:19Z</time>
      </trkpt>
      <trkpt lat="44.81242" lon="5.47618">
        <ele>1628.4</ele>
        <time>2019-05-30T07:19:22Z</time>
      </trkpt>
      <trkpt lat="44.81244" lon="5.47615">
        <ele>1628.3</ele>
        <time>2019-05-30T07:19:26Z</time>
      </trkpt>
      <trkpt lat="44.81247" lon="5.47613">
        <ele>1628.3</ele>
        <time>2019-05-30T07:19:31Z</time>
      </trkpt>
      <trkpt lat="44.81249" lon="5.4761">
        <ele>1628.2</ele>
        <time>2019-05-30T07:19:35Z</time>
      </trkpt>
      <trkpt lat="44.81251" lon="5.47607">
        <ele>1628.1</ele>
        <time>2019-05-30T07:19:38Z</time>
      </trkpt>
      <trkpt lat="44.81254" lon="5.47603">
        <ele>1628.1</ele>
        <time>2019-05-30T07:19:41Z</time>
      </trkpt>
      <trkpt lat="44.81257" lon="5.476">
        <ele>1628.1</ele>
        <time>2019-05-30T07:19:44Z</time>
      </trkpt>
      <trkpt lat="44.8126" lon="5.47597">
        <ele>1628.1</ele>
        <time>2019-05-30T07:19:46Z</time>
      </trkpt>
      <trkpt lat="44.81262" lon="5.47593">
        <ele>1628.1</ele>
        <time>2019-05-30T07:19:49Z</time>
      </trkpt>
      <trkpt lat="44.81265" lon="5.4759">
        <ele>1628.1</ele>
        <time>2019-05-30T07:19:53Z</time>
      </trkpt>
      <trkpt lat="44.81267" lon="5.47586">
        <ele>1628.1</ele>
        <time>2019-05-30T07:21:00Z</time>
      </trkpt>
      <trkpt lat="44.81265" lon="5.47589">
        <ele>1628.1</ele>
        <time>2019-05-30T07:21:05Z</time>
      </trkpt>
      <trkpt lat="44.81263" lon="5.47593">
        <ele>1628.2</ele>
        <time>2019-05-30T07:21:09Z</time>
      </trkpt>
      <trkpt lat="44.81261" lon="5.47597">
        <ele>1628.2</ele>
        <time>2019-05-30T07:21:12Z</time>
      </trkpt>
      <trkpt lat="44.8126" lon="5.47601">
        <ele>1628.3</ele>
        <time>2019-05-30T07:21:15Z</time>
      </trkpt>
      <trkpt lat="44.8126" lon="5.47606">
        <ele>1628.3</ele>
        <time>2019-05-30T07:21:18Z</time>
      </trkpt>
      <trkpt lat="44.8126" lon="5.47611">
        <ele>1628.4</ele>
        <time>2019-05-30T07:21:21Z</time>
      </trkpt>
      <trkpt lat="44.81261" lon="5.47616">
        <ele>1628.4</ele>
        <time>2019-05-30T07:21:24Z</time>
      </trkpt>
      <trkpt lat="44.81261" lon="5.47621">
        <ele>1628.5</ele>
        <time>2019-05-30T07:21:26Z</time>
      </trkpt>
      <trkpt lat="44.81262" lon="5.47625">
        <ele>1628.5</ele>
        <time>2019-05-30T07:21:28Z</time>
      </trkpt>
      <trkpt lat="44.81263" lon="5.47629">
        <ele>1628.6</ele>
        <time>2019-05-30T07:21:30Z</time>
      </trkpt>
      <trkpt lat="44.81265" lon="5.47633">
        <ele>1628.6</ele>
        <time>2019-05-30T07:21:33Z</time>
      </trkpt>
      <trkpt lat="44.81267" lon="5.47638">
        <ele>1628.7</ele>
        <time>2019-05-30T07:21:36Z</time>
      </trkpt>
      <trkpt lat="44.81269" lon="5.47642">
        <ele>1628.7</ele>
        <time>2019-05-30T07:21:39Z</time>
      </trkpt>
      <trkpt lat="44.8127" lon="5.47647">
        <ele>1628.8</ele>
        <time>2019-05-30T07:21:42Z</time>
      </trkpt>
      <trkpt lat="44.81272" lon="5.47651">
        <ele>1628.9</ele>
        <time>2019-05-30T07:21:45Z</time>
      </trkpt>
      <trkpt lat="44.81274" lon="5.47654">
        <ele>1628.9</ele>
        <time>2019-05-30T07:21:47Z</time>
      </trkpt>
      <trkpt lat="44.81276" lon="5.47659">
        <ele>1628.9</ele>
        <time>2019-05-30T07:21:50Z</time>
      </trkpt>
      <trkpt lat="44.81277" lon="5.47663">
        <ele>1629</ele>
        <time>2019-05-30T07:21:53Z</time>
      </trkpt>
      <trkpt lat="44.81278" lon="5.47668">
        <ele>1629</ele>
        <time>2019-05-30T07:21:56Z</time>
      </trkpt>
      <trkpt lat="44.8128" lon="5.47673">
        <ele>1629.1</ele>
        <time>2019-05-30T07:21:59Z</time>
      </trkpt>
      <trkpt lat="44.81281" lon="5.47677">
        <ele>1629.2</ele>
        <time>2019-05-30T07:22:02Z</time>
      </trkpt>
      <trkpt lat="44.81282" lon="5.47682">
        <ele>1629.2</ele>
        <time>2019-05-30T07:22:05Z</time>
      </trkpt>
      <trkpt lat="44.81283" lon="5.47686">
        <ele>1629.3</ele>
        <time>2019-05-30T07:22:08Z</time>
      </trkpt>
      <trkpt lat="44.81284" lon="5.4769">
        <ele>1629.3</ele>
        <time>2019-05-30T07:22:10Z</time>
      </trkpt>
      <trkpt lat="44.81286" lon="5.47694">
        <ele>1629.4</ele>
        <time>2019-05-30T07:22:12Z</time>
      </trkpt>
      <trkpt lat="44.81287" lon="5.47699">
        <ele>1629.4</ele>
        <time>2019-05-30T07:22:15Z</time>
      </trkpt>
      <trkpt lat="44.81289" lon="5.47703">
        <ele>1629.5</ele>
        <time>2019-05-30T07:22:17Z</time>
      </trkpt>
      <trkpt lat="44.81292" lon="5.47705">
        <ele>1629.6</ele>
        <time>2019-05-30T07:22:20Z</time>
      </trkpt>
      <trkpt lat="44.81295" lon="5.47708">
        <ele>1629.8</ele>
        <time>2019-05-30T07:22:23Z</time>
      </trkpt>
      <trkpt lat="44.81297" lon="5.47711">
        <ele>1629.9</ele>
        <time>2019-05-30T07:22:25Z</time>
      </trkpt>
      <trkpt lat="44.813" lon="5.47713">
        <ele>1630</ele>
        <time>2019-05-30T07:22:27Z</time>
      </trkpt>
      <trkpt lat="44.81302" lon="5.47715">
        <ele>1630.1</ele>
        <time>2019-05-30T07:22:29Z</time>
      </trkpt>
      <trkpt lat="44.81306" lon="5.47717">
        <ele>1630.3</ele>
        <time>2019-05-30T07:22:33Z</time>
      </trkpt>
      <trkpt lat="44.81309" lon="5.47718">
        <ele>1630.4</ele>
        <time>2019-05-30T07:22:36Z</time>
      </trkpt>
      <trkpt lat="44.81311" lon="5.4772">
        <ele>1630.5</ele>
        <time>2019-05-30T07:22:39Z</time>
      </trkpt>
      <trkpt lat="44.81314" lon="5.47722">
        <ele>1630.6</ele>
        <time>2019-05-30T07:22:42Z</time>
      </trkpt>
      <trkpt lat="44.81318" lon="5.47724">
        <ele>1630.8</ele>
        <time>2019-05-30T07:22:45Z</time>
      </trkpt>
      <trkpt lat="44.81322" lon="5.47725">
        <ele>1631</ele>
        <time>2019-05-30T07:22:47Z</time>
      </trkpt>
      <trkpt lat="44.81326" lon="5.47726">
        <ele>1631.4</ele>
        <time>2019-05-30T07:22:49Z</time>
      </trkpt>
      <trkpt lat="44.81329" lon="5.47726">
        <ele>1631.6</ele>
        <time>2019-05-30T07:22:51Z</time>
      </trkpt>
      <trkpt lat="44.81333" lon="5.47726">
        <ele>1632</ele>
        <time>2019-05-30T07:22:54Z</time>
      </trkpt>
      <trkpt lat="44.81336" lon="5.47726">
        <ele>1632.2</ele>
        <time>2019-05-30T07:22:57Z</time>
      </trkpt>
      <trkpt lat="44.81338" lon="5.47727">
        <ele>1632.4</ele>
        <time>2019-05-30T07:23:01Z</time>
      </trkpt>
      <trkpt lat="44.8134" lon="5.4773">
        <ele>1632.6</ele>
        <time>2019-05-30T07:23:06Z</time>
      </trkpt>
      <trkpt lat="44.81343" lon="5.4773">
        <ele>1632.8</ele>
        <time>2019-05-30T07:23:10Z</time>
      </trkpt>
      <trkpt lat="44.81346" lon="5.4773">
        <ele>1633.1</ele>
        <time>2019-05-30T07:23:14Z</time>
      </trkpt>
      <trkpt lat="44.8135" lon="5.4773">
        <ele>1633.3</ele>
        <time>2019-05-30T07:23:17Z</time>
      </trkpt>
      <trkpt lat="44.81354" lon="5.47729">
        <ele>1633.7</ele>
        <time>2019-05-30T07:23:20Z</time>
      </trkpt>
      <trkpt lat="44.81357" lon="5.47728">
        <ele>1634</ele>
        <time>2019-05-30T07:23:22Z</time>
      </trkpt>
      <trkpt lat="44.8136" lon="5.47727">
        <ele>1634.2</ele>
        <time>2019-05-30T07:23:24Z</time>
      </trkpt>
      <trkpt lat="44.81363" lon="5.47726">
        <ele>1634.5</ele>
        <time>2019-05-30T07:23:26Z</time>
      </trkpt>
      <trkpt lat="44.81366" lon="5.47725">
        <ele>1634.8</ele>
        <time>2019-05-30T07:23:28Z</time>
      </trkpt>
      <trkpt lat="44.81369" lon="5.47724">
        <ele>1635.1</ele>
        <time>2019-05-30T07:23:30Z</time>
      </trkpt>
      <trkpt lat="44.81372" lon="5.47724">
        <ele>1635.4</ele>
        <time>2019-05-30T07:23:33Z</time>
      </trkpt>
      <trkpt lat="44.81375" lon="5.47725">
        <ele>1635.4</ele>
        <time>2019-05-30T07:23:36Z</time>
      </trkpt>
      <trkpt lat="44.81378" lon="5.47725">
        <ele>1635.2</ele>
        <time>2019-05-30T07:23:40Z</time>
      </trkpt>
      <trkpt lat="44.81382" lon="5.47724">
        <ele>1634.9</ele>
        <time>2019-05-30T07:23:44Z</time>
      </trkpt>
      <trkpt lat="44.81384" lon="5.47723">
        <ele>1634.7</ele>
        <time>2019-05-30T07:23:48Z</time>
      </trkpt>
      <trkpt lat="44.81387" lon="5.4772">
        <ele>1634.4</ele>
        <time>2019-05-30T07:23:52Z</time>
      </trkpt>
      <trkpt lat="44.8139" lon="5.47718">
        <ele>1634.2</ele>
        <time>2019-05-30T07:23:55Z</time>
      </trkpt>
      <trkpt lat="44.81393" lon="5.47717">
        <ele>1633.9</ele>
        <time>2019-05-30T07:23:58Z</time>
      </trkpt>
      <trkpt lat="44.81397" lon="5.47716">
        <ele>1633.6</ele>
        <time>2019-05-30T07:24:01Z</time>
      </trkpt>
      <trkpt lat="44.81399" lon="5.47716">
        <ele>1633.3</ele>
        <time>2019-05-30T07:24:03Z</time>
      </trkpt>
      <trkpt lat="44.81403" lon="5.47716">
        <ele>1633</ele>
        <time>2019-05-30T07:24:06Z</time>
      </trkpt>
      <trkpt lat="44.81406" lon="5.47717">
        <ele>1632.8</ele>
        <time>2019-05-30T07:24:10Z</time>
      </trkpt>
      <trkpt lat="44.81409" lon="5.47717">
        <ele>1632.5</ele>
        <time>2019-05-30T07:24:15Z</time>
      </trkpt>
      <trkpt lat="44.81412" lon="5.47715">
        <ele>1632.8</ele>
        <time>2019-05-30T07:24:20Z</time>
      </trkpt>
      <trkpt lat="44.81415" lon="5.47714">
        <ele>1632.9</ele>
        <time>2019-05-30T07:24:23Z</time>
      </trkpt>
      <trkpt lat="44.81418" lon="5.47711">
        <ele>1633.1</ele>
        <time>2019-05-30T07:24:26Z</time>
      </trkpt>
      <trkpt lat="44.81422" lon="5.47709">
        <ele>1633.4</ele>
        <time>2019-05-30T07:24:29Z</time>
      </trkpt>
      <trkpt lat="44.81426" lon="5.47707">
        <ele>1633.6</ele>
        <time>2019-05-30T07:24:32Z</time>
      </trkpt>
      <trkpt lat="44.81429" lon="5.47706">
        <ele>1633.8</ele>
        <time>2019-05-30T07:24:34Z</time>
      </trkpt>
      <trkpt lat="44.81432" lon="5.47705">
        <ele>1634</ele>
        <time>2019-05-30T07:24:37Z</time>
      </trkpt>
      <trkpt lat="44.81435" lon="5.47706">
        <ele>1634.2</ele>
        <time>2019-05-30T07:24:40Z</time>
      </trkpt>
      <trkpt lat="44.81438" lon="5.47707">
        <ele>1634.4</ele>
        <time>2019-05-30T07:24:42Z</time>
      </trkpt>
      <trkpt lat="44.81441" lon="5.47708">
        <ele>1634.6</ele>
        <time>2019-05-30T07:24:45Z</time>
      </trkpt>
      <trkpt lat="44.81445" lon="5.47709">
        <ele>1634.8</ele>
        <time>2019-05-30T07:24:48Z</time>
      </trkpt>
      <trkpt lat="44.81448" lon="5.47709">
        <ele>1635</ele>
        <time>2019-05-30T07:24:51Z</time>
      </trkpt>
      <trkpt lat="44.81452" lon="5.4771">
        <ele>1635.3</ele>
        <time>2019-05-30T07:24:54Z</time>
      </trkpt>
      <trkpt lat="44.81455" lon="5.4771">
        <ele>1635.4</ele>
        <time>2019-05-30T07:24:57Z</time>
      </trkpt>
      <trkpt lat="44.81458" lon="5.4771">
        <ele>1635.6</ele>
        <time>2019-05-30T07:25:00Z</time>
      </trkpt>
      <trkpt lat="44.81462" lon="5.4771">
        <ele>1635.7</ele>
        <time>2019-05-30T07:25:03Z</time>
      </trkpt>
      <trkpt lat="44.81465" lon="5.47709">
        <ele>1635.8</ele>
        <time>2019-05-30T07:25:06Z</time>
      </trkpt>
      <trkpt lat="44.81469" lon="5.4771">
        <ele>1635.9</ele>
        <time>2019-05-30T07:25:09Z</time>
      </trkpt>
      <trkpt lat="44.81472" lon="5.4771">
        <ele>1636</ele>
        <time>2019-05-30T07:25:13Z</time>
      </trkpt>
      <trkpt lat="44.81475" lon="5.47711">
        <ele>1636</ele>
        <time>2019-05-30T07:25:17Z</time>
      </trkpt>
      <trkpt lat="44.81478" lon="5.47711">
        <ele>1636</ele>
        <time>2019-05-30T07:25:20Z</time>
      </trkpt>
      <trkpt lat="44.81481" lon="5.47712">
        <ele>1636</ele>
        <time>2019-05-30T07:25:22Z</time>
      </trkpt>
      <trkpt lat="44.81484" lon="5.47712">
        <ele>1636</ele>
        <time>2019-05-30T07:25:24Z</time>
      </trkpt>
      <trkpt lat="44.81487" lon="5.47711">
        <ele>1636</ele>
        <time>2019-05-30T07:25:26Z</time>
      </trkpt>
      <trkpt lat="44.8149" lon="5.47711">
        <ele>1635.9</ele>
        <time>2019-05-30T07:25:28Z</time>
      </trkpt>
      <trkpt lat="44.81493" lon="5.4771">
        <ele>1635.9</ele>
        <time>2019-05-30T07:25:31Z</time>
      </trkpt>
      <trkpt lat="44.81496" lon="5.4771">
        <ele>1635.9</ele>
        <time>2019-05-30T07:25:34Z</time>
      </trkpt>
      <trkpt lat="44.81499" lon="5.47709">
        <ele>1635.8</ele>
        <time>2019-05-30T07:25:37Z</time>
      </trkpt>
      <trkpt lat="44.81502" lon="5.47708">
        <ele>1635.7</ele>
        <time>2019-05-30T07:25:41Z</time>
      </trkpt>
      <trkpt lat="44.81506" lon="5.47708">
        <ele>1635.6</ele>
        <time>2019-05-30T07:25:45Z</time>
      </trkpt>
      <trkpt lat="44.81509" lon="5.47707">
        <ele>1635.5</ele>
        <time>2019-05-30T07:25:48Z</time>
      </trkpt>
      <trkpt lat="44.81512" lon="5.47706">
        <ele>1635.4</ele>
        <time>2019-05-30T07:25:51Z</time>
      </trkpt>
      <trkpt lat="44.81515" lon="5.47705">
        <ele>1635.2</ele>
        <time>2019-05-30T07:25:53Z</time>
      </trkpt>
      <trkpt lat="44.81519" lon="5.47704">
        <ele>1635</ele>
        <time>2019-05-30T07:25:56Z</time>
      </trkpt>
      <trkpt lat="44.81522" lon="5.47704">
        <ele>1634.9</ele>
        <time>2019-05-30T07:25:58Z</time>
      </trkpt>
      <trkpt lat="44.81525" lon="5.47703">
        <ele>1634.7</ele>
        <time>2019-05-30T07:26:01Z</time>
      </trkpt>
      <trkpt lat="44.81529" lon="5.47702">
        <ele>1634.4</ele>
        <time>2019-05-30T07:26:04Z</time>
      </trkpt>
      <trkpt lat="44.81533" lon="5.47702">
        <ele>1634.3</ele>
        <time>2019-05-30T07:26:07Z</time>
      </trkpt>
      <trkpt lat="44.81537" lon="5.47701">
        <ele>1634.2</ele>
        <time>2019-05-30T07:26:10Z</time>
      </trkpt>
      <trkpt lat="44.8154" lon="5.47702">
        <ele>1634</ele>
        <time>2019-05-30T07:26:13Z</time>
      </trkpt>
      <trkpt lat="44.81543" lon="5.47703">
        <ele>1633.9</ele>
        <time>2019-05-30T07:26:15Z</time>
      </trkpt>
      <trkpt lat="44.81546" lon="5.47704">
        <ele>1633.8</ele>
        <time>2019-05-30T07:26:18Z</time>
      </trkpt>
      <trkpt lat="44.8155" lon="5.47705">
        <ele>1633.7</ele>
        <time>2019-05-30T07:26:21Z</time>
      </trkpt>
      <trkpt lat="44.81553" lon="5.47708">
        <ele>1633.6</ele>
        <time>2019-05-30T07:26:24Z</time>
      </trkpt>
      <trkpt lat="44.81555" lon="5.47711">
        <ele>1633.4</ele>
        <time>2019-05-30T07:26:27Z</time>
      </trkpt>
      <trkpt lat="44.81557" lon="5.47714">
        <ele>1633.3</ele>
        <time>2019-05-30T07:26:29Z</time>
      </trkpt>
      <trkpt lat="44.81559" lon="5.47716">
        <ele>1633.2</ele>
        <time>2019-05-30T07:26:31Z</time>
      </trkpt>
      <trkpt lat="44.81562" lon="5.4772">
        <ele>1633.1</ele>
        <time>2019-05-30T07:26:34Z</time>
      </trkpt>
      <trkpt lat="44.81565" lon="5.47723">
        <ele>1632.9</ele>
        <time>2019-05-30T07:26:37Z</time>
      </trkpt>
      <trkpt lat="44.81567" lon="5.47725">
        <ele>1632.8</ele>
        <time>2019-05-30T07:26:40Z</time>
      </trkpt>
      <trkpt lat="44.8157" lon="5.47729">
        <ele>1632.8</ele>
        <time>2019-05-30T07:26:43Z</time>
      </trkpt>
      <trkpt lat="44.81573" lon="5.47731">
        <ele>1632.7</ele>
        <time>2019-05-30T07:26:46Z</time>
      </trkpt>
      <trkpt lat="44.81575" lon="5.47733">
        <ele>1632.7</ele>
        <time>2019-05-30T07:26:49Z</time>
      </trkpt>
      <trkpt lat="44.81578" lon="5.47735">
        <ele>1632.6</ele>
        <time>2019-05-30T07:26:52Z</time>
      </trkpt>
      <trkpt lat="44.81581" lon="5.47738">
        <ele>1632.5</ele>
        <time>2019-05-30T07:26:55Z</time>
      </trkpt>
      <trkpt lat="44.81583" lon="5.4774">
        <ele>1632.5</ele>
        <time>2019-05-30T07:26:57Z</time>
      </trkpt>
      <trkpt lat="44.81586" lon="5.47743">
        <ele>1632.4</ele>
        <time>2019-05-30T07:27:00Z</time>
      </trkpt>
      <trkpt lat="44.81589" lon="5.47746">
        <ele>1632.3</ele>
        <time>2019-05-30T07:27:03Z</time>
      </trkpt>
      <trkpt lat="44.81592" lon="5.47749">
        <ele>1632.1</ele>
        <time>2019-05-30T07:27:06Z</time>
      </trkpt>
      <trkpt lat="44.81595" lon="5.47752">
        <ele>1632</ele>
        <time>2019-05-30T07:27:09Z</time>
      </trkpt>
      <trkpt lat="44.81597" lon="5.47755">
        <ele>1631.8</ele>
        <time>2019-05-30T07:27:12Z</time>
      </trkpt>
      <trkpt lat="44.81599" lon="5.47758">
        <ele>1631.7</ele>
        <time>2019-05-30T07:27:15Z</time>
      </trkpt>
      <trkpt lat="44.81601" lon="5.47762">
        <ele>1631.6</ele>
        <time>2019-05-30T07:27:18Z</time>
      </trkpt>
      <trkpt lat="44.81603" lon="5.47766">
        <ele>1631.5</ele>
        <time>2019-05-30T07:27:21Z</time>
      </trkpt>
      <trkpt lat="44.81606" lon="5.47769">
        <ele>1631.4</ele>
        <time>2019-05-30T07:27:23Z</time>
      </trkpt>
      <trkpt lat="44.81608" lon="5.47773">
        <ele>1631.2</ele>
        <time>2019-05-30T07:27:26Z</time>
      </trkpt>
      <trkpt lat="44.81609" lon="5.47776">
        <ele>1631.6</ele>
        <time>2019-05-30T07:27:29Z</time>
      </trkpt>
      <trkpt lat="44.81612" lon="5.4778">
        <ele>1632.6</ele>
        <time>2019-05-30T07:27:32Z</time>
      </trkpt>
      <trkpt lat="44.81613" lon="5.47784">
        <ele>1633.8</ele>
        <time>2019-05-30T07:27:35Z</time>
      </trkpt>
      <trkpt lat="44.81613" lon="5.47788">
        <ele>1634.1</ele>
        <time>2019-05-30T07:27:38Z</time>
      </trkpt>
      <trkpt lat="44.81614" lon="5.47791">
        <ele>1634.3</ele>
        <time>2019-05-30T07:27:41Z</time>
      </trkpt>
      <trkpt lat="44.81615" lon="5.47796">
        <ele>1634.8</ele>
        <time>2019-05-30T07:27:44Z</time>
      </trkpt>
      <trkpt lat="44.81617" lon="5.478">
        <ele>1635.7</ele>
        <time>2019-05-30T07:27:47Z</time>
      </trkpt>
      <trkpt lat="44.81619" lon="5.47805">
        <ele>1636.8</ele>
        <time>2019-05-30T07:27:50Z</time>
      </trkpt>
      <trkpt lat="44.81621" lon="5.47809">
        <ele>1637.2</ele>
        <time>2019-05-30T07:27:53Z</time>
      </trkpt>
      <trkpt lat="44.81622" lon="5.47813">
        <ele>1637.5</ele>
        <time>2019-05-30T07:27:55Z</time>
      </trkpt>
      <trkpt lat="44.81624" lon="5.47817">
        <ele>1637.8</ele>
        <time>2019-05-30T07:27:57Z</time>
      </trkpt>
      <trkpt lat="44.81625" lon="5.4782">
        <ele>1638.2</ele>
        <time>2019-05-30T07:27:59Z</time>
      </trkpt>
      <trkpt lat="44.81627" lon="5.47824">
        <ele>1638.7</ele>
        <time>2019-05-30T07:28:02Z</time>
      </trkpt>
      <trkpt lat="44.81628" lon="5.47827">
        <ele>1639.1</ele>
        <time>2019-05-30T07:28:05Z</time>
      </trkpt>
      <trkpt lat="44.81631" lon="5.47831">
        <ele>1639.4</ele>
        <time>2019-05-30T07:28:09Z</time>
      </trkpt>
      <trkpt lat="44.81633" lon="5.47834">
        <ele>1640.3</ele>
        <time>2019-05-30T07:28:13Z</time>
      </trkpt>
      <trkpt lat="44.81636" lon="5.47836">
        <ele>1639.8</ele>
        <time>2019-05-30T07:28:16Z</time>
      </trkpt>
      <trkpt lat="44.81639" lon="5.47837">
        <ele>1639.5</ele>
        <time>2019-05-30T07:28:19Z</time>
      </trkpt>
      <trkpt lat="44.81642" lon="5.47839">
        <ele>1639</ele>
        <time>2019-05-30T07:28:22Z</time>
      </trkpt>
      <trkpt lat="44.81645" lon="5.47841">
        <ele>1638.5</ele>
        <time>2019-05-30T07:28:25Z</time>
      </trkpt>
      <trkpt lat="44.81648" lon="5.47842">
        <ele>1638.1</ele>
        <time>2019-05-30T07:28:28Z</time>
      </trkpt>
      <trkpt lat="44.81652" lon="5.47844">
        <ele>1637.6</ele>
        <time>2019-05-30T07:28:31Z</time>
      </trkpt>
      <trkpt lat="44.81655" lon="5.47843">
        <ele>1637.2</ele>
        <time>2019-05-30T07:28:34Z</time>
      </trkpt>
      <trkpt lat="44.81658" lon="5.47841">
        <ele>1636.8</ele>
        <time>2019-05-30T07:28:39Z</time>
      </trkpt>
      <trkpt lat="44.81659" lon="5.47845">
        <ele>1636.4</ele>
        <time>2019-05-30T07:29:18Z</time>
      </trkpt>
      <trkpt lat="44.81662" lon="5.47849">
        <ele>1636</ele>
        <time>2019-05-30T07:29:21Z</time>
      </trkpt>
      <trkpt lat="44.81665" lon="5.47852">
        <ele>1635.4</ele>
        <time>2019-05-30T07:29:24Z</time>
      </trkpt>
      <trkpt lat="44.81668" lon="5.47854">
        <ele>1635</ele>
        <time>2019-05-30T07:29:26Z</time>
      </trkpt>
      <trkpt lat="44.81671" lon="5.47857">
        <ele>1634.4</ele>
        <time>2019-05-30T07:29:28Z</time>
      </trkpt>
      <trkpt lat="44.81675" lon="5.47858">
        <ele>1634</ele>
        <time>2019-05-30T07:29:30Z</time>
      </trkpt>
      <trkpt lat="44.81677" lon="5.4786">
        <ele>1633.6</ele>
        <time>2019-05-30T07:29:32Z</time>
      </trkpt>
      <trkpt lat="44.8168" lon="5.47862">
        <ele>1633.4</ele>
        <time>2019-05-30T07:29:34Z</time>
      </trkpt>
      <trkpt lat="44.81683" lon="5.47864">
        <ele>1633.1</ele>
        <time>2019-05-30T07:29:37Z</time>
      </trkpt>
      <trkpt lat="44.81686" lon="5.47866">
        <ele>1632.9</ele>
        <time>2019-05-30T07:29:40Z</time>
      </trkpt>
      <trkpt lat="44.81689" lon="5.47869">
        <ele>1632.8</ele>
        <time>2019-05-30T07:29:43Z</time>
      </trkpt>
      <trkpt lat="44.81691" lon="5.47872">
        <ele>1632.7</ele>
        <time>2019-05-30T07:29:46Z</time>
      </trkpt>
      <trkpt lat="44.81694" lon="5.47876">
        <ele>1632.7</ele>
        <time>2019-05-30T07:29:49Z</time>
      </trkpt>
      <trkpt lat="44.81696" lon="5.47879">
        <ele>1632.7</ele>
        <time>2019-05-30T07:29:52Z</time>
      </trkpt>
      <trkpt lat="44.81699" lon="5.47882">
        <ele>1632.8</ele>
        <time>2019-05-30T07:29:54Z</time>
      </trkpt>
      <trkpt lat="44.81701" lon="5.47885">
        <ele>1632.9</ele>
        <time>2019-05-30T07:29:57Z</time>
      </trkpt>
      <trkpt lat="44.81703" lon="5.47888">
        <ele>1632.9</ele>
        <time>2019-05-30T07:29:59Z</time>
      </trkpt>
      <trkpt lat="44.81705" lon="5.47891">
        <ele>1633</ele>
        <time>2019-05-30T07:30:01Z</time>
      </trkpt>
      <trkpt lat="44.81707" lon="5.47894">
        <ele>1633</ele>
        <time>2019-05-30T07:30:04Z</time>
      </trkpt>
      <trkpt lat="44.81709" lon="5.47897">
        <ele>1633.1</ele>
        <time>2019-05-30T07:30:07Z</time>
      </trkpt>
      <trkpt lat="44.81711" lon="5.47901">
        <ele>1633.1</ele>
        <time>2019-05-30T07:30:10Z</time>
      </trkpt>
      <trkpt lat="44.81714" lon="5.47903">
        <ele>1633.2</ele>
        <time>2019-05-30T07:30:13Z</time>
      </trkpt>
      <trkpt lat="44.81717" lon="5.47906">
        <ele>1633.3</ele>
        <time>2019-05-30T07:30:16Z</time>
      </trkpt>
      <trkpt lat="44.81719" lon="5.47908">
        <ele>1633.4</ele>
        <time>2019-05-30T07:30:18Z</time>
      </trkpt>
      <trkpt lat="44.81722" lon="5.47912">
        <ele>1633.5</ele>
        <time>2019-05-30T07:30:21Z</time>
      </trkpt>
      <trkpt lat="44.81724" lon="5.47915">
        <ele>1633.7</ele>
        <time>2019-05-30T07:30:23Z</time>
      </trkpt>
      <trkpt lat="44.81727" lon="5.47918">
        <ele>1633.9</ele>
        <time>2019-05-30T07:30:26Z</time>
      </trkpt>
      <trkpt lat="44.81729" lon="5.47922">
        <ele>1634.1</ele>
        <time>2019-05-30T07:30:29Z</time>
      </trkpt>
      <trkpt lat="44.81731" lon="5.47925">
        <ele>1634.3</ele>
        <time>2019-05-30T07:30:31Z</time>
      </trkpt>
      <trkpt lat="44.81734" lon="5.47929">
        <ele>1634.5</ele>
        <time>2019-05-30T07:30:34Z</time>
      </trkpt>
      <trkpt lat="44.81736" lon="5.47933">
        <ele>1634.9</ele>
        <time>2019-05-30T07:30:37Z</time>
      </trkpt>
      <trkpt lat="44.81738" lon="5.47937">
        <ele>1635.1</ele>
        <time>2019-05-30T07:30:39Z</time>
      </trkpt>
      <trkpt lat="44.8174" lon="5.47941">
        <ele>1635.4</ele>
        <time>2019-05-30T07:30:41Z</time>
      </trkpt>
      <trkpt lat="44.81742" lon="5.47944">
        <ele>1635.7</ele>
        <time>2019-05-30T07:30:43Z</time>
      </trkpt>
      <trkpt lat="44.81745" lon="5.47947">
        <ele>1636</ele>
        <time>2019-05-30T07:30:46Z</time>
      </trkpt>
      <trkpt lat="44.81748" lon="5.4795">
        <ele>1636.3</ele>
        <time>2019-05-30T07:30:49Z</time>
      </trkpt>
      <trkpt lat="44.8175" lon="5.47953">
        <ele>1636.6</ele>
        <time>2019-05-30T07:30:51Z</time>
      </trkpt>
      <trkpt lat="44.81752" lon="5.47956">
        <ele>1636.9</ele>
        <time>2019-05-30T07:30:53Z</time>
      </trkpt>
      <trkpt lat="44.81756" lon="5.47959">
        <ele>1637.4</ele>
        <time>2019-05-30T07:30:56Z</time>
      </trkpt>
      <trkpt lat="44.81758" lon="5.47961">
        <ele>1637.7</ele>
        <time>2019-05-30T07:30:58Z</time>
      </trkpt>
      <trkpt lat="44.81761" lon="5.47964">
        <ele>1638.1</ele>
        <time>2019-05-30T07:31:01Z</time>
      </trkpt>
      <trkpt lat="44.81763" lon="5.47967">
        <ele>1638.4</ele>
        <time>2019-05-30T07:31:04Z</time>
      </trkpt>
      <trkpt lat="44.81765" lon="5.4797">
        <ele>1638.7</ele>
        <time>2019-05-30T07:31:07Z</time>
      </trkpt>
      <trkpt lat="44.81767" lon="5.47973">
        <ele>1639</ele>
        <time>2019-05-30T07:31:10Z</time>
      </trkpt>
      <trkpt lat="44.8177" lon="5.47977">
        <ele>1639.2</ele>
        <time>2019-05-30T07:31:13Z</time>
      </trkpt>
      <trkpt lat="44.81773" lon="5.4798">
        <ele>1639.2</ele>
        <time>2019-05-30T07:31:16Z</time>
      </trkpt>
      <trkpt lat="44.81776" lon="5.47984">
        <ele>1639.2</ele>
        <time>2019-05-30T07:31:19Z</time>
      </trkpt>
      <trkpt lat="44.81779" lon="5.47986">
        <ele>1639.1</ele>
        <time>2019-05-30T07:31:22Z</time>
      </trkpt>
      <trkpt lat="44.81783" lon="5.47988">
        <ele>1639</ele>
        <time>2019-05-30T07:31:25Z</time>
      </trkpt>
      <trkpt lat="44.81787" lon="5.47989">
        <ele>1638.9</ele>
        <time>2019-05-30T07:31:28Z</time>
      </trkpt>
      <trkpt lat="44.8179" lon="5.47992">
        <ele>1638.8</ele>
        <time>2019-05-30T07:31:31Z</time>
      </trkpt>
      <trkpt lat="44.81792" lon="5.47995">
        <ele>1638.8</ele>
        <time>2019-05-30T07:31:33Z</time>
      </trkpt>
      <trkpt lat="44.81794" lon="5.47998">
        <ele>1638.7</ele>
        <time>2019-05-30T07:31:35Z</time>
      </trkpt>
      <trkpt lat="44.81796" lon="5.48002">
        <ele>1638.6</ele>
        <time>2019-05-30T07:31:38Z</time>
      </trkpt>
      <trkpt lat="44.81798" lon="5.48006">
        <ele>1638.6</ele>
        <time>2019-05-30T07:31:41Z</time>
      </trkpt>
      <trkpt lat="44.81801" lon="5.48009">
        <ele>1638.6</ele>
        <time>2019-05-30T07:31:43Z</time>
      </trkpt>
      <trkpt lat="44.81803" lon="5.48014">
        <ele>1638.6</ele>
        <time>2019-05-30T07:31:46Z</time>
      </trkpt>
      <trkpt lat="44.81805" lon="5.48017">
        <ele>1638.7</ele>
        <time>2019-05-30T07:31:48Z</time>
      </trkpt>
      <trkpt lat="44.81807" lon="5.4802">
        <ele>1638.8</ele>
        <time>2019-05-30T07:31:50Z</time>
      </trkpt>
      <trkpt lat="44.81809" lon="5.48024">
        <ele>1638.9</ele>
        <time>2019-05-30T07:31:53Z</time>
      </trkpt>
      <trkpt lat="44.8181" lon="5.48027">
        <ele>1639</ele>
        <time>2019-05-30T07:31:55Z</time>
      </trkpt>
      <trkpt lat="44.81812" lon="5.48032">
        <ele>1639.2</ele>
        <time>2019-05-30T07:31:58Z</time>
      </trkpt>
      <trkpt lat="44.81814" lon="5.48036">
        <ele>1639.4</ele>
        <time>2019-05-30T07:32:02Z</time>
      </trkpt>
      <trkpt lat="44.81815" lon="5.4804">
        <ele>1639.6</ele>
        <time>2019-05-30T07:32:05Z</time>
      </trkpt>
      <trkpt lat="44.81817" lon="5.48044">
        <ele>1639.9</ele>
        <time>2019-05-30T07:32:09Z</time>
      </trkpt>
      <trkpt lat="44.81819" lon="5.48047">
        <ele>1640.1</ele>
        <time>2019-05-30T07:32:12Z</time>
      </trkpt>
      <trkpt lat="44.8182" lon="5.4805">
        <ele>1640.3</ele>
        <time>2019-05-30T07:32:15Z</time>
      </trkpt>
      <trkpt lat="44.81822" lon="5.48053">
        <ele>1640.4</ele>
        <time>2019-05-30T07:32:18Z</time>
      </trkpt>
      <trkpt lat="44.81825" lon="5.48058">
        <ele>1640.7</ele>
        <time>2019-05-30T07:32:21Z</time>
      </trkpt>
      <trkpt lat="44.81827" lon="5.48061">
        <ele>1640.9</ele>
        <time>2019-05-30T07:32:23Z</time>
      </trkpt>
      <trkpt lat="44.81828" lon="5.48064">
        <ele>1641.1</ele>
        <time>2019-05-30T07:32:25Z</time>
      </trkpt>
      <trkpt lat="44.8183" lon="5.48068">
        <ele>1641.3</ele>
        <time>2019-05-30T07:32:27Z</time>
      </trkpt>
      <trkpt lat="44.81832" lon="5.48071">
        <ele>1641.5</ele>
        <time>2019-05-30T07:32:29Z</time>
      </trkpt>
      <trkpt lat="44.81834" lon="5.48074">
        <ele>1641.7</ele>
        <time>2019-05-30T07:32:33Z</time>
      </trkpt>
      <trkpt lat="44.81832" lon="5.48078">
        <ele>1641.8</ele>
        <time>2019-05-30T07:32:51Z</time>
      </trkpt>
      <trkpt lat="44.81835" lon="5.48081">
        <ele>1641</ele>
        <time>2019-05-30T07:32:55Z</time>
      </trkpt>
      <trkpt lat="44.81836" lon="5.48085">
        <ele>1640.8</ele>
        <time>2019-05-30T07:32:58Z</time>
      </trkpt>
      <trkpt lat="44.81837" lon="5.48089">
        <ele>1640.6</ele>
        <time>2019-05-30T07:33:01Z</time>
      </trkpt>
      <trkpt lat="44.81839" lon="5.48094">
        <ele>1640.4</ele>
        <time>2019-05-30T07:33:04Z</time>
      </trkpt>
      <trkpt lat="44.8184" lon="5.48098">
        <ele>1640.3</ele>
        <time>2019-05-30T07:33:06Z</time>
      </trkpt>
      <trkpt lat="44.81841" lon="5.48102">
        <ele>1640.2</ele>
        <time>2019-05-30T07:33:08Z</time>
      </trkpt>
      <trkpt lat="44.81842" lon="5.48106">
        <ele>1640.1</ele>
        <time>2019-05-30T07:33:10Z</time>
      </trkpt>
      <trkpt lat="44.81843" lon="5.48111">
        <ele>1639.9</ele>
        <time>2019-05-30T07:33:13Z</time>
      </trkpt>
      <trkpt lat="44.81844" lon="5.48115">
        <ele>1639.8</ele>
        <time>2019-05-30T07:33:16Z</time>
      </trkpt>
      <trkpt lat="44.81846" lon="5.48118">
        <ele>1639.6</ele>
        <time>2019-05-30T07:33:19Z</time>
      </trkpt>
      <trkpt lat="44.81848" lon="5.48122">
        <ele>1639.3</ele>
        <time>2019-05-30T07:33:23Z</time>
      </trkpt>
      <trkpt lat="44.81851" lon="5.48124">
        <ele>1639</ele>
        <time>2019-05-30T07:33:26Z</time>
      </trkpt>
      <trkpt lat="44.81852" lon="5.48127">
        <ele>1638.7</ele>
        <time>2019-05-30T07:33:29Z</time>
      </trkpt>
      <trkpt lat="44.81854" lon="5.4813">
        <ele>1638.5</ele>
        <time>2019-05-30T07:33:32Z</time>
      </trkpt>
      <trkpt lat="44.81857" lon="5.48132">
        <ele>1638.1</ele>
        <time>2019-05-30T07:33:35Z</time>
      </trkpt>
      <trkpt lat="44.8186" lon="5.48131">
        <ele>1637.8</ele>
        <time>2019-05-30T07:33:39Z</time>
      </trkpt>
      <trkpt lat="44.81862" lon="5.48134">
        <ele>1637.5</ele>
        <time>2019-05-30T07:33:59Z</time>
      </trkpt>
      <trkpt lat="44.81864" lon="5.48138">
        <ele>1637.2</ele>
        <time>2019-05-30T07:34:02Z</time>
      </trkpt>
      <trkpt lat="44.81866" lon="5.48141">
        <ele>1636.8</ele>
        <time>2019-05-30T07:34:05Z</time>
      </trkpt>
      <trkpt lat="44.81869" lon="5.48143">
        <ele>1636.5</ele>
        <time>2019-05-30T07:34:08Z</time>
      </trkpt>
      <trkpt lat="44.81872" lon="5.48146">
        <ele>1636.1</ele>
        <time>2019-05-30T07:34:11Z</time>
      </trkpt>
      <trkpt lat="44.81874" lon="5.48149">
        <ele>1635.8</ele>
        <time>2019-05-30T07:34:14Z</time>
      </trkpt>
      <trkpt lat="44.8187" lon="5.48146">
        <ele>1635.4</ele>
        <time>2019-05-30T07:35:23Z</time>
      </trkpt>
      <trkpt lat="44.81872" lon="5.4815">
        <ele>1635.1</ele>
        <time>2019-05-30T07:35:28Z</time>
      </trkpt>
      <trkpt lat="44.81874" lon="5.48154">
        <ele>1634.8</ele>
        <time>2019-05-30T07:35:31Z</time>
      </trkpt>
      <trkpt lat="44.81877" lon="5.48158">
        <ele>1633.9</ele>
        <time>2019-05-30T07:35:33Z</time>
      </trkpt>
      <trkpt lat="44.81879" lon="5.48162">
        <ele>1633.8</ele>
        <time>2019-05-30T07:35:35Z</time>
      </trkpt>
      <trkpt lat="44.81881" lon="5.48165">
        <ele>1633.6</ele>
        <time>2019-05-30T07:35:37Z</time>
      </trkpt>
      <trkpt lat="44.81884" lon="5.48168">
        <ele>1633.5</ele>
        <time>2019-05-30T07:35:39Z</time>
      </trkpt>
      <trkpt lat="44.81886" lon="5.48171">
        <ele>1633.4</ele>
        <time>2019-05-30T07:35:42Z</time>
      </trkpt>
      <trkpt lat="44.81888" lon="5.48175">
        <ele>1633.3</ele>
        <time>2019-05-30T07:35:45Z</time>
      </trkpt>
      <trkpt lat="44.8189" lon="5.48179">
        <ele>1633.2</ele>
        <time>2019-05-30T07:35:48Z</time>
      </trkpt>
      <trkpt lat="44.81893" lon="5.48183">
        <ele>1633</ele>
        <time>2019-05-30T07:35:51Z</time>
      </trkpt>
      <trkpt lat="44.81894" lon="5.48186">
        <ele>1632.9</ele>
        <time>2019-05-30T07:35:53Z</time>
      </trkpt>
      <trkpt lat="44.81897" lon="5.4819">
        <ele>1632.8</ele>
        <time>2019-05-30T07:35:55Z</time>
      </trkpt>
      <trkpt lat="44.81899" lon="5.48193">
        <ele>1632.8</ele>
        <time>2019-05-30T07:35:57Z</time>
      </trkpt>
      <trkpt lat="44.81901" lon="5.48197">
        <ele>1632.6</ele>
        <time>2019-05-30T07:36:00Z</time>
      </trkpt>
      <trkpt lat="44.81903" lon="5.48201">
        <ele>1632.6</ele>
        <time>2019-05-30T07:36:02Z</time>
      </trkpt>
      <trkpt lat="44.81905" lon="5.48204">
        <ele>1632.6</ele>
        <time>2019-05-30T07:36:04Z</time>
      </trkpt>
      <trkpt lat="44.81907" lon="5.48206">
        <ele>1632.6</ele>
        <time>2019-05-30T07:36:06Z</time>
      </trkpt>
      <trkpt lat="44.8191" lon="5.48209">
        <ele>1632.6</ele>
        <time>2019-05-30T07:36:08Z</time>
      </trkpt>
      <trkpt lat="44.81912" lon="5.48212">
        <ele>1632.6</ele>
        <time>2019-05-30T07:36:10Z</time>
      </trkpt>
      <trkpt lat="44.81915" lon="5.48216">
        <ele>1632.6</ele>
        <time>2019-05-30T07:36:13Z</time>
      </trkpt>
      <trkpt lat="44.81917" lon="5.48219">
        <ele>1632.7</ele>
        <time>2019-05-30T07:36:16Z</time>
      </trkpt>
      <trkpt lat="44.81919" lon="5.48224">
        <ele>1632.8</ele>
        <time>2019-05-30T07:36:38Z</time>
      </trkpt>
      <trkpt lat="44.81921" lon="5.48229">
        <ele>1632.9</ele>
        <time>2019-05-30T07:36:41Z</time>
      </trkpt>
      <trkpt lat="44.81922" lon="5.48232">
        <ele>1632.9</ele>
        <time>2019-05-30T07:36:43Z</time>
      </trkpt>
      <trkpt lat="44.81924" lon="5.48236">
        <ele>1633</ele>
        <time>2019-05-30T07:36:45Z</time>
      </trkpt>
      <trkpt lat="44.81926" lon="5.48239">
        <ele>1633.2</ele>
        <time>2019-05-30T07:36:47Z</time>
      </trkpt>
      <trkpt lat="44.81928" lon="5.48243">
        <ele>1633.3</ele>
        <time>2019-05-30T07:36:50Z</time>
      </trkpt>
      <trkpt lat="44.81929" lon="5.48247">
        <ele>1633.4</ele>
        <time>2019-05-30T07:36:53Z</time>
      </trkpt>
      <trkpt lat="44.8193" lon="5.48251">
        <ele>1633.6</ele>
        <time>2019-05-30T07:36:56Z</time>
      </trkpt>
      <trkpt lat="44.81931" lon="5.48255">
        <ele>1633.7</ele>
        <time>2019-05-30T07:36:58Z</time>
      </trkpt>
      <trkpt lat="44.81932" lon="5.48259">
        <ele>1633.8</ele>
        <time>2019-05-30T07:37:00Z</time>
      </trkpt>
      <trkpt lat="44.81933" lon="5.48263">
        <ele>1633.9</ele>
        <time>2019-05-30T07:37:02Z</time>
      </trkpt>
      <trkpt lat="44.81934" lon="5.48268">
        <ele>1634</ele>
        <time>2019-05-30T07:37:04Z</time>
      </trkpt>
      <trkpt lat="44.81934" lon="5.48273">
        <ele>1634.2</ele>
        <time>2019-05-30T07:37:06Z</time>
      </trkpt>
      <trkpt lat="44.81935" lon="5.48277">
        <ele>1634.5</ele>
        <time>2019-05-30T07:37:08Z</time>
      </trkpt>
      <trkpt lat="44.81935" lon="5.48281">
        <ele>1634.7</ele>
        <time>2019-05-30T07:37:10Z</time>
      </trkpt>
      <trkpt lat="44.81935" lon="5.48285">
        <ele>1634.9</ele>
        <time>2019-05-30T07:37:12Z</time>
      </trkpt>
      <trkpt lat="44.81935" lon="5.4829">
        <ele>1635.1</ele>
        <time>2019-05-30T07:37:14Z</time>
      </trkpt>
      <trkpt lat="44.81935" lon="5.48294">
        <ele>1635.3</ele>
        <time>2019-05-30T07:37:16Z</time>
      </trkpt>
      <trkpt lat="44.81935" lon="5.48298">
        <ele>1635.5</ele>
        <time>2019-05-30T07:37:18Z</time>
      </trkpt>
      <trkpt lat="44.81935" lon="5.48303">
        <ele>1635.7</ele>
        <time>2019-05-30T07:37:21Z</time>
      </trkpt>
      <trkpt lat="44.81935" lon="5.48308">
        <ele>1636</ele>
        <time>2019-05-30T07:37:24Z</time>
      </trkpt>
      <trkpt lat="44.81936" lon="5.48312">
        <ele>1636.3</ele>
        <time>2019-05-30T07:37:27Z</time>
      </trkpt>
      <trkpt lat="44.81937" lon="5.48316">
        <ele>1636.5</ele>
        <time>2019-05-30T07:37:30Z</time>
      </trkpt>
      <trkpt lat="44.81939" lon="5.48319">
        <ele>1636.7</ele>
        <time>2019-05-30T07:37:33Z</time>
      </trkpt>
      <trkpt lat="44.81941" lon="5.48323">
        <ele>1636.9</ele>
        <time>2019-05-30T07:37:36Z</time>
      </trkpt>
      <trkpt lat="44.81943" lon="5.48327">
        <ele>1637</ele>
        <time>2019-05-30T07:37:39Z</time>
      </trkpt>
      <trkpt lat="44.81944" lon="5.48331">
        <ele>1637.2</ele>
        <time>2019-05-30T07:37:42Z</time>
      </trkpt>
      <trkpt lat="44.81945" lon="5.48336">
        <ele>1637.3</ele>
        <time>2019-05-30T07:37:45Z</time>
      </trkpt>
      <trkpt lat="44.81945" lon="5.4834">
        <ele>1637.4</ele>
        <time>2019-05-30T07:37:48Z</time>
      </trkpt>
      <trkpt lat="44.81946" lon="5.48346">
        <ele>1637.6</ele>
        <time>2019-05-30T07:37:51Z</time>
      </trkpt>
      <trkpt lat="44.81946" lon="5.48351">
        <ele>1637.7</ele>
        <time>2019-05-30T07:37:54Z</time>
      </trkpt>
      <trkpt lat="44.81948" lon="5.48356">
        <ele>1637.8</ele>
        <time>2019-05-30T07:37:57Z</time>
      </trkpt>
      <trkpt lat="44.8195" lon="5.48359">
        <ele>1637.8</ele>
        <time>2019-05-30T07:38:00Z</time>
      </trkpt>
      <trkpt lat="44.81952" lon="5.48363">
        <ele>1637.8</ele>
        <time>2019-05-30T07:38:04Z</time>
      </trkpt>
      <trkpt lat="44.81953" lon="5.48367">
        <ele>1637.8</ele>
        <time>2019-05-30T07:38:07Z</time>
      </trkpt>
      <trkpt lat="44.81954" lon="5.4837">
        <ele>1637.8</ele>
        <time>2019-05-30T07:38:09Z</time>
      </trkpt>
      <trkpt lat="44.81956" lon="5.48374">
        <ele>1637.8</ele>
        <time>2019-05-30T07:38:11Z</time>
      </trkpt>
      <trkpt lat="44.81959" lon="5.48377">
        <ele>1637.8</ele>
        <time>2019-05-30T07:38:13Z</time>
      </trkpt>
      <trkpt lat="44.81961" lon="5.4838">
        <ele>1637.9</ele>
        <time>2019-05-30T07:38:15Z</time>
      </trkpt>
      <trkpt lat="44.81964" lon="5.48384">
        <ele>1637.9</ele>
        <time>2019-05-30T07:38:17Z</time>
      </trkpt>
      <trkpt lat="44.81966" lon="5.48387">
        <ele>1637.9</ele>
        <time>2019-05-30T07:38:19Z</time>
      </trkpt>
      <trkpt lat="44.81969" lon="5.4839">
        <ele>1637.9</ele>
        <time>2019-05-30T07:38:21Z</time>
      </trkpt>
      <trkpt lat="44.81972" lon="5.48393">
        <ele>1637.9</ele>
        <time>2019-05-30T07:38:23Z</time>
      </trkpt>
      <trkpt lat="44.81974" lon="5.48395">
        <ele>1637.9</ele>
        <time>2019-05-30T07:38:25Z</time>
      </trkpt>
      <trkpt lat="44.81978" lon="5.48398">
        <ele>1638</ele>
        <time>2019-05-30T07:38:28Z</time>
      </trkpt>
      <trkpt lat="44.81981" lon="5.484">
        <ele>1637.9</ele>
        <time>2019-05-30T07:38:31Z</time>
      </trkpt>
      <trkpt lat="44.81983" lon="5.48404">
        <ele>1637.9</ele>
        <time>2019-05-30T07:38:35Z</time>
      </trkpt>
      <trkpt lat="44.81985" lon="5.48406">
        <ele>1637.9</ele>
        <time>2019-05-30T07:38:43Z</time>
      </trkpt>
      <trkpt lat="44.81989" lon="5.48407">
        <ele>1637.8</ele>
        <time>2019-05-30T07:38:46Z</time>
      </trkpt>
      <trkpt lat="44.81993" lon="5.48408">
        <ele>1637.6</ele>
        <time>2019-05-30T07:38:52Z</time>
      </trkpt>
      <trkpt lat="44.81996" lon="5.4841">
        <ele>1637.5</ele>
        <time>2019-05-30T07:38:54Z</time>
      </trkpt>
      <trkpt lat="44.81999" lon="5.48411">
        <ele>1637.3</ele>
        <time>2019-05-30T07:38:56Z</time>
      </trkpt>
      <trkpt lat="44.82001" lon="5.48414">
        <ele>1637.2</ele>
        <time>2019-05-30T07:38:58Z</time>
      </trkpt>
      <trkpt lat="44.82003" lon="5.48418">
        <ele>1637</ele>
        <time>2019-05-30T07:39:01Z</time>
      </trkpt>
      <trkpt lat="44.82006" lon="5.48422">
        <ele>1636.8</ele>
        <time>2019-05-30T07:39:04Z</time>
      </trkpt>
      <trkpt lat="44.82009" lon="5.48425">
        <ele>1636.4</ele>
        <time>2019-05-30T07:39:07Z</time>
      </trkpt>
      <trkpt lat="44.82012" lon="5.48427">
        <ele>1636.1</ele>
        <time>2019-05-30T07:39:09Z</time>
      </trkpt>
      <trkpt lat="44.82015" lon="5.48429">
        <ele>1635.8</ele>
        <time>2019-05-30T07:39:11Z</time>
      </trkpt>
      <trkpt lat="44.82018" lon="5.4843">
        <ele>1635.5</ele>
        <time>2019-05-30T07:39:13Z</time>
      </trkpt>
      <trkpt lat="44.82021" lon="5.48432">
        <ele>1635.1</ele>
        <time>2019-05-30T07:39:16Z</time>
      </trkpt>
      <trkpt lat="44.82025" lon="5.48433">
        <ele>1634.7</ele>
        <time>2019-05-30T07:39:19Z</time>
      </trkpt>
      <trkpt lat="44.82028" lon="5.48434">
        <ele>1634.4</ele>
        <time>2019-05-30T07:39:21Z</time>
      </trkpt>
      <trkpt lat="44.82031" lon="5.48435">
        <ele>1634</ele>
        <time>2019-05-30T07:39:23Z</time>
      </trkpt>
      <trkpt lat="44.82034" lon="5.48437">
        <ele>1633.7</ele>
        <time>2019-05-30T07:39:25Z</time>
      </trkpt>
      <trkpt lat="44.82037" lon="5.48438">
        <ele>1633.4</ele>
        <time>2019-05-30T07:39:27Z</time>
      </trkpt>
      <trkpt lat="44.82041" lon="5.4844">
        <ele>1633.1</ele>
        <time>2019-05-30T07:39:30Z</time>
      </trkpt>
      <trkpt lat="44.82044" lon="5.48442">
        <ele>1633</ele>
        <time>2019-05-30T07:39:33Z</time>
      </trkpt>
      <trkpt lat="44.82047" lon="5.48444">
        <ele>1632.9</ele>
        <time>2019-05-30T07:39:37Z</time>
      </trkpt>
      <trkpt lat="44.82051" lon="5.48445">
        <ele>1632.7</ele>
        <time>2019-05-30T07:39:40Z</time>
      </trkpt>
      <trkpt lat="44.82054" lon="5.48446">
        <ele>1632.7</ele>
        <time>2019-05-30T07:39:42Z</time>
      </trkpt>
      <trkpt lat="44.82057" lon="5.48447">
        <ele>1632.6</ele>
        <time>2019-05-30T07:39:44Z</time>
      </trkpt>
      <trkpt lat="44.8206" lon="5.48448">
        <ele>1632.6</ele>
        <time>2019-05-30T07:39:46Z</time>
      </trkpt>
      <trkpt lat="44.82063" lon="5.4845">
        <ele>1632.6</ele>
        <time>2019-05-30T07:39:49Z</time>
      </trkpt>
      <trkpt lat="44.82065" lon="5.48452">
        <ele>1632.6</ele>
        <time>2019-05-30T07:39:52Z</time>
      </trkpt>
      <trkpt lat="44.82068" lon="5.48454">
        <ele>1632.7</ele>
        <time>2019-05-30T07:39:55Z</time>
      </trkpt>
      <trkpt lat="44.8207" lon="5.48456">
        <ele>1632.7</ele>
        <time>2019-05-30T07:39:58Z</time>
      </trkpt>
      <trkpt lat="44.82073" lon="5.4846">
        <ele>1632.8</ele>
        <time>2019-05-30T07:40:01Z</time>
      </trkpt>
      <trkpt lat="44.82076" lon="5.48463">
        <ele>1632.9</ele>
        <time>2019-05-30T07:40:04Z</time>
      </trkpt>
      <trkpt lat="44.82078" lon="5.48467">
        <ele>1633</ele>
        <time>2019-05-30T07:40:07Z</time>
      </trkpt>
      <trkpt lat="44.8208" lon="5.4847">
        <ele>1633.1</ele>
        <time>2019-05-30T07:40:10Z</time>
      </trkpt>
      <trkpt lat="44.82082" lon="5.48474">
        <ele>1633.1</ele>
        <time>2019-05-30T07:40:13Z</time>
      </trkpt>
      <trkpt lat="44.82085" lon="5.48477">
        <ele>1633.1</ele>
        <time>2019-05-30T07:40:15Z</time>
      </trkpt>
      <trkpt lat="44.82088" lon="5.48479">
        <ele>1633.1</ele>
        <time>2019-05-30T07:40:17Z</time>
      </trkpt>
      <trkpt lat="44.82091" lon="5.48482">
        <ele>1633</ele>
        <time>2019-05-30T07:40:20Z</time>
      </trkpt>
      <trkpt lat="44.82093" lon="5.48484">
        <ele>1633</ele>
        <time>2019-05-30T07:40:25Z</time>
      </trkpt>
      <trkpt lat="44.82096" lon="5.48487">
        <ele>1632.8</ele>
        <time>2019-05-30T07:40:40Z</time>
      </trkpt>
      <trkpt lat="44.82099" lon="5.48489">
        <ele>1632.7</ele>
        <time>2019-05-30T07:40:42Z</time>
      </trkpt>
      <trkpt lat="44.82102" lon="5.48492">
        <ele>1632.5</ele>
        <time>2019-05-30T07:40:44Z</time>
      </trkpt>
      <trkpt lat="44.82105" lon="5.48493">
        <ele>1632.4</ele>
        <time>2019-05-30T07:40:46Z</time>
      </trkpt>
      <trkpt lat="44.82109" lon="5.48493">
        <ele>1632.2</ele>
        <time>2019-05-30T07:40:49Z</time>
      </trkpt>
      <trkpt lat="44.82112" lon="5.48493">
        <ele>1632.1</ele>
        <time>2019-05-30T07:40:53Z</time>
      </trkpt>
      <trkpt lat="44.82115" lon="5.4849">
        <ele>1632</ele>
        <time>2019-05-30T07:40:56Z</time>
      </trkpt>
      <trkpt lat="44.82118" lon="5.48489">
        <ele>1632.1</ele>
        <time>2019-05-30T07:41:00Z</time>
      </trkpt>
      <trkpt lat="44.82121" lon="5.48487">
        <ele>1632.1</ele>
        <time>2019-05-30T07:41:03Z</time>
      </trkpt>
      <trkpt lat="44.82125" lon="5.48487">
        <ele>1632.3</ele>
        <time>2019-05-30T07:41:07Z</time>
      </trkpt>
      <trkpt lat="44.82128" lon="5.48486">
        <ele>1632.5</ele>
        <time>2019-05-30T07:41:10Z</time>
      </trkpt>
      <trkpt lat="44.82131" lon="5.48485">
        <ele>1632.7</ele>
        <time>2019-05-30T07:41:12Z</time>
      </trkpt>
      <trkpt lat="44.82133" lon="5.48484">
        <ele>1632.9</ele>
        <time>2019-05-30T07:41:14Z</time>
      </trkpt>
      <trkpt lat="44.82136" lon="5.48483">
        <ele>1633.1</ele>
        <time>2019-05-30T07:41:16Z</time>
      </trkpt>
      <trkpt lat="44.82139" lon="5.48482">
        <ele>1633.4</ele>
        <time>2019-05-30T07:41:19Z</time>
      </trkpt>
      <trkpt lat="44.82142" lon="5.4848">
        <ele>1633.7</ele>
        <time>2019-05-30T07:41:23Z</time>
      </trkpt>
      <trkpt lat="44.82145" lon="5.48477">
        <ele>1634.1</ele>
        <time>2019-05-30T07:41:27Z</time>
      </trkpt>
      <trkpt lat="44.82147" lon="5.48474">
        <ele>1634.4</ele>
        <time>2019-05-30T07:41:31Z</time>
      </trkpt>
      <trkpt lat="44.82149" lon="5.48472">
        <ele>1634.8</ele>
        <time>2019-05-30T07:41:39Z</time>
      </trkpt>
      <trkpt lat="44.82152" lon="5.48471">
        <ele>1635.1</ele>
        <time>2019-05-30T07:41:44Z</time>
      </trkpt>
      <trkpt lat="44.82155" lon="5.48473">
        <ele>1635.5</ele>
        <time>2019-05-30T07:41:48Z</time>
      </trkpt>
      <trkpt lat="44.82157" lon="5.48475">
        <ele>1635.9</ele>
        <time>2019-05-30T07:41:51Z</time>
      </trkpt>
      <trkpt lat="44.8216" lon="5.48478">
        <ele>1636.3</ele>
        <time>2019-05-30T07:41:54Z</time>
      </trkpt>
      <trkpt lat="44.82163" lon="5.4848">
        <ele>1636.7</ele>
        <time>2019-05-30T07:41:57Z</time>
      </trkpt>
      <trkpt lat="44.82166" lon="5.48482">
        <ele>1637</ele>
        <time>2019-05-30T07:42:00Z</time>
      </trkpt>
      <trkpt lat="44.82168" lon="5.48485">
        <ele>1637.3</ele>
        <time>2019-05-30T07:42:02Z</time>
      </trkpt>
      <trkpt lat="44.8217" lon="5.48487">
        <ele>1637.7</ele>
        <time>2019-05-30T07:42:04Z</time>
      </trkpt>
      <trkpt lat="44.82172" lon="5.4849">
        <ele>1637.8</ele>
        <time>2019-05-30T07:42:07Z</time>
      </trkpt>
      <trkpt lat="44.82174" lon="5.48494">
        <ele>1637.8</ele>
        <time>2019-05-30T07:42:10Z</time>
      </trkpt>
      <trkpt lat="44.82176" lon="5.48496">
        <ele>1637.8</ele>
        <time>2019-05-30T07:42:13Z</time>
      </trkpt>
      <trkpt lat="44.8218" lon="5.48497">
        <ele>1637.8</ele>
        <time>2019-05-30T07:42:16Z</time>
      </trkpt>
      <trkpt lat="44.82184" lon="5.48498">
        <ele>1637.9</ele>
        <time>2019-05-30T07:42:19Z</time>
      </trkpt>
      <trkpt lat="44.82187" lon="5.48498">
        <ele>1637.9</ele>
        <time>2019-05-30T07:42:21Z</time>
      </trkpt>
      <trkpt lat="44.8219" lon="5.48499">
        <ele>1637.9</ele>
        <time>2019-05-30T07:42:25Z</time>
      </trkpt>
      <trkpt lat="44.82193" lon="5.485">
        <ele>1637.9</ele>
        <time>2019-05-30T07:42:51Z</time>
      </trkpt>
      <trkpt lat="44.82196" lon="5.48499">
        <ele>1637.9</ele>
        <time>2019-05-30T07:42:55Z</time>
      </trkpt>
      <trkpt lat="44.822" lon="5.48499">
        <ele>1637.9</ele>
        <time>2019-05-30T07:42:58Z</time>
      </trkpt>
      <trkpt lat="44.82203" lon="5.48498">
        <ele>1637.9</ele>
        <time>2019-05-30T07:43:01Z</time>
      </trkpt>
      <trkpt lat="44.82207" lon="5.48498">
        <ele>1637.8</ele>
        <time>2019-05-30T07:43:03Z</time>
      </trkpt>
      <trkpt lat="44.82211" lon="5.48499">
        <ele>1637.7</ele>
        <time>2019-05-30T07:43:05Z</time>
      </trkpt>
      <trkpt lat="44.82214" lon="5.48499">
        <ele>1637.5</ele>
        <time>2019-05-30T07:43:07Z</time>
      </trkpt>
      <trkpt lat="44.82218" lon="5.48499">
        <ele>1637.4</ele>
        <time>2019-05-30T07:43:09Z</time>
      </trkpt>
      <trkpt lat="44.82221" lon="5.48497">
        <ele>1637.2</ele>
        <time>2019-05-30T07:43:12Z</time>
      </trkpt>
      <trkpt lat="44.82225" lon="5.48496">
        <ele>1636.9</ele>
        <time>2019-05-30T07:43:15Z</time>
      </trkpt>
      <trkpt lat="44.82227" lon="5.48499">
        <ele>1636.7</ele>
        <time>2019-05-30T07:43:47Z</time>
      </trkpt>
      <trkpt lat="44.8223" lon="5.48498">
        <ele>1636.6</ele>
        <time>2019-05-30T07:43:51Z</time>
      </trkpt>
      <trkpt lat="44.82234" lon="5.48497">
        <ele>1636.5</ele>
        <time>2019-05-30T07:43:54Z</time>
      </trkpt>
      <trkpt lat="44.82237" lon="5.48497">
        <ele>1636.4</ele>
        <time>2019-05-30T07:43:57Z</time>
      </trkpt>
      <trkpt lat="44.8224" lon="5.48498">
        <ele>1636.3</ele>
        <time>2019-05-30T07:44:00Z</time>
      </trkpt>
      <trkpt lat="44.82242" lon="5.485">
        <ele>1636.3</ele>
        <time>2019-05-30T07:44:07Z</time>
      </trkpt>
      <trkpt lat="44.82245" lon="5.485">
        <ele>1636.3</ele>
        <time>2019-05-30T07:44:16Z</time>
      </trkpt>
      <trkpt lat="44.82249" lon="5.48501">
        <ele>1636.3</ele>
        <time>2019-05-30T07:44:19Z</time>
      </trkpt>
      <trkpt lat="44.82252" lon="5.48502">
        <ele>1636.4</ele>
        <time>2019-05-30T07:44:21Z</time>
      </trkpt>
      <trkpt lat="44.82255" lon="5.48502">
        <ele>1636.4</ele>
        <time>2019-05-30T07:44:23Z</time>
      </trkpt>
      <trkpt lat="44.82259" lon="5.48502">
        <ele>1636.5</ele>
        <time>2019-05-30T07:45:30Z</time>
      </trkpt>
      <trkpt lat="44.82262" lon="5.48502">
        <ele>1636.5</ele>
        <time>2019-05-30T07:45:32Z</time>
      </trkpt>
      <trkpt lat="44.82265" lon="5.48503">
        <ele>1636.6</ele>
        <time>2019-05-30T07:45:34Z</time>
      </trkpt>
      <trkpt lat="44.82268" lon="5.48503">
        <ele>1636.6</ele>
        <time>2019-05-30T07:45:36Z</time>
      </trkpt>
      <trkpt lat="44.82271" lon="5.48504">
        <ele>1636.7</ele>
        <time>2019-05-30T07:45:38Z</time>
      </trkpt>
      <trkpt lat="44.82274" lon="5.48505">
        <ele>1636.8</ele>
        <time>2019-05-30T07:45:40Z</time>
      </trkpt>
      <trkpt lat="44.82278" lon="5.48505">
        <ele>1636.9</ele>
        <time>2019-05-30T07:45:42Z</time>
      </trkpt>
      <trkpt lat="44.82282" lon="5.48505">
        <ele>1637.1</ele>
        <time>2019-05-30T07:45:44Z</time>
      </trkpt>
      <trkpt lat="44.82285" lon="5.48506">
        <ele>1637.2</ele>
        <time>2019-05-30T07:45:46Z</time>
      </trkpt>
      <trkpt lat="44.82287" lon="5.48507">
        <ele>1637.4</ele>
        <time>2019-05-30T07:45:48Z</time>
      </trkpt>
      <trkpt lat="44.82291" lon="5.4851">
        <ele>1637.7</ele>
        <time>2019-05-30T07:45:51Z</time>
      </trkpt>
      <trkpt lat="44.82294" lon="5.48512">
        <ele>1638</ele>
        <time>2019-05-30T07:45:54Z</time>
      </trkpt>
      <trkpt lat="44.82296" lon="5.48515">
        <ele>1638.3</ele>
        <time>2019-05-30T07:45:57Z</time>
      </trkpt>
      <trkpt lat="44.82298" lon="5.48519">
        <ele>1638.7</ele>
        <time>2019-05-30T07:46:00Z</time>
      </trkpt>
      <trkpt lat="44.82299" lon="5.48523">
        <ele>1639</ele>
        <time>2019-05-30T07:46:03Z</time>
      </trkpt>
      <trkpt lat="44.823" lon="5.48527">
        <ele>1639.3</ele>
        <time>2019-05-30T07:46:06Z</time>
      </trkpt>
      <trkpt lat="44.82301" lon="5.4853">
        <ele>1639.6</ele>
        <time>2019-05-30T07:46:09Z</time>
      </trkpt>
      <trkpt lat="44.82302" lon="5.48534">
        <ele>1640</ele>
        <time>2019-05-30T07:46:12Z</time>
      </trkpt>
      <trkpt lat="44.82303" lon="5.48538">
        <ele>1640.4</ele>
        <time>2019-05-30T07:46:15Z</time>
      </trkpt>
      <trkpt lat="44.82305" lon="5.48542">
        <ele>1640.9</ele>
        <time>2019-05-30T07:46:19Z</time>
      </trkpt>
      <trkpt lat="44.82306" lon="5.48546">
        <ele>1641.3</ele>
        <time>2019-05-30T07:46:24Z</time>
      </trkpt>
      <trkpt lat="44.82306" lon="5.4855">
        <ele>1641.7</ele>
        <time>2019-05-30T07:46:30Z</time>
      </trkpt>
      <trkpt lat="44.82306" lon="5.48554">
        <ele>1642.1</ele>
        <time>2019-05-30T07:46:39Z</time>
      </trkpt>
      <trkpt lat="44.82306" lon="5.48558">
        <ele>1642.5</ele>
        <time>2019-05-30T07:46:42Z</time>
      </trkpt>
      <trkpt lat="44.82307" lon="5.48562">
        <ele>1643</ele>
        <time>2019-05-30T07:46:45Z</time>
      </trkpt>
      <trkpt lat="44.82308" lon="5.48567">
        <ele>1643.5</ele>
        <time>2019-05-30T07:46:48Z</time>
      </trkpt>
      <trkpt lat="44.82308" lon="5.48571">
        <ele>1644</ele>
        <time>2019-05-30T07:46:51Z</time>
      </trkpt>
      <trkpt lat="44.82309" lon="5.48576">
        <ele>1644.5</ele>
        <time>2019-05-30T07:46:54Z</time>
      </trkpt>
      <trkpt lat="44.8231" lon="5.48579">
        <ele>1644.9</ele>
        <time>2019-05-30T07:46:57Z</time>
      </trkpt>
      <trkpt lat="44.82312" lon="5.48582">
        <ele>1645.2</ele>
        <time>2019-05-30T07:47:00Z</time>
      </trkpt>
      <trkpt lat="44.82314" lon="5.48586">
        <ele>1645.6</ele>
        <time>2019-05-30T07:47:04Z</time>
      </trkpt>
      <trkpt lat="44.82317" lon="5.48589">
        <ele>1646</ele>
        <time>2019-05-30T07:47:09Z</time>
      </trkpt>
      <trkpt lat="44.82319" lon="5.48591">
        <ele>1646.3</ele>
        <time>2019-05-30T07:47:13Z</time>
      </trkpt>
      <trkpt lat="44.82322" lon="5.48593">
        <ele>1646.7</ele>
        <time>2019-05-30T07:47:17Z</time>
      </trkpt>
      <trkpt lat="44.82325" lon="5.48595">
        <ele>1647</ele>
        <time>2019-05-30T07:47:21Z</time>
      </trkpt>
      <trkpt lat="44.82327" lon="5.48597">
        <ele>1647.3</ele>
        <time>2019-05-30T07:47:24Z</time>
      </trkpt>
      <trkpt lat="44.8233" lon="5.48599">
        <ele>1647.6</ele>
        <time>2019-05-30T07:47:27Z</time>
      </trkpt>
      <trkpt lat="44.82333" lon="5.48598">
        <ele>1647.9</ele>
        <time>2019-05-30T07:47:30Z</time>
      </trkpt>
      <trkpt lat="44.82336" lon="5.48596">
        <ele>1648.4</ele>
        <time>2019-05-30T07:47:34Z</time>
      </trkpt>
      <trkpt lat="44.82338" lon="5.48593">
        <ele>1648.7</ele>
        <time>2019-05-30T07:47:37Z</time>
      </trkpt>
      <trkpt lat="44.8234" lon="5.48591">
        <ele>1649.1</ele>
        <time>2019-05-30T07:47:40Z</time>
      </trkpt>
      <trkpt lat="44.82342" lon="5.48588">
        <ele>1648.6</ele>
        <time>2019-05-30T07:47:43Z</time>
      </trkpt>
      <trkpt lat="44.82344" lon="5.48583">
        <ele>1648</ele>
        <time>2019-05-30T07:47:46Z</time>
      </trkpt>
      <trkpt lat="44.82345" lon="5.48578">
        <ele>1647.4</ele>
        <time>2019-05-30T07:47:49Z</time>
      </trkpt>
      <trkpt lat="44.82347" lon="5.48573">
        <ele>1646.9</ele>
        <time>2019-05-30T07:47:52Z</time>
      </trkpt>
      <trkpt lat="44.82348" lon="5.48568">
        <ele>1646.5</ele>
        <time>2019-05-30T07:47:55Z</time>
      </trkpt>
      <trkpt lat="44.82349" lon="5.48563">
        <ele>1646</ele>
        <time>2019-05-30T07:47:58Z</time>
      </trkpt>
      <trkpt lat="44.8235" lon="5.48558">
        <ele>1645.6</ele>
        <time>2019-05-30T07:48:01Z</time>
      </trkpt>
      <trkpt lat="44.82352" lon="5.48554">
        <ele>1645</ele>
        <time>2019-05-30T07:48:04Z</time>
      </trkpt>
      <trkpt lat="44.82355" lon="5.48552">
        <ele>1644.5</ele>
        <time>2019-05-30T07:48:07Z</time>
      </trkpt>
      <trkpt lat="44.82358" lon="5.48551">
        <ele>1644</ele>
        <time>2019-05-30T07:48:11Z</time>
      </trkpt>
      <trkpt lat="44.82361" lon="5.48548">
        <ele>1643.3</ele>
        <time>2019-05-30T07:48:15Z</time>
      </trkpt>
      <trkpt lat="44.82363" lon="5.48544">
        <ele>1642.8</ele>
        <time>2019-05-30T07:48:19Z</time>
      </trkpt>
      <trkpt lat="44.82365" lon="5.48542">
        <ele>1642.4</ele>
        <time>2019-05-30T07:48:22Z</time>
      </trkpt>
      <trkpt lat="44.82367" lon="5.48539">
        <ele>1642</ele>
        <time>2019-05-30T07:48:25Z</time>
      </trkpt>
      <trkpt lat="44.82371" lon="5.48539">
        <ele>1641.4</ele>
        <time>2019-05-30T07:48:28Z</time>
      </trkpt>
      <trkpt lat="44.82374" lon="5.48538">
        <ele>1640.9</ele>
        <time>2019-05-30T07:48:30Z</time>
      </trkpt>
      <trkpt lat="44.82377" lon="5.48537">
        <ele>1640.6</ele>
        <time>2019-05-30T07:48:32Z</time>
      </trkpt>
      <trkpt lat="44.8238" lon="5.48536">
        <ele>1640.1</ele>
        <time>2019-05-30T07:48:34Z</time>
      </trkpt>
      <trkpt lat="44.82383" lon="5.48536">
        <ele>1639.7</ele>
        <time>2019-05-30T07:48:36Z</time>
      </trkpt>
      <trkpt lat="44.82387" lon="5.48535">
        <ele>1639.3</ele>
        <time>2019-05-30T07:48:38Z</time>
      </trkpt>
      <trkpt lat="44.8239" lon="5.48536">
        <ele>1638.9</ele>
        <time>2019-05-30T07:48:40Z</time>
      </trkpt>
      <trkpt lat="44.82393" lon="5.48536">
        <ele>1638.4</ele>
        <time>2019-05-30T07:48:42Z</time>
      </trkpt>
      <trkpt lat="44.82397" lon="5.48536">
        <ele>1638.1</ele>
        <time>2019-05-30T07:48:44Z</time>
      </trkpt>
      <trkpt lat="44.82399" lon="5.48536">
        <ele>1637.8</ele>
        <time>2019-05-30T07:48:46Z</time>
      </trkpt>
      <trkpt lat="44.82402" lon="5.48536">
        <ele>1637.5</ele>
        <time>2019-05-30T07:48:48Z</time>
      </trkpt>
      <trkpt lat="44.82405" lon="5.48535">
        <ele>1637.2</ele>
        <time>2019-05-30T07:48:50Z</time>
      </trkpt>
      <trkpt lat="44.82408" lon="5.48532">
        <ele>1636.8</ele>
        <time>2019-05-30T07:48:53Z</time>
      </trkpt>
      <trkpt lat="44.82412" lon="5.4853">
        <ele>1636.3</ele>
        <time>2019-05-30T07:48:56Z</time>
      </trkpt>
      <trkpt lat="44.82415" lon="5.48529">
        <ele>1635.9</ele>
        <time>2019-05-30T07:48:58Z</time>
      </trkpt>
      <trkpt lat="44.82417" lon="5.48527">
        <ele>1635.6</ele>
        <time>2019-05-30T07:49:00Z</time>
      </trkpt>
      <trkpt lat="44.82421" lon="5.48527">
        <ele>1634.9</ele>
        <time>2019-05-30T07:49:03Z</time>
      </trkpt>
      <trkpt lat="44.82424" lon="5.48527">
        <ele>1634.6</ele>
        <time>2019-05-30T07:49:06Z</time>
      </trkpt>
      <trkpt lat="44.82428" lon="5.48527">
        <ele>1634.4</ele>
        <time>2019-05-30T07:49:09Z</time>
      </trkpt>
      <trkpt lat="44.82431" lon="5.48526">
        <ele>1634.2</ele>
        <time>2019-05-30T07:49:12Z</time>
      </trkpt>
      <trkpt lat="44.82434" lon="5.48526">
        <ele>1634</ele>
        <time>2019-05-30T07:49:15Z</time>
      </trkpt>
      <trkpt lat="44.82438" lon="5.48525">
        <ele>1633.8</ele>
        <time>2019-05-30T07:49:18Z</time>
      </trkpt>
      <trkpt lat="44.82442" lon="5.48525">
        <ele>1633.5</ele>
        <time>2019-05-30T07:49:21Z</time>
      </trkpt>
      <trkpt lat="44.82445" lon="5.48525">
        <ele>1633.3</ele>
        <time>2019-05-30T07:49:24Z</time>
      </trkpt>
      <trkpt lat="44.82448" lon="5.48526">
        <ele>1633.1</ele>
        <time>2019-05-30T07:49:26Z</time>
      </trkpt>
      <trkpt lat="44.82451" lon="5.48527">
        <ele>1632.9</ele>
        <time>2019-05-30T07:49:28Z</time>
      </trkpt>
      <trkpt lat="44.82454" lon="5.48528">
        <ele>1632.7</ele>
        <time>2019-05-30T07:49:31Z</time>
      </trkpt>
      <trkpt lat="44.82457" lon="5.48529">
        <ele>1632.5</ele>
        <time>2019-05-30T07:49:33Z</time>
      </trkpt>
      <trkpt lat="44.8246" lon="5.48531">
        <ele>1632.4</ele>
        <time>2019-05-30T07:49:35Z</time>
      </trkpt>
      <trkpt lat="44.82463" lon="5.48534">
        <ele>1632.3</ele>
        <time>2019-05-30T07:49:38Z</time>
      </trkpt>
      <trkpt lat="44.82466" lon="5.48536">
        <ele>1632.3</ele>
        <time>2019-05-30T07:49:40Z</time>
      </trkpt>
      <trkpt lat="44.82469" lon="5.48538">
        <ele>1632.2</ele>
        <time>2019-05-30T07:49:42Z</time>
      </trkpt>
      <trkpt lat="44.82472" lon="5.4854">
        <ele>1632.2</ele>
        <time>2019-05-30T07:49:45Z</time>
      </trkpt>
      <trkpt lat="44.82475" lon="5.48543">
        <ele>1632.1</ele>
        <time>2019-05-30T07:49:47Z</time>
      </trkpt>
      <trkpt lat="44.82477" lon="5.48545">
        <ele>1632.1</ele>
        <time>2019-05-30T07:49:49Z</time>
      </trkpt>
      <trkpt lat="44.8248" lon="5.48547">
        <ele>1632</ele>
        <time>2019-05-30T07:49:52Z</time>
      </trkpt>
      <trkpt lat="44.82484" lon="5.4855">
        <ele>1631.9</ele>
        <time>2019-05-30T07:49:55Z</time>
      </trkpt>
      <trkpt lat="44.82486" lon="5.48553">
        <ele>1631.9</ele>
        <time>2019-05-30T07:49:58Z</time>
      </trkpt>
      <trkpt lat="44.82489" lon="5.48557">
        <ele>1631.8</ele>
        <time>2019-05-30T07:50:01Z</time>
      </trkpt>
      <trkpt lat="44.82492" lon="5.48559">
        <ele>1631.8</ele>
        <time>2019-05-30T07:50:04Z</time>
      </trkpt>
      <trkpt lat="44.82496" lon="5.48562">
        <ele>1631.7</ele>
        <time>2019-05-30T07:50:07Z</time>
      </trkpt>
      <trkpt lat="44.82498" lon="5.48564">
        <ele>1631.7</ele>
        <time>2019-05-30T07:50:09Z</time>
      </trkpt>
      <trkpt lat="44.82501" lon="5.48567">
        <ele>1631.7</ele>
        <time>2019-05-30T07:50:12Z</time>
      </trkpt>
      <trkpt lat="44.82504" lon="5.48569">
        <ele>1631.7</ele>
        <time>2019-05-30T07:50:14Z</time>
      </trkpt>
      <trkpt lat="44.82506" lon="5.48571">
        <ele>1631.7</ele>
        <time>2019-05-30T07:50:16Z</time>
      </trkpt>
      <trkpt lat="44.8251" lon="5.48574">
        <ele>1631.7</ele>
        <time>2019-05-30T07:50:19Z</time>
      </trkpt>
      <trkpt lat="44.82512" lon="5.48576">
        <ele>1631.8</ele>
        <time>2019-05-30T07:50:21Z</time>
      </trkpt>
      <trkpt lat="44.82515" lon="5.48577">
        <ele>1631.9</ele>
        <time>2019-05-30T07:50:24Z</time>
      </trkpt>
      <trkpt lat="44.82519" lon="5.48578">
        <ele>1632</ele>
        <time>2019-05-30T07:50:27Z</time>
      </trkpt>
      <trkpt lat="44.82522" lon="5.48578">
        <ele>1632.2</ele>
        <time>2019-05-30T07:50:29Z</time>
      </trkpt>
      <trkpt lat="44.82526" lon="5.48579">
        <ele>1632.4</ele>
        <time>2019-05-30T07:50:32Z</time>
      </trkpt>
      <trkpt lat="44.82529" lon="5.4858">
        <ele>1632.6</ele>
        <time>2019-05-30T07:50:35Z</time>
      </trkpt>
      <trkpt lat="44.82533" lon="5.48583">
        <ele>1632.8</ele>
        <time>2019-05-30T07:50:38Z</time>
      </trkpt>
      <trkpt lat="44.82536" lon="5.48585">
        <ele>1633</ele>
        <time>2019-05-30T07:50:41Z</time>
      </trkpt>
      <trkpt lat="44.82539" lon="5.48588">
        <ele>1633.1</ele>
        <time>2019-05-30T07:50:44Z</time>
      </trkpt>
      <trkpt lat="44.82541" lon="5.48592">
        <ele>1633.2</ele>
        <time>2019-05-30T07:50:47Z</time>
      </trkpt>
      <trkpt lat="44.82542" lon="5.48595">
        <ele>1633.2</ele>
        <time>2019-05-30T07:50:50Z</time>
      </trkpt>
      <trkpt lat="44.82546" lon="5.48598">
        <ele>1633.2</ele>
        <time>2019-05-30T07:50:53Z</time>
      </trkpt>
      <trkpt lat="44.82549" lon="5.486">
        <ele>1633.1</ele>
        <time>2019-05-30T07:50:56Z</time>
      </trkpt>
      <trkpt lat="44.82552" lon="5.48602">
        <ele>1633</ele>
        <time>2019-05-30T07:50:59Z</time>
      </trkpt>
      <trkpt lat="44.82555" lon="5.48604">
        <ele>1632.8</ele>
        <time>2019-05-30T07:51:02Z</time>
      </trkpt>
      <trkpt lat="44.82559" lon="5.48606">
        <ele>1632.6</ele>
        <time>2019-05-30T07:51:05Z</time>
      </trkpt>
      <trkpt lat="44.82563" lon="5.48606">
        <ele>1632.3</ele>
        <time>2019-05-30T07:51:08Z</time>
      </trkpt>
      <trkpt lat="44.82566" lon="5.48606">
        <ele>1632</ele>
        <time>2019-05-30T07:51:10Z</time>
      </trkpt>
      <trkpt lat="44.82568" lon="5.48607">
        <ele>1631.8</ele>
        <time>2019-05-30T07:51:12Z</time>
      </trkpt>
      <trkpt lat="44.82572" lon="5.48607">
        <ele>1631.4</ele>
        <time>2019-05-30T07:51:15Z</time>
      </trkpt>
      <trkpt lat="44.82576" lon="5.48607">
        <ele>1631</ele>
        <time>2019-05-30T07:51:18Z</time>
      </trkpt>
      <trkpt lat="44.82579" lon="5.48608">
        <ele>1630.7</ele>
        <time>2019-05-30T07:51:20Z</time>
      </trkpt>
      <trkpt lat="44.82582" lon="5.48608">
        <ele>1630.3</ele>
        <time>2019-05-30T07:51:23Z</time>
      </trkpt>
      <trkpt lat="44.82587" lon="5.48608">
        <ele>1629.8</ele>
        <time>2019-05-30T07:51:26Z</time>
      </trkpt>
      <trkpt lat="44.82589" lon="5.48608">
        <ele>1629.4</ele>
        <time>2019-05-30T07:51:28Z</time>
      </trkpt>
      <trkpt lat="44.82592" lon="5.48608">
        <ele>1629.1</ele>
        <time>2019-05-30T07:51:30Z</time>
      </trkpt>
      <trkpt lat="44.82596" lon="5.4861">
        <ele>1628.7</ele>
        <time>2019-05-30T07:51:33Z</time>
      </trkpt>
      <trkpt lat="44.82599" lon="5.4861">
        <ele>1628.3</ele>
        <time>2019-05-30T07:51:35Z</time>
      </trkpt>
      <trkpt lat="44.82602" lon="5.48611">
        <ele>1628</ele>
        <time>2019-05-30T07:51:37Z</time>
      </trkpt>
      <trkpt lat="44.82605" lon="5.48612">
        <ele>1627.8</ele>
        <time>2019-05-30T07:51:39Z</time>
      </trkpt>
      <trkpt lat="44.82608" lon="5.48613">
        <ele>1627.5</ele>
        <time>2019-05-30T07:51:41Z</time>
      </trkpt>
      <trkpt lat="44.82611" lon="5.48615">
        <ele>1627.2</ele>
        <time>2019-05-30T07:51:43Z</time>
      </trkpt>
      <trkpt lat="44.82614" lon="5.48616">
        <ele>1626.9</ele>
        <time>2019-05-30T07:51:45Z</time>
      </trkpt>
      <trkpt lat="44.82617" lon="5.48618">
        <ele>1626.5</ele>
        <time>2019-05-30T07:51:48Z</time>
      </trkpt>
      <trkpt lat="44.82621" lon="5.4862">
        <ele>1626.2</ele>
        <time>2019-05-30T07:51:51Z</time>
      </trkpt>
      <trkpt lat="44.82624" lon="5.48621">
        <ele>1626</ele>
        <time>2019-05-30T07:51:54Z</time>
      </trkpt>
      <trkpt lat="44.82627" lon="5.4862">
        <ele>1625.7</ele>
        <time>2019-05-30T07:51:57Z</time>
      </trkpt>
      <trkpt lat="44.82631" lon="5.4862">
        <ele>1625.4</ele>
        <time>2019-05-30T07:52:00Z</time>
      </trkpt>
      <trkpt lat="44.82635" lon="5.48619">
        <ele>1625.2</ele>
        <time>2019-05-30T07:52:03Z</time>
      </trkpt>
      <trkpt lat="44.82639" lon="5.48619">
        <ele>1625</ele>
        <time>2019-05-30T07:52:06Z</time>
      </trkpt>
      <trkpt lat="44.82642" lon="5.4862">
        <ele>1624.8</ele>
        <time>2019-05-30T07:52:08Z</time>
      </trkpt>
      <trkpt lat="44.82645" lon="5.4862">
        <ele>1624.5</ele>
        <time>2019-05-30T07:52:11Z</time>
      </trkpt>
      <trkpt lat="44.82648" lon="5.48621">
        <ele>1624.3</ele>
        <time>2019-05-30T07:52:13Z</time>
      </trkpt>
      <trkpt lat="44.82651" lon="5.48622">
        <ele>1624.1</ele>
        <time>2019-05-30T07:52:15Z</time>
      </trkpt>
      <trkpt lat="44.82654" lon="5.48623">
        <ele>1623.8</ele>
        <time>2019-05-30T07:52:17Z</time>
      </trkpt>
      <trkpt lat="44.82657" lon="5.48623">
        <ele>1623.6</ele>
        <time>2019-05-30T07:52:19Z</time>
      </trkpt>
      <trkpt lat="44.8266" lon="5.48624">
        <ele>1623.4</ele>
        <time>2019-05-30T07:52:21Z</time>
      </trkpt>
      <trkpt lat="44.82663" lon="5.48624">
        <ele>1623.1</ele>
        <time>2019-05-30T07:52:24Z</time>
      </trkpt>
      <trkpt lat="44.82667" lon="5.48625">
        <ele>1623</ele>
        <time>2019-05-30T07:52:27Z</time>
      </trkpt>
      <trkpt lat="44.8267" lon="5.48627">
        <ele>1622.7</ele>
        <time>2019-05-30T07:52:30Z</time>
      </trkpt>
      <trkpt lat="44.82674" lon="5.48628">
        <ele>1622.5</ele>
        <time>2019-05-30T07:52:33Z</time>
      </trkpt>
      <trkpt lat="44.82678" lon="5.48628">
        <ele>1622.3</ele>
        <time>2019-05-30T07:52:36Z</time>
      </trkpt>
      <trkpt lat="44.82681" lon="5.48629">
        <ele>1622.1</ele>
        <time>2019-05-30T07:52:38Z</time>
      </trkpt>
      <trkpt lat="44.82685" lon="5.48629">
        <ele>1621.9</ele>
        <time>2019-05-30T07:52:41Z</time>
      </trkpt>
      <trkpt lat="44.82689" lon="5.4863">
        <ele>1621.6</ele>
        <time>2019-05-30T07:52:44Z</time>
      </trkpt>
      <trkpt lat="44.82692" lon="5.48631">
        <ele>1621.3</ele>
        <time>2019-05-30T07:52:47Z</time>
      </trkpt>
      <trkpt lat="44.82695" lon="5.48631">
        <ele>1621</ele>
        <time>2019-05-30T07:52:49Z</time>
      </trkpt>
      <trkpt lat="44.82698" lon="5.48633">
        <ele>1620.7</ele>
        <time>2019-05-30T07:52:52Z</time>
      </trkpt>
      <trkpt lat="44.82702" lon="5.48634">
        <ele>1620.4</ele>
        <time>2019-05-30T07:52:55Z</time>
      </trkpt>
      <trkpt lat="44.82705" lon="5.48633">
        <ele>1620.1</ele>
        <time>2019-05-30T07:52:58Z</time>
      </trkpt>
      <trkpt lat="44.82708" lon="5.48631">
        <ele>1619.7</ele>
        <time>2019-05-30T07:53:01Z</time>
      </trkpt>
      <trkpt lat="44.8271" lon="5.48629">
        <ele>1619.5</ele>
        <time>2019-05-30T07:53:03Z</time>
      </trkpt>
      <trkpt lat="44.82713" lon="5.48628">
        <ele>1619.2</ele>
        <time>2019-05-30T07:53:05Z</time>
      </trkpt>
      <trkpt lat="44.82716" lon="5.48625">
        <ele>1618.9</ele>
        <time>2019-05-30T07:53:08Z</time>
      </trkpt>
      <trkpt lat="44.82718" lon="5.48623">
        <ele>1618.7</ele>
        <time>2019-05-30T07:53:10Z</time>
      </trkpt>
      <trkpt lat="44.82721" lon="5.48621">
        <ele>1618.5</ele>
        <time>2019-05-30T07:53:12Z</time>
      </trkpt>
      <trkpt lat="44.82724" lon="5.48618">
        <ele>1618.1</ele>
        <time>2019-05-30T07:53:15Z</time>
      </trkpt>
      <trkpt lat="44.82727" lon="5.48616">
        <ele>1617.9</ele>
        <time>2019-05-30T07:53:17Z</time>
      </trkpt>
      <trkpt lat="44.8273" lon="5.48615">
        <ele>1617.7</ele>
        <time>2019-05-30T07:53:19Z</time>
      </trkpt>
      <trkpt lat="44.82732" lon="5.48613">
        <ele>1617.5</ele>
        <time>2019-05-30T07:53:21Z</time>
      </trkpt>
      <trkpt lat="44.82735" lon="5.48611">
        <ele>1617.2</ele>
        <time>2019-05-30T07:53:23Z</time>
      </trkpt>
      <trkpt lat="44.82738" lon="5.4861">
        <ele>1617</ele>
        <time>2019-05-30T07:53:25Z</time>
      </trkpt>
      <trkpt lat="44.82741" lon="5.48608">
        <ele>1616.7</ele>
        <time>2019-05-30T07:53:28Z</time>
      </trkpt>
      <trkpt lat="44.82745" lon="5.48606">
        <ele>1616.5</ele>
        <time>2019-05-30T07:53:31Z</time>
      </trkpt>
      <trkpt lat="44.82749" lon="5.48606">
        <ele>1616.2</ele>
        <time>2019-05-30T07:53:34Z</time>
      </trkpt>
      <trkpt lat="44.82752" lon="5.48606">
        <ele>1616.3</ele>
        <time>2019-05-30T07:53:37Z</time>
      </trkpt>
      <trkpt lat="44.82755" lon="5.48606">
        <ele>1616.4</ele>
        <time>2019-05-30T07:53:41Z</time>
      </trkpt>
      <trkpt lat="44.82752" lon="5.48609">
        <ele>1616.5</ele>
        <time>2019-05-30T07:54:08Z</time>
      </trkpt>
      <trkpt lat="44.82753" lon="5.48606">
        <ele>1616.6</ele>
        <time>2019-05-30T07:55:57Z</time>
      </trkpt>
      <trkpt lat="44.82751" lon="5.48606">
        <ele>1616.6</ele>
        <time>2019-05-30T07:56:20Z</time>
      </trkpt>
      <trkpt lat="44.82748" lon="5.48603">
        <ele>1616.7</ele>
        <time>2019-05-30T07:56:44Z</time>
      </trkpt>
      <trkpt lat="44.82751" lon="5.48604">
        <ele>1616.7</ele>
        <time>2019-05-30T07:56:50Z</time>
      </trkpt>
      <trkpt lat="44.82755" lon="5.48614">
        <ele>1616.8</ele>
        <time>2019-05-30T07:59:46Z</time>
      </trkpt>
      <trkpt lat="44.82753" lon="5.4861">
        <ele>1616.8</ele>
        <time>2019-05-30T08:00:02Z</time>
      </trkpt>
      <trkpt lat="44.82752" lon="5.48604">
        <ele>1616.9</ele>
        <time>2019-05-30T08:02:26Z</time>
      </trkpt>
      <trkpt lat="44.82755" lon="5.48607">
        <ele>1616.9</ele>
        <time>2019-05-30T08:03:50Z</time>
      </trkpt>
      <trkpt lat="44.82758" lon="5.48609">
        <ele>1616.9</ele>
        <time>2019-05-30T08:03:52Z</time>
      </trkpt>
      <trkpt lat="44.82759" lon="5.48612">
        <ele>1616.9</ele>
        <time>2019-05-30T08:03:54Z</time>
      </trkpt>
      <trkpt lat="44.82761" lon="5.48616">
        <ele>1616.9</ele>
        <time>2019-05-30T08:03:56Z</time>
      </trkpt>
      <trkpt lat="44.82763" lon="5.4862">
        <ele>1616.9</ele>
        <time>2019-05-30T08:03:58Z</time>
      </trkpt>
      <trkpt lat="44.82765" lon="5.48626">
        <ele>1616.9</ele>
        <time>2019-05-30T08:04:00Z</time>
      </trkpt>
      <trkpt lat="44.82767" lon="5.48629">
        <ele>1616.9</ele>
        <time>2019-05-30T08:04:02Z</time>
      </trkpt>
      <trkpt lat="44.82769" lon="5.48633">
        <ele>1616.9</ele>
        <time>2019-05-30T08:04:04Z</time>
      </trkpt>
      <trkpt lat="44.82772" lon="5.48637">
        <ele>1616.9</ele>
        <time>2019-05-30T08:04:06Z</time>
      </trkpt>
      <trkpt lat="44.82774" lon="5.4864">
        <ele>1616.9</ele>
        <time>2019-05-30T08:04:08Z</time>
      </trkpt>
      <trkpt lat="44.82776" lon="5.48643">
        <ele>1616.9</ele>
        <time>2019-05-30T08:04:11Z</time>
      </trkpt>
      <trkpt lat="44.82779" lon="5.48646">
        <ele>1616.9</ele>
        <time>2019-05-30T08:04:14Z</time>
      </trkpt>
      <trkpt lat="44.82781" lon="5.48648">
        <ele>1616.8</ele>
        <time>2019-05-30T08:04:18Z</time>
      </trkpt>
      <trkpt lat="44.82784" lon="5.4865">
        <ele>1616.8</ele>
        <time>2019-05-30T08:04:21Z</time>
      </trkpt>
      <trkpt lat="44.82786" lon="5.48652">
        <ele>1616.8</ele>
        <time>2019-05-30T08:04:24Z</time>
      </trkpt>
      <trkpt lat="44.82789" lon="5.48654">
        <ele>1616.7</ele>
        <time>2019-05-30T08:04:27Z</time>
      </trkpt>
      <trkpt lat="44.82793" lon="5.48656">
        <ele>1616.7</ele>
        <time>2019-05-30T08:04:30Z</time>
      </trkpt>
      <trkpt lat="44.82796" lon="5.48657">
        <ele>1616.6</ele>
        <time>2019-05-30T08:04:33Z</time>
      </trkpt>
      <trkpt lat="44.82799" lon="5.48657">
        <ele>1616.6</ele>
        <time>2019-05-30T08:04:35Z</time>
      </trkpt>
      <trkpt lat="44.82803" lon="5.48658">
        <ele>1616.5</ele>
        <time>2019-05-30T08:04:38Z</time>
      </trkpt>
      <trkpt lat="44.82806" lon="5.48658">
        <ele>1616.5</ele>
        <time>2019-05-30T08:04:40Z</time>
      </trkpt>
      <trkpt lat="44.82809" lon="5.48658">
        <ele>1616.5</ele>
        <time>2019-05-30T08:04:42Z</time>
      </trkpt>
      <trkpt lat="44.82812" lon="5.48658">
        <ele>1616.5</ele>
        <time>2019-05-30T08:04:45Z</time>
      </trkpt>
      <trkpt lat="44.82816" lon="5.48658">
        <ele>1616.5</ele>
        <time>2019-05-30T08:04:48Z</time>
      </trkpt>
      <trkpt lat="44.8282" lon="5.48657">
        <ele>1616.5</ele>
        <time>2019-05-30T08:04:51Z</time>
      </trkpt>
      <trkpt lat="44.82823" lon="5.48656">
        <ele>1616.5</ele>
        <time>2019-05-30T08:04:53Z</time>
      </trkpt>
      <trkpt lat="44.82826" lon="5.48656">
        <ele>1616.5</ele>
        <time>2019-05-30T08:04:55Z</time>
      </trkpt>
      <trkpt lat="44.82828" lon="5.48655">
        <ele>1616.5</ele>
        <time>2019-05-30T08:04:57Z</time>
      </trkpt>
      <trkpt lat="44.82832" lon="5.48654">
        <ele>1616.5</ele>
        <time>2019-05-30T08:05:00Z</time>
      </trkpt>
      <trkpt lat="44.82835" lon="5.48653">
        <ele>1616.5</ele>
        <time>2019-05-30T08:05:02Z</time>
      </trkpt>
      <trkpt lat="44.82838" lon="5.48652">
        <ele>1616.5</ele>
        <time>2019-05-30T08:05:04Z</time>
      </trkpt>
      <trkpt lat="44.82842" lon="5.48651">
        <ele>1616.6</ele>
        <time>2019-05-30T08:05:07Z</time>
      </trkpt>
      <trkpt lat="44.82844" lon="5.48649">
        <ele>1616.7</ele>
        <time>2019-05-30T08:05:09Z</time>
      </trkpt>
      <trkpt lat="44.82848" lon="5.48647">
        <ele>1616.8</ele>
        <time>2019-05-30T08:05:12Z</time>
      </trkpt>
      <trkpt lat="44.82851" lon="5.48645">
        <ele>1616.9</ele>
        <time>2019-05-30T08:05:15Z</time>
      </trkpt>
      <trkpt lat="44.82854" lon="5.48644">
        <ele>1617.1</ele>
        <time>2019-05-30T08:05:18Z</time>
      </trkpt>
      <trkpt lat="44.82857" lon="5.48643">
        <ele>1617.2</ele>
        <time>2019-05-30T08:05:21Z</time>
      </trkpt>
      <trkpt lat="44.8286" lon="5.48642">
        <ele>1617.4</ele>
        <time>2019-05-30T08:05:24Z</time>
      </trkpt>
      <trkpt lat="44.82863" lon="5.4864">
        <ele>1617.6</ele>
        <time>2019-05-30T08:05:27Z</time>
      </trkpt>
      <trkpt lat="44.82866" lon="5.48639">
        <ele>1617.8</ele>
        <time>2019-05-30T08:05:30Z</time>
      </trkpt>
      <trkpt lat="44.82868" lon="5.48638">
        <ele>1617.9</ele>
        <time>2019-05-30T08:05:33Z</time>
      </trkpt>
      <trkpt lat="44.82872" lon="5.48636">
        <ele>1618.3</ele>
        <time>2019-05-30T08:05:36Z</time>
      </trkpt>
      <trkpt lat="44.82874" lon="5.48636">
        <ele>1618.6</ele>
        <time>2019-05-30T08:05:39Z</time>
      </trkpt>
      <trkpt lat="44.82878" lon="5.48635">
        <ele>1618.9</ele>
        <time>2019-05-30T08:05:42Z</time>
      </trkpt>
      <trkpt lat="44.82881" lon="5.48635">
        <ele>1619.3</ele>
        <time>2019-05-30T08:05:45Z</time>
      </trkpt>
      <trkpt lat="44.82884" lon="5.48635">
        <ele>1619.9</ele>
        <time>2019-05-30T08:05:49Z</time>
      </trkpt>
      <trkpt lat="44.82887" lon="5.48635">
        <ele>1620.3</ele>
        <time>2019-05-30T08:05:52Z</time>
      </trkpt>
      <trkpt lat="44.8289" lon="5.48636">
        <ele>1620.9</ele>
        <time>2019-05-30T08:05:55Z</time>
      </trkpt>
      <trkpt lat="44.82894" lon="5.48636">
        <ele>1621.4</ele>
        <time>2019-05-30T08:05:58Z</time>
      </trkpt>
      <trkpt lat="44.82897" lon="5.48636">
        <ele>1621.9</ele>
        <time>2019-05-30T08:06:01Z</time>
      </trkpt>
      <trkpt lat="44.82901" lon="5.48636">
        <ele>1622.4</ele>
        <time>2019-05-30T08:06:04Z</time>
      </trkpt>
      <trkpt lat="44.82903" lon="5.48635">
        <ele>1622.8</ele>
        <time>2019-05-30T08:06:18Z</time>
      </trkpt>
      <trkpt lat="44.82906" lon="5.48636">
        <ele>1623.3</ele>
        <time>2019-05-30T08:06:21Z</time>
      </trkpt>
      <trkpt lat="44.8291" lon="5.48636">
        <ele>1623.8</ele>
        <time>2019-05-30T08:06:24Z</time>
      </trkpt>
      <trkpt lat="44.82914" lon="5.48636">
        <ele>1624.4</ele>
        <time>2019-05-30T08:06:27Z</time>
      </trkpt>
      <trkpt lat="44.82916" lon="5.48638">
        <ele>1624.8</ele>
        <time>2019-05-30T08:06:30Z</time>
      </trkpt>
      <trkpt lat="44.8292" lon="5.48639">
        <ele>1625.4</ele>
        <time>2019-05-30T08:06:34Z</time>
      </trkpt>
      <trkpt lat="44.82923" lon="5.48639">
        <ele>1625.7</ele>
        <time>2019-05-30T08:06:37Z</time>
      </trkpt>
      <trkpt lat="44.82927" lon="5.48635">
        <ele>1626.3</ele>
        <time>2019-05-30T08:09:24Z</time>
      </trkpt>
      <trkpt lat="44.8293" lon="5.48634">
        <ele>1626.6</ele>
        <time>2019-05-30T08:09:33Z</time>
      </trkpt>
      <trkpt lat="44.82934" lon="5.48631">
        <ele>1627</ele>
        <time>2019-05-30T08:09:36Z</time>
      </trkpt>
      <trkpt lat="44.82936" lon="5.48629">
        <ele>1627.2</ele>
        <time>2019-05-30T08:09:38Z</time>
      </trkpt>
      <trkpt lat="44.82939" lon="5.48627">
        <ele>1627.5</ele>
        <time>2019-05-30T08:09:41Z</time>
      </trkpt>
      <trkpt lat="44.82941" lon="5.48624">
        <ele>1627.7</ele>
        <time>2019-05-30T08:09:46Z</time>
      </trkpt>
      <trkpt lat="44.82944" lon="5.48622">
        <ele>1627.9</ele>
        <time>2019-05-30T08:09:50Z</time>
      </trkpt>
      <trkpt lat="44.82947" lon="5.48619">
        <ele>1628</ele>
        <time>2019-05-30T08:09:52Z</time>
      </trkpt>
      <trkpt lat="44.8295" lon="5.48616">
        <ele>1628.1</ele>
        <time>2019-05-30T08:09:55Z</time>
      </trkpt>
      <trkpt lat="44.82954" lon="5.48613">
        <ele>1628.3</ele>
        <time>2019-05-30T08:09:58Z</time>
      </trkpt>
      <trkpt lat="44.82957" lon="5.4861">
        <ele>1628.4</ele>
        <time>2019-05-30T08:10:01Z</time>
      </trkpt>
      <trkpt lat="44.8296" lon="5.48607">
        <ele>1628.4</ele>
        <time>2019-05-30T08:10:04Z</time>
      </trkpt>
      <trkpt lat="44.82963" lon="5.48605">
        <ele>1628.4</ele>
        <time>2019-05-30T08:10:19Z</time>
      </trkpt>
      <trkpt lat="44.82965" lon="5.48603">
        <ele>1628.4</ele>
        <time>2019-05-30T08:10:22Z</time>
      </trkpt>
      <trkpt lat="44.82969" lon="5.48601">
        <ele>1628.4</ele>
        <time>2019-05-30T08:10:25Z</time>
      </trkpt>
      <trkpt lat="44.82972" lon="5.486">
        <ele>1628.4</ele>
        <time>2019-05-30T08:10:27Z</time>
      </trkpt>
      <trkpt lat="44.82974" lon="5.48598">
        <ele>1628.4</ele>
        <time>2019-05-30T08:10:29Z</time>
      </trkpt>
      <trkpt lat="44.82977" lon="5.48595">
        <ele>1628.4</ele>
        <time>2019-05-30T08:10:32Z</time>
      </trkpt>
      <trkpt lat="44.82979" lon="5.48592">
        <ele>1628.4</ele>
        <time>2019-05-30T08:10:35Z</time>
      </trkpt>
      <trkpt lat="44.82981" lon="5.48588">
        <ele>1628.3</ele>
        <time>2019-05-30T08:10:38Z</time>
      </trkpt>
      <trkpt lat="44.82983" lon="5.48584">
        <ele>1628.3</ele>
        <time>2019-05-30T08:10:41Z</time>
      </trkpt>
      <trkpt lat="44.82985" lon="5.4858">
        <ele>1628.2</ele>
        <time>2019-05-30T08:10:44Z</time>
      </trkpt>
      <trkpt lat="44.82986" lon="5.48576">
        <ele>1628.2</ele>
        <time>2019-05-30T08:10:46Z</time>
      </trkpt>
      <trkpt lat="44.82988" lon="5.48572">
        <ele>1628.1</ele>
        <time>2019-05-30T08:10:48Z</time>
      </trkpt>
      <trkpt lat="44.82989" lon="5.48568">
        <ele>1628.1</ele>
        <time>2019-05-30T08:10:50Z</time>
      </trkpt>
      <trkpt lat="44.82989" lon="5.48564">
        <ele>1628</ele>
        <time>2019-05-30T08:10:52Z</time>
      </trkpt>
      <trkpt lat="44.82989" lon="5.4856">
        <ele>1628</ele>
        <time>2019-05-30T08:10:54Z</time>
      </trkpt>
      <trkpt lat="44.82991" lon="5.48557">
        <ele>1627.9</ele>
        <time>2019-05-30T08:10:56Z</time>
      </trkpt>
      <trkpt lat="44.82992" lon="5.48553">
        <ele>1627.8</ele>
        <time>2019-05-30T08:10:59Z</time>
      </trkpt>
      <trkpt lat="44.82995" lon="5.48548">
        <ele>1627.7</ele>
        <time>2019-05-30T08:11:02Z</time>
      </trkpt>
      <trkpt lat="44.82997" lon="5.48544">
        <ele>1627.2</ele>
        <time>2019-05-30T08:11:04Z</time>
      </trkpt>
      <trkpt lat="44.82999" lon="5.4854">
        <ele>1627.1</ele>
        <time>2019-05-30T08:11:06Z</time>
      </trkpt>
      <trkpt lat="44.83001" lon="5.48537">
        <ele>1626.9</ele>
        <time>2019-05-30T08:11:08Z</time>
      </trkpt>
      <trkpt lat="44.83003" lon="5.48535">
        <ele>1626.8</ele>
        <time>2019-05-30T08:11:10Z</time>
      </trkpt>
      <trkpt lat="44.83006" lon="5.48532">
        <ele>1626.6</ele>
        <time>2019-05-30T08:11:13Z</time>
      </trkpt>
      <trkpt lat="44.83008" lon="5.48529">
        <ele>1626.1</ele>
        <time>2019-05-30T08:11:16Z</time>
      </trkpt>
      <trkpt lat="44.83011" lon="5.48525">
        <ele>1625.6</ele>
        <time>2019-05-30T08:11:19Z</time>
      </trkpt>
      <trkpt lat="44.83013" lon="5.48522">
        <ele>1625.1</ele>
        <time>2019-05-30T08:11:22Z</time>
      </trkpt>
      <trkpt lat="44.83015" lon="5.4852">
        <ele>1624.7</ele>
        <time>2019-05-30T08:11:25Z</time>
      </trkpt>
      <trkpt lat="44.83019" lon="5.48518">
        <ele>1624.1</ele>
        <time>2019-05-30T08:11:29Z</time>
      </trkpt>
      <trkpt lat="44.83022" lon="5.48516">
        <ele>1623.5</ele>
        <time>2019-05-30T08:11:32Z</time>
      </trkpt>
      <trkpt lat="44.83024" lon="5.48515">
        <ele>1622.9</ele>
        <time>2019-05-30T08:11:35Z</time>
      </trkpt>
      <trkpt lat="44.83027" lon="5.48512">
        <ele>1622.3</ele>
        <time>2019-05-30T08:11:38Z</time>
      </trkpt>
      <trkpt lat="44.83029" lon="5.48508">
        <ele>1621.5</ele>
        <time>2019-05-30T08:11:41Z</time>
      </trkpt>
      <trkpt lat="44.83031" lon="5.48504">
        <ele>1620.8</ele>
        <time>2019-05-30T08:11:45Z</time>
      </trkpt>
      <trkpt lat="44.83033" lon="5.48501">
        <ele>1620.3</ele>
        <time>2019-05-30T08:11:48Z</time>
      </trkpt>
      <trkpt lat="44.83036" lon="5.48499">
        <ele>1619.9</ele>
        <time>2019-05-30T08:11:52Z</time>
      </trkpt>
      <trkpt lat="44.83037" lon="5.48495">
        <ele>1619.5</ele>
        <time>2019-05-30T08:11:57Z</time>
      </trkpt>
      <trkpt lat="44.83038" lon="5.48491">
        <ele>1619.1</ele>
        <time>2019-05-30T08:12:00Z</time>
      </trkpt>
      <trkpt lat="44.8304" lon="5.48486">
        <ele>1618.7</ele>
        <time>2019-05-30T08:12:03Z</time>
      </trkpt>
      <trkpt lat="44.83041" lon="5.48482">
        <ele>1618.4</ele>
        <time>2019-05-30T08:12:05Z</time>
      </trkpt>
      <trkpt lat="44.83042" lon="5.48477">
        <ele>1618.1</ele>
        <time>2019-05-30T08:12:07Z</time>
      </trkpt>
      <trkpt lat="44.83043" lon="5.48473">
        <ele>1617.9</ele>
        <time>2019-05-30T08:12:09Z</time>
      </trkpt>
      <trkpt lat="44.83044" lon="5.48469">
        <ele>1617.7</ele>
        <time>2019-05-30T08:12:11Z</time>
      </trkpt>
      <trkpt lat="44.83046" lon="5.48465">
        <ele>1617.4</ele>
        <time>2019-05-30T08:12:14Z</time>
      </trkpt>
      <trkpt lat="44.83046" lon="5.48461">
        <ele>1617.3</ele>
        <time>2019-05-30T08:12:17Z</time>
      </trkpt>
      <trkpt lat="44.83047" lon="5.48457">
        <ele>1617.1</ele>
        <time>2019-05-30T08:12:20Z</time>
      </trkpt>
      <trkpt lat="44.83048" lon="5.48453">
        <ele>1617</ele>
        <time>2019-05-30T08:12:23Z</time>
      </trkpt>
      <trkpt lat="44.83048" lon="5.48448">
        <ele>1616.9</ele>
        <time>2019-05-30T08:12:27Z</time>
      </trkpt>
      <trkpt lat="44.83048" lon="5.48444">
        <ele>1616.8</ele>
        <time>2019-05-30T08:12:30Z</time>
      </trkpt>
      <trkpt lat="44.83048" lon="5.48439">
        <ele>1616.7</ele>
        <time>2019-05-30T08:12:34Z</time>
      </trkpt>
      <trkpt lat="44.8305" lon="5.48434">
        <ele>1616.7</ele>
        <time>2019-05-30T08:12:37Z</time>
      </trkpt>
      <trkpt lat="44.83051" lon="5.4843">
        <ele>1616.6</ele>
        <time>2019-05-30T08:12:40Z</time>
      </trkpt>
      <trkpt lat="44.83052" lon="5.48426">
        <ele>1616.5</ele>
        <time>2019-05-30T08:12:43Z</time>
      </trkpt>
      <trkpt lat="44.83053" lon="5.4842">
        <ele>1616.4</ele>
        <time>2019-05-30T08:12:46Z</time>
      </trkpt>
      <trkpt lat="44.83054" lon="5.48417">
        <ele>1616.4</ele>
        <time>2019-05-30T08:12:48Z</time>
      </trkpt>
      <trkpt lat="44.83056" lon="5.48411">
        <ele>1616.4</ele>
        <time>2019-05-30T08:12:51Z</time>
      </trkpt>
      <trkpt lat="44.83057" lon="5.48406">
        <ele>1616.4</ele>
        <time>2019-05-30T08:12:54Z</time>
      </trkpt>
      <trkpt lat="44.83057" lon="5.484">
        <ele>1616.4</ele>
        <time>2019-05-30T08:12:57Z</time>
      </trkpt>
      <trkpt lat="44.83058" lon="5.48396">
        <ele>1616.4</ele>
        <time>2019-05-30T08:12:59Z</time>
      </trkpt>
      <trkpt lat="44.83059" lon="5.48391">
        <ele>1616.4</ele>
        <time>2019-05-30T08:13:01Z</time>
      </trkpt>
      <trkpt lat="44.8306" lon="5.48385">
        <ele>1616.5</ele>
        <time>2019-05-30T08:13:03Z</time>
      </trkpt>
      <trkpt lat="44.8306" lon="5.48381">
        <ele>1616.5</ele>
        <time>2019-05-30T08:13:05Z</time>
      </trkpt>
      <trkpt lat="44.83061" lon="5.48377">
        <ele>1616.5</ele>
        <time>2019-05-30T08:13:07Z</time>
      </trkpt>
      <trkpt lat="44.83062" lon="5.48373">
        <ele>1616.6</ele>
        <time>2019-05-30T08:13:09Z</time>
      </trkpt>
      <trkpt lat="44.83063" lon="5.48367">
        <ele>1616.7</ele>
        <time>2019-05-30T08:13:11Z</time>
      </trkpt>
      <trkpt lat="44.83064" lon="5.4836">
        <ele>1616.8</ele>
        <time>2019-05-30T08:13:13Z</time>
      </trkpt>
      <trkpt lat="44.83065" lon="5.48354">
        <ele>1617</ele>
        <time>2019-05-30T08:13:15Z</time>
      </trkpt>
      <trkpt lat="44.83065" lon="5.48349">
        <ele>1617.1</ele>
        <time>2019-05-30T08:13:17Z</time>
      </trkpt>
      <trkpt lat="44.83066" lon="5.48344">
        <ele>1617.3</ele>
        <time>2019-05-30T08:13:20Z</time>
      </trkpt>
      <trkpt lat="44.83066" lon="5.4834">
        <ele>1617.5</ele>
        <time>2019-05-30T08:13:23Z</time>
      </trkpt>
      <trkpt lat="44.83066" lon="5.48336">
        <ele>1617.8</ele>
        <time>2019-05-30T08:13:26Z</time>
      </trkpt>
      <trkpt lat="44.83067" lon="5.48332">
        <ele>1618</ele>
        <time>2019-05-30T08:13:29Z</time>
      </trkpt>
      <trkpt lat="44.83069" lon="5.48328">
        <ele>1618.3</ele>
        <time>2019-05-30T08:13:33Z</time>
      </trkpt>
      <trkpt lat="44.8307" lon="5.48325">
        <ele>1618.5</ele>
        <time>2019-05-30T08:13:36Z</time>
      </trkpt>
      <trkpt lat="44.83072" lon="5.48321">
        <ele>1618.8</ele>
        <time>2019-05-30T08:13:40Z</time>
      </trkpt>
      <trkpt lat="44.83074" lon="5.48317">
        <ele>1619.1</ele>
        <time>2019-05-30T08:13:44Z</time>
      </trkpt>
      <trkpt lat="44.83075" lon="5.48313">
        <ele>1619.4</ele>
        <time>2019-05-30T08:13:47Z</time>
      </trkpt>
      <trkpt lat="44.83077" lon="5.48307">
        <ele>1619.9</ele>
        <time>2019-05-30T08:13:50Z</time>
      </trkpt>
      <trkpt lat="44.83078" lon="5.48303">
        <ele>1620.2</ele>
        <time>2019-05-30T08:13:52Z</time>
      </trkpt>
      <trkpt lat="44.83079" lon="5.483">
        <ele>1620.5</ele>
        <time>2019-05-30T08:13:54Z</time>
      </trkpt>
      <trkpt lat="44.83081" lon="5.48295">
        <ele>1620.9</ele>
        <time>2019-05-30T08:13:57Z</time>
      </trkpt>
      <trkpt lat="44.83082" lon="5.4829">
        <ele>1621.2</ele>
        <time>2019-05-30T08:14:00Z</time>
      </trkpt>
      <trkpt lat="44.83083" lon="5.48286">
        <ele>1621.5</ele>
        <time>2019-05-30T08:14:03Z</time>
      </trkpt>
      <trkpt lat="44.83084" lon="5.48282">
        <ele>1621.7</ele>
        <time>2019-05-30T08:14:06Z</time>
      </trkpt>
      <trkpt lat="44.83086" lon="5.48278">
        <ele>1622</ele>
        <time>2019-05-30T08:14:10Z</time>
      </trkpt>
      <trkpt lat="44.83088" lon="5.48274">
        <ele>1622.3</ele>
        <time>2019-05-30T08:14:15Z</time>
      </trkpt>
      <trkpt lat="44.8309" lon="5.48271">
        <ele>1622.5</ele>
        <time>2019-05-30T08:14:18Z</time>
      </trkpt>
      <trkpt lat="44.83092" lon="5.48266">
        <ele>1622.8</ele>
        <time>2019-05-30T08:14:21Z</time>
      </trkpt>
      <trkpt lat="44.83093" lon="5.48262">
        <ele>1623</ele>
        <time>2019-05-30T08:14:24Z</time>
      </trkpt>
      <trkpt lat="44.83096" lon="5.48258">
        <ele>1623</ele>
        <time>2019-05-30T08:14:27Z</time>
      </trkpt>
      <trkpt lat="44.83098" lon="5.48254">
        <ele>1623</ele>
        <time>2019-05-30T08:14:30Z</time>
      </trkpt>
      <trkpt lat="44.83099" lon="5.4825">
        <ele>1623</ele>
        <time>2019-05-30T08:14:32Z</time>
      </trkpt>
      <trkpt lat="44.831" lon="5.48246">
        <ele>1623</ele>
        <time>2019-05-30T08:14:34Z</time>
      </trkpt>
      <trkpt lat="44.83102" lon="5.48241">
        <ele>1623</ele>
        <time>2019-05-30T08:14:37Z</time>
      </trkpt>
      <trkpt lat="44.83103" lon="5.48238">
        <ele>1622.9</ele>
        <time>2019-05-30T08:14:39Z</time>
      </trkpt>
      <trkpt lat="44.83105" lon="5.48232">
        <ele>1622.9</ele>
        <time>2019-05-30T08:14:42Z</time>
      </trkpt>
      <trkpt lat="44.83106" lon="5.48228">
        <ele>1622.9</ele>
        <time>2019-05-30T08:14:45Z</time>
      </trkpt>
      <trkpt lat="44.83106" lon="5.48222">
        <ele>1622.8</ele>
        <time>2019-05-30T08:14:48Z</time>
      </trkpt>
      <trkpt lat="44.83107" lon="5.48218">
        <ele>1622.8</ele>
        <time>2019-05-30T08:14:50Z</time>
      </trkpt>
      <trkpt lat="44.83108" lon="5.48214">
        <ele>1622.7</ele>
        <time>2019-05-30T08:14:53Z</time>
      </trkpt>
      <trkpt lat="44.83109" lon="5.48209">
        <ele>1622.6</ele>
        <time>2019-05-30T08:14:56Z</time>
      </trkpt>
      <trkpt lat="44.8311" lon="5.48204">
        <ele>1622.6</ele>
        <time>2019-05-30T08:14:59Z</time>
      </trkpt>
      <trkpt lat="44.83111" lon="5.48199">
        <ele>1622.4</ele>
        <time>2019-05-30T08:15:02Z</time>
      </trkpt>
      <trkpt lat="44.83113" lon="5.48195">
        <ele>1622.3</ele>
        <time>2019-05-30T08:15:05Z</time>
      </trkpt>
      <trkpt lat="44.83115" lon="5.48191">
        <ele>1622.2</ele>
        <time>2019-05-30T08:15:08Z</time>
      </trkpt>
      <trkpt lat="44.83116" lon="5.48187">
        <ele>1622.1</ele>
        <time>2019-05-30T08:15:11Z</time>
      </trkpt>
      <trkpt lat="44.83118" lon="5.48183">
        <ele>1621.9</ele>
        <time>2019-05-30T08:15:14Z</time>
      </trkpt>
      <trkpt lat="44.8312" lon="5.4818">
        <ele>1621.7</ele>
        <time>2019-05-30T08:15:17Z</time>
      </trkpt>
      <trkpt lat="44.83123" lon="5.48176">
        <ele>1621.5</ele>
        <time>2019-05-30T08:15:20Z</time>
      </trkpt>
      <trkpt lat="44.83124" lon="5.48173">
        <ele>1621.4</ele>
        <time>2019-05-30T08:15:22Z</time>
      </trkpt>
      <trkpt lat="44.83125" lon="5.48169">
        <ele>1621.4</ele>
        <time>2019-05-30T08:15:24Z</time>
      </trkpt>
      <trkpt lat="44.83127" lon="5.48165">
        <ele>1621.3</ele>
        <time>2019-05-30T08:15:26Z</time>
      </trkpt>
      <trkpt lat="44.83129" lon="5.48161">
        <ele>1621.2</ele>
        <time>2019-05-30T08:15:28Z</time>
      </trkpt>
      <trkpt lat="44.8313" lon="5.48157">
        <ele>1621.2</ele>
        <time>2019-05-30T08:15:30Z</time>
      </trkpt>
      <trkpt lat="44.83132" lon="5.48152">
        <ele>1621.1</ele>
        <time>2019-05-30T08:15:32Z</time>
      </trkpt>
      <trkpt lat="44.83134" lon="5.48149">
        <ele>1621.1</ele>
        <time>2019-05-30T08:15:34Z</time>
      </trkpt>
      <trkpt lat="44.83136" lon="5.48146">
        <ele>1621.1</ele>
        <time>2019-05-30T08:15:36Z</time>
      </trkpt>
      <trkpt lat="44.83138" lon="5.48142">
        <ele>1621.1</ele>
        <time>2019-05-30T08:15:38Z</time>
      </trkpt>
      <trkpt lat="44.8314" lon="5.48137">
        <ele>1621.2</ele>
        <time>2019-05-30T08:15:40Z</time>
      </trkpt>
      <trkpt lat="44.83142" lon="5.48133">
        <ele>1621.4</ele>
        <time>2019-05-30T08:15:43Z</time>
      </trkpt>
      <trkpt lat="44.83144" lon="5.4813">
        <ele>1621.5</ele>
        <time>2019-05-30T08:15:45Z</time>
      </trkpt>
      <trkpt lat="44.83146" lon="5.48127">
        <ele>1621.7</ele>
        <time>2019-05-30T08:15:48Z</time>
      </trkpt>
      <trkpt lat="44.83149" lon="5.48124">
        <ele>1621.9</ele>
        <time>2019-05-30T08:15:51Z</time>
      </trkpt>
      <trkpt lat="44.83152" lon="5.48121">
        <ele>1622.1</ele>
        <time>2019-05-30T08:15:54Z</time>
      </trkpt>
      <trkpt lat="44.83155" lon="5.4812">
        <ele>1622.3</ele>
        <time>2019-05-30T08:15:57Z</time>
      </trkpt>
      <trkpt lat="44.83159" lon="5.48119">
        <ele>1622.5</ele>
        <time>2019-05-30T08:16:00Z</time>
      </trkpt>
      <trkpt lat="44.83161" lon="5.4812">
        <ele>1622.6</ele>
        <time>2019-05-30T08:16:03Z</time>
      </trkpt>
      <trkpt lat="44.83165" lon="5.4812">
        <ele>1622.7</ele>
        <time>2019-05-30T08:16:06Z</time>
      </trkpt>
      <trkpt lat="44.83168" lon="5.48122">
        <ele>1622.9</ele>
        <time>2019-05-30T08:16:09Z</time>
      </trkpt>
      <trkpt lat="44.83171" lon="5.48124">
        <ele>1623</ele>
        <time>2019-05-30T08:16:12Z</time>
      </trkpt>
      <trkpt lat="44.83174" lon="5.48127">
        <ele>1623</ele>
        <time>2019-05-30T08:16:15Z</time>
      </trkpt>
      <trkpt lat="44.83177" lon="5.48129">
        <ele>1623.1</ele>
        <time>2019-05-30T08:16:17Z</time>
      </trkpt>
      <trkpt lat="44.8318" lon="5.4813">
        <ele>1623.1</ele>
        <time>2019-05-30T08:16:19Z</time>
      </trkpt>
      <trkpt lat="44.83183" lon="5.48132">
        <ele>1623.1</ele>
        <time>2019-05-30T08:16:21Z</time>
      </trkpt>
      <trkpt lat="44.83186" lon="5.48133">
        <ele>1623.1</ele>
        <time>2019-05-30T08:16:23Z</time>
      </trkpt>
      <trkpt lat="44.83189" lon="5.48135">
        <ele>1623.2</ele>
        <time>2019-05-30T08:16:25Z</time>
      </trkpt>
      <trkpt lat="44.83193" lon="5.48137">
        <ele>1623.2</ele>
        <time>2019-05-30T08:16:27Z</time>
      </trkpt>
      <trkpt lat="44.83196" lon="5.48138">
        <ele>1623.2</ele>
        <time>2019-05-30T08:16:29Z</time>
      </trkpt>
      <trkpt lat="44.832" lon="5.4814">
        <ele>1623.2</ele>
        <time>2019-05-30T08:16:31Z</time>
      </trkpt>
      <trkpt lat="44.83203" lon="5.48142">
        <ele>1623.2</ele>
        <time>2019-05-30T08:16:33Z</time>
      </trkpt>
      <trkpt lat="44.83206" lon="5.48144">
        <ele>1623.2</ele>
        <time>2019-05-30T08:16:35Z</time>
      </trkpt>
      <trkpt lat="44.83209" lon="5.48147">
        <ele>1623.2</ele>
        <time>2019-05-30T08:16:38Z</time>
      </trkpt>
      <trkpt lat="44.83212" lon="5.4815">
        <ele>1623.2</ele>
        <time>2019-05-30T08:16:41Z</time>
      </trkpt>
      <trkpt lat="44.83215" lon="5.48152">
        <ele>1623.2</ele>
        <time>2019-05-30T08:16:44Z</time>
      </trkpt>
      <trkpt lat="44.83218" lon="5.48154">
        <ele>1623.2</ele>
        <time>2019-05-30T08:16:47Z</time>
      </trkpt>
      <trkpt lat="44.83221" lon="5.48155">
        <ele>1623.2</ele>
        <time>2019-05-30T08:16:50Z</time>
      </trkpt>
      <trkpt lat="44.83223" lon="5.48156">
        <ele>1623.2</ele>
        <time>2019-05-30T08:16:53Z</time>
      </trkpt>
      <trkpt lat="44.83227" lon="5.48157">
        <ele>1623.2</ele>
        <time>2019-05-30T08:16:56Z</time>
      </trkpt>
      <trkpt lat="44.8323" lon="5.48157">
        <ele>1623.2</ele>
        <time>2019-05-30T08:16:59Z</time>
      </trkpt>
      <trkpt lat="44.83234" lon="5.48157">
        <ele>1623.2</ele>
        <time>2019-05-30T08:17:02Z</time>
      </trkpt>
      <trkpt lat="44.83238" lon="5.48157">
        <ele>1623.2</ele>
        <time>2019-05-30T08:17:05Z</time>
      </trkpt>
      <trkpt lat="44.83241" lon="5.48157">
        <ele>1623.2</ele>
        <time>2019-05-30T08:17:08Z</time>
      </trkpt>
      <trkpt lat="44.83244" lon="5.48157">
        <ele>1623.2</ele>
        <time>2019-05-30T08:17:11Z</time>
      </trkpt>
      <trkpt lat="44.83242" lon="5.48162">
        <ele>1623.2</ele>
        <time>2019-05-30T08:18:49Z</time>
      </trkpt>
      <trkpt lat="44.83245" lon="5.48161">
        <ele>1623.2</ele>
        <time>2019-05-30T08:18:53Z</time>
      </trkpt>
      <trkpt lat="44.83249" lon="5.48161">
        <ele>1623.2</ele>
        <time>2019-05-30T08:18:56Z</time>
      </trkpt>
      <trkpt lat="44.83252" lon="5.4816">
        <ele>1623.2</ele>
        <time>2019-05-30T08:18:59Z</time>
      </trkpt>
      <trkpt lat="44.83255" lon="5.48157">
        <ele>1623.2</ele>
        <time>2019-05-30T08:19:03Z</time>
      </trkpt>
      <trkpt lat="44.83258" lon="5.48158">
        <ele>1623.2</ele>
        <time>2019-05-30T08:19:46Z</time>
      </trkpt>
      <trkpt lat="44.8326" lon="5.48161">
        <ele>1623.2</ele>
        <time>2019-05-30T08:19:51Z</time>
      </trkpt>
      <trkpt lat="44.83263" lon="5.48164">
        <ele>1623.2</ele>
        <time>2019-05-30T08:19:55Z</time>
      </trkpt>
      <trkpt lat="44.83266" lon="5.48167">
        <ele>1623.2</ele>
        <time>2019-05-30T08:19:58Z</time>
      </trkpt>
      <trkpt lat="44.83268" lon="5.4817">
        <ele>1623.3</ele>
        <time>2019-05-30T08:20:00Z</time>
      </trkpt>
      <trkpt lat="44.83271" lon="5.48171">
        <ele>1623.3</ele>
        <time>2019-05-30T08:20:03Z</time>
      </trkpt>
      <trkpt lat="44.83274" lon="5.48172">
        <ele>1623.3</ele>
        <time>2019-05-30T08:20:05Z</time>
      </trkpt>
      <trkpt lat="44.83278" lon="5.48173">
        <ele>1623.3</ele>
        <time>2019-05-30T08:20:07Z</time>
      </trkpt>
      <trkpt lat="44.83282" lon="5.48172">
        <ele>1623.4</ele>
        <time>2019-05-30T08:20:09Z</time>
      </trkpt>
      <trkpt lat="44.83285" lon="5.48172">
        <ele>1623.4</ele>
        <time>2019-05-30T08:20:11Z</time>
      </trkpt>
      <trkpt lat="44.83288" lon="5.48171">
        <ele>1623.4</ele>
        <time>2019-05-30T08:20:13Z</time>
      </trkpt>
      <trkpt lat="44.83292" lon="5.48171">
        <ele>1623.5</ele>
        <time>2019-05-30T08:20:15Z</time>
      </trkpt>
      <trkpt lat="44.83294" lon="5.48171">
        <ele>1623.6</ele>
        <time>2019-05-30T08:20:17Z</time>
      </trkpt>
      <trkpt lat="44.83298" lon="5.48172">
        <ele>1623.7</ele>
        <time>2019-05-30T08:20:20Z</time>
      </trkpt>
      <trkpt lat="44.83302" lon="5.48172">
        <ele>1623.8</ele>
        <time>2019-05-30T08:20:23Z</time>
      </trkpt>
      <trkpt lat="44.83304" lon="5.48173">
        <ele>1623.9</ele>
        <time>2019-05-30T08:20:25Z</time>
      </trkpt>
      <trkpt lat="44.83307" lon="5.48175">
        <ele>1623.9</ele>
        <time>2019-05-30T08:20:27Z</time>
      </trkpt>
      <trkpt lat="44.83311" lon="5.48178">
        <ele>1624.1</ele>
        <time>2019-05-30T08:20:30Z</time>
      </trkpt>
      <trkpt lat="44.83313" lon="5.48181">
        <ele>1624.2</ele>
        <time>2019-05-30T08:20:33Z</time>
      </trkpt>
      <trkpt lat="44.83315" lon="5.48185">
        <ele>1624.4</ele>
        <time>2019-05-30T08:20:36Z</time>
      </trkpt>
      <trkpt lat="44.83317" lon="5.4819">
        <ele>1624.5</ele>
        <time>2019-05-30T08:20:39Z</time>
      </trkpt>
      <trkpt lat="44.83318" lon="5.48195">
        <ele>1624.7</ele>
        <time>2019-05-30T08:20:42Z</time>
      </trkpt>
      <trkpt lat="44.83318" lon="5.48199">
        <ele>1624.8</ele>
        <time>2019-05-30T08:20:44Z</time>
      </trkpt>
      <trkpt lat="44.83319" lon="5.48204">
        <ele>1624.9</ele>
        <time>2019-05-30T08:20:47Z</time>
      </trkpt>
      <trkpt lat="44.83319" lon="5.48209">
        <ele>1625.1</ele>
        <time>2019-05-30T08:20:50Z</time>
      </trkpt>
      <trkpt lat="44.83321" lon="5.48214">
        <ele>1625.3</ele>
        <time>2019-05-30T08:20:53Z</time>
      </trkpt>
      <trkpt lat="44.83322" lon="5.48218">
        <ele>1625.4</ele>
        <time>2019-05-30T08:20:56Z</time>
      </trkpt>
      <trkpt lat="44.83324" lon="5.48222">
        <ele>1625.6</ele>
        <time>2019-05-30T08:21:00Z</time>
      </trkpt>
      <trkpt lat="44.83327" lon="5.4822">
        <ele>1625.7</ele>
        <time>2019-05-30T08:21:04Z</time>
      </trkpt>
      <trkpt lat="44.83329" lon="5.48218">
        <ele>1625.8</ele>
        <time>2019-05-30T08:21:07Z</time>
      </trkpt>
      <trkpt lat="44.83333" lon="5.48216">
        <ele>1626</ele>
        <time>2019-05-30T08:21:10Z</time>
      </trkpt>
      <trkpt lat="44.83335" lon="5.48214">
        <ele>1626.2</ele>
        <time>2019-05-30T08:21:13Z</time>
      </trkpt>
      <trkpt lat="44.83339" lon="5.48211">
        <ele>1626.3</ele>
        <time>2019-05-30T08:21:16Z</time>
      </trkpt>
      <trkpt lat="44.83342" lon="5.48208">
        <ele>1626.5</ele>
        <time>2019-05-30T08:21:19Z</time>
      </trkpt>
      <trkpt lat="44.83344" lon="5.48205">
        <ele>1626.7</ele>
        <time>2019-05-30T08:21:22Z</time>
      </trkpt>
      <trkpt lat="44.83347" lon="5.48203">
        <ele>1626.9</ele>
        <time>2019-05-30T08:21:25Z</time>
      </trkpt>
      <trkpt lat="44.83349" lon="5.482">
        <ele>1627.1</ele>
        <time>2019-05-30T08:21:28Z</time>
      </trkpt>
      <trkpt lat="44.83352" lon="5.48198">
        <ele>1627.3</ele>
        <time>2019-05-30T08:21:31Z</time>
      </trkpt>
      <trkpt lat="44.83354" lon="5.48196">
        <ele>1627.4</ele>
        <time>2019-05-30T08:21:33Z</time>
      </trkpt>
      <trkpt lat="44.83357" lon="5.48194">
        <ele>1627.5</ele>
        <time>2019-05-30T08:21:35Z</time>
      </trkpt>
      <trkpt lat="44.8336" lon="5.4819">
        <ele>1627.7</ele>
        <time>2019-05-30T08:21:38Z</time>
      </trkpt>
      <trkpt lat="44.83362" lon="5.48188">
        <ele>1627.8</ele>
        <time>2019-05-30T08:21:40Z</time>
      </trkpt>
      <trkpt lat="44.83364" lon="5.48185">
        <ele>1628</ele>
        <time>2019-05-30T08:21:42Z</time>
      </trkpt>
      <trkpt lat="44.83367" lon="5.48183">
        <ele>1628</ele>
        <time>2019-05-30T08:21:44Z</time>
      </trkpt>
      <trkpt lat="44.8337" lon="5.48181">
        <ele>1628.1</ele>
        <time>2019-05-30T08:21:46Z</time>
      </trkpt>
      <trkpt lat="44.83373" lon="5.48179">
        <ele>1628.2</ele>
        <time>2019-05-30T08:21:49Z</time>
      </trkpt>
      <trkpt lat="44.83375" lon="5.48177">
        <ele>1628.3</ele>
        <time>2019-05-30T08:21:52Z</time>
      </trkpt>
      <trkpt lat="44.83378" lon="5.48175">
        <ele>1628.3</ele>
        <time>2019-05-30T08:21:55Z</time>
      </trkpt>
      <trkpt lat="44.83381" lon="5.48174">
        <ele>1628.3</ele>
        <time>2019-05-30T08:21:57Z</time>
      </trkpt>
      <trkpt lat="44.83384" lon="5.48172">
        <ele>1628.4</ele>
        <time>2019-05-30T08:21:59Z</time>
      </trkpt>
      <trkpt lat="44.83388" lon="5.48171">
        <ele>1628.4</ele>
        <time>2019-05-30T08:22:02Z</time>
      </trkpt>
      <trkpt lat="44.83392" lon="5.48171">
        <ele>1628.4</ele>
        <time>2019-05-30T08:22:05Z</time>
      </trkpt>
      <trkpt lat="44.83395" lon="5.4817">
        <ele>1628.3</ele>
        <time>2019-05-30T08:22:08Z</time>
      </trkpt>
      <trkpt lat="44.83399" lon="5.48171">
        <ele>1628.3</ele>
        <time>2019-05-30T08:22:11Z</time>
      </trkpt>
      <trkpt lat="44.83402" lon="5.48171">
        <ele>1628.3</ele>
        <time>2019-05-30T08:22:14Z</time>
      </trkpt>
      <trkpt lat="44.83406" lon="5.48172">
        <ele>1628.5</ele>
        <time>2019-05-30T08:22:17Z</time>
      </trkpt>
      <trkpt lat="44.83409" lon="5.48172">
        <ele>1628.7</ele>
        <time>2019-05-30T08:22:20Z</time>
      </trkpt>
      <trkpt lat="44.83412" lon="5.48173">
        <ele>1628.9</ele>
        <time>2019-05-30T08:22:23Z</time>
      </trkpt>
      <trkpt lat="44.83415" lon="5.48172">
        <ele>1629.1</ele>
        <time>2019-05-30T08:22:26Z</time>
      </trkpt>
      <trkpt lat="44.83418" lon="5.48172">
        <ele>1629.3</ele>
        <time>2019-05-30T08:22:30Z</time>
      </trkpt>
      <trkpt lat="44.83421" lon="5.48173">
        <ele>1629.4</ele>
        <time>2019-05-30T08:22:34Z</time>
      </trkpt>
      <trkpt lat="44.83425" lon="5.48173">
        <ele>1629.6</ele>
        <time>2019-05-30T08:22:37Z</time>
      </trkpt>
      <trkpt lat="44.83428" lon="5.48172">
        <ele>1629.7</ele>
        <time>2019-05-30T08:22:39Z</time>
      </trkpt>
      <trkpt lat="44.83431" lon="5.48172">
        <ele>1629.8</ele>
        <time>2019-05-30T08:22:42Z</time>
      </trkpt>
      <trkpt lat="44.83434" lon="5.48172">
        <ele>1629.9</ele>
        <time>2019-05-30T08:22:44Z</time>
      </trkpt>
      <trkpt lat="44.83438" lon="5.4817">
        <ele>1630</ele>
        <time>2019-05-30T08:22:47Z</time>
      </trkpt>
      <trkpt lat="44.83441" lon="5.48169">
        <ele>1630</ele>
        <time>2019-05-30T08:22:49Z</time>
      </trkpt>
      <trkpt lat="44.83444" lon="5.48168">
        <ele>1630</ele>
        <time>2019-05-30T08:22:51Z</time>
      </trkpt>
      <trkpt lat="44.83447" lon="5.48167">
        <ele>1630</ele>
        <time>2019-05-30T08:22:53Z</time>
      </trkpt>
      <trkpt lat="44.8345" lon="5.48167">
        <ele>1630</ele>
        <time>2019-05-30T08:22:55Z</time>
      </trkpt>
      <trkpt lat="44.83453" lon="5.48165">
        <ele>1629.9</ele>
        <time>2019-05-30T08:22:57Z</time>
      </trkpt>
      <trkpt lat="44.83456" lon="5.48164">
        <ele>1629.9</ele>
        <time>2019-05-30T08:22:59Z</time>
      </trkpt>
      <trkpt lat="44.83459" lon="5.48164">
        <ele>1629.8</ele>
        <time>2019-05-30T08:23:01Z</time>
      </trkpt>
      <trkpt lat="44.83462" lon="5.48163">
        <ele>1629.7</ele>
        <time>2019-05-30T08:23:04Z</time>
      </trkpt>
      <trkpt lat="44.83465" lon="5.48162">
        <ele>1629.6</ele>
        <time>2019-05-30T08:23:07Z</time>
      </trkpt>
      <trkpt lat="44.83469" lon="5.48161">
        <ele>1629.6</ele>
        <time>2019-05-30T08:23:11Z</time>
      </trkpt>
      <trkpt lat="44.83472" lon="5.4816">
        <ele>1629.5</ele>
        <time>2019-05-30T08:23:14Z</time>
      </trkpt>
      <trkpt lat="44.83474" lon="5.48159">
        <ele>1629.4</ele>
        <time>2019-05-30T08:23:16Z</time>
      </trkpt>
      <trkpt lat="44.83477" lon="5.48158">
        <ele>1629.4</ele>
        <time>2019-05-30T08:23:18Z</time>
      </trkpt>
      <trkpt lat="44.83481" lon="5.48157">
        <ele>1629.3</ele>
        <time>2019-05-30T08:23:21Z</time>
      </trkpt>
      <trkpt lat="44.83484" lon="5.48157">
        <ele>1629.2</ele>
        <time>2019-05-30T08:23:23Z</time>
      </trkpt>
      <trkpt lat="44.83487" lon="5.48157">
        <ele>1629.1</ele>
        <time>2019-05-30T08:23:25Z</time>
      </trkpt>
      <trkpt lat="44.8349" lon="5.48155">
        <ele>1628.9</ele>
        <time>2019-05-30T08:23:28Z</time>
      </trkpt>
      <trkpt lat="44.83493" lon="5.48154">
        <ele>1628.7</ele>
        <time>2019-05-30T08:23:30Z</time>
      </trkpt>
      <trkpt lat="44.83496" lon="5.48153">
        <ele>1628.5</ele>
        <time>2019-05-30T08:23:32Z</time>
      </trkpt>
      <trkpt lat="44.835" lon="5.48152">
        <ele>1628.2</ele>
        <time>2019-05-30T08:23:35Z</time>
      </trkpt>
      <trkpt lat="44.83503" lon="5.48151">
        <ele>1627.9</ele>
        <time>2019-05-30T08:23:37Z</time>
      </trkpt>
      <trkpt lat="44.83506" lon="5.4815">
        <ele>1627.7</ele>
        <time>2019-05-30T08:23:39Z</time>
      </trkpt>
      <trkpt lat="44.83508" lon="5.48149">
        <ele>1627.5</ele>
        <time>2019-05-30T08:23:41Z</time>
      </trkpt>
      <trkpt lat="44.83512" lon="5.48148">
        <ele>1627.2</ele>
        <time>2019-05-30T08:23:44Z</time>
      </trkpt>
      <trkpt lat="44.83516" lon="5.48148">
        <ele>1626.9</ele>
        <time>2019-05-30T08:23:47Z</time>
      </trkpt>
      <trkpt lat="44.8352" lon="5.48147">
        <ele>1626.7</ele>
        <time>2019-05-30T08:23:50Z</time>
      </trkpt>
      <trkpt lat="44.83522" lon="5.48146">
        <ele>1626.7</ele>
        <time>2019-05-30T08:23:52Z</time>
      </trkpt>
      <trkpt lat="44.83526" lon="5.48146">
        <ele>1626.6</ele>
        <time>2019-05-30T08:23:55Z</time>
      </trkpt>
      <trkpt lat="44.8353" lon="5.48146">
        <ele>1626.6</ele>
        <time>2019-05-30T08:23:58Z</time>
      </trkpt>
      <trkpt lat="44.83533" lon="5.48145">
        <ele>1626.6</ele>
        <time>2019-05-30T08:24:01Z</time>
      </trkpt>
      <trkpt lat="44.83537" lon="5.48144">
        <ele>1626.8</ele>
        <time>2019-05-30T08:24:04Z</time>
      </trkpt>
      <trkpt lat="44.8354" lon="5.48144">
        <ele>1626.9</ele>
        <time>2019-05-30T08:24:06Z</time>
      </trkpt>
      <trkpt lat="44.83543" lon="5.48143">
        <ele>1627</ele>
        <time>2019-05-30T08:24:09Z</time>
      </trkpt>
      <trkpt lat="44.83546" lon="5.48142">
        <ele>1627.1</ele>
        <time>2019-05-30T08:24:11Z</time>
      </trkpt>
      <trkpt lat="44.83549" lon="5.48142">
        <ele>1627.2</ele>
        <time>2019-05-30T08:24:13Z</time>
      </trkpt>
      <trkpt lat="44.83553" lon="5.48142">
        <ele>1627.4</ele>
        <time>2019-05-30T08:24:16Z</time>
      </trkpt>
      <trkpt lat="44.83556" lon="5.48142">
        <ele>1627.4</ele>
        <time>2019-05-30T08:24:19Z</time>
      </trkpt>
      <trkpt lat="44.8356" lon="5.48143">
        <ele>1627.5</ele>
        <time>2019-05-30T08:24:22Z</time>
      </trkpt>
      <trkpt lat="44.83563" lon="5.48143">
        <ele>1627.5</ele>
        <time>2019-05-30T08:24:25Z</time>
      </trkpt>
      <trkpt lat="44.83566" lon="5.48144">
        <ele>1627.5</ele>
        <time>2019-05-30T08:24:28Z</time>
      </trkpt>
      <trkpt lat="44.83569" lon="5.48144">
        <ele>1627.5</ele>
        <time>2019-05-30T08:24:31Z</time>
      </trkpt>
      <trkpt lat="44.83572" lon="5.48145">
        <ele>1627.5</ele>
        <time>2019-05-30T08:24:34Z</time>
      </trkpt>
      <trkpt lat="44.83576" lon="5.48146">
        <ele>1627.5</ele>
        <time>2019-05-30T08:24:37Z</time>
      </trkpt>
      <trkpt lat="44.83579" lon="5.48146">
        <ele>1627.4</ele>
        <time>2019-05-30T08:24:39Z</time>
      </trkpt>
      <trkpt lat="44.83582" lon="5.48146">
        <ele>1627.4</ele>
        <time>2019-05-30T08:24:41Z</time>
      </trkpt>
      <trkpt lat="44.83586" lon="5.48147">
        <ele>1627.4</ele>
        <time>2019-05-30T08:24:44Z</time>
      </trkpt>
      <trkpt lat="44.83589" lon="5.48148">
        <ele>1627.4</ele>
        <time>2019-05-30T08:24:46Z</time>
      </trkpt>
      <trkpt lat="44.83592" lon="5.48149">
        <ele>1627.3</ele>
        <time>2019-05-30T08:24:48Z</time>
      </trkpt>
      <trkpt lat="44.83596" lon="5.4815">
        <ele>1627.2</ele>
        <time>2019-05-30T08:24:51Z</time>
      </trkpt>
      <trkpt lat="44.83599" lon="5.48151">
        <ele>1627.2</ele>
        <time>2019-05-30T08:24:54Z</time>
      </trkpt>
      <trkpt lat="44.83602" lon="5.48151">
        <ele>1627.1</ele>
        <time>2019-05-30T08:24:57Z</time>
      </trkpt>
      <trkpt lat="44.83605" lon="5.48152">
        <ele>1627</ele>
        <time>2019-05-30T08:25:00Z</time>
      </trkpt>
      <trkpt lat="44.83608" lon="5.48152">
        <ele>1626.8</ele>
        <time>2019-05-30T08:25:03Z</time>
      </trkpt>
      <trkpt lat="44.83612" lon="5.48153">
        <ele>1626.7</ele>
        <time>2019-05-30T08:25:06Z</time>
      </trkpt>
      <trkpt lat="44.83615" lon="5.48154">
        <ele>1626.5</ele>
        <time>2019-05-30T08:25:09Z</time>
      </trkpt>
      <trkpt lat="44.83619" lon="5.48155">
        <ele>1626.3</ele>
        <time>2019-05-30T08:25:12Z</time>
      </trkpt>
      <trkpt lat="44.83622" lon="5.48157">
        <ele>1626.1</ele>
        <time>2019-05-30T08:25:15Z</time>
      </trkpt>
      <trkpt lat="44.83626" lon="5.48159">
        <ele>1625.9</ele>
        <time>2019-05-30T08:25:18Z</time>
      </trkpt>
      <trkpt lat="44.83629" lon="5.48161">
        <ele>1625.8</ele>
        <time>2019-05-30T08:25:20Z</time>
      </trkpt>
      <trkpt lat="44.83631" lon="5.48163">
        <ele>1625.7</ele>
        <time>2019-05-30T08:25:22Z</time>
      </trkpt>
      <trkpt lat="44.83634" lon="5.48165">
        <ele>1625.6</ele>
        <time>2019-05-30T08:25:24Z</time>
      </trkpt>
      <trkpt lat="44.83637" lon="5.48167">
        <ele>1625.5</ele>
        <time>2019-05-30T08:25:26Z</time>
      </trkpt>
      <trkpt lat="44.83639" lon="5.48168">
        <ele>1625.4</ele>
        <time>2019-05-30T08:25:28Z</time>
      </trkpt>
      <trkpt lat="44.83643" lon="5.48171">
        <ele>1625.3</ele>
        <time>2019-05-30T08:25:31Z</time>
      </trkpt>
      <trkpt lat="44.83645" lon="5.48172">
        <ele>1625.2</ele>
        <time>2019-05-30T08:25:33Z</time>
      </trkpt>
      <trkpt lat="44.83649" lon="5.48174">
        <ele>1625.1</ele>
        <time>2019-05-30T08:25:36Z</time>
      </trkpt>
      <trkpt lat="44.83652" lon="5.48175">
        <ele>1625</ele>
        <time>2019-05-30T08:25:38Z</time>
      </trkpt>
      <trkpt lat="44.83656" lon="5.48177">
        <ele>1624.8</ele>
        <time>2019-05-30T08:25:41Z</time>
      </trkpt>
      <trkpt lat="44.8366" lon="5.48178">
        <ele>1624.7</ele>
        <time>2019-05-30T08:25:44Z</time>
      </trkpt>
      <trkpt lat="44.83663" lon="5.48179">
        <ele>1624.6</ele>
        <time>2019-05-30T08:25:47Z</time>
      </trkpt>
      <trkpt lat="44.83666" lon="5.4818">
        <ele>1624.5</ele>
        <time>2019-05-30T08:25:49Z</time>
      </trkpt>
      <trkpt lat="44.83669" lon="5.48181">
        <ele>1624.5</ele>
        <time>2019-05-30T08:25:51Z</time>
      </trkpt>
      <trkpt lat="44.83672" lon="5.48182">
        <ele>1624.5</ele>
        <time>2019-05-30T08:25:53Z</time>
      </trkpt>
      <trkpt lat="44.83676" lon="5.48184">
        <ele>1624.5</ele>
        <time>2019-05-30T08:25:56Z</time>
      </trkpt>
      <trkpt lat="44.83679" lon="5.48185">
        <ele>1624.5</ele>
        <time>2019-05-30T08:25:58Z</time>
      </trkpt>
      <trkpt lat="44.83682" lon="5.48186">
        <ele>1624.6</ele>
        <time>2019-05-30T08:26:00Z</time>
      </trkpt>
      <trkpt lat="44.83685" lon="5.48188">
        <ele>1624.7</ele>
        <time>2019-05-30T08:26:03Z</time>
      </trkpt>
      <trkpt lat="44.83688" lon="5.48189">
        <ele>1624.8</ele>
        <time>2019-05-30T08:26:05Z</time>
      </trkpt>
      <trkpt lat="44.83691" lon="5.4819">
        <ele>1625</ele>
        <time>2019-05-30T08:26:07Z</time>
      </trkpt>
      <trkpt lat="44.83694" lon="5.48191">
        <ele>1625.1</ele>
        <time>2019-05-30T08:26:09Z</time>
      </trkpt>
      <trkpt lat="44.83697" lon="5.48193">
        <ele>1625.2</ele>
        <time>2019-05-30T08:26:11Z</time>
      </trkpt>
      <trkpt lat="44.837" lon="5.48195">
        <ele>1625.4</ele>
        <time>2019-05-30T08:26:14Z</time>
      </trkpt>
      <trkpt lat="44.83704" lon="5.48196">
        <ele>1625.6</ele>
        <time>2019-05-30T08:26:17Z</time>
      </trkpt>
      <trkpt lat="44.83707" lon="5.48196">
        <ele>1625.8</ele>
        <time>2019-05-30T08:26:20Z</time>
      </trkpt>
      <trkpt lat="44.8371" lon="5.48197">
        <ele>1626</ele>
        <time>2019-05-30T08:26:23Z</time>
      </trkpt>
      <trkpt lat="44.83713" lon="5.48196">
        <ele>1626.1</ele>
        <time>2019-05-30T08:26:26Z</time>
      </trkpt>
      <trkpt lat="44.83716" lon="5.48194">
        <ele>1626.3</ele>
        <time>2019-05-30T08:26:29Z</time>
      </trkpt>
      <trkpt lat="44.83719" lon="5.48193">
        <ele>1626.5</ele>
        <time>2019-05-30T08:26:32Z</time>
      </trkpt>
      <trkpt lat="44.83722" lon="5.48193">
        <ele>1626.5</ele>
        <time>2019-05-30T08:26:35Z</time>
      </trkpt>
      <trkpt lat="44.83725" lon="5.48193">
        <ele>1626.6</ele>
        <time>2019-05-30T08:26:38Z</time>
      </trkpt>
      <trkpt lat="44.83728" lon="5.48193">
        <ele>1626.6</ele>
        <time>2019-05-30T08:26:42Z</time>
      </trkpt>
      <trkpt lat="44.83732" lon="5.48192">
        <ele>1626.6</ele>
        <time>2019-05-30T08:26:46Z</time>
      </trkpt>
      <trkpt lat="44.83734" lon="5.48192">
        <ele>1626.6</ele>
        <time>2019-05-30T08:26:48Z</time>
      </trkpt>
      <trkpt lat="44.83738" lon="5.48192">
        <ele>1626.6</ele>
        <time>2019-05-30T08:26:51Z</time>
      </trkpt>
      <trkpt lat="44.83741" lon="5.48192">
        <ele>1626.5</ele>
        <time>2019-05-30T08:26:53Z</time>
      </trkpt>
      <trkpt lat="44.83744" lon="5.48192">
        <ele>1626.5</ele>
        <time>2019-05-30T08:26:55Z</time>
      </trkpt>
      <trkpt lat="44.83749" lon="5.48193">
        <ele>1626.4</ele>
        <time>2019-05-30T08:26:58Z</time>
      </trkpt>
      <trkpt lat="44.83752" lon="5.48192">
        <ele>1626.4</ele>
        <time>2019-05-30T08:27:00Z</time>
      </trkpt>
      <trkpt lat="44.83755" lon="5.48193">
        <ele>1626.3</ele>
        <time>2019-05-30T08:27:02Z</time>
      </trkpt>
      <trkpt lat="44.83758" lon="5.48193">
        <ele>1626.3</ele>
        <time>2019-05-30T08:27:04Z</time>
      </trkpt>
      <trkpt lat="44.83762" lon="5.48194">
        <ele>1626.2</ele>
        <time>2019-05-30T08:27:06Z</time>
      </trkpt>
      <trkpt lat="44.83765" lon="5.48194">
        <ele>1626.1</ele>
        <time>2019-05-30T08:27:08Z</time>
      </trkpt>
      <trkpt lat="44.83768" lon="5.48195">
        <ele>1626</ele>
        <time>2019-05-30T08:27:10Z</time>
      </trkpt>
      <trkpt lat="44.83771" lon="5.48196">
        <ele>1626</ele>
        <time>2019-05-30T08:27:12Z</time>
      </trkpt>
      <trkpt lat="44.83773" lon="5.48196">
        <ele>1625.9</ele>
        <time>2019-05-30T08:27:14Z</time>
      </trkpt>
      <trkpt lat="44.83777" lon="5.48197">
        <ele>1625.8</ele>
        <time>2019-05-30T08:27:17Z</time>
      </trkpt>
      <trkpt lat="44.83781" lon="5.48197">
        <ele>1625.6</ele>
        <time>2019-05-30T08:27:19Z</time>
      </trkpt>
      <trkpt lat="44.83784" lon="5.48198">
        <ele>1625.5</ele>
        <time>2019-05-30T08:27:21Z</time>
      </trkpt>
      <trkpt lat="44.83786" lon="5.48198">
        <ele>1625.5</ele>
        <time>2019-05-30T08:27:23Z</time>
      </trkpt>
      <trkpt lat="44.83789" lon="5.48198">
        <ele>1625.4</ele>
        <time>2019-05-30T08:27:25Z</time>
      </trkpt>
      <trkpt lat="44.83793" lon="5.48199">
        <ele>1625.2</ele>
        <time>2019-05-30T08:27:28Z</time>
      </trkpt>
      <trkpt lat="44.83796" lon="5.482">
        <ele>1625.1</ele>
        <time>2019-05-30T08:27:31Z</time>
      </trkpt>
      <trkpt lat="44.838" lon="5.48202">
        <ele>1624.9</ele>
        <time>2019-05-30T08:27:34Z</time>
      </trkpt>
      <trkpt lat="44.83803" lon="5.48203">
        <ele>1624.8</ele>
        <time>2019-05-30T08:27:36Z</time>
      </trkpt>
      <trkpt lat="44.83806" lon="5.48204">
        <ele>1624.7</ele>
        <time>2019-05-30T08:27:38Z</time>
      </trkpt>
      <trkpt lat="44.8381" lon="5.48205">
        <ele>1624.6</ele>
        <time>2019-05-30T08:27:40Z</time>
      </trkpt>
      <trkpt lat="44.83813" lon="5.48204">
        <ele>1624.5</ele>
        <time>2019-05-30T08:27:42Z</time>
      </trkpt>
      <trkpt lat="44.83816" lon="5.48204">
        <ele>1624.4</ele>
        <time>2019-05-30T08:27:44Z</time>
      </trkpt>
      <trkpt lat="44.83819" lon="5.48205">
        <ele>1624.3</ele>
        <time>2019-05-30T08:27:46Z</time>
      </trkpt>
      <trkpt lat="44.83822" lon="5.48206">
        <ele>1624.3</ele>
        <time>2019-05-30T08:27:48Z</time>
      </trkpt>
      <trkpt lat="44.83824" lon="5.48208">
        <ele>1624.2</ele>
        <time>2019-05-30T08:27:50Z</time>
      </trkpt>
      <trkpt lat="44.83828" lon="5.48209">
        <ele>1624.1</ele>
        <time>2019-05-30T08:27:53Z</time>
      </trkpt>
      <trkpt lat="44.8383" lon="5.48209">
        <ele>1624</ele>
        <time>2019-05-30T08:27:55Z</time>
      </trkpt>
      <trkpt lat="44.83834" lon="5.4821">
        <ele>1623.8</ele>
        <time>2019-05-30T08:27:58Z</time>
      </trkpt>
      <trkpt lat="44.83837" lon="5.48211">
        <ele>1623.6</ele>
        <time>2019-05-30T08:28:01Z</time>
      </trkpt>
      <trkpt lat="44.8384" lon="5.48212">
        <ele>1623.5</ele>
        <time>2019-05-30T08:28:03Z</time>
      </trkpt>
      <trkpt lat="44.83842" lon="5.48212">
        <ele>1623.3</ele>
        <time>2019-05-30T08:28:05Z</time>
      </trkpt>
      <trkpt lat="44.83846" lon="5.48213">
        <ele>1623.1</ele>
        <time>2019-05-30T08:28:08Z</time>
      </trkpt>
      <trkpt lat="44.83849" lon="5.48213">
        <ele>1622.9</ele>
        <time>2019-05-30T08:28:10Z</time>
      </trkpt>
      <trkpt lat="44.83852" lon="5.48214">
        <ele>1622.8</ele>
        <time>2019-05-30T08:28:12Z</time>
      </trkpt>
      <trkpt lat="44.83855" lon="5.48214">
        <ele>1622.6</ele>
        <time>2019-05-30T08:28:14Z</time>
      </trkpt>
      <trkpt lat="44.83859" lon="5.48216">
        <ele>1622.4</ele>
        <time>2019-05-30T08:28:17Z</time>
      </trkpt>
      <trkpt lat="44.83862" lon="5.48217">
        <ele>1622.3</ele>
        <time>2019-05-30T08:28:19Z</time>
      </trkpt>
      <trkpt lat="44.83864" lon="5.48218">
        <ele>1622.2</ele>
        <time>2019-05-30T08:28:21Z</time>
      </trkpt>
      <trkpt lat="44.83867" lon="5.4822">
        <ele>1622</ele>
        <time>2019-05-30T08:28:23Z</time>
      </trkpt>
      <trkpt lat="44.8387" lon="5.48222">
        <ele>1621.9</ele>
        <time>2019-05-30T08:28:26Z</time>
      </trkpt>
      <trkpt lat="44.83874" lon="5.48224">
        <ele>1621.8</ele>
        <time>2019-05-30T08:28:29Z</time>
      </trkpt>
      <trkpt lat="44.83877" lon="5.48227">
        <ele>1621.7</ele>
        <time>2019-05-30T08:28:32Z</time>
      </trkpt>
      <trkpt lat="44.8388" lon="5.4823">
        <ele>1621.6</ele>
        <time>2019-05-30T08:28:35Z</time>
      </trkpt>
      <trkpt lat="44.83883" lon="5.48232">
        <ele>1621.6</ele>
        <time>2019-05-30T08:28:37Z</time>
      </trkpt>
      <trkpt lat="44.83886" lon="5.48234">
        <ele>1621.6</ele>
        <time>2019-05-30T08:28:39Z</time>
      </trkpt>
      <trkpt lat="44.83888" lon="5.48236">
        <ele>1621.5</ele>
        <time>2019-05-30T08:28:41Z</time>
      </trkpt>
      <trkpt lat="44.83891" lon="5.48239">
        <ele>1621.5</ele>
        <time>2019-05-30T08:28:43Z</time>
      </trkpt>
      <trkpt lat="44.83894" lon="5.48241">
        <ele>1621.5</ele>
        <time>2019-05-30T08:28:45Z</time>
      </trkpt>
      <trkpt lat="44.83897" lon="5.48243">
        <ele>1621.4</ele>
        <time>2019-05-30T08:28:48Z</time>
      </trkpt>
      <trkpt lat="44.839" lon="5.48246">
        <ele>1621.3</ele>
        <time>2019-05-30T08:28:51Z</time>
      </trkpt>
      <trkpt lat="44.83902" lon="5.4825">
        <ele>1621.2</ele>
        <time>2019-05-30T08:28:55Z</time>
      </trkpt>
      <trkpt lat="44.83904" lon="5.48253">
        <ele>1621.1</ele>
        <time>2019-05-30T08:28:58Z</time>
      </trkpt>
      <trkpt lat="44.83907" lon="5.48255">
        <ele>1621</ele>
        <time>2019-05-30T08:29:02Z</time>
      </trkpt>
      <trkpt lat="44.83911" lon="5.48257">
        <ele>1620.8</ele>
        <time>2019-05-30T08:29:05Z</time>
      </trkpt>
      <trkpt lat="44.83914" lon="5.48259">
        <ele>1620.6</ele>
        <time>2019-05-30T08:29:07Z</time>
      </trkpt>
      <trkpt lat="44.83916" lon="5.4826">
        <ele>1620.4</ele>
        <time>2019-05-30T08:29:09Z</time>
      </trkpt>
      <trkpt lat="44.83919" lon="5.48262">
        <ele>1620.3</ele>
        <time>2019-05-30T08:29:11Z</time>
      </trkpt>
      <trkpt lat="44.83923" lon="5.48263">
        <ele>1620.1</ele>
        <time>2019-05-30T08:29:13Z</time>
      </trkpt>
      <trkpt lat="44.83925" lon="5.48265">
        <ele>1619.9</ele>
        <time>2019-05-30T08:29:15Z</time>
      </trkpt>
      <trkpt lat="44.83928" lon="5.48267">
        <ele>1619.8</ele>
        <time>2019-05-30T08:29:17Z</time>
      </trkpt>
      <trkpt lat="44.83931" lon="5.48269">
        <ele>1619.7</ele>
        <time>2019-05-30T08:29:19Z</time>
      </trkpt>
      <trkpt lat="44.83933" lon="5.48272">
        <ele>1619.5</ele>
        <time>2019-05-30T08:29:22Z</time>
      </trkpt>
      <trkpt lat="44.83936" lon="5.48275">
        <ele>1619.4</ele>
        <time>2019-05-30T08:29:25Z</time>
      </trkpt>
      <trkpt lat="44.8394" lon="5.48278">
        <ele>1619.4</ele>
        <time>2019-05-30T08:29:28Z</time>
      </trkpt>
      <trkpt lat="44.83943" lon="5.4828">
        <ele>1619.3</ele>
        <time>2019-05-30T08:29:31Z</time>
      </trkpt>
      <trkpt lat="44.83945" lon="5.48282">
        <ele>1619.2</ele>
        <time>2019-05-30T08:29:33Z</time>
      </trkpt>
      <trkpt lat="44.83948" lon="5.48284">
        <ele>1619.2</ele>
        <time>2019-05-30T08:29:36Z</time>
      </trkpt>
      <trkpt lat="44.83952" lon="5.48286">
        <ele>1619.1</ele>
        <time>2019-05-30T08:29:39Z</time>
      </trkpt>
      <trkpt lat="44.83955" lon="5.48288">
        <ele>1619</ele>
        <time>2019-05-30T08:29:41Z</time>
      </trkpt>
      <trkpt lat="44.83958" lon="5.4829">
        <ele>1618.9</ele>
        <time>2019-05-30T08:29:43Z</time>
      </trkpt>
      <trkpt lat="44.83961" lon="5.48291">
        <ele>1618.9</ele>
        <time>2019-05-30T08:29:45Z</time>
      </trkpt>
      <trkpt lat="44.83964" lon="5.48292">
        <ele>1618.8</ele>
        <time>2019-05-30T08:29:47Z</time>
      </trkpt>
      <trkpt lat="44.83967" lon="5.48293">
        <ele>1618.7</ele>
        <time>2019-05-30T08:29:49Z</time>
      </trkpt>
      <trkpt lat="44.8397" lon="5.48295">
        <ele>1618.5</ele>
        <time>2019-05-30T08:29:52Z</time>
      </trkpt>
      <trkpt lat="44.83972" lon="5.48297">
        <ele>1618.3</ele>
        <time>2019-05-30T08:29:54Z</time>
      </trkpt>
      <trkpt lat="44.83975" lon="5.48298">
        <ele>1618.2</ele>
        <time>2019-05-30T08:29:56Z</time>
      </trkpt>
      <trkpt lat="44.83978" lon="5.48299">
        <ele>1618</ele>
        <time>2019-05-30T08:29:58Z</time>
      </trkpt>
      <trkpt lat="44.83982" lon="5.48302">
        <ele>1617.8</ele>
        <time>2019-05-30T08:30:01Z</time>
      </trkpt>
      <trkpt lat="44.83985" lon="5.48303">
        <ele>1617.6</ele>
        <time>2019-05-30T08:30:04Z</time>
      </trkpt>
      <trkpt lat="44.83988" lon="5.48305">
        <ele>1617.4</ele>
        <time>2019-05-30T08:30:07Z</time>
      </trkpt>
      <trkpt lat="44.83991" lon="5.48308">
        <ele>1617.3</ele>
        <time>2019-05-30T08:30:10Z</time>
      </trkpt>
      <trkpt lat="44.83994" lon="5.48311">
        <ele>1617.1</ele>
        <time>2019-05-30T08:30:13Z</time>
      </trkpt>
      <trkpt lat="44.83996" lon="5.48313">
        <ele>1617</ele>
        <time>2019-05-30T08:30:15Z</time>
      </trkpt>
      <trkpt lat="44.83999" lon="5.48316">
        <ele>1616.8</ele>
        <time>2019-05-30T08:30:18Z</time>
      </trkpt>
      <trkpt lat="44.84002" lon="5.48318">
        <ele>1616.6</ele>
        <time>2019-05-30T08:30:21Z</time>
      </trkpt>
      <trkpt lat="44.84005" lon="5.4832">
        <ele>1616.5</ele>
        <time>2019-05-30T08:30:24Z</time>
      </trkpt>
      <trkpt lat="44.84008" lon="5.48323">
        <ele>1616.3</ele>
        <time>2019-05-30T08:30:27Z</time>
      </trkpt>
      <trkpt lat="44.84011" lon="5.48325">
        <ele>1616.1</ele>
        <time>2019-05-30T08:30:29Z</time>
      </trkpt>
      <trkpt lat="44.84014" lon="5.48326">
        <ele>1615.9</ele>
        <time>2019-05-30T08:30:31Z</time>
      </trkpt>
      <trkpt lat="44.84017" lon="5.48327">
        <ele>1615.7</ele>
        <time>2019-05-30T08:30:33Z</time>
      </trkpt>
      <trkpt lat="44.84021" lon="5.48329">
        <ele>1615.5</ele>
        <time>2019-05-30T08:30:35Z</time>
      </trkpt>
      <trkpt lat="44.84024" lon="5.4833">
        <ele>1615.3</ele>
        <time>2019-05-30T08:30:37Z</time>
      </trkpt>
      <trkpt lat="44.84027" lon="5.48331">
        <ele>1615</ele>
        <time>2019-05-30T08:30:39Z</time>
      </trkpt>
      <trkpt lat="44.84031" lon="5.48332">
        <ele>1614.7</ele>
        <time>2019-05-30T08:30:42Z</time>
      </trkpt>
      <trkpt lat="44.84034" lon="5.48333">
        <ele>1614.4</ele>
        <time>2019-05-30T08:30:45Z</time>
      </trkpt>
      <trkpt lat="44.84036" lon="5.48333">
        <ele>1614.2</ele>
        <time>2019-05-30T08:30:48Z</time>
      </trkpt>
      <trkpt lat="44.8404" lon="5.48335">
        <ele>1613.8</ele>
        <time>2019-05-30T08:30:51Z</time>
      </trkpt>
      <trkpt lat="44.84043" lon="5.48336">
        <ele>1613.5</ele>
        <time>2019-05-30T08:30:53Z</time>
      </trkpt>
      <trkpt lat="44.84046" lon="5.48337">
        <ele>1613.1</ele>
        <time>2019-05-30T08:30:56Z</time>
      </trkpt>
      <trkpt lat="44.84049" lon="5.4834">
        <ele>1612.7</ele>
        <time>2019-05-30T08:30:59Z</time>
      </trkpt>
      <trkpt lat="44.84052" lon="5.48343">
        <ele>1612.3</ele>
        <time>2019-05-30T08:31:02Z</time>
      </trkpt>
      <trkpt lat="44.84055" lon="5.48347">
        <ele>1611.8</ele>
        <time>2019-05-30T08:31:05Z</time>
      </trkpt>
      <trkpt lat="44.84057" lon="5.48349">
        <ele>1611.5</ele>
        <time>2019-05-30T08:31:07Z</time>
      </trkpt>
      <trkpt lat="44.8406" lon="5.4835">
        <ele>1611.2</ele>
        <time>2019-05-30T08:31:09Z</time>
      </trkpt>
      <trkpt lat="44.84064" lon="5.48352">
        <ele>1610.8</ele>
        <time>2019-05-30T08:31:12Z</time>
      </trkpt>
      <trkpt lat="44.84067" lon="5.48353">
        <ele>1610.5</ele>
        <time>2019-05-30T08:31:14Z</time>
      </trkpt>
      <trkpt lat="44.8407" lon="5.48354">
        <ele>1610.2</ele>
        <time>2019-05-30T08:31:16Z</time>
      </trkpt>
      <trkpt lat="44.84073" lon="5.48354">
        <ele>1609.9</ele>
        <time>2019-05-30T08:31:19Z</time>
      </trkpt>
      <trkpt lat="44.84077" lon="5.48353">
        <ele>1609.6</ele>
        <time>2019-05-30T08:31:22Z</time>
      </trkpt>
      <trkpt lat="44.8408" lon="5.48353">
        <ele>1609.3</ele>
        <time>2019-05-30T08:31:25Z</time>
      </trkpt>
      <trkpt lat="44.84083" lon="5.48353">
        <ele>1609</ele>
        <time>2019-05-30T08:31:28Z</time>
      </trkpt>
      <trkpt lat="44.84086" lon="5.48353">
        <ele>1608.7</ele>
        <time>2019-05-30T08:31:30Z</time>
      </trkpt>
      <trkpt lat="44.8409" lon="5.48352">
        <ele>1608.3</ele>
        <time>2019-05-30T08:31:33Z</time>
      </trkpt>
      <trkpt lat="44.84093" lon="5.48352">
        <ele>1607.9</ele>
        <time>2019-05-30T08:31:36Z</time>
      </trkpt>
      <trkpt lat="44.84096" lon="5.48353">
        <ele>1607.5</ele>
        <time>2019-05-30T08:31:39Z</time>
      </trkpt>
      <trkpt lat="44.84099" lon="5.48354">
        <ele>1607.1</ele>
        <time>2019-05-30T08:31:42Z</time>
      </trkpt>
      <trkpt lat="44.84102" lon="5.48354">
        <ele>1606.6</ele>
        <time>2019-05-30T08:31:45Z</time>
      </trkpt>
      <trkpt lat="44.84106" lon="5.48354">
        <ele>1606.3</ele>
        <time>2019-05-30T08:31:48Z</time>
      </trkpt>
      <trkpt lat="44.84109" lon="5.48354">
        <ele>1605.9</ele>
        <time>2019-05-30T08:31:51Z</time>
      </trkpt>
      <trkpt lat="44.84112" lon="5.48354">
        <ele>1605.7</ele>
        <time>2019-05-30T08:31:53Z</time>
      </trkpt>
      <trkpt lat="44.84115" lon="5.48355">
        <ele>1605.5</ele>
        <time>2019-05-30T08:31:55Z</time>
      </trkpt>
      <trkpt lat="44.84117" lon="5.48355">
        <ele>1605.3</ele>
        <time>2019-05-30T08:31:57Z</time>
      </trkpt>
      <trkpt lat="44.84121" lon="5.48355">
        <ele>1605.1</ele>
        <time>2019-05-30T08:31:59Z</time>
      </trkpt>
      <trkpt lat="44.84124" lon="5.48356">
        <ele>1604.9</ele>
        <time>2019-05-30T08:32:01Z</time>
      </trkpt>
      <trkpt lat="44.84128" lon="5.48356">
        <ele>1604.7</ele>
        <time>2019-05-30T08:32:04Z</time>
      </trkpt>
      <trkpt lat="44.84132" lon="5.48356">
        <ele>1604.4</ele>
        <time>2019-05-30T08:32:07Z</time>
      </trkpt>
      <trkpt lat="44.84135" lon="5.48357">
        <ele>1604.2</ele>
        <time>2019-05-30T08:32:09Z</time>
      </trkpt>
      <trkpt lat="44.84138" lon="5.48357">
        <ele>1603.9</ele>
        <time>2019-05-30T08:32:12Z</time>
      </trkpt>
      <trkpt lat="44.84141" lon="5.48358">
        <ele>1603.6</ele>
        <time>2019-05-30T08:32:14Z</time>
      </trkpt>
      <trkpt lat="44.84144" lon="5.4836">
        <ele>1603.3</ele>
        <time>2019-05-30T08:32:17Z</time>
      </trkpt>
      <trkpt lat="44.84148" lon="5.48361">
        <ele>1602.9</ele>
        <time>2019-05-30T08:32:20Z</time>
      </trkpt>
      <trkpt lat="44.84151" lon="5.48361">
        <ele>1602.5</ele>
        <time>2019-05-30T08:32:22Z</time>
      </trkpt>
      <trkpt lat="44.84155" lon="5.48361">
        <ele>1601.9</ele>
        <time>2019-05-30T08:32:25Z</time>
      </trkpt>
      <trkpt lat="44.84157" lon="5.48361">
        <ele>1601.5</ele>
        <time>2019-05-30T08:32:27Z</time>
      </trkpt>
      <trkpt lat="44.84161" lon="5.48362">
        <ele>1601</ele>
        <time>2019-05-30T08:32:29Z</time>
      </trkpt>
      <trkpt lat="44.84164" lon="5.48362">
        <ele>1600.5</ele>
        <time>2019-05-30T08:32:31Z</time>
      </trkpt>
      <trkpt lat="44.84167" lon="5.48361">
        <ele>1600</ele>
        <time>2019-05-30T08:32:34Z</time>
      </trkpt>
      <trkpt lat="44.84169" lon="5.48361">
        <ele>1599.6</ele>
        <time>2019-05-30T08:32:36Z</time>
      </trkpt>
      <trkpt lat="44.84173" lon="5.48361">
        <ele>1599.2</ele>
        <time>2019-05-30T08:32:39Z</time>
      </trkpt>
      <trkpt lat="44.84176" lon="5.4836">
        <ele>1598.7</ele>
        <time>2019-05-30T08:32:43Z</time>
      </trkpt>
      <trkpt lat="44.84179" lon="5.48359">
        <ele>1598.3</ele>
        <time>2019-05-30T08:32:46Z</time>
      </trkpt>
      <trkpt lat="44.84182" lon="5.48358">
        <ele>1597.9</ele>
        <time>2019-05-30T08:32:49Z</time>
      </trkpt>
      <trkpt lat="44.84185" lon="5.48357">
        <ele>1597.6</ele>
        <time>2019-05-30T08:32:51Z</time>
      </trkpt>
      <trkpt lat="44.84189" lon="5.48356">
        <ele>1597.3</ele>
        <time>2019-05-30T08:32:53Z</time>
      </trkpt>
      <trkpt lat="44.84192" lon="5.48356">
        <ele>1597</ele>
        <time>2019-05-30T08:32:55Z</time>
      </trkpt>
      <trkpt lat="44.84195" lon="5.48357">
        <ele>1596.8</ele>
        <time>2019-05-30T08:32:57Z</time>
      </trkpt>
      <trkpt lat="44.84198" lon="5.48357">
        <ele>1596.6</ele>
        <time>2019-05-30T08:32:59Z</time>
      </trkpt>
      <trkpt lat="44.84202" lon="5.48357">
        <ele>1596.3</ele>
        <time>2019-05-30T08:33:02Z</time>
      </trkpt>
      <trkpt lat="44.84206" lon="5.48357">
        <ele>1596.1</ele>
        <time>2019-05-30T08:33:05Z</time>
      </trkpt>
      <trkpt lat="44.84208" lon="5.48357">
        <ele>1595.9</ele>
        <time>2019-05-30T08:33:07Z</time>
      </trkpt>
      <trkpt lat="44.84211" lon="5.48357">
        <ele>1595.7</ele>
        <time>2019-05-30T08:33:09Z</time>
      </trkpt>
      <trkpt lat="44.84214" lon="5.48357">
        <ele>1595.4</ele>
        <time>2019-05-30T08:33:11Z</time>
      </trkpt>
      <trkpt lat="44.84218" lon="5.48357">
        <ele>1595.2</ele>
        <time>2019-05-30T08:33:14Z</time>
      </trkpt>
      <trkpt lat="44.8422" lon="5.48358">
        <ele>1595</ele>
        <time>2019-05-30T08:33:16Z</time>
      </trkpt>
      <trkpt lat="44.84223" lon="5.48359">
        <ele>1594.8</ele>
        <time>2019-05-30T08:33:18Z</time>
      </trkpt>
      <trkpt lat="44.84226" lon="5.4836">
        <ele>1594.6</ele>
        <time>2019-05-30T08:33:21Z</time>
      </trkpt>
      <trkpt lat="44.84229" lon="5.48364">
        <ele>1594.4</ele>
        <time>2019-05-30T08:33:24Z</time>
      </trkpt>
      <trkpt lat="44.84232" lon="5.48367">
        <ele>1594.2</ele>
        <time>2019-05-30T08:33:27Z</time>
      </trkpt>
      <trkpt lat="44.84234" lon="5.4837">
        <ele>1594.1</ele>
        <time>2019-05-30T08:33:30Z</time>
      </trkpt>
      <trkpt lat="44.84237" lon="5.48373">
        <ele>1593.9</ele>
        <time>2019-05-30T08:33:33Z</time>
      </trkpt>
      <trkpt lat="44.84239" lon="5.48375">
        <ele>1593.8</ele>
        <time>2019-05-30T08:33:36Z</time>
      </trkpt>
      <trkpt lat="44.84242" lon="5.48377">
        <ele>1593.6</ele>
        <time>2019-05-30T08:33:39Z</time>
      </trkpt>
      <trkpt lat="44.84245" lon="5.48379">
        <ele>1593.4</ele>
        <time>2019-05-30T08:33:41Z</time>
      </trkpt>
      <trkpt lat="44.84248" lon="5.48381">
        <ele>1593.1</ele>
        <time>2019-05-30T08:33:44Z</time>
      </trkpt>
      <trkpt lat="44.84251" lon="5.48384">
        <ele>1592.9</ele>
        <time>2019-05-30T08:33:46Z</time>
      </trkpt>
      <trkpt lat="44.84254" lon="5.48385">
        <ele>1592.6</ele>
        <time>2019-05-30T08:33:48Z</time>
      </trkpt>
      <trkpt lat="44.84257" lon="5.48388">
        <ele>1592.3</ele>
        <time>2019-05-30T08:33:50Z</time>
      </trkpt>
      <trkpt lat="44.8426" lon="5.4839">
        <ele>1592</ele>
        <time>2019-05-30T08:33:52Z</time>
      </trkpt>
      <trkpt lat="44.84263" lon="5.48392">
        <ele>1591.7</ele>
        <time>2019-05-30T08:33:54Z</time>
      </trkpt>
      <trkpt lat="44.84265" lon="5.48394">
        <ele>1591.5</ele>
        <time>2019-05-30T08:33:56Z</time>
      </trkpt>
      <trkpt lat="44.84268" lon="5.48397">
        <ele>1591.2</ele>
        <time>2019-05-30T08:33:59Z</time>
      </trkpt>
      <trkpt lat="44.84272" lon="5.48399">
        <ele>1590.9</ele>
        <time>2019-05-30T08:34:02Z</time>
      </trkpt>
      <trkpt lat="44.84274" lon="5.48401">
        <ele>1590.7</ele>
        <time>2019-05-30T08:34:14Z</time>
      </trkpt>
      <trkpt lat="44.84277" lon="5.48404">
        <ele>1590.5</ele>
        <time>2019-05-30T08:34:19Z</time>
      </trkpt>
      <trkpt lat="44.8428" lon="5.48407">
        <ele>1590.3</ele>
        <time>2019-05-30T08:34:22Z</time>
      </trkpt>
      <trkpt lat="44.84282" lon="5.48408">
        <ele>1590.1</ele>
        <time>2019-05-30T08:34:24Z</time>
      </trkpt>
      <trkpt lat="44.84286" lon="5.4841">
        <ele>1589.9</ele>
        <time>2019-05-30T08:34:27Z</time>
      </trkpt>
      <trkpt lat="44.84288" lon="5.48411">
        <ele>1589.7</ele>
        <time>2019-05-30T08:34:29Z</time>
      </trkpt>
      <trkpt lat="44.84291" lon="5.48411">
        <ele>1589.5</ele>
        <time>2019-05-30T08:34:31Z</time>
      </trkpt>
      <trkpt lat="44.84295" lon="5.48412">
        <ele>1589.2</ele>
        <time>2019-05-30T08:34:34Z</time>
      </trkpt>
      <trkpt lat="44.84299" lon="5.48414">
        <ele>1588.9</ele>
        <time>2019-05-30T08:34:37Z</time>
      </trkpt>
      <trkpt lat="44.84301" lon="5.48415">
        <ele>1588.7</ele>
        <time>2019-05-30T08:34:39Z</time>
      </trkpt>
      <trkpt lat="44.84304" lon="5.48415">
        <ele>1588.5</ele>
        <time>2019-05-30T08:34:41Z</time>
      </trkpt>
      <trkpt lat="44.84307" lon="5.48416">
        <ele>1588.3</ele>
        <time>2019-05-30T08:34:44Z</time>
      </trkpt>
      <trkpt lat="44.84311" lon="5.48417">
        <ele>1588</ele>
        <time>2019-05-30T08:34:47Z</time>
      </trkpt>
      <trkpt lat="44.84314" lon="5.48417">
        <ele>1587.8</ele>
        <time>2019-05-30T08:34:49Z</time>
      </trkpt>
      <trkpt lat="44.84317" lon="5.48417">
        <ele>1587.6</ele>
        <time>2019-05-30T08:34:51Z</time>
      </trkpt>
      <trkpt lat="44.8432" lon="5.48417">
        <ele>1587.4</ele>
        <time>2019-05-30T08:34:53Z</time>
      </trkpt>
      <trkpt lat="44.84324" lon="5.48417">
        <ele>1587.1</ele>
        <time>2019-05-30T08:34:55Z</time>
      </trkpt>
      <trkpt lat="44.84328" lon="5.48417">
        <ele>1586.9</ele>
        <time>2019-05-30T08:34:57Z</time>
      </trkpt>
      <trkpt lat="44.84331" lon="5.48418">
        <ele>1586.8</ele>
        <time>2019-05-30T08:34:59Z</time>
      </trkpt>
      <trkpt lat="44.84334" lon="5.48418">
        <ele>1586.7</ele>
        <time>2019-05-30T08:35:01Z</time>
      </trkpt>
      <trkpt lat="44.84337" lon="5.48419">
        <ele>1586.6</ele>
        <time>2019-05-30T08:35:04Z</time>
      </trkpt>
      <trkpt lat="44.8434" lon="5.48418">
        <ele>1586.5</ele>
        <time>2019-05-30T08:35:07Z</time>
      </trkpt>
      <trkpt lat="44.84343" lon="5.48416">
        <ele>1586.5</ele>
        <time>2019-05-30T08:35:59Z</time>
      </trkpt>
      <trkpt lat="44.84345" lon="5.48418">
        <ele>1586.4</ele>
        <time>2019-05-30T08:36:04Z</time>
      </trkpt>
      <trkpt lat="44.84349" lon="5.48419">
        <ele>1586.3</ele>
        <time>2019-05-30T08:36:25Z</time>
      </trkpt>
      <trkpt lat="44.84351" lon="5.48421">
        <ele>1586.2</ele>
        <time>2019-05-30T08:36:28Z</time>
      </trkpt>
      <trkpt lat="44.84354" lon="5.48423">
        <ele>1586</ele>
        <time>2019-05-30T08:36:31Z</time>
      </trkpt>
      <trkpt lat="44.84358" lon="5.48425">
        <ele>1585.5</ele>
        <time>2019-05-30T08:36:34Z</time>
      </trkpt>
      <trkpt lat="44.84361" lon="5.48428">
        <ele>1585.2</ele>
        <time>2019-05-30T08:36:36Z</time>
      </trkpt>
      <trkpt lat="44.84364" lon="5.4843">
        <ele>1584.8</ele>
        <time>2019-05-30T08:36:38Z</time>
      </trkpt>
      <trkpt lat="44.84367" lon="5.48432">
        <ele>1584.4</ele>
        <time>2019-05-30T08:36:40Z</time>
      </trkpt>
      <trkpt lat="44.8437" lon="5.48434">
        <ele>1584</ele>
        <time>2019-05-30T08:36:42Z</time>
      </trkpt>
      <trkpt lat="44.84373" lon="5.48436">
        <ele>1583.7</ele>
        <time>2019-05-30T08:36:44Z</time>
      </trkpt>
      <trkpt lat="44.84376" lon="5.48438">
        <ele>1583.5</ele>
        <time>2019-05-30T08:36:46Z</time>
      </trkpt>
      <trkpt lat="44.84378" lon="5.4844">
        <ele>1583.3</ele>
        <time>2019-05-30T08:36:48Z</time>
      </trkpt>
      <trkpt lat="44.84381" lon="5.48441">
        <ele>1582.9</ele>
        <time>2019-05-30T08:36:50Z</time>
      </trkpt>
      <trkpt lat="44.84385" lon="5.48443">
        <ele>1582.4</ele>
        <time>2019-05-30T08:36:52Z</time>
      </trkpt>
      <trkpt lat="44.84388" lon="5.48446">
        <ele>1582</ele>
        <time>2019-05-30T08:36:54Z</time>
      </trkpt>
      <trkpt lat="44.84391" lon="5.48449">
        <ele>1581.8</ele>
        <time>2019-05-30T08:36:56Z</time>
      </trkpt>
      <trkpt lat="44.84394" lon="5.48451">
        <ele>1581.5</ele>
        <time>2019-05-30T08:36:59Z</time>
      </trkpt>
      <trkpt lat="44.84398" lon="5.48453">
        <ele>1581.3</ele>
        <time>2019-05-30T08:37:02Z</time>
      </trkpt>
      <trkpt lat="44.84401" lon="5.48454">
        <ele>1581.1</ele>
        <time>2019-05-30T08:37:05Z</time>
      </trkpt>
      <trkpt lat="44.84405" lon="5.48456">
        <ele>1580.8</ele>
        <time>2019-05-30T08:37:08Z</time>
      </trkpt>
      <trkpt lat="44.84408" lon="5.48457">
        <ele>1580.7</ele>
        <time>2019-05-30T08:37:10Z</time>
      </trkpt>
      <trkpt lat="44.84411" lon="5.48457">
        <ele>1580.5</ele>
        <time>2019-05-30T08:37:12Z</time>
      </trkpt>
      <trkpt lat="44.84414" lon="5.48458">
        <ele>1580.4</ele>
        <time>2019-05-30T08:37:15Z</time>
      </trkpt>
      <trkpt lat="44.84416" lon="5.4846">
        <ele>1580.3</ele>
        <time>2019-05-30T08:37:17Z</time>
      </trkpt>
      <trkpt lat="44.8442" lon="5.48462">
        <ele>1580.2</ele>
        <time>2019-05-30T08:37:20Z</time>
      </trkpt>
      <trkpt lat="44.84423" lon="5.48464">
        <ele>1580</ele>
        <time>2019-05-30T08:37:23Z</time>
      </trkpt>
      <trkpt lat="44.84426" lon="5.48465">
        <ele>1579.9</ele>
        <time>2019-05-30T08:37:25Z</time>
      </trkpt>
      <trkpt lat="44.84429" lon="5.48468">
        <ele>1579.7</ele>
        <time>2019-05-30T08:37:28Z</time>
      </trkpt>
      <trkpt lat="44.84432" lon="5.48471">
        <ele>1579.6</ele>
        <time>2019-05-30T08:37:31Z</time>
      </trkpt>
      <trkpt lat="44.84435" lon="5.48473">
        <ele>1579.6</ele>
        <time>2019-05-30T08:37:33Z</time>
      </trkpt>
      <trkpt lat="44.84439" lon="5.48474">
        <ele>1579.5</ele>
        <time>2019-05-30T08:37:36Z</time>
      </trkpt>
      <trkpt lat="44.84441" lon="5.48476">
        <ele>1579.5</ele>
        <time>2019-05-30T08:37:38Z</time>
      </trkpt>
      <trkpt lat="44.84444" lon="5.48478">
        <ele>1579.5</ele>
        <time>2019-05-30T08:37:40Z</time>
      </trkpt>
      <trkpt lat="44.84447" lon="5.4848">
        <ele>1579.5</ele>
        <time>2019-05-30T08:37:42Z</time>
      </trkpt>
      <trkpt lat="44.8445" lon="5.48481">
        <ele>1579.5</ele>
        <time>2019-05-30T08:37:44Z</time>
      </trkpt>
      <trkpt lat="44.84453" lon="5.48483">
        <ele>1579.6</ele>
        <time>2019-05-30T08:37:46Z</time>
      </trkpt>
      <trkpt lat="44.84455" lon="5.48484">
        <ele>1579.6</ele>
        <time>2019-05-30T08:37:48Z</time>
      </trkpt>
      <trkpt lat="44.84458" lon="5.48487">
        <ele>1579.7</ele>
        <time>2019-05-30T08:37:51Z</time>
      </trkpt>
      <trkpt lat="44.84462" lon="5.48489">
        <ele>1579.8</ele>
        <time>2019-05-30T08:37:54Z</time>
      </trkpt>
      <trkpt lat="44.84465" lon="5.48492">
        <ele>1579.9</ele>
        <time>2019-05-30T08:37:57Z</time>
      </trkpt>
      <trkpt lat="44.84468" lon="5.48494">
        <ele>1580</ele>
        <time>2019-05-30T08:38:00Z</time>
      </trkpt>
      <trkpt lat="44.8447" lon="5.48496">
        <ele>1580.1</ele>
        <time>2019-05-30T08:38:02Z</time>
      </trkpt>
      <trkpt lat="44.84474" lon="5.48498">
        <ele>1580.3</ele>
        <time>2019-05-30T08:38:05Z</time>
      </trkpt>
      <trkpt lat="44.84478" lon="5.48499">
        <ele>1580.4</ele>
        <time>2019-05-30T08:38:08Z</time>
      </trkpt>
      <trkpt lat="44.84481" lon="5.48499">
        <ele>1580.4</ele>
        <time>2019-05-30T08:38:10Z</time>
      </trkpt>
      <trkpt lat="44.84484" lon="5.48501">
        <ele>1580.5</ele>
        <time>2019-05-30T08:38:13Z</time>
      </trkpt>
      <trkpt lat="44.84487" lon="5.48504">
        <ele>1580.5</ele>
        <time>2019-05-30T08:38:16Z</time>
      </trkpt>
      <trkpt lat="44.8449" lon="5.48504">
        <ele>1580.5</ele>
        <time>2019-05-30T08:38:19Z</time>
      </trkpt>
      <trkpt lat="44.84493" lon="5.48504">
        <ele>1580.5</ele>
        <time>2019-05-30T08:38:22Z</time>
      </trkpt>
      <trkpt lat="44.84496" lon="5.48505">
        <ele>1580.5</ele>
        <time>2019-05-30T08:38:25Z</time>
      </trkpt>
      <trkpt lat="44.84499" lon="5.48508">
        <ele>1580.5</ele>
        <time>2019-05-30T08:38:29Z</time>
      </trkpt>
      <trkpt lat="44.84502" lon="5.48511">
        <ele>1580.5</ele>
        <time>2019-05-30T08:38:33Z</time>
      </trkpt>
      <trkpt lat="44.84504" lon="5.48515">
        <ele>1580.6</ele>
        <time>2019-05-30T08:38:36Z</time>
      </trkpt>
      <trkpt lat="44.84506" lon="5.48518">
        <ele>1580.6</ele>
        <time>2019-05-30T08:38:39Z</time>
      </trkpt>
      <trkpt lat="44.84509" lon="5.48521">
        <ele>1580.6</ele>
        <time>2019-05-30T08:38:42Z</time>
      </trkpt>
      <trkpt lat="44.84512" lon="5.48523">
        <ele>1580.6</ele>
        <time>2019-05-30T08:38:46Z</time>
      </trkpt>
      <trkpt lat="44.84515" lon="5.48524">
        <ele>1580.6</ele>
        <time>2019-05-30T08:38:50Z</time>
      </trkpt>
      <trkpt lat="44.84518" lon="5.48525">
        <ele>1580.7</ele>
        <time>2019-05-30T08:38:53Z</time>
      </trkpt>
      <trkpt lat="44.84522" lon="5.48525">
        <ele>1580.7</ele>
        <time>2019-05-30T08:38:56Z</time>
      </trkpt>
      <trkpt lat="44.84526" lon="5.48524">
        <ele>1580.7</ele>
        <time>2019-05-30T08:38:59Z</time>
      </trkpt>
      <trkpt lat="44.84529" lon="5.48523">
        <ele>1580.6</ele>
        <time>2019-05-30T08:39:01Z</time>
      </trkpt>
      <trkpt lat="44.84532" lon="5.48523">
        <ele>1580.6</ele>
        <time>2019-05-30T08:39:04Z</time>
      </trkpt>
      <trkpt lat="44.84536" lon="5.48521">
        <ele>1580.5</ele>
        <time>2019-05-30T08:39:07Z</time>
      </trkpt>
      <trkpt lat="44.8454" lon="5.48521">
        <ele>1580.4</ele>
        <time>2019-05-30T08:39:10Z</time>
      </trkpt>
      <trkpt lat="44.84543" lon="5.4852">
        <ele>1580.5</ele>
        <time>2019-05-30T08:39:13Z</time>
      </trkpt>
      <trkpt lat="44.84546" lon="5.4852">
        <ele>1580.5</ele>
        <time>2019-05-30T08:39:16Z</time>
      </trkpt>
      <trkpt lat="44.8455" lon="5.48519">
        <ele>1580.6</ele>
        <time>2019-05-30T08:39:19Z</time>
      </trkpt>
      <trkpt lat="44.84553" lon="5.48518">
        <ele>1580.7</ele>
        <time>2019-05-30T08:39:22Z</time>
      </trkpt>
      <trkpt lat="44.84556" lon="5.48517">
        <ele>1580.8</ele>
        <time>2019-05-30T08:39:26Z</time>
      </trkpt>
      <trkpt lat="44.84559" lon="5.48516">
        <ele>1580.8</ele>
        <time>2019-05-30T08:39:30Z</time>
      </trkpt>
      <trkpt lat="44.84562" lon="5.48516">
        <ele>1580.9</ele>
        <time>2019-05-30T08:39:34Z</time>
      </trkpt>
      <trkpt lat="44.84564" lon="5.48517">
        <ele>1580.9</ele>
        <time>2019-05-30T08:39:38Z</time>
      </trkpt>
      <trkpt lat="44.84568" lon="5.48519">
        <ele>1581.1</ele>
        <time>2019-05-30T08:39:42Z</time>
      </trkpt>
      <trkpt lat="44.84571" lon="5.48519">
        <ele>1581.2</ele>
        <time>2019-05-30T08:39:45Z</time>
      </trkpt>
      <trkpt lat="44.84573" lon="5.48521">
        <ele>1581.3</ele>
        <time>2019-05-30T08:39:48Z</time>
      </trkpt>
      <trkpt lat="44.84575" lon="5.48523">
        <ele>1581.4</ele>
        <time>2019-05-30T08:39:51Z</time>
      </trkpt>
      <trkpt lat="44.84578" lon="5.48525">
        <ele>1581.6</ele>
        <time>2019-05-30T08:39:54Z</time>
      </trkpt>
      <trkpt lat="44.84581" lon="5.48527">
        <ele>1581.7</ele>
        <time>2019-05-30T08:39:57Z</time>
      </trkpt>
      <trkpt lat="44.84584" lon="5.48528">
        <ele>1581.8</ele>
        <time>2019-05-30T08:40:00Z</time>
      </trkpt>
      <trkpt lat="44.84586" lon="5.48528">
        <ele>1581.9</ele>
        <time>2019-05-30T08:40:03Z</time>
      </trkpt>
      <trkpt lat="44.84589" lon="5.48526">
        <ele>1582</ele>
        <time>2019-05-30T08:40:07Z</time>
      </trkpt>
      <trkpt lat="44.84592" lon="5.48525">
        <ele>1582</ele>
        <time>2019-05-30T08:40:10Z</time>
      </trkpt>
      <trkpt lat="44.84595" lon="5.48523">
        <ele>1582</ele>
        <time>2019-05-30T08:40:13Z</time>
      </trkpt>
      <trkpt lat="44.84597" lon="5.48522">
        <ele>1582.1</ele>
        <time>2019-05-30T08:40:15Z</time>
      </trkpt>
      <trkpt lat="44.84601" lon="5.4852">
        <ele>1582.1</ele>
        <time>2019-05-30T08:40:18Z</time>
      </trkpt>
      <trkpt lat="44.84604" lon="5.48519">
        <ele>1582.1</ele>
        <time>2019-05-30T08:40:20Z</time>
      </trkpt>
      <trkpt lat="44.84608" lon="5.48518">
        <ele>1582.1</ele>
        <time>2019-05-30T08:40:22Z</time>
      </trkpt>
      <trkpt lat="44.84611" lon="5.48517">
        <ele>1582.1</ele>
        <time>2019-05-30T08:40:24Z</time>
      </trkpt>
      <trkpt lat="44.84614" lon="5.48518">
        <ele>1582.1</ele>
        <time>2019-05-30T08:40:26Z</time>
      </trkpt>
      <trkpt lat="44.84617" lon="5.48519">
        <ele>1582.1</ele>
        <time>2019-05-30T08:40:28Z</time>
      </trkpt>
      <trkpt lat="44.8462" lon="5.48518">
        <ele>1582.1</ele>
        <time>2019-05-30T08:40:30Z</time>
      </trkpt>
      <trkpt lat="44.84623" lon="5.48517">
        <ele>1582</ele>
        <time>2019-05-30T08:40:32Z</time>
      </trkpt>
      <trkpt lat="44.84626" lon="5.48517">
        <ele>1582</ele>
        <time>2019-05-30T08:40:34Z</time>
      </trkpt>
      <trkpt lat="44.84629" lon="5.48516">
        <ele>1582</ele>
        <time>2019-05-30T08:40:36Z</time>
      </trkpt>
      <trkpt lat="44.84632" lon="5.48516">
        <ele>1581.9</ele>
        <time>2019-05-30T08:40:38Z</time>
      </trkpt>
      <trkpt lat="44.84635" lon="5.48516">
        <ele>1581.9</ele>
        <time>2019-05-30T08:40:40Z</time>
      </trkpt>
      <trkpt lat="44.84638" lon="5.48515">
        <ele>1581.8</ele>
        <time>2019-05-30T08:40:43Z</time>
      </trkpt>
      <trkpt lat="44.84641" lon="5.48514">
        <ele>1581.7</ele>
        <time>2019-05-30T08:40:46Z</time>
      </trkpt>
      <trkpt lat="44.84644" lon="5.48513">
        <ele>1581.6</ele>
        <time>2019-05-30T08:40:50Z</time>
      </trkpt>
      <trkpt lat="44.84648" lon="5.48512">
        <ele>1581.5</ele>
        <time>2019-05-30T08:40:53Z</time>
      </trkpt>
      <trkpt lat="44.84652" lon="5.4851">
        <ele>1581.4</ele>
        <time>2019-05-30T08:40:56Z</time>
      </trkpt>
      <trkpt lat="44.84655" lon="5.4851">
        <ele>1581.4</ele>
        <time>2019-05-30T08:40:58Z</time>
      </trkpt>
      <trkpt lat="44.84658" lon="5.48509">
        <ele>1581.4</ele>
        <time>2019-05-30T08:41:01Z</time>
      </trkpt>
      <trkpt lat="44.84662" lon="5.48511">
        <ele>1581.3</ele>
        <time>2019-05-30T08:41:04Z</time>
      </trkpt>
      <trkpt lat="44.84665" lon="5.48514">
        <ele>1581.3</ele>
        <time>2019-05-30T08:41:07Z</time>
      </trkpt>
      <trkpt lat="44.84668" lon="5.48516">
        <ele>1581.3</ele>
        <time>2019-05-30T08:41:09Z</time>
      </trkpt>
      <trkpt lat="44.8467" lon="5.48517">
        <ele>1581.3</ele>
        <time>2019-05-30T08:41:11Z</time>
      </trkpt>
      <trkpt lat="44.84674" lon="5.48518">
        <ele>1581.4</ele>
        <time>2019-05-30T08:41:14Z</time>
      </trkpt>
      <trkpt lat="44.84676" lon="5.4852">
        <ele>1581.4</ele>
        <time>2019-05-30T08:41:16Z</time>
      </trkpt>
      <trkpt lat="44.84679" lon="5.48523">
        <ele>1581.5</ele>
        <time>2019-05-30T08:41:18Z</time>
      </trkpt>
      <trkpt lat="44.84682" lon="5.48526">
        <ele>1581.5</ele>
        <time>2019-05-30T08:41:20Z</time>
      </trkpt>
      <trkpt lat="44.84684" lon="5.48529">
        <ele>1581.5</ele>
        <time>2019-05-30T08:41:22Z</time>
      </trkpt>
      <trkpt lat="44.84687" lon="5.48532">
        <ele>1581.5</ele>
        <time>2019-05-30T08:41:24Z</time>
      </trkpt>
      <trkpt lat="44.8469" lon="5.48535">
        <ele>1581.5</ele>
        <time>2019-05-30T08:41:27Z</time>
      </trkpt>
      <trkpt lat="44.84693" lon="5.48537">
        <ele>1581.6</ele>
        <time>2019-05-30T08:41:30Z</time>
      </trkpt>
      <trkpt lat="44.84696" lon="5.48538">
        <ele>1581.6</ele>
        <time>2019-05-30T08:41:33Z</time>
      </trkpt>
      <trkpt lat="44.847" lon="5.48538">
        <ele>1581.6</ele>
        <time>2019-05-30T08:41:36Z</time>
      </trkpt>
      <trkpt lat="44.84703" lon="5.48539">
        <ele>1581.6</ele>
        <time>2019-05-30T08:41:39Z</time>
      </trkpt>
      <trkpt lat="44.84707" lon="5.4854">
        <ele>1581.6</ele>
        <time>2019-05-30T08:41:42Z</time>
      </trkpt>
      <trkpt lat="44.84709" lon="5.48541">
        <ele>1581.5</ele>
        <time>2019-05-30T08:41:44Z</time>
      </trkpt>
      <trkpt lat="44.84713" lon="5.48542">
        <ele>1581.5</ele>
        <time>2019-05-30T08:41:47Z</time>
      </trkpt>
      <trkpt lat="44.84717" lon="5.48542">
        <ele>1581.5</ele>
        <time>2019-05-30T08:41:50Z</time>
      </trkpt>
      <trkpt lat="44.8472" lon="5.48542">
        <ele>1581.5</ele>
        <time>2019-05-30T08:41:52Z</time>
      </trkpt>
      <trkpt lat="44.84724" lon="5.48543">
        <ele>1581.5</ele>
        <time>2019-05-30T08:41:55Z</time>
      </trkpt>
      <trkpt lat="44.84727" lon="5.48544">
        <ele>1581.5</ele>
        <time>2019-05-30T08:41:57Z</time>
      </trkpt>
      <trkpt lat="44.8473" lon="5.48545">
        <ele>1581.4</ele>
        <time>2019-05-30T08:41:59Z</time>
      </trkpt>
      <trkpt lat="44.84733" lon="5.48544">
        <ele>1581.4</ele>
        <time>2019-05-30T08:42:02Z</time>
      </trkpt>
      <trkpt lat="44.84735" lon="5.48542">
        <ele>1581.4</ele>
        <time>2019-05-30T08:42:05Z</time>
      </trkpt>
      <trkpt lat="44.84738" lon="5.48545">
        <ele>1581.4</ele>
        <time>2019-05-30T08:42:38Z</time>
      </trkpt>
      <trkpt lat="44.8474" lon="5.48546">
        <ele>1581.4</ele>
        <time>2019-05-30T08:42:40Z</time>
      </trkpt>
      <trkpt lat="44.84743" lon="5.48548">
        <ele>1581.4</ele>
        <time>2019-05-30T08:42:42Z</time>
      </trkpt>
      <trkpt lat="44.84746" lon="5.48549">
        <ele>1581.4</ele>
        <time>2019-05-30T08:42:44Z</time>
      </trkpt>
      <trkpt lat="44.84749" lon="5.48551">
        <ele>1581.5</ele>
        <time>2019-05-30T08:42:46Z</time>
      </trkpt>
      <trkpt lat="44.84751" lon="5.48553">
        <ele>1581.5</ele>
        <time>2019-05-30T08:42:48Z</time>
      </trkpt>
      <trkpt lat="44.84755" lon="5.48555">
        <ele>1581.5</ele>
        <time>2019-05-30T08:42:51Z</time>
      </trkpt>
      <trkpt lat="44.84758" lon="5.48557">
        <ele>1581.5</ele>
        <time>2019-05-30T08:42:53Z</time>
      </trkpt>
      <trkpt lat="44.84761" lon="5.48559">
        <ele>1581.5</ele>
        <time>2019-05-30T08:42:55Z</time>
      </trkpt>
      <trkpt lat="44.84764" lon="5.48561">
        <ele>1581.5</ele>
        <time>2019-05-30T08:42:57Z</time>
      </trkpt>
      <trkpt lat="44.84767" lon="5.48563">
        <ele>1581.5</ele>
        <time>2019-05-30T08:43:00Z</time>
      </trkpt>
      <trkpt lat="44.8477" lon="5.48565">
        <ele>1581.5</ele>
        <time>2019-05-30T08:43:02Z</time>
      </trkpt>
      <trkpt lat="44.84773" lon="5.48567">
        <ele>1581.5</ele>
        <time>2019-05-30T08:43:04Z</time>
      </trkpt>
      <trkpt lat="44.84775" lon="5.48569">
        <ele>1581.4</ele>
        <time>2019-05-30T08:43:06Z</time>
      </trkpt>
      <trkpt lat="44.84778" lon="5.48571">
        <ele>1581.3</ele>
        <time>2019-05-30T08:43:08Z</time>
      </trkpt>
      <trkpt lat="44.84781" lon="5.48574">
        <ele>1581.3</ele>
        <time>2019-05-30T08:43:11Z</time>
      </trkpt>
      <trkpt lat="44.84783" lon="5.48575">
        <ele>1581.2</ele>
        <time>2019-05-30T08:43:13Z</time>
      </trkpt>
      <trkpt lat="44.84786" lon="5.48577">
        <ele>1581.1</ele>
        <time>2019-05-30T08:43:15Z</time>
      </trkpt>
      <trkpt lat="44.84789" lon="5.4858">
        <ele>1581</ele>
        <time>2019-05-30T08:43:17Z</time>
      </trkpt>
      <trkpt lat="44.84792" lon="5.48582">
        <ele>1581</ele>
        <time>2019-05-30T08:43:19Z</time>
      </trkpt>
      <trkpt lat="44.84794" lon="5.48584">
        <ele>1580.9</ele>
        <time>2019-05-30T08:43:21Z</time>
      </trkpt>
      <trkpt lat="44.84797" lon="5.48587">
        <ele>1580.8</ele>
        <time>2019-05-30T08:43:23Z</time>
      </trkpt>
      <trkpt lat="44.848" lon="5.4859">
        <ele>1580.6</ele>
        <time>2019-05-30T08:43:26Z</time>
      </trkpt>
      <trkpt lat="44.84803" lon="5.48593">
        <ele>1580.4</ele>
        <time>2019-05-30T08:43:29Z</time>
      </trkpt>
      <trkpt lat="44.84806" lon="5.48597">
        <ele>1580.3</ele>
        <time>2019-05-30T08:43:32Z</time>
      </trkpt>
      <trkpt lat="44.84809" lon="5.486">
        <ele>1580</ele>
        <time>2019-05-30T08:43:35Z</time>
      </trkpt>
      <trkpt lat="44.84812" lon="5.48603">
        <ele>1579.7</ele>
        <time>2019-05-30T08:43:38Z</time>
      </trkpt>
      <trkpt lat="44.84815" lon="5.48606">
        <ele>1579.4</ele>
        <time>2019-05-30T08:43:41Z</time>
      </trkpt>
      <trkpt lat="44.84818" lon="5.48609">
        <ele>1579</ele>
        <time>2019-05-30T08:43:44Z</time>
      </trkpt>
      <trkpt lat="44.84821" lon="5.48611">
        <ele>1578.7</ele>
        <time>2019-05-30T08:43:47Z</time>
      </trkpt>
      <trkpt lat="44.84824" lon="5.48614">
        <ele>1578.3</ele>
        <time>2019-05-30T08:43:50Z</time>
      </trkpt>
      <trkpt lat="44.84826" lon="5.48616">
        <ele>1578</ele>
        <time>2019-05-30T08:43:53Z</time>
      </trkpt>
      <trkpt lat="44.8483" lon="5.48619">
        <ele>1577.6</ele>
        <time>2019-05-30T08:43:56Z</time>
      </trkpt>
      <trkpt lat="44.84832" lon="5.48622">
        <ele>1577.1</ele>
        <time>2019-05-30T08:43:59Z</time>
      </trkpt>
      <trkpt lat="44.84835" lon="5.48626">
        <ele>1576.6</ele>
        <time>2019-05-30T08:44:02Z</time>
      </trkpt>
      <trkpt lat="44.84838" lon="5.48628">
        <ele>1576.3</ele>
        <time>2019-05-30T08:44:04Z</time>
      </trkpt>
      <trkpt lat="44.8484" lon="5.4863">
        <ele>1576</ele>
        <time>2019-05-30T08:44:06Z</time>
      </trkpt>
      <trkpt lat="44.84843" lon="5.48633">
        <ele>1575.7</ele>
        <time>2019-05-30T08:44:08Z</time>
      </trkpt>
      <trkpt lat="44.84845" lon="5.48636">
        <ele>1575.4</ele>
        <time>2019-05-30T08:44:10Z</time>
      </trkpt>
      <trkpt lat="44.84847" lon="5.48639">
        <ele>1575.1</ele>
        <time>2019-05-30T08:44:12Z</time>
      </trkpt>
      <trkpt lat="44.8485" lon="5.48642">
        <ele>1574.7</ele>
        <time>2019-05-30T08:44:15Z</time>
      </trkpt>
      <trkpt lat="44.84853" lon="5.48646">
        <ele>1574.3</ele>
        <time>2019-05-30T08:44:18Z</time>
      </trkpt>
      <trkpt lat="44.84855" lon="5.48649">
        <ele>1574.1</ele>
        <time>2019-05-30T08:44:21Z</time>
      </trkpt>
      <trkpt lat="44.84857" lon="5.48652">
        <ele>1573.8</ele>
        <time>2019-05-30T08:44:24Z</time>
      </trkpt>
      <trkpt lat="44.84859" lon="5.48655">
        <ele>1573.6</ele>
        <time>2019-05-30T08:44:27Z</time>
      </trkpt>
      <trkpt lat="44.84862" lon="5.48658">
        <ele>1573.4</ele>
        <time>2019-05-30T08:44:30Z</time>
      </trkpt>
      <trkpt lat="44.84864" lon="5.4866">
        <ele>1573.2</ele>
        <time>2019-05-30T08:44:33Z</time>
      </trkpt>
      <trkpt lat="44.84866" lon="5.48663">
        <ele>1572.9</ele>
        <time>2019-05-30T08:44:36Z</time>
      </trkpt>
      <trkpt lat="44.84869" lon="5.48666">
        <ele>1572.7</ele>
        <time>2019-05-30T08:44:39Z</time>
      </trkpt>
      <trkpt lat="44.84871" lon="5.48669">
        <ele>1572.5</ele>
        <time>2019-05-30T08:44:42Z</time>
      </trkpt>
      <trkpt lat="44.84874" lon="5.48672">
        <ele>1572.3</ele>
        <time>2019-05-30T08:44:45Z</time>
      </trkpt>
      <trkpt lat="44.84877" lon="5.48674">
        <ele>1572.2</ele>
        <time>2019-05-30T08:44:47Z</time>
      </trkpt>
      <trkpt lat="44.8488" lon="5.48676">
        <ele>1572</ele>
        <time>2019-05-30T08:44:49Z</time>
      </trkpt>
      <trkpt lat="44.84883" lon="5.48677">
        <ele>1571.8</ele>
        <time>2019-05-30T08:44:52Z</time>
      </trkpt>
      <trkpt lat="44.84886" lon="5.48679">
        <ele>1571.7</ele>
        <time>2019-05-30T08:44:54Z</time>
      </trkpt>
      <trkpt lat="44.84889" lon="5.4868">
        <ele>1571.6</ele>
        <time>2019-05-30T08:44:56Z</time>
      </trkpt>
      <trkpt lat="44.84893" lon="5.48682">
        <ele>1571.5</ele>
        <time>2019-05-30T08:44:59Z</time>
      </trkpt>
      <trkpt lat="44.84896" lon="5.48684">
        <ele>1571.4</ele>
        <time>2019-05-30T08:45:01Z</time>
      </trkpt>
      <trkpt lat="44.84899" lon="5.48686">
        <ele>1571.3</ele>
        <time>2019-05-30T08:45:04Z</time>
      </trkpt>
      <trkpt lat="44.84902" lon="5.48686">
        <ele>1571.3</ele>
        <time>2019-05-30T08:45:06Z</time>
      </trkpt>
      <trkpt lat="44.84905" lon="5.48688">
        <ele>1571.3</ele>
        <time>2019-05-30T08:45:08Z</time>
      </trkpt>
      <trkpt lat="44.84908" lon="5.48689">
        <ele>1571.3</ele>
        <time>2019-05-30T08:45:10Z</time>
      </trkpt>
      <trkpt lat="44.8491" lon="5.48691">
        <ele>1571.3</ele>
        <time>2019-05-30T08:45:12Z</time>
      </trkpt>
      <trkpt lat="44.84914" lon="5.48692">
        <ele>1571.3</ele>
        <time>2019-05-30T08:45:15Z</time>
      </trkpt>
      <trkpt lat="44.84917" lon="5.48694">
        <ele>1571.4</ele>
        <time>2019-05-30T08:45:18Z</time>
      </trkpt>
      <trkpt lat="44.8492" lon="5.48695">
        <ele>1571.5</ele>
        <time>2019-05-30T08:45:20Z</time>
      </trkpt>
      <trkpt lat="44.84923" lon="5.48694">
        <ele>1571.6</ele>
        <time>2019-05-30T08:45:23Z</time>
      </trkpt>
      <trkpt lat="44.84926" lon="5.48693">
        <ele>1571.7</ele>
        <time>2019-05-30T08:45:26Z</time>
      </trkpt>
      <trkpt lat="44.8493" lon="5.48692">
        <ele>1571.8</ele>
        <time>2019-05-30T08:45:29Z</time>
      </trkpt>
      <trkpt lat="44.84932" lon="5.48693">
        <ele>1571.8</ele>
        <time>2019-05-30T08:45:32Z</time>
      </trkpt>
      <trkpt lat="44.84934" lon="5.48697">
        <ele>1571.9</ele>
        <time>2019-05-30T08:45:37Z</time>
      </trkpt>
      <trkpt lat="44.84937" lon="5.487">
        <ele>1572</ele>
        <time>2019-05-30T08:45:41Z</time>
      </trkpt>
      <trkpt lat="44.84939" lon="5.48703">
        <ele>1572.1</ele>
        <time>2019-05-30T08:45:43Z</time>
      </trkpt>
      <trkpt lat="44.84941" lon="5.48706">
        <ele>1572.2</ele>
        <time>2019-05-30T08:45:45Z</time>
      </trkpt>
      <trkpt lat="44.84944" lon="5.48709">
        <ele>1572.3</ele>
        <time>2019-05-30T08:45:47Z</time>
      </trkpt>
      <trkpt lat="44.84947" lon="5.48711">
        <ele>1572.3</ele>
        <time>2019-05-30T08:45:50Z</time>
      </trkpt>
      <trkpt lat="44.8495" lon="5.48713">
        <ele>1572.4</ele>
        <time>2019-05-30T08:45:53Z</time>
      </trkpt>
      <trkpt lat="44.84953" lon="5.48716">
        <ele>1572.4</ele>
        <time>2019-05-30T08:45:56Z</time>
      </trkpt>
      <trkpt lat="44.84956" lon="5.48719">
        <ele>1572.5</ele>
        <time>2019-05-30T08:45:59Z</time>
      </trkpt>
      <trkpt lat="44.84959" lon="5.4872">
        <ele>1572.5</ele>
        <time>2019-05-30T08:46:02Z</time>
      </trkpt>
      <trkpt lat="44.84963" lon="5.48722">
        <ele>1572.5</ele>
        <time>2019-05-30T08:46:05Z</time>
      </trkpt>
      <trkpt lat="44.84966" lon="5.48723">
        <ele>1572.6</ele>
        <time>2019-05-30T08:46:08Z</time>
      </trkpt>
      <trkpt lat="44.84969" lon="5.48725">
        <ele>1572.5</ele>
        <time>2019-05-30T08:46:11Z</time>
      </trkpt>
      <trkpt lat="44.84971" lon="5.48727">
        <ele>1572.5</ele>
        <time>2019-05-30T08:46:14Z</time>
      </trkpt>
      <trkpt lat="44.84974" lon="5.48728">
        <ele>1572.5</ele>
        <time>2019-05-30T08:46:17Z</time>
      </trkpt>
      <trkpt lat="44.84978" lon="5.4873">
        <ele>1572.4</ele>
        <time>2019-05-30T08:46:20Z</time>
      </trkpt>
      <trkpt lat="44.84982" lon="5.48731">
        <ele>1572.4</ele>
        <time>2019-05-30T08:46:23Z</time>
      </trkpt>
      <trkpt lat="44.84986" lon="5.48732">
        <ele>1572.3</ele>
        <time>2019-05-30T08:46:26Z</time>
      </trkpt>
      <trkpt lat="44.84989" lon="5.48733">
        <ele>1572.3</ele>
        <time>2019-05-30T08:46:28Z</time>
      </trkpt>
      <trkpt lat="44.84991" lon="5.48734">
        <ele>1572.3</ele>
        <time>2019-05-30T08:46:30Z</time>
      </trkpt>
      <trkpt lat="44.84994" lon="5.48736">
        <ele>1572.2</ele>
        <time>2019-05-30T08:46:33Z</time>
      </trkpt>
      <trkpt lat="44.84998" lon="5.48739">
        <ele>1572.2</ele>
        <time>2019-05-30T08:46:36Z</time>
      </trkpt>
      <trkpt lat="44.85001" lon="5.48742">
        <ele>1572.1</ele>
        <time>2019-05-30T08:46:39Z</time>
      </trkpt>
      <trkpt lat="44.85003" lon="5.48744">
        <ele>1572.1</ele>
        <time>2019-05-30T08:46:41Z</time>
      </trkpt>
      <trkpt lat="44.85006" lon="5.48748">
        <ele>1572</ele>
        <time>2019-05-30T08:46:44Z</time>
      </trkpt>
      <trkpt lat="44.85009" lon="5.48751">
        <ele>1571.9</ele>
        <time>2019-05-30T08:46:47Z</time>
      </trkpt>
      <trkpt lat="44.85011" lon="5.48754">
        <ele>1571.9</ele>
        <time>2019-05-30T08:46:50Z</time>
      </trkpt>
      <trkpt lat="44.85012" lon="5.48759">
        <ele>1571.8</ele>
        <time>2019-05-30T08:46:54Z</time>
      </trkpt>
      <trkpt lat="44.85015" lon="5.48762">
        <ele>1571.7</ele>
        <time>2019-05-30T08:46:58Z</time>
      </trkpt>
      <trkpt lat="44.85017" lon="5.48764">
        <ele>1571.7</ele>
        <time>2019-05-30T08:47:02Z</time>
      </trkpt>
      <trkpt lat="44.8502" lon="5.48766">
        <ele>1571.6</ele>
        <time>2019-05-30T08:47:06Z</time>
      </trkpt>
      <trkpt lat="44.85022" lon="5.48769">
        <ele>1571.4</ele>
        <time>2019-05-30T08:47:31Z</time>
      </trkpt>
      <trkpt lat="44.85025" lon="5.48773">
        <ele>1571.3</ele>
        <time>2019-05-30T08:47:34Z</time>
      </trkpt>
      <trkpt lat="44.85027" lon="5.48775">
        <ele>1571.2</ele>
        <time>2019-05-30T08:47:36Z</time>
      </trkpt>
      <trkpt lat="44.8503" lon="5.48777">
        <ele>1571.1</ele>
        <time>2019-05-30T08:47:39Z</time>
      </trkpt>
      <trkpt lat="44.85033" lon="5.48774">
        <ele>1571.1</ele>
        <time>2019-05-30T08:47:43Z</time>
      </trkpt>
      <trkpt lat="44.85034" lon="5.4877">
        <ele>1571</ele>
        <time>2019-05-30T08:47:47Z</time>
      </trkpt>
      <trkpt lat="44.85036" lon="5.48766">
        <ele>1571</ele>
        <time>2019-05-30T08:47:50Z</time>
      </trkpt>
      <trkpt lat="44.85038" lon="5.48762">
        <ele>1571.1</ele>
        <time>2019-05-30T08:47:53Z</time>
      </trkpt>
      <trkpt lat="44.8504" lon="5.48759">
        <ele>1571.2</ele>
        <time>2019-05-30T08:47:56Z</time>
      </trkpt>
      <trkpt lat="44.85042" lon="5.48755">
        <ele>1571.2</ele>
        <time>2019-05-30T08:47:59Z</time>
      </trkpt>
      <trkpt lat="44.85044" lon="5.48751">
        <ele>1571.2</ele>
        <time>2019-05-30T08:48:02Z</time>
      </trkpt>
      <trkpt lat="44.85046" lon="5.48748">
        <ele>1571.3</ele>
        <time>2019-05-30T08:48:05Z</time>
      </trkpt>
      <trkpt lat="44.85047" lon="5.48744">
        <ele>1571.5</ele>
        <time>2019-05-30T08:48:08Z</time>
      </trkpt>
      <trkpt lat="44.85048" lon="5.48739">
        <ele>1571.7</ele>
        <time>2019-05-30T08:48:12Z</time>
      </trkpt>
      <trkpt lat="44.85049" lon="5.48734">
        <ele>1571.9</ele>
        <time>2019-05-30T08:48:16Z</time>
      </trkpt>
      <trkpt lat="44.85051" lon="5.4873">
        <ele>1572.1</ele>
        <time>2019-05-30T08:48:18Z</time>
      </trkpt>
      <trkpt lat="44.85052" lon="5.48727">
        <ele>1572.2</ele>
        <time>2019-05-30T08:48:20Z</time>
      </trkpt>
      <trkpt lat="44.85054" lon="5.48723">
        <ele>1572.4</ele>
        <time>2019-05-30T08:48:23Z</time>
      </trkpt>
      <trkpt lat="44.85056" lon="5.4872">
        <ele>1572.3</ele>
        <time>2019-05-30T08:48:25Z</time>
      </trkpt>
      <trkpt lat="44.85058" lon="5.48717">
        <ele>1572.5</ele>
        <time>2019-05-30T08:48:27Z</time>
      </trkpt>
      <trkpt lat="44.85059" lon="5.48715">
        <ele>1572.6</ele>
        <time>2019-05-30T08:48:29Z</time>
      </trkpt>
      <trkpt lat="44.85062" lon="5.4871">
        <ele>1572.7</ele>
        <time>2019-05-30T08:48:32Z</time>
      </trkpt>
      <trkpt lat="44.85064" lon="5.48708">
        <ele>1572.7</ele>
        <time>2019-05-30T08:48:34Z</time>
      </trkpt>
      <trkpt lat="44.85066" lon="5.48706">
        <ele>1572.8</ele>
        <time>2019-05-30T08:48:36Z</time>
      </trkpt>
      <trkpt lat="44.8507" lon="5.48705">
        <ele>1572.7</ele>
        <time>2019-05-30T08:48:39Z</time>
      </trkpt>
      <trkpt lat="44.85074" lon="5.48704">
        <ele>1572.7</ele>
        <time>2019-05-30T08:48:42Z</time>
      </trkpt>
      <trkpt lat="44.85077" lon="5.48704">
        <ele>1572.6</ele>
        <time>2019-05-30T08:48:46Z</time>
      </trkpt>
      <trkpt lat="44.8508" lon="5.48707">
        <ele>1572.6</ele>
        <time>2019-05-30T08:48:49Z</time>
      </trkpt>
      <trkpt lat="44.85084" lon="5.48709">
        <ele>1572.4</ele>
        <time>2019-05-30T08:48:52Z</time>
      </trkpt>
      <trkpt lat="44.85087" lon="5.4871">
        <ele>1572.3</ele>
        <time>2019-05-30T08:48:55Z</time>
      </trkpt>
      <trkpt lat="44.85089" lon="5.48712">
        <ele>1572</ele>
        <time>2019-05-30T08:48:58Z</time>
      </trkpt>
      <trkpt lat="44.85091" lon="5.48715">
        <ele>1571.9</ele>
        <time>2019-05-30T08:49:01Z</time>
      </trkpt>
      <trkpt lat="44.85094" lon="5.48718">
        <ele>1571.6</ele>
        <time>2019-05-30T08:49:05Z</time>
      </trkpt>
      <trkpt lat="44.85097" lon="5.4872">
        <ele>1571.4</ele>
        <time>2019-05-30T08:49:08Z</time>
      </trkpt>
      <trkpt lat="44.85099" lon="5.48724">
        <ele>1571.2</ele>
        <time>2019-05-30T08:49:11Z</time>
      </trkpt>
      <trkpt lat="44.85102" lon="5.48727">
        <ele>1570.9</ele>
        <time>2019-05-30T08:49:14Z</time>
      </trkpt>
      <trkpt lat="44.85104" lon="5.48731">
        <ele>1570.6</ele>
        <time>2019-05-30T08:49:17Z</time>
      </trkpt>
      <trkpt lat="44.85107" lon="5.48735">
        <ele>1570.3</ele>
        <time>2019-05-30T08:49:20Z</time>
      </trkpt>
      <trkpt lat="44.8511" lon="5.48739">
        <ele>1570</ele>
        <time>2019-05-30T08:49:23Z</time>
      </trkpt>
      <trkpt lat="44.85113" lon="5.48742">
        <ele>1569.8</ele>
        <time>2019-05-30T08:49:26Z</time>
      </trkpt>
      <trkpt lat="44.85116" lon="5.48744">
        <ele>1569.8</ele>
        <time>2019-05-30T08:49:29Z</time>
      </trkpt>
      <trkpt lat="44.85119" lon="5.48746">
        <ele>1569.7</ele>
        <time>2019-05-30T08:49:32Z</time>
      </trkpt>
      <trkpt lat="44.85123" lon="5.48748">
        <ele>1569.7</ele>
        <time>2019-05-30T08:49:35Z</time>
      </trkpt>
      <trkpt lat="44.85126" lon="5.4875">
        <ele>1569.8</ele>
        <time>2019-05-30T08:49:38Z</time>
      </trkpt>
      <trkpt lat="44.85129" lon="5.48752">
        <ele>1569.8</ele>
        <time>2019-05-30T08:49:41Z</time>
      </trkpt>
      <trkpt lat="44.85132" lon="5.48754">
        <ele>1569.8</ele>
        <time>2019-05-30T08:49:43Z</time>
      </trkpt>
      <trkpt lat="44.85134" lon="5.48755">
        <ele>1569.8</ele>
        <time>2019-05-30T08:49:45Z</time>
      </trkpt>
      <trkpt lat="44.85138" lon="5.48758">
        <ele>1569.8</ele>
        <time>2019-05-30T08:49:48Z</time>
      </trkpt>
      <trkpt lat="44.85141" lon="5.48759">
        <ele>1569.7</ele>
        <time>2019-05-30T08:49:50Z</time>
      </trkpt>
      <trkpt lat="44.85144" lon="5.48761">
        <ele>1569.7</ele>
        <time>2019-05-30T08:49:53Z</time>
      </trkpt>
      <trkpt lat="44.85147" lon="5.48763">
        <ele>1569.6</ele>
        <time>2019-05-30T08:49:55Z</time>
      </trkpt>
      <trkpt lat="44.85151" lon="5.48764">
        <ele>1569.5</ele>
        <time>2019-05-30T08:49:58Z</time>
      </trkpt>
      <trkpt lat="44.85154" lon="5.48766">
        <ele>1569.5</ele>
        <time>2019-05-30T08:50:01Z</time>
      </trkpt>
      <trkpt lat="44.85157" lon="5.48767">
        <ele>1569.3</ele>
        <time>2019-05-30T08:50:04Z</time>
      </trkpt>
      <trkpt lat="44.8516" lon="5.48769">
        <ele>1569.2</ele>
        <time>2019-05-30T08:50:08Z</time>
      </trkpt>
      <trkpt lat="44.85163" lon="5.48771">
        <ele>1569.1</ele>
        <time>2019-05-30T08:50:11Z</time>
      </trkpt>
      <trkpt lat="44.85166" lon="5.48773">
        <ele>1568.8</ele>
        <time>2019-05-30T08:50:14Z</time>
      </trkpt>
      <trkpt lat="44.85169" lon="5.48776">
        <ele>1568.7</ele>
        <time>2019-05-30T08:50:17Z</time>
      </trkpt>
      <trkpt lat="44.85171" lon="5.48777">
        <ele>1568.4</ele>
        <time>2019-05-30T08:50:20Z</time>
      </trkpt>
      <trkpt lat="44.85174" lon="5.4878">
        <ele>1568.2</ele>
        <time>2019-05-30T08:50:23Z</time>
      </trkpt>
      <trkpt lat="44.85177" lon="5.48782">
        <ele>1568</ele>
        <time>2019-05-30T08:50:25Z</time>
      </trkpt>
      <trkpt lat="44.8518" lon="5.48784">
        <ele>1567.8</ele>
        <time>2019-05-30T08:50:28Z</time>
      </trkpt>
      <trkpt lat="44.85183" lon="5.48787">
        <ele>1567.6</ele>
        <time>2019-05-30T08:50:31Z</time>
      </trkpt>
      <trkpt lat="44.85187" lon="5.48789">
        <ele>1567.3</ele>
        <time>2019-05-30T08:50:34Z</time>
      </trkpt>
      <trkpt lat="44.8519" lon="5.48791">
        <ele>1567.2</ele>
        <time>2019-05-30T08:50:37Z</time>
      </trkpt>
      <trkpt lat="44.85193" lon="5.48793">
        <ele>1567</ele>
        <time>2019-05-30T08:50:40Z</time>
      </trkpt>
      <trkpt lat="44.85196" lon="5.48795">
        <ele>1566.8</ele>
        <time>2019-05-30T08:50:43Z</time>
      </trkpt>
      <trkpt lat="44.85199" lon="5.48797">
        <ele>1566.7</ele>
        <time>2019-05-30T08:50:46Z</time>
      </trkpt>
      <trkpt lat="44.85203" lon="5.48797">
        <ele>1566.6</ele>
        <time>2019-05-30T08:50:49Z</time>
      </trkpt>
      <trkpt lat="44.85206" lon="5.48798">
        <ele>1566.5</ele>
        <time>2019-05-30T08:50:52Z</time>
      </trkpt>
      <trkpt lat="44.8521" lon="5.48797">
        <ele>1566.4</ele>
        <time>2019-05-30T08:50:55Z</time>
      </trkpt>
      <trkpt lat="44.85213" lon="5.48796">
        <ele>1566.2</ele>
        <time>2019-05-30T08:50:58Z</time>
      </trkpt>
      <trkpt lat="44.85216" lon="5.48797">
        <ele>1566.1</ele>
        <time>2019-05-30T08:51:01Z</time>
      </trkpt>
      <trkpt lat="44.85219" lon="5.48796">
        <ele>1566</ele>
        <time>2019-05-30T08:51:04Z</time>
      </trkpt>
      <trkpt lat="44.85222" lon="5.48794">
        <ele>1566</ele>
        <time>2019-05-30T08:51:07Z</time>
      </trkpt>
      <trkpt lat="44.85226" lon="5.48794">
        <ele>1565.9</ele>
        <time>2019-05-30T08:51:10Z</time>
      </trkpt>
      <trkpt lat="44.85228" lon="5.48795">
        <ele>1565.9</ele>
        <time>2019-05-30T08:51:12Z</time>
      </trkpt>
      <trkpt lat="44.85232" lon="5.48795">
        <ele>1565.9</ele>
        <time>2019-05-30T08:51:14Z</time>
      </trkpt>
      <trkpt lat="44.85234" lon="5.48795">
        <ele>1565.8</ele>
        <time>2019-05-30T08:51:16Z</time>
      </trkpt>
      <trkpt lat="44.85237" lon="5.48796">
        <ele>1565.8</ele>
        <time>2019-05-30T08:51:18Z</time>
      </trkpt>
      <trkpt lat="44.8524" lon="5.48796">
        <ele>1565.8</ele>
        <time>2019-05-30T08:51:20Z</time>
      </trkpt>
      <trkpt lat="44.85244" lon="5.48798">
        <ele>1565.8</ele>
        <time>2019-05-30T08:51:23Z</time>
      </trkpt>
      <trkpt lat="44.85247" lon="5.48799">
        <ele>1565.8</ele>
        <time>2019-05-30T08:51:26Z</time>
      </trkpt>
      <trkpt lat="44.85251" lon="5.48799">
        <ele>1565.8</ele>
        <time>2019-05-30T08:51:29Z</time>
      </trkpt>
      <trkpt lat="44.85254" lon="5.488">
        <ele>1565.8</ele>
        <time>2019-05-30T08:51:31Z</time>
      </trkpt>
      <trkpt lat="44.85258" lon="5.48801">
        <ele>1565.8</ele>
        <time>2019-05-30T08:51:34Z</time>
      </trkpt>
      <trkpt lat="44.85261" lon="5.48802">
        <ele>1565.9</ele>
        <time>2019-05-30T08:51:37Z</time>
      </trkpt>
      <trkpt lat="44.85264" lon="5.48803">
        <ele>1566</ele>
        <time>2019-05-30T08:51:40Z</time>
      </trkpt>
      <trkpt lat="44.85267" lon="5.48804">
        <ele>1566</ele>
        <time>2019-05-30T08:51:43Z</time>
      </trkpt>
      <trkpt lat="44.8527" lon="5.48807">
        <ele>1566.2</ele>
        <time>2019-05-30T08:51:58Z</time>
      </trkpt>
      <trkpt lat="44.85273" lon="5.48807">
        <ele>1566.3</ele>
        <time>2019-05-30T08:52:01Z</time>
      </trkpt>
      <trkpt lat="44.85277" lon="5.48808">
        <ele>1566.4</ele>
        <time>2019-05-30T08:52:04Z</time>
      </trkpt>
      <trkpt lat="44.85281" lon="5.4881">
        <ele>1566.5</ele>
        <time>2019-05-30T08:52:07Z</time>
      </trkpt>
      <trkpt lat="44.85285" lon="5.48811">
        <ele>1566.8</ele>
        <time>2019-05-30T08:52:09Z</time>
      </trkpt>
      <trkpt lat="44.85288" lon="5.48812">
        <ele>1566.9</ele>
        <time>2019-05-30T08:52:11Z</time>
      </trkpt>
      <trkpt lat="44.85292" lon="5.48814">
        <ele>1567</ele>
        <time>2019-05-30T08:52:13Z</time>
      </trkpt>
      <trkpt lat="44.85295" lon="5.48815">
        <ele>1567.3</ele>
        <time>2019-05-30T08:52:15Z</time>
      </trkpt>
      <trkpt lat="44.85298" lon="5.48817">
        <ele>1567.3</ele>
        <time>2019-05-30T08:52:17Z</time>
      </trkpt>
      <trkpt lat="44.85301" lon="5.48819">
        <ele>1567.5</ele>
        <time>2019-05-30T08:52:20Z</time>
      </trkpt>
      <trkpt lat="44.85304" lon="5.48822">
        <ele>1567.5</ele>
        <time>2019-05-30T08:52:23Z</time>
      </trkpt>
      <trkpt lat="44.85307" lon="5.48825">
        <ele>1567.7</ele>
        <time>2019-05-30T08:52:26Z</time>
      </trkpt>
      <trkpt lat="44.85309" lon="5.48827">
        <ele>1567.8</ele>
        <time>2019-05-30T08:52:28Z</time>
      </trkpt>
      <trkpt lat="44.85312" lon="5.48828">
        <ele>1567.9</ele>
        <time>2019-05-30T08:52:30Z</time>
      </trkpt>
      <trkpt lat="44.85315" lon="5.4883">
        <ele>1567.9</ele>
        <time>2019-05-30T08:52:33Z</time>
      </trkpt>
      <trkpt lat="44.85317" lon="5.48832">
        <ele>1568</ele>
        <time>2019-05-30T08:52:36Z</time>
      </trkpt>
      <trkpt lat="44.8532" lon="5.48835">
        <ele>1568</ele>
        <time>2019-05-30T08:52:39Z</time>
      </trkpt>
      <trkpt lat="44.85322" lon="5.48837">
        <ele>1568.1</ele>
        <time>2019-05-30T08:52:41Z</time>
      </trkpt>
      <trkpt lat="44.85325" lon="5.48839">
        <ele>1568.1</ele>
        <time>2019-05-30T08:52:43Z</time>
      </trkpt>
      <trkpt lat="44.85327" lon="5.48841">
        <ele>1568.1</ele>
        <time>2019-05-30T08:52:45Z</time>
      </trkpt>
      <trkpt lat="44.8533" lon="5.48844">
        <ele>1568.1</ele>
        <time>2019-05-30T08:52:47Z</time>
      </trkpt>
      <trkpt lat="44.85333" lon="5.48847">
        <ele>1568.1</ele>
        <time>2019-05-30T08:52:50Z</time>
      </trkpt>
      <trkpt lat="44.85335" lon="5.48849">
        <ele>1568.1</ele>
        <time>2019-05-30T08:52:52Z</time>
      </trkpt>
      <trkpt lat="44.85339" lon="5.48852">
        <ele>1568</ele>
        <time>2019-05-30T08:52:55Z</time>
      </trkpt>
      <trkpt lat="44.85342" lon="5.48855">
        <ele>1567.9</ele>
        <time>2019-05-30T08:52:58Z</time>
      </trkpt>
      <trkpt lat="44.85345" lon="5.48858">
        <ele>1567.9</ele>
        <time>2019-05-30T08:53:01Z</time>
      </trkpt>
      <trkpt lat="44.85347" lon="5.48861">
        <ele>1567.8</ele>
        <time>2019-05-30T08:53:04Z</time>
      </trkpt>
      <trkpt lat="44.85349" lon="5.48864">
        <ele>1567.8</ele>
        <time>2019-05-30T08:53:07Z</time>
      </trkpt>
      <trkpt lat="44.85351" lon="5.48867">
        <ele>1567.6</ele>
        <time>2019-05-30T08:53:10Z</time>
      </trkpt>
      <trkpt lat="44.85354" lon="5.48871">
        <ele>1567.5</ele>
        <time>2019-05-30T08:53:13Z</time>
      </trkpt>
      <trkpt lat="44.85357" lon="5.48874">
        <ele>1567.4</ele>
        <time>2019-05-30T08:53:16Z</time>
      </trkpt>
      <trkpt lat="44.85361" lon="5.48878">
        <ele>1567.2</ele>
        <time>2019-05-30T08:53:19Z</time>
      </trkpt>
      <trkpt lat="44.85363" lon="5.4888">
        <ele>1567</ele>
        <time>2019-05-30T08:53:21Z</time>
      </trkpt>
      <trkpt lat="44.85365" lon="5.48882">
        <ele>1566.8</ele>
        <time>2019-05-30T08:53:23Z</time>
      </trkpt>
      <trkpt lat="44.85368" lon="5.48885">
        <ele>1566.6</ele>
        <time>2019-05-30T08:53:26Z</time>
      </trkpt>
      <trkpt lat="44.85371" lon="5.48887">
        <ele>1566.5</ele>
        <time>2019-05-30T08:53:28Z</time>
      </trkpt>
      <trkpt lat="44.85373" lon="5.4889">
        <ele>1566.4</ele>
        <time>2019-05-30T08:53:30Z</time>
      </trkpt>
      <trkpt lat="44.85377" lon="5.48893">
        <ele>1566.1</ele>
        <time>2019-05-30T08:53:33Z</time>
      </trkpt>
      <trkpt lat="44.85379" lon="5.48895">
        <ele>1566</ele>
        <time>2019-05-30T08:53:35Z</time>
      </trkpt>
      <trkpt lat="44.85382" lon="5.48899">
        <ele>1565.7</ele>
        <time>2019-05-30T08:53:38Z</time>
      </trkpt>
      <trkpt lat="44.85384" lon="5.48901">
        <ele>1565.5</ele>
        <time>2019-05-30T08:53:40Z</time>
      </trkpt>
      <trkpt lat="44.85387" lon="5.48904">
        <ele>1565.4</ele>
        <time>2019-05-30T08:53:43Z</time>
      </trkpt>
      <trkpt lat="44.85391" lon="5.48907">
        <ele>1565.3</ele>
        <time>2019-05-30T08:53:46Z</time>
      </trkpt>
      <trkpt lat="44.85393" lon="5.4891">
        <ele>1565.1</ele>
        <time>2019-05-30T08:53:49Z</time>
      </trkpt>
      <trkpt lat="44.85397" lon="5.48914">
        <ele>1565</ele>
        <time>2019-05-30T08:53:52Z</time>
      </trkpt>
      <trkpt lat="44.854" lon="5.48917">
        <ele>1564.9</ele>
        <time>2019-05-30T08:53:55Z</time>
      </trkpt>
      <trkpt lat="44.85402" lon="5.48919">
        <ele>1564.8</ele>
        <time>2019-05-30T08:53:57Z</time>
      </trkpt>
      <trkpt lat="44.85405" lon="5.48923">
        <ele>1564.8</ele>
        <time>2019-05-30T08:54:00Z</time>
      </trkpt>
      <trkpt lat="44.85406" lon="5.48926">
        <ele>1564.7</ele>
        <time>2019-05-30T08:54:04Z</time>
      </trkpt>
      <trkpt lat="44.85409" lon="5.48928">
        <ele>1564.7</ele>
        <time>2019-05-30T08:54:12Z</time>
      </trkpt>
      <trkpt lat="44.85409" lon="5.48932">
        <ele>1564.6</ele>
        <time>2019-05-30T08:54:23Z</time>
      </trkpt>
      <trkpt lat="44.85411" lon="5.48929">
        <ele>1564.7</ele>
        <time>2019-05-30T08:54:29Z</time>
      </trkpt>
      <trkpt lat="44.85417" lon="5.48929">
        <ele>1564.8</ele>
        <time>2019-05-30T08:58:11Z</time>
      </trkpt>
      <trkpt lat="44.85416" lon="5.48922">
        <ele>1564.7</ele>
        <time>2019-05-30T09:00:09Z</time>
      </trkpt>
      <trkpt lat="44.85413" lon="5.48919">
        <ele>1564.6</ele>
        <time>2019-05-30T09:01:47Z</time>
      </trkpt>
      <trkpt lat="44.8541" lon="5.48925">
        <ele>1564.5</ele>
        <time>2019-05-30T09:02:22Z</time>
      </trkpt>
      <trkpt lat="44.85414" lon="5.48926">
        <ele>1564.4</ele>
        <time>2019-05-30T09:03:08Z</time>
      </trkpt>
      <trkpt lat="44.85411" lon="5.48928">
        <ele>1564.3</ele>
        <time>2019-05-30T09:10:31Z</time>
      </trkpt>
      <trkpt lat="44.85408" lon="5.48928">
        <ele>1564.2</ele>
        <time>2019-05-30T09:10:34Z</time>
      </trkpt>
      <trkpt lat="44.85404" lon="5.4893">
        <ele>1564.1</ele>
        <time>2019-05-30T09:10:37Z</time>
      </trkpt>
      <trkpt lat="44.85401" lon="5.48933">
        <ele>1564</ele>
        <time>2019-05-30T09:10:39Z</time>
      </trkpt>
      <trkpt lat="44.85397" lon="5.48934">
        <ele>1563.9</ele>
        <time>2019-05-30T09:10:41Z</time>
      </trkpt>
      <trkpt lat="44.85395" lon="5.48936">
        <ele>1563.8</ele>
        <time>2019-05-30T09:10:43Z</time>
      </trkpt>
      <trkpt lat="44.85391" lon="5.48938">
        <ele>1563.7</ele>
        <time>2019-05-30T09:10:46Z</time>
      </trkpt>
      <trkpt lat="44.85388" lon="5.4894">
        <ele>1563.6</ele>
        <time>2019-05-30T09:10:48Z</time>
      </trkpt>
      <trkpt lat="44.85386" lon="5.48943">
        <ele>1563.5</ele>
        <time>2019-05-30T09:10:51Z</time>
      </trkpt>
      <trkpt lat="44.85384" lon="5.48947">
        <ele>1563.4</ele>
        <time>2019-05-30T09:10:53Z</time>
      </trkpt>
      <trkpt lat="44.85383" lon="5.48952">
        <ele>1563.2</ele>
        <time>2019-05-30T09:10:55Z</time>
      </trkpt>
      <trkpt lat="44.85382" lon="5.48955">
        <ele>1563.2</ele>
        <time>2019-05-30T09:10:57Z</time>
      </trkpt>
      <trkpt lat="44.85381" lon="5.4896">
        <ele>1563.1</ele>
        <time>2019-05-30T09:11:00Z</time>
      </trkpt>
      <trkpt lat="44.8538" lon="5.48965">
        <ele>1563</ele>
        <time>2019-05-30T09:11:03Z</time>
      </trkpt>
      <trkpt lat="44.8538" lon="5.48971">
        <ele>1562.9</ele>
        <time>2019-05-30T09:11:05Z</time>
      </trkpt>
      <trkpt lat="44.8538" lon="5.48976">
        <ele>1562.9</ele>
        <time>2019-05-30T09:11:07Z</time>
      </trkpt>
      <trkpt lat="44.8538" lon="5.48979">
        <ele>1562.9</ele>
        <time>2019-05-30T09:11:09Z</time>
      </trkpt>
      <trkpt lat="44.85381" lon="5.48983">
        <ele>1562.9</ele>
        <time>2019-05-30T09:11:11Z</time>
      </trkpt>
      <trkpt lat="44.85381" lon="5.48989">
        <ele>1562.9</ele>
        <time>2019-05-30T09:11:14Z</time>
      </trkpt>
      <trkpt lat="44.85382" lon="5.48993">
        <ele>1562.8</ele>
        <time>2019-05-30T09:11:16Z</time>
      </trkpt>
      <trkpt lat="44.85384" lon="5.48998">
        <ele>1562.8</ele>
        <time>2019-05-30T09:11:19Z</time>
      </trkpt>
      <trkpt lat="44.85385" lon="5.49003">
        <ele>1562.8</ele>
        <time>2019-05-30T09:11:22Z</time>
      </trkpt>
      <trkpt lat="44.85387" lon="5.49007">
        <ele>1562.7</ele>
        <time>2019-05-30T09:11:25Z</time>
      </trkpt>
      <trkpt lat="44.85387" lon="5.49011">
        <ele>1562.7</ele>
        <time>2019-05-30T09:11:27Z</time>
      </trkpt>
      <trkpt lat="44.85388" lon="5.49016">
        <ele>1562.7</ele>
        <time>2019-05-30T09:11:29Z</time>
      </trkpt>
      <trkpt lat="44.85388" lon="5.4902">
        <ele>1562.6</ele>
        <time>2019-05-30T09:11:31Z</time>
      </trkpt>
      <trkpt lat="44.85389" lon="5.49025">
        <ele>1562.6</ele>
        <time>2019-05-30T09:11:34Z</time>
      </trkpt>
      <trkpt lat="44.8539" lon="5.49029">
        <ele>1562.5</ele>
        <time>2019-05-30T09:11:37Z</time>
      </trkpt>
      <trkpt lat="44.8539" lon="5.49033">
        <ele>1562.5</ele>
        <time>2019-05-30T09:11:40Z</time>
      </trkpt>
      <trkpt lat="44.8539" lon="5.49038">
        <ele>1562.4</ele>
        <time>2019-05-30T09:11:43Z</time>
      </trkpt>
      <trkpt lat="44.85389" lon="5.49042">
        <ele>1562.4</ele>
        <time>2019-05-30T09:11:46Z</time>
      </trkpt>
      <trkpt lat="44.8539" lon="5.49046">
        <ele>1562.4</ele>
        <time>2019-05-30T09:11:49Z</time>
      </trkpt>
      <trkpt lat="44.85391" lon="5.4905">
        <ele>1562.3</ele>
        <time>2019-05-30T09:11:52Z</time>
      </trkpt>
      <trkpt lat="44.85393" lon="5.49055">
        <ele>1562.3</ele>
        <time>2019-05-30T09:11:55Z</time>
      </trkpt>
      <trkpt lat="44.85394" lon="5.49058">
        <ele>1562.3</ele>
        <time>2019-05-30T09:11:58Z</time>
      </trkpt>
      <trkpt lat="44.85397" lon="5.49061">
        <ele>1562.3</ele>
        <time>2019-05-30T09:12:02Z</time>
      </trkpt>
      <trkpt lat="44.85399" lon="5.49065">
        <ele>1562.3</ele>
        <time>2019-05-30T09:12:05Z</time>
      </trkpt>
      <trkpt lat="44.85401" lon="5.4907">
        <ele>1562.3</ele>
        <time>2019-05-30T09:12:07Z</time>
      </trkpt>
      <trkpt lat="44.85403" lon="5.49073">
        <ele>1562.2</ele>
        <time>2019-05-30T09:12:09Z</time>
      </trkpt>
      <trkpt lat="44.85404" lon="5.49077">
        <ele>1562.2</ele>
        <time>2019-05-30T09:12:11Z</time>
      </trkpt>
      <trkpt lat="44.85406" lon="5.49081">
        <ele>1562.2</ele>
        <time>2019-05-30T09:12:13Z</time>
      </trkpt>
      <trkpt lat="44.85407" lon="5.49084">
        <ele>1562.1</ele>
        <time>2019-05-30T09:12:15Z</time>
      </trkpt>
      <trkpt lat="44.8541" lon="5.49089">
        <ele>1562.1</ele>
        <time>2019-05-30T09:12:18Z</time>
      </trkpt>
      <trkpt lat="44.85411" lon="5.49092">
        <ele>1562.1</ele>
        <time>2019-05-30T09:12:20Z</time>
      </trkpt>
      <trkpt lat="44.85414" lon="5.49096">
        <ele>1562</ele>
        <time>2019-05-30T09:12:23Z</time>
      </trkpt>
      <trkpt lat="44.85416" lon="5.491">
        <ele>1561.9</ele>
        <time>2019-05-30T09:12:26Z</time>
      </trkpt>
      <trkpt lat="44.85418" lon="5.49103">
        <ele>1561.9</ele>
        <time>2019-05-30T09:12:29Z</time>
      </trkpt>
      <trkpt lat="44.8542" lon="5.49107">
        <ele>1562.1</ele>
        <time>2019-05-30T09:12:32Z</time>
      </trkpt>
      <trkpt lat="44.85423" lon="5.49111">
        <ele>1562.4</ele>
        <time>2019-05-30T09:12:35Z</time>
      </trkpt>
      <trkpt lat="44.85425" lon="5.49115">
        <ele>1562.5</ele>
        <time>2019-05-30T09:12:38Z</time>
      </trkpt>
      <trkpt lat="44.85428" lon="5.49119">
        <ele>1562.6</ele>
        <time>2019-05-30T09:12:41Z</time>
      </trkpt>
      <trkpt lat="44.8543" lon="5.49123">
        <ele>1562.8</ele>
        <time>2019-05-30T09:12:44Z</time>
      </trkpt>
      <trkpt lat="44.85432" lon="5.49126">
        <ele>1562.8</ele>
        <time>2019-05-30T09:12:46Z</time>
      </trkpt>
      <trkpt lat="44.85435" lon="5.4913">
        <ele>1562.9</ele>
        <time>2019-05-30T09:12:49Z</time>
      </trkpt>
      <trkpt lat="44.85437" lon="5.49132">
        <ele>1562.9</ele>
        <time>2019-05-30T09:12:51Z</time>
      </trkpt>
      <trkpt lat="44.8544" lon="5.49136">
        <ele>1563</ele>
        <time>2019-05-30T09:12:54Z</time>
      </trkpt>
      <trkpt lat="44.85442" lon="5.49137">
        <ele>1563.1</ele>
        <time>2019-05-30T09:12:56Z</time>
      </trkpt>
      <trkpt lat="44.85446" lon="5.4914">
        <ele>1563.3</ele>
        <time>2019-05-30T09:12:59Z</time>
      </trkpt>
      <trkpt lat="44.85448" lon="5.49141">
        <ele>1563.4</ele>
        <time>2019-05-30T09:13:01Z</time>
      </trkpt>
      <trkpt lat="44.85451" lon="5.49143">
        <ele>1563.5</ele>
        <time>2019-05-30T09:13:03Z</time>
      </trkpt>
      <trkpt lat="44.85454" lon="5.49145">
        <ele>1563.8</ele>
        <time>2019-05-30T09:13:06Z</time>
      </trkpt>
      <trkpt lat="44.85457" lon="5.49148">
        <ele>1564.1</ele>
        <time>2019-05-30T09:13:09Z</time>
      </trkpt>
      <trkpt lat="44.85459" lon="5.49151">
        <ele>1564.3</ele>
        <time>2019-05-30T09:13:12Z</time>
      </trkpt>
      <trkpt lat="44.85462" lon="5.49154">
        <ele>1564.6</ele>
        <time>2019-05-30T09:13:15Z</time>
      </trkpt>
      <trkpt lat="44.85464" lon="5.49158">
        <ele>1564.8</ele>
        <time>2019-05-30T09:13:18Z</time>
      </trkpt>
      <trkpt lat="44.85465" lon="5.49163">
        <ele>1565.2</ele>
        <time>2019-05-30T09:13:21Z</time>
      </trkpt>
      <trkpt lat="44.85465" lon="5.49167">
        <ele>1565.4</ele>
        <time>2019-05-30T09:13:24Z</time>
      </trkpt>
      <trkpt lat="44.85465" lon="5.49171">
        <ele>1565.7</ele>
        <time>2019-05-30T09:13:27Z</time>
      </trkpt>
      <trkpt lat="44.85465" lon="5.49176">
        <ele>1565.9</ele>
        <time>2019-05-30T09:13:30Z</time>
      </trkpt>
      <trkpt lat="44.85465" lon="5.49181">
        <ele>1566.2</ele>
        <time>2019-05-30T09:13:33Z</time>
      </trkpt>
      <trkpt lat="44.85465" lon="5.49185">
        <ele>1566.5</ele>
        <time>2019-05-30T09:13:35Z</time>
      </trkpt>
      <trkpt lat="44.85465" lon="5.4919">
        <ele>1566.9</ele>
        <time>2019-05-30T09:13:38Z</time>
      </trkpt>
      <trkpt lat="44.85465" lon="5.49195">
        <ele>1567.4</ele>
        <time>2019-05-30T09:13:41Z</time>
      </trkpt>
      <trkpt lat="44.85465" lon="5.492">
        <ele>1567.7</ele>
        <time>2019-05-30T09:13:44Z</time>
      </trkpt>
      <trkpt lat="44.85465" lon="5.49205">
        <ele>1568.2</ele>
        <time>2019-05-30T09:13:47Z</time>
      </trkpt>
      <trkpt lat="44.85466" lon="5.49211">
        <ele>1568.6</ele>
        <time>2019-05-30T09:13:50Z</time>
      </trkpt>
      <trkpt lat="44.85466" lon="5.49215">
        <ele>1569</ele>
        <time>2019-05-30T09:13:53Z</time>
      </trkpt>
      <trkpt lat="44.85467" lon="5.49219">
        <ele>1569.3</ele>
        <time>2019-05-30T09:13:56Z</time>
      </trkpt>
      <trkpt lat="44.85468" lon="5.49224">
        <ele>1569.6</ele>
        <time>2019-05-30T09:13:59Z</time>
      </trkpt>
      <trkpt lat="44.8547" lon="5.49228">
        <ele>1569.9</ele>
        <time>2019-05-30T09:14:02Z</time>
      </trkpt>
      <trkpt lat="44.85471" lon="5.49232">
        <ele>1570.3</ele>
        <time>2019-05-30T09:14:05Z</time>
      </trkpt>
      <trkpt lat="44.85473" lon="5.49236">
        <ele>1570.6</ele>
        <time>2019-05-30T09:14:08Z</time>
      </trkpt>
      <trkpt lat="44.85474" lon="5.4924">
        <ele>1570.8</ele>
        <time>2019-05-30T09:14:11Z</time>
      </trkpt>
      <trkpt lat="44.85476" lon="5.49244">
        <ele>1571.1</ele>
        <time>2019-05-30T09:14:14Z</time>
      </trkpt>
      <trkpt lat="44.85478" lon="5.49248">
        <ele>1571.4</ele>
        <time>2019-05-30T09:14:17Z</time>
      </trkpt>
      <trkpt lat="44.85479" lon="5.49252">
        <ele>1571.7</ele>
        <time>2019-05-30T09:14:20Z</time>
      </trkpt>
      <trkpt lat="44.85481" lon="5.49257">
        <ele>1572.1</ele>
        <time>2019-05-30T09:14:23Z</time>
      </trkpt>
      <trkpt lat="44.85482" lon="5.49261">
        <ele>1572.4</ele>
        <time>2019-05-30T09:14:26Z</time>
      </trkpt>
      <trkpt lat="44.85484" lon="5.49265">
        <ele>1572.7</ele>
        <time>2019-05-30T09:14:29Z</time>
      </trkpt>
      <trkpt lat="44.85487" lon="5.49268">
        <ele>1573</ele>
        <time>2019-05-30T09:14:32Z</time>
      </trkpt>
      <trkpt lat="44.85489" lon="5.49272">
        <ele>1573.3</ele>
        <time>2019-05-30T09:14:35Z</time>
      </trkpt>
      <trkpt lat="44.85492" lon="5.49276">
        <ele>1573.6</ele>
        <time>2019-05-30T09:14:38Z</time>
      </trkpt>
      <trkpt lat="44.85494" lon="5.4928">
        <ele>1573.9</ele>
        <time>2019-05-30T09:14:41Z</time>
      </trkpt>
      <trkpt lat="44.85497" lon="5.49283">
        <ele>1574.1</ele>
        <time>2019-05-30T09:14:44Z</time>
      </trkpt>
      <trkpt lat="44.855" lon="5.49287">
        <ele>1574.4</ele>
        <time>2019-05-30T09:14:47Z</time>
      </trkpt>
      <trkpt lat="44.85502" lon="5.49291">
        <ele>1574.6</ele>
        <time>2019-05-30T09:14:50Z</time>
      </trkpt>
      <trkpt lat="44.85504" lon="5.49295">
        <ele>1574.9</ele>
        <time>2019-05-30T09:14:53Z</time>
      </trkpt>
      <trkpt lat="44.85506" lon="5.49299">
        <ele>1575</ele>
        <time>2019-05-30T09:14:55Z</time>
      </trkpt>
      <trkpt lat="44.85508" lon="5.49303">
        <ele>1575.3</ele>
        <time>2019-05-30T09:14:58Z</time>
      </trkpt>
      <trkpt lat="44.8551" lon="5.49307">
        <ele>1575.6</ele>
        <time>2019-05-30T09:15:01Z</time>
      </trkpt>
      <trkpt lat="44.85513" lon="5.49312">
        <ele>1575.9</ele>
        <time>2019-05-30T09:15:04Z</time>
      </trkpt>
      <trkpt lat="44.85515" lon="5.49315">
        <ele>1576.2</ele>
        <time>2019-05-30T09:15:06Z</time>
      </trkpt>
      <trkpt lat="44.85516" lon="5.49319">
        <ele>1576.5</ele>
        <time>2019-05-30T09:15:09Z</time>
      </trkpt>
      <trkpt lat="44.85518" lon="5.49324">
        <ele>1576.8</ele>
        <time>2019-05-30T09:15:12Z</time>
      </trkpt>
      <trkpt lat="44.8552" lon="5.49328">
        <ele>1577</ele>
        <time>2019-05-30T09:15:15Z</time>
      </trkpt>
      <trkpt lat="44.85522" lon="5.49331">
        <ele>1577.2</ele>
        <time>2019-05-30T09:15:18Z</time>
      </trkpt>
      <trkpt lat="44.85523" lon="5.49335">
        <ele>1577.4</ele>
        <time>2019-05-30T09:15:21Z</time>
      </trkpt>
      <trkpt lat="44.85524" lon="5.4934">
        <ele>1577.6</ele>
        <time>2019-05-30T09:15:24Z</time>
      </trkpt>
      <trkpt lat="44.85525" lon="5.49344">
        <ele>1577.8</ele>
        <time>2019-05-30T09:15:27Z</time>
      </trkpt>
      <trkpt lat="44.85526" lon="5.49348">
        <ele>1578</ele>
        <time>2019-05-30T09:15:30Z</time>
      </trkpt>
      <trkpt lat="44.85528" lon="5.49353">
        <ele>1578.2</ele>
        <time>2019-05-30T09:15:33Z</time>
      </trkpt>
      <trkpt lat="44.85529" lon="5.49357">
        <ele>1578.4</ele>
        <time>2019-05-30T09:15:36Z</time>
      </trkpt>
      <trkpt lat="44.85531" lon="5.49361">
        <ele>1578.6</ele>
        <time>2019-05-30T09:15:39Z</time>
      </trkpt>
      <trkpt lat="44.85533" lon="5.49364">
        <ele>1578.8</ele>
        <time>2019-05-30T09:15:42Z</time>
      </trkpt>
      <trkpt lat="44.85535" lon="5.49369">
        <ele>1579</ele>
        <time>2019-05-30T09:15:45Z</time>
      </trkpt>
      <trkpt lat="44.85536" lon="5.49373">
        <ele>1579.2</ele>
        <time>2019-05-30T09:15:47Z</time>
      </trkpt>
      <trkpt lat="44.85537" lon="5.49377">
        <ele>1579.4</ele>
        <time>2019-05-30T09:15:49Z</time>
      </trkpt>
      <trkpt lat="44.85539" lon="5.49382">
        <ele>1579.6</ele>
        <time>2019-05-30T09:15:52Z</time>
      </trkpt>
      <trkpt lat="44.8554" lon="5.49386">
        <ele>1579.7</ele>
        <time>2019-05-30T09:15:54Z</time>
      </trkpt>
      <trkpt lat="44.85542" lon="5.4939">
        <ele>1579.9</ele>
        <time>2019-05-30T09:15:57Z</time>
      </trkpt>
      <trkpt lat="44.85543" lon="5.49395">
        <ele>1580.1</ele>
        <time>2019-05-30T09:16:00Z</time>
      </trkpt>
      <trkpt lat="44.85545" lon="5.49399">
        <ele>1580.2</ele>
        <time>2019-05-30T09:16:03Z</time>
      </trkpt>
      <trkpt lat="44.85547" lon="5.49404">
        <ele>1580.4</ele>
        <time>2019-05-30T09:16:06Z</time>
      </trkpt>
      <trkpt lat="44.85548" lon="5.4941">
        <ele>1580.6</ele>
        <time>2019-05-30T09:16:09Z</time>
      </trkpt>
      <trkpt lat="44.85549" lon="5.49414">
        <ele>1580.8</ele>
        <time>2019-05-30T09:16:11Z</time>
      </trkpt>
      <trkpt lat="44.8555" lon="5.4942">
        <ele>1581.1</ele>
        <time>2019-05-30T09:16:14Z</time>
      </trkpt>
      <trkpt lat="44.85551" lon="5.49423">
        <ele>1581.2</ele>
        <time>2019-05-30T09:16:16Z</time>
      </trkpt>
      <trkpt lat="44.85552" lon="5.49427">
        <ele>1581.4</ele>
        <time>2019-05-30T09:16:19Z</time>
      </trkpt>
      <trkpt lat="44.85553" lon="5.49432">
        <ele>1581.6</ele>
        <time>2019-05-30T09:16:22Z</time>
      </trkpt>
      <trkpt lat="44.85554" lon="5.49436">
        <ele>1581.9</ele>
        <time>2019-05-30T09:16:25Z</time>
      </trkpt>
      <trkpt lat="44.85556" lon="5.4944">
        <ele>1582.1</ele>
        <time>2019-05-30T09:16:28Z</time>
      </trkpt>
      <trkpt lat="44.85557" lon="5.49445">
        <ele>1582.4</ele>
        <time>2019-05-30T09:16:31Z</time>
      </trkpt>
      <trkpt lat="44.85558" lon="5.49449">
        <ele>1582.6</ele>
        <time>2019-05-30T09:16:34Z</time>
      </trkpt>
      <trkpt lat="44.85557" lon="5.49454">
        <ele>1582.8</ele>
        <time>2019-05-30T09:16:47Z</time>
      </trkpt>
      <trkpt lat="44.85558" lon="5.49459">
        <ele>1583.2</ele>
        <time>2019-05-30T09:16:50Z</time>
      </trkpt>
      <trkpt lat="44.8556" lon="5.49464">
        <ele>1583.8</ele>
        <time>2019-05-30T09:16:53Z</time>
      </trkpt>
      <trkpt lat="44.85561" lon="5.49468">
        <ele>1584.2</ele>
        <time>2019-05-30T09:16:55Z</time>
      </trkpt>
      <trkpt lat="44.85562" lon="5.49471">
        <ele>1584.7</ele>
        <time>2019-05-30T09:16:57Z</time>
      </trkpt>
      <trkpt lat="44.85563" lon="5.49476">
        <ele>1585.3</ele>
        <time>2019-05-30T09:17:00Z</time>
      </trkpt>
      <trkpt lat="44.85564" lon="5.4948">
        <ele>1585.9</ele>
        <time>2019-05-30T09:17:03Z</time>
      </trkpt>
      <trkpt lat="44.85567" lon="5.49484">
        <ele>1586.6</ele>
        <time>2019-05-30T09:17:06Z</time>
      </trkpt>
      <trkpt lat="44.85569" lon="5.49487">
        <ele>1587.4</ele>
        <time>2019-05-30T09:17:09Z</time>
      </trkpt>
      <trkpt lat="44.85572" lon="5.4949">
        <ele>1588</ele>
        <time>2019-05-30T09:17:12Z</time>
      </trkpt>
      <trkpt lat="44.85575" lon="5.49492">
        <ele>1588.6</ele>
        <time>2019-05-30T09:17:15Z</time>
      </trkpt>
      <trkpt lat="44.85578" lon="5.49494">
        <ele>1589.2</ele>
        <time>2019-05-30T09:17:18Z</time>
      </trkpt>
      <trkpt lat="44.8558" lon="5.49496">
        <ele>1589.7</ele>
        <time>2019-05-30T09:17:21Z</time>
      </trkpt>
      <trkpt lat="44.85583" lon="5.49498">
        <ele>1590.1</ele>
        <time>2019-05-30T09:17:24Z</time>
      </trkpt>
      <trkpt lat="44.85586" lon="5.49499">
        <ele>1590.5</ele>
        <time>2019-05-30T09:17:27Z</time>
      </trkpt>
      <trkpt lat="44.85589" lon="5.495">
        <ele>1591</ele>
        <time>2019-05-30T09:17:30Z</time>
      </trkpt>
      <trkpt lat="44.85592" lon="5.49501">
        <ele>1591.4</ele>
        <time>2019-05-30T09:17:33Z</time>
      </trkpt>
      <trkpt lat="44.85594" lon="5.49501">
        <ele>1591.9</ele>
        <time>2019-05-30T09:17:36Z</time>
      </trkpt>
      <trkpt lat="44.85598" lon="5.49502">
        <ele>1592.5</ele>
        <time>2019-05-30T09:17:40Z</time>
      </trkpt>
      <trkpt lat="44.85602" lon="5.49501">
        <ele>1593</ele>
        <time>2019-05-30T09:17:43Z</time>
      </trkpt>
      <trkpt lat="44.85605" lon="5.49502">
        <ele>1593.4</ele>
        <time>2019-05-30T09:17:45Z</time>
      </trkpt>
      <trkpt lat="44.85608" lon="5.49503">
        <ele>1593.9</ele>
        <time>2019-05-30T09:17:47Z</time>
      </trkpt>
      <trkpt lat="44.85611" lon="5.49504">
        <ele>1594.4</ele>
        <time>2019-05-30T09:17:50Z</time>
      </trkpt>
      <trkpt lat="44.85614" lon="5.49505">
        <ele>1594.9</ele>
        <time>2019-05-30T09:17:53Z</time>
      </trkpt>
      <trkpt lat="44.85617" lon="5.49508">
        <ele>1595.2</ele>
        <time>2019-05-30T09:17:57Z</time>
      </trkpt>
      <trkpt lat="44.85619" lon="5.49511">
        <ele>1595.5</ele>
        <time>2019-05-30T09:18:02Z</time>
      </trkpt>
      <trkpt lat="44.85621" lon="5.49514">
        <ele>1595.9</ele>
        <time>2019-05-30T09:18:08Z</time>
      </trkpt>
      <trkpt lat="44.85623" lon="5.49518">
        <ele>1596.2</ele>
        <time>2019-05-30T09:18:13Z</time>
      </trkpt>
      <trkpt lat="44.85625" lon="5.49521">
        <ele>1596.4</ele>
        <time>2019-05-30T09:18:16Z</time>
      </trkpt>
      <trkpt lat="44.85627" lon="5.49526">
        <ele>1596.7</ele>
        <time>2019-05-30T09:18:20Z</time>
      </trkpt>
      <trkpt lat="44.8563" lon="5.4953">
        <ele>1597</ele>
        <time>2019-05-30T09:18:24Z</time>
      </trkpt>
      <trkpt lat="44.85632" lon="5.49534">
        <ele>1597.4</ele>
        <time>2019-05-30T09:18:28Z</time>
      </trkpt>
      <trkpt lat="44.85634" lon="5.49536">
        <ele>1597.8</ele>
        <time>2019-05-30T09:18:31Z</time>
      </trkpt>
      <trkpt lat="44.85636" lon="5.49539">
        <ele>1598.1</ele>
        <time>2019-05-30T09:18:34Z</time>
      </trkpt>
      <trkpt lat="44.85638" lon="5.49543">
        <ele>1598.5</ele>
        <time>2019-05-30T09:18:38Z</time>
      </trkpt>
      <trkpt lat="44.8564" lon="5.49546">
        <ele>1598.7</ele>
        <time>2019-05-30T09:18:42Z</time>
      </trkpt>
      <trkpt lat="44.85642" lon="5.4955">
        <ele>1599</ele>
        <time>2019-05-30T09:18:46Z</time>
      </trkpt>
      <trkpt lat="44.85645" lon="5.49553">
        <ele>1599.3</ele>
        <time>2019-05-30T09:18:49Z</time>
      </trkpt>
      <trkpt lat="44.85648" lon="5.49556">
        <ele>1599.6</ele>
        <time>2019-05-30T09:18:52Z</time>
      </trkpt>
      <trkpt lat="44.85651" lon="5.49558">
        <ele>1599.8</ele>
        <time>2019-05-30T09:18:55Z</time>
      </trkpt>
      <trkpt lat="44.85653" lon="5.4956">
        <ele>1600.1</ele>
        <time>2019-05-30T09:18:58Z</time>
      </trkpt>
      <trkpt lat="44.85656" lon="5.49562">
        <ele>1600.3</ele>
        <time>2019-05-30T09:19:01Z</time>
      </trkpt>
      <trkpt lat="44.8566" lon="5.49564">
        <ele>1600.6</ele>
        <time>2019-05-30T09:19:04Z</time>
      </trkpt>
      <trkpt lat="44.85663" lon="5.49566">
        <ele>1601.2</ele>
        <time>2019-05-30T09:19:07Z</time>
      </trkpt>
      <trkpt lat="44.85666" lon="5.49569">
        <ele>1601.6</ele>
        <time>2019-05-30T09:19:10Z</time>
      </trkpt>
      <trkpt lat="44.85668" lon="5.49572">
        <ele>1602.1</ele>
        <time>2019-05-30T09:19:14Z</time>
      </trkpt>
      <trkpt lat="44.85671" lon="5.49574">
        <ele>1602.4</ele>
        <time>2019-05-30T09:19:18Z</time>
      </trkpt>
      <trkpt lat="44.85674" lon="5.49576">
        <ele>1602.8</ele>
        <time>2019-05-30T09:19:24Z</time>
      </trkpt>
      <trkpt lat="44.85677" lon="5.49577">
        <ele>1603.2</ele>
        <time>2019-05-30T09:19:28Z</time>
      </trkpt>
      <trkpt lat="44.8568" lon="5.49579">
        <ele>1603.6</ele>
        <time>2019-05-30T09:19:32Z</time>
      </trkpt>
      <trkpt lat="44.85682" lon="5.4958">
        <ele>1604</ele>
        <time>2019-05-30T09:19:35Z</time>
      </trkpt>
      <trkpt lat="44.85685" lon="5.49582">
        <ele>1604.4</ele>
        <time>2019-05-30T09:19:39Z</time>
      </trkpt>
      <trkpt lat="44.85688" lon="5.49585">
        <ele>1604.9</ele>
        <time>2019-05-30T09:19:44Z</time>
      </trkpt>
      <trkpt lat="44.85691" lon="5.49587">
        <ele>1605.4</ele>
        <time>2019-05-30T09:19:47Z</time>
      </trkpt>
      <trkpt lat="44.85693" lon="5.49589">
        <ele>1605.7</ele>
        <time>2019-05-30T09:19:49Z</time>
      </trkpt>
      <trkpt lat="44.85696" lon="5.49592">
        <ele>1606.1</ele>
        <time>2019-05-30T09:19:52Z</time>
      </trkpt>
      <trkpt lat="44.85699" lon="5.49594">
        <ele>1606.3</ele>
        <time>2019-05-30T09:19:54Z</time>
      </trkpt>
      <trkpt lat="44.85701" lon="5.49596">
        <ele>1606.6</ele>
        <time>2019-05-30T09:19:56Z</time>
      </trkpt>
      <trkpt lat="44.85704" lon="5.49598">
        <ele>1606.9</ele>
        <time>2019-05-30T09:19:58Z</time>
      </trkpt>
      <trkpt lat="44.85707" lon="5.49599">
        <ele>1607.2</ele>
        <time>2019-05-30T09:20:00Z</time>
      </trkpt>
      <trkpt lat="44.8571" lon="5.49601">
        <ele>1607.4</ele>
        <time>2019-05-30T09:20:02Z</time>
      </trkpt>
      <trkpt lat="44.85712" lon="5.49602">
        <ele>1607.5</ele>
        <time>2019-05-30T09:20:04Z</time>
      </trkpt>
      <trkpt lat="44.85715" lon="5.49603">
        <ele>1607.7</ele>
        <time>2019-05-30T09:20:06Z</time>
      </trkpt>
      <trkpt lat="44.85718" lon="5.49605">
        <ele>1607.8</ele>
        <time>2019-05-30T09:20:08Z</time>
      </trkpt>
      <trkpt lat="44.85721" lon="5.49607">
        <ele>1608</ele>
        <time>2019-05-30T09:20:11Z</time>
      </trkpt>
      <trkpt lat="44.85724" lon="5.49608">
        <ele>1608</ele>
        <time>2019-05-30T09:20:14Z</time>
      </trkpt>
      <trkpt lat="44.85727" lon="5.49607">
        <ele>1608.2</ele>
        <time>2019-05-30T09:20:17Z</time>
      </trkpt>
      <trkpt lat="44.8573" lon="5.49609">
        <ele>1608.3</ele>
        <time>2019-05-30T09:20:20Z</time>
      </trkpt>
      <trkpt lat="44.85734" lon="5.49611">
        <ele>1608.4</ele>
        <time>2019-05-30T09:20:24Z</time>
      </trkpt>
      <trkpt lat="44.85736" lon="5.49613">
        <ele>1608.5</ele>
        <time>2019-05-30T09:20:28Z</time>
      </trkpt>
      <trkpt lat="44.85739" lon="5.49616">
        <ele>1608.5</ele>
        <time>2019-05-30T09:20:31Z</time>
      </trkpt>
      <trkpt lat="44.85741" lon="5.49618">
        <ele>1608.6</ele>
        <time>2019-05-30T09:20:33Z</time>
      </trkpt>
      <trkpt lat="44.85744" lon="5.49618">
        <ele>1608.8</ele>
        <time>2019-05-30T09:20:36Z</time>
      </trkpt>
      <trkpt lat="44.85747" lon="5.49618">
        <ele>1609.2</ele>
        <time>2019-05-30T09:20:39Z</time>
      </trkpt>
      <trkpt lat="44.85751" lon="5.4962">
        <ele>1609.7</ele>
        <time>2019-05-30T09:20:41Z</time>
      </trkpt>
      <trkpt lat="44.85754" lon="5.49621">
        <ele>1610.1</ele>
        <time>2019-05-30T09:20:44Z</time>
      </trkpt>
      <trkpt lat="44.85757" lon="5.49621">
        <ele>1610.6</ele>
        <time>2019-05-30T09:20:50Z</time>
      </trkpt>
      <trkpt lat="44.85761" lon="5.49622">
        <ele>1611.1</ele>
        <time>2019-05-30T09:20:54Z</time>
      </trkpt>
      <trkpt lat="44.85764" lon="5.49621">
        <ele>1611.6</ele>
        <time>2019-05-30T09:20:57Z</time>
      </trkpt>
      <trkpt lat="44.85768" lon="5.49622">
        <ele>1612.1</ele>
        <time>2019-05-30T09:21:01Z</time>
      </trkpt>
      <trkpt lat="44.85771" lon="5.49621">
        <ele>1612.5</ele>
        <time>2019-05-30T09:21:05Z</time>
      </trkpt>
      <trkpt lat="44.85774" lon="5.49622">
        <ele>1612.8</ele>
        <time>2019-05-30T09:21:09Z</time>
      </trkpt>
      <trkpt lat="44.85777" lon="5.49622">
        <ele>1613.1</ele>
        <time>2019-05-30T09:21:12Z</time>
      </trkpt>
      <trkpt lat="44.8578" lon="5.49621">
        <ele>1613.4</ele>
        <time>2019-05-30T09:21:15Z</time>
      </trkpt>
      <trkpt lat="44.85783" lon="5.4962">
        <ele>1613.5</ele>
        <time>2019-05-30T09:21:18Z</time>
      </trkpt>
      <trkpt lat="44.85787" lon="5.49619">
        <ele>1613.6</ele>
        <time>2019-05-30T09:21:21Z</time>
      </trkpt>
      <trkpt lat="44.8579" lon="5.49619">
        <ele>1613.7</ele>
        <time>2019-05-30T09:21:23Z</time>
      </trkpt>
      <trkpt lat="44.85793" lon="5.49619">
        <ele>1613.8</ele>
        <time>2019-05-30T09:21:25Z</time>
      </trkpt>
      <trkpt lat="44.85797" lon="5.49619">
        <ele>1613.9</ele>
        <time>2019-05-30T09:21:27Z</time>
      </trkpt>
      <trkpt lat="44.858" lon="5.49618">
        <ele>1614</ele>
        <time>2019-05-30T09:21:29Z</time>
      </trkpt>
      <trkpt lat="44.85804" lon="5.49617">
        <ele>1614</ele>
        <time>2019-05-30T09:21:32Z</time>
      </trkpt>
      <trkpt lat="44.85807" lon="5.49617">
        <ele>1614.1</ele>
        <time>2019-05-30T09:21:34Z</time>
      </trkpt>
      <trkpt lat="44.8581" lon="5.49615">
        <ele>1614.2</ele>
        <time>2019-05-30T09:21:37Z</time>
      </trkpt>
      <trkpt lat="44.85813" lon="5.49615">
        <ele>1614.2</ele>
        <time>2019-05-30T09:21:39Z</time>
      </trkpt>
      <trkpt lat="44.85816" lon="5.49614">
        <ele>1614.3</ele>
        <time>2019-05-30T09:21:41Z</time>
      </trkpt>
      <trkpt lat="44.85819" lon="5.49613">
        <ele>1614.5</ele>
        <time>2019-05-30T09:21:43Z</time>
      </trkpt>
      <trkpt lat="44.85822" lon="5.49612">
        <ele>1614.7</ele>
        <time>2019-05-30T09:21:45Z</time>
      </trkpt>
      <trkpt lat="44.85825" lon="5.49611">
        <ele>1614.9</ele>
        <time>2019-05-30T09:21:48Z</time>
      </trkpt>
      <trkpt lat="44.85829" lon="5.49611">
        <ele>1615</ele>
        <time>2019-05-30T09:21:52Z</time>
      </trkpt>
      <trkpt lat="44.85832" lon="5.49611">
        <ele>1615.1</ele>
        <time>2019-05-30T09:21:55Z</time>
      </trkpt>
      <trkpt lat="44.85835" lon="5.4961">
        <ele>1615.2</ele>
        <time>2019-05-30T09:21:57Z</time>
      </trkpt>
      <trkpt lat="44.85838" lon="5.49609">
        <ele>1615.3</ele>
        <time>2019-05-30T09:22:00Z</time>
      </trkpt>
      <trkpt lat="44.85841" lon="5.49608">
        <ele>1615.4</ele>
        <time>2019-05-30T09:22:04Z</time>
      </trkpt>
      <trkpt lat="44.85844" lon="5.49606">
        <ele>1615.4</ele>
        <time>2019-05-30T09:22:07Z</time>
      </trkpt>
      <trkpt lat="44.85847" lon="5.49604">
        <ele>1615.4</ele>
        <time>2019-05-30T09:22:11Z</time>
      </trkpt>
      <trkpt lat="44.85849" lon="5.49602">
        <ele>1615.3</ele>
        <time>2019-05-30T09:22:14Z</time>
      </trkpt>
      <trkpt lat="44.85852" lon="5.496">
        <ele>1615.2</ele>
        <time>2019-05-30T09:22:17Z</time>
      </trkpt>
      <trkpt lat="44.85856" lon="5.49599">
        <ele>1615</ele>
        <time>2019-05-30T09:22:20Z</time>
      </trkpt>
      <trkpt lat="44.85859" lon="5.49598">
        <ele>1614.8</ele>
        <time>2019-05-30T09:22:22Z</time>
      </trkpt>
      <trkpt lat="44.85862" lon="5.49597">
        <ele>1614.5</ele>
        <time>2019-05-30T09:22:25Z</time>
      </trkpt>
      <trkpt lat="44.85866" lon="5.49595">
        <ele>1614.2</ele>
        <time>2019-05-30T09:22:28Z</time>
      </trkpt>
      <trkpt lat="44.85869" lon="5.49594">
        <ele>1613.9</ele>
        <time>2019-05-30T09:22:30Z</time>
      </trkpt>
      <trkpt lat="44.85872" lon="5.49594">
        <ele>1613.6</ele>
        <time>2019-05-30T09:22:32Z</time>
      </trkpt>
      <trkpt lat="44.85875" lon="5.49593">
        <ele>1613.4</ele>
        <time>2019-05-30T09:22:34Z</time>
      </trkpt>
      <trkpt lat="44.85877" lon="5.49592">
        <ele>1613.2</ele>
        <time>2019-05-30T09:22:36Z</time>
      </trkpt>
      <trkpt lat="44.85881" lon="5.4959">
        <ele>1613</ele>
        <time>2019-05-30T09:22:39Z</time>
      </trkpt>
      <trkpt lat="44.85884" lon="5.49589">
        <ele>1612.9</ele>
        <time>2019-05-30T09:22:42Z</time>
      </trkpt>
      <trkpt lat="44.85888" lon="5.49587">
        <ele>1612.7</ele>
        <time>2019-05-30T09:22:45Z</time>
      </trkpt>
      <trkpt lat="44.85891" lon="5.49587">
        <ele>1612.7</ele>
        <time>2019-05-30T09:22:47Z</time>
      </trkpt>
      <trkpt lat="44.85895" lon="5.49588">
        <ele>1612.6</ele>
        <time>2019-05-30T09:22:49Z</time>
      </trkpt>
      <trkpt lat="44.85898" lon="5.49588">
        <ele>1612.6</ele>
        <time>2019-05-30T09:22:52Z</time>
      </trkpt>
      <trkpt lat="44.85902" lon="5.49588">
        <ele>1612.5</ele>
        <time>2019-05-30T09:22:55Z</time>
      </trkpt>
      <trkpt lat="44.85906" lon="5.49588">
        <ele>1612.5</ele>
        <time>2019-05-30T09:22:58Z</time>
      </trkpt>
      <trkpt lat="44.8591" lon="5.49588">
        <ele>1612.5</ele>
        <time>2019-05-30T09:23:01Z</time>
      </trkpt>
      <trkpt lat="44.85914" lon="5.49586">
        <ele>1612.5</ele>
        <time>2019-05-30T09:23:04Z</time>
      </trkpt>
      <trkpt lat="44.85917" lon="5.49585">
        <ele>1612.5</ele>
        <time>2019-05-30T09:23:07Z</time>
      </trkpt>
      <trkpt lat="44.8592" lon="5.49584">
        <ele>1612.5</ele>
        <time>2019-05-30T09:23:11Z</time>
      </trkpt>
      <trkpt lat="44.85923" lon="5.49582">
        <ele>1612.5</ele>
        <time>2019-05-30T09:23:16Z</time>
      </trkpt>
      <trkpt lat="44.85926" lon="5.49582">
        <ele>1612.5</ele>
        <time>2019-05-30T09:23:20Z</time>
      </trkpt>
      <trkpt lat="44.85928" lon="5.4958">
        <ele>1612.5</ele>
        <time>2019-05-30T09:23:23Z</time>
      </trkpt>
      <trkpt lat="44.85931" lon="5.49579">
        <ele>1612.5</ele>
        <time>2019-05-30T09:23:26Z</time>
      </trkpt>
      <trkpt lat="44.85934" lon="5.49578">
        <ele>1612.5</ele>
        <time>2019-05-30T09:23:28Z</time>
      </trkpt>
      <trkpt lat="44.85938" lon="5.49577">
        <ele>1612.5</ele>
        <time>2019-05-30T09:23:30Z</time>
      </trkpt>
      <trkpt lat="44.85942" lon="5.49576">
        <ele>1612.6</ele>
        <time>2019-05-30T09:23:32Z</time>
      </trkpt>
      <trkpt lat="44.85947" lon="5.49574">
        <ele>1612.7</ele>
        <time>2019-05-30T09:23:34Z</time>
      </trkpt>
      <trkpt lat="44.8595" lon="5.49573">
        <ele>1612.8</ele>
        <time>2019-05-30T09:23:36Z</time>
      </trkpt>
      <trkpt lat="44.85952" lon="5.49572">
        <ele>1612.9</ele>
        <time>2019-05-30T09:23:38Z</time>
      </trkpt>
      <trkpt lat="44.85956" lon="5.4957">
        <ele>1613.1</ele>
        <time>2019-05-30T09:23:41Z</time>
      </trkpt>
      <trkpt lat="44.85959" lon="5.49568">
        <ele>1613.3</ele>
        <time>2019-05-30T09:23:44Z</time>
      </trkpt>
      <trkpt lat="44.85963" lon="5.49568">
        <ele>1613.6</ele>
        <time>2019-05-30T09:23:47Z</time>
      </trkpt>
      <trkpt lat="44.85966" lon="5.49568">
        <ele>1613.8</ele>
        <time>2019-05-30T09:23:50Z</time>
      </trkpt>
      <trkpt lat="44.85969" lon="5.49568">
        <ele>1614</ele>
        <time>2019-05-30T09:23:53Z</time>
      </trkpt>
      <trkpt lat="44.85972" lon="5.49567">
        <ele>1614.1</ele>
        <time>2019-05-30T09:23:56Z</time>
      </trkpt>
      <trkpt lat="44.85976" lon="5.49567">
        <ele>1614.3</ele>
        <time>2019-05-30T09:23:59Z</time>
      </trkpt>
      <trkpt lat="44.85979" lon="5.49567">
        <ele>1614.5</ele>
        <time>2019-05-30T09:24:02Z</time>
      </trkpt>
      <trkpt lat="44.85983" lon="5.49567">
        <ele>1614.6</ele>
        <time>2019-05-30T09:24:05Z</time>
      </trkpt>
      <trkpt lat="44.85986" lon="5.49567">
        <ele>1614.7</ele>
        <time>2019-05-30T09:24:08Z</time>
      </trkpt>
      <trkpt lat="44.8599" lon="5.49568">
        <ele>1614.8</ele>
        <time>2019-05-30T09:24:12Z</time>
      </trkpt>
      <trkpt lat="44.85993" lon="5.49568">
        <ele>1614.8</ele>
        <time>2019-05-30T09:24:15Z</time>
      </trkpt>
      <trkpt lat="44.85997" lon="5.49568">
        <ele>1614.9</ele>
        <time>2019-05-30T09:24:18Z</time>
      </trkpt>
      <trkpt lat="44.86" lon="5.49568">
        <ele>1614.9</ele>
        <time>2019-05-30T09:24:21Z</time>
      </trkpt>
      <trkpt lat="44.86003" lon="5.49568">
        <ele>1614.8</ele>
        <time>2019-05-30T09:24:24Z</time>
      </trkpt>
      <trkpt lat="44.86006" lon="5.49567">
        <ele>1614.8</ele>
        <time>2019-05-30T09:24:26Z</time>
      </trkpt>
      <trkpt lat="44.86009" lon="5.49567">
        <ele>1614.8</ele>
        <time>2019-05-30T09:24:28Z</time>
      </trkpt>
      <trkpt lat="44.86012" lon="5.49566">
        <ele>1614.8</ele>
        <time>2019-05-30T09:24:30Z</time>
      </trkpt>
      <trkpt lat="44.86015" lon="5.49565">
        <ele>1614.8</ele>
        <time>2019-05-30T09:24:33Z</time>
      </trkpt>
      <trkpt lat="44.86019" lon="5.49564">
        <ele>1614.8</ele>
        <time>2019-05-30T09:24:36Z</time>
      </trkpt>
      <trkpt lat="44.86022" lon="5.49562">
        <ele>1614.8</ele>
        <time>2019-05-30T09:24:39Z</time>
      </trkpt>
      <trkpt lat="44.86025" lon="5.4956">
        <ele>1614.8</ele>
        <time>2019-05-30T09:24:42Z</time>
      </trkpt>
      <trkpt lat="44.86027" lon="5.49559">
        <ele>1614.9</ele>
        <time>2019-05-30T09:24:45Z</time>
      </trkpt>
      <trkpt lat="44.8603" lon="5.49557">
        <ele>1614.9</ele>
        <time>2019-05-30T09:24:48Z</time>
      </trkpt>
      <trkpt lat="44.86032" lon="5.49555">
        <ele>1614.9</ele>
        <time>2019-05-30T09:24:51Z</time>
      </trkpt>
      <trkpt lat="44.86036" lon="5.49553">
        <ele>1614.9</ele>
        <time>2019-05-30T09:24:54Z</time>
      </trkpt>
      <trkpt lat="44.86039" lon="5.49551">
        <ele>1614.9</ele>
        <time>2019-05-30T09:24:57Z</time>
      </trkpt>
      <trkpt lat="44.86042" lon="5.49548">
        <ele>1614.9</ele>
        <time>2019-05-30T09:25:00Z</time>
      </trkpt>
      <trkpt lat="44.86045" lon="5.49546">
        <ele>1614.9</ele>
        <time>2019-05-30T09:25:03Z</time>
      </trkpt>
      <trkpt lat="44.86049" lon="5.49544">
        <ele>1614.8</ele>
        <time>2019-05-30T09:25:06Z</time>
      </trkpt>
      <trkpt lat="44.86052" lon="5.49542">
        <ele>1614.8</ele>
        <time>2019-05-30T09:25:09Z</time>
      </trkpt>
      <trkpt lat="44.86054" lon="5.4954">
        <ele>1614.8</ele>
        <time>2019-05-30T09:25:11Z</time>
      </trkpt>
      <trkpt lat="44.86058" lon="5.49539">
        <ele>1614.9</ele>
        <time>2019-05-30T09:25:14Z</time>
      </trkpt>
      <trkpt lat="44.86061" lon="5.49537">
        <ele>1614.9</ele>
        <time>2019-05-30T09:25:16Z</time>
      </trkpt>
      <trkpt lat="44.86063" lon="5.49534">
        <ele>1615</ele>
        <time>2019-05-30T09:25:19Z</time>
      </trkpt>
      <trkpt lat="44.86064" lon="5.4953">
        <ele>1615.2</ele>
        <time>2019-05-30T09:25:29Z</time>
      </trkpt>
      <trkpt lat="44.86066" lon="5.49528">
        <ele>1615.4</ele>
        <time>2019-05-30T09:25:32Z</time>
      </trkpt>
      <trkpt lat="44.86069" lon="5.49524">
        <ele>1615.6</ele>
        <time>2019-05-30T09:25:35Z</time>
      </trkpt>
      <trkpt lat="44.86071" lon="5.49522">
        <ele>1615.8</ele>
        <time>2019-05-30T09:25:37Z</time>
      </trkpt>
      <trkpt lat="44.86074" lon="5.4952">
        <ele>1616.1</ele>
        <time>2019-05-30T09:25:39Z</time>
      </trkpt>
      <trkpt lat="44.86076" lon="5.49517">
        <ele>1616</ele>
        <time>2019-05-30T09:25:41Z</time>
      </trkpt>
      <trkpt lat="44.8608" lon="5.49515">
        <ele>1616</ele>
        <time>2019-05-30T09:25:43Z</time>
      </trkpt>
      <trkpt lat="44.86084" lon="5.49514">
        <ele>1616.1</ele>
        <time>2019-05-30T09:25:45Z</time>
      </trkpt>
      <trkpt lat="44.86086" lon="5.49513">
        <ele>1616.2</ele>
        <time>2019-05-30T09:25:47Z</time>
      </trkpt>
      <trkpt lat="44.86089" lon="5.49512">
        <ele>1616.3</ele>
        <time>2019-05-30T09:25:49Z</time>
      </trkpt>
      <trkpt lat="44.86092" lon="5.49511">
        <ele>1616.4</ele>
        <time>2019-05-30T09:25:52Z</time>
      </trkpt>
      <trkpt lat="44.86095" lon="5.4951">
        <ele>1616.6</ele>
        <time>2019-05-30T09:25:55Z</time>
      </trkpt>
      <trkpt lat="44.86098" lon="5.49509">
        <ele>1616.8</ele>
        <time>2019-05-30T09:25:59Z</time>
      </trkpt>
      <trkpt lat="44.86101" lon="5.49507">
        <ele>1617</ele>
        <time>2019-05-30T09:26:02Z</time>
      </trkpt>
      <trkpt lat="44.86104" lon="5.49506">
        <ele>1617.2</ele>
        <time>2019-05-30T09:26:05Z</time>
      </trkpt>
      <trkpt lat="44.86107" lon="5.49505">
        <ele>1617.4</ele>
        <time>2019-05-30T09:26:07Z</time>
      </trkpt>
      <trkpt lat="44.8611" lon="5.49504">
        <ele>1617.6</ele>
        <time>2019-05-30T09:26:09Z</time>
      </trkpt>
      <trkpt lat="44.86113" lon="5.49503">
        <ele>1617.8</ele>
        <time>2019-05-30T09:26:11Z</time>
      </trkpt>
      <trkpt lat="44.86117" lon="5.49502">
        <ele>1618.2</ele>
        <time>2019-05-30T09:26:14Z</time>
      </trkpt>
      <trkpt lat="44.8612" lon="5.495">
        <ele>1618.4</ele>
        <time>2019-05-30T09:26:16Z</time>
      </trkpt>
      <trkpt lat="44.86123" lon="5.49499">
        <ele>1618.7</ele>
        <time>2019-05-30T09:26:19Z</time>
      </trkpt>
      <trkpt lat="44.86126" lon="5.49498">
        <ele>1619</ele>
        <time>2019-05-30T09:26:22Z</time>
      </trkpt>
      <trkpt lat="44.86128" lon="5.49501">
        <ele>1619.2</ele>
        <time>2019-05-30T09:26:25Z</time>
      </trkpt>
      <trkpt lat="44.86131" lon="5.49501">
        <ele>1619.4</ele>
        <time>2019-05-30T09:26:28Z</time>
      </trkpt>
      <trkpt lat="44.86134" lon="5.49502">
        <ele>1619.7</ele>
        <time>2019-05-30T09:26:31Z</time>
      </trkpt>
      <trkpt lat="44.86138" lon="5.49504">
        <ele>1619.8</ele>
        <time>2019-05-30T09:26:34Z</time>
      </trkpt>
      <trkpt lat="44.86139" lon="5.49508">
        <ele>1620</ele>
        <time>2019-05-30T09:26:37Z</time>
      </trkpt>
      <trkpt lat="44.86141" lon="5.49511">
        <ele>1620</ele>
        <time>2019-05-30T09:26:39Z</time>
      </trkpt>
      <trkpt lat="44.86144" lon="5.49515">
        <ele>1620.1</ele>
        <time>2019-05-30T09:26:42Z</time>
      </trkpt>
      <trkpt lat="44.86146" lon="5.49517">
        <ele>1620.2</ele>
        <time>2019-05-30T09:26:45Z</time>
      </trkpt>
      <trkpt lat="44.86149" lon="5.4952">
        <ele>1620.2</ele>
        <time>2019-05-30T09:26:50Z</time>
      </trkpt>
      <trkpt lat="44.86153" lon="5.49521">
        <ele>1620.3</ele>
        <time>2019-05-30T09:26:54Z</time>
      </trkpt>
      <trkpt lat="44.86156" lon="5.49522">
        <ele>1620.3</ele>
        <time>2019-05-30T09:26:57Z</time>
      </trkpt>
      <trkpt lat="44.86158" lon="5.49524">
        <ele>1620.4</ele>
        <time>2019-05-30T09:26:59Z</time>
      </trkpt>
      <trkpt lat="44.86162" lon="5.49526">
        <ele>1620.4</ele>
        <time>2019-05-30T09:27:01Z</time>
      </trkpt>
      <trkpt lat="44.86165" lon="5.49527">
        <ele>1620.5</ele>
        <time>2019-05-30T09:27:03Z</time>
      </trkpt>
      <trkpt lat="44.86168" lon="5.49528">
        <ele>1620.5</ele>
        <time>2019-05-30T09:27:05Z</time>
      </trkpt>
      <trkpt lat="44.86171" lon="5.49528">
        <ele>1620.6</ele>
        <time>2019-05-30T09:27:07Z</time>
      </trkpt>
      <trkpt lat="44.86174" lon="5.49529">
        <ele>1620.6</ele>
        <time>2019-05-30T09:27:10Z</time>
      </trkpt>
      <trkpt lat="44.86177" lon="5.49529">
        <ele>1620.7</ele>
        <time>2019-05-30T09:27:12Z</time>
      </trkpt>
      <trkpt lat="44.86182" lon="5.4953">
        <ele>1620.7</ele>
        <time>2019-05-30T09:27:14Z</time>
      </trkpt>
      <trkpt lat="44.86184" lon="5.49532">
        <ele>1620.7</ele>
        <time>2019-05-30T09:27:16Z</time>
      </trkpt>
      <trkpt lat="44.86187" lon="5.49534">
        <ele>1620.8</ele>
        <time>2019-05-30T09:27:19Z</time>
      </trkpt>
      <trkpt lat="44.86189" lon="5.49537">
        <ele>1620.8</ele>
        <time>2019-05-30T09:27:21Z</time>
      </trkpt>
      <trkpt lat="44.86192" lon="5.49541">
        <ele>1620.8</ele>
        <time>2019-05-30T09:27:24Z</time>
      </trkpt>
      <trkpt lat="44.86196" lon="5.49543">
        <ele>1620.8</ele>
        <time>2019-05-30T09:27:27Z</time>
      </trkpt>
      <trkpt lat="44.86199" lon="5.49542">
        <ele>1620.9</ele>
        <time>2019-05-30T09:27:30Z</time>
      </trkpt>
      <trkpt lat="44.86202" lon="5.49545">
        <ele>1620.9</ele>
        <time>2019-05-30T09:27:33Z</time>
      </trkpt>
      <trkpt lat="44.86205" lon="5.49547">
        <ele>1621</ele>
        <time>2019-05-30T09:27:35Z</time>
      </trkpt>
      <trkpt lat="44.86208" lon="5.49548">
        <ele>1621.1</ele>
        <time>2019-05-30T09:27:37Z</time>
      </trkpt>
      <trkpt lat="44.86211" lon="5.49551">
        <ele>1621.2</ele>
        <time>2019-05-30T09:27:39Z</time>
      </trkpt>
      <trkpt lat="44.86214" lon="5.49553">
        <ele>1621.3</ele>
        <time>2019-05-30T09:27:41Z</time>
      </trkpt>
      <trkpt lat="44.86217" lon="5.49554">
        <ele>1621.5</ele>
        <time>2019-05-30T09:27:43Z</time>
      </trkpt>
      <trkpt lat="44.8622" lon="5.49556">
        <ele>1621.6</ele>
        <time>2019-05-30T09:27:45Z</time>
      </trkpt>
      <trkpt lat="44.86223" lon="5.49557">
        <ele>1621.7</ele>
        <time>2019-05-30T09:27:47Z</time>
      </trkpt>
      <trkpt lat="44.86226" lon="5.49558">
        <ele>1621.8</ele>
        <time>2019-05-30T09:27:49Z</time>
      </trkpt>
      <trkpt lat="44.86229" lon="5.4956">
        <ele>1622</ele>
        <time>2019-05-30T09:27:52Z</time>
      </trkpt>
      <trkpt lat="44.86232" lon="5.49561">
        <ele>1622.2</ele>
        <time>2019-05-30T09:27:54Z</time>
      </trkpt>
      <trkpt lat="44.86235" lon="5.49563">
        <ele>1622.3</ele>
        <time>2019-05-30T09:27:57Z</time>
      </trkpt>
      <trkpt lat="44.86238" lon="5.49566">
        <ele>1622.5</ele>
        <time>2019-05-30T09:28:00Z</time>
      </trkpt>
      <trkpt lat="44.86241" lon="5.49568">
        <ele>1622.7</ele>
        <time>2019-05-30T09:28:03Z</time>
      </trkpt>
      <trkpt lat="44.86245" lon="5.49568">
        <ele>1622.9</ele>
        <time>2019-05-30T09:28:06Z</time>
      </trkpt>
      <trkpt lat="44.86248" lon="5.49569">
        <ele>1623.2</ele>
        <time>2019-05-30T09:28:08Z</time>
      </trkpt>
      <trkpt lat="44.86251" lon="5.4957">
        <ele>1623.5</ele>
        <time>2019-05-30T09:28:11Z</time>
      </trkpt>
      <trkpt lat="44.86254" lon="5.49572">
        <ele>1623.7</ele>
        <time>2019-05-30T09:28:13Z</time>
      </trkpt>
      <trkpt lat="44.86257" lon="5.49575">
        <ele>1624</ele>
        <time>2019-05-30T09:28:16Z</time>
      </trkpt>
      <trkpt lat="44.8626" lon="5.49577">
        <ele>1624.2</ele>
        <time>2019-05-30T09:28:19Z</time>
      </trkpt>
      <trkpt lat="44.86263" lon="5.4958">
        <ele>1624.5</ele>
        <time>2019-05-30T09:28:23Z</time>
      </trkpt>
      <trkpt lat="44.86266" lon="5.49582">
        <ele>1624.7</ele>
        <time>2019-05-30T09:28:27Z</time>
      </trkpt>
      <trkpt lat="44.86269" lon="5.49582">
        <ele>1624.9</ele>
        <time>2019-05-30T09:28:30Z</time>
      </trkpt>
      <trkpt lat="44.86273" lon="5.49582">
        <ele>1625.1</ele>
        <time>2019-05-30T09:28:33Z</time>
      </trkpt>
      <trkpt lat="44.86276" lon="5.49585">
        <ele>1625.3</ele>
        <time>2019-05-30T09:28:36Z</time>
      </trkpt>
      <trkpt lat="44.86279" lon="5.49587">
        <ele>1625.5</ele>
        <time>2019-05-30T09:28:39Z</time>
      </trkpt>
      <trkpt lat="44.86282" lon="5.49589">
        <ele>1625.7</ele>
        <time>2019-05-30T09:28:42Z</time>
      </trkpt>
      <trkpt lat="44.86284" lon="5.49591">
        <ele>1625.9</ele>
        <time>2019-05-30T09:28:46Z</time>
      </trkpt>
      <trkpt lat="44.86286" lon="5.49594">
        <ele>1626</ele>
        <time>2019-05-30T09:28:58Z</time>
      </trkpt>
      <trkpt lat="44.8629" lon="5.49595">
        <ele>1626.2</ele>
        <time>2019-05-30T09:29:01Z</time>
      </trkpt>
      <trkpt lat="44.86293" lon="5.49596">
        <ele>1626.3</ele>
        <time>2019-05-30T09:29:05Z</time>
      </trkpt>
      <trkpt lat="44.86296" lon="5.49597">
        <ele>1626.5</ele>
        <time>2019-05-30T09:29:07Z</time>
      </trkpt>
      <trkpt lat="44.863" lon="5.49598">
        <ele>1626.7</ele>
        <time>2019-05-30T09:29:09Z</time>
      </trkpt>
      <trkpt lat="44.86303" lon="5.49599">
        <ele>1626.8</ele>
        <time>2019-05-30T09:29:11Z</time>
      </trkpt>
      <trkpt lat="44.86306" lon="5.49601">
        <ele>1627</ele>
        <time>2019-05-30T09:29:13Z</time>
      </trkpt>
      <trkpt lat="44.86309" lon="5.49602">
        <ele>1627.1</ele>
        <time>2019-05-30T09:29:15Z</time>
      </trkpt>
      <trkpt lat="44.86312" lon="5.49604">
        <ele>1627.3</ele>
        <time>2019-05-30T09:29:18Z</time>
      </trkpt>
      <trkpt lat="44.86315" lon="5.49605">
        <ele>1627.4</ele>
        <time>2019-05-30T09:29:20Z</time>
      </trkpt>
      <trkpt lat="44.86317" lon="5.49607">
        <ele>1627.6</ele>
        <time>2019-05-30T09:29:22Z</time>
      </trkpt>
      <trkpt lat="44.86321" lon="5.49609">
        <ele>1627.8</ele>
        <time>2019-05-30T09:29:24Z</time>
      </trkpt>
      <trkpt lat="44.86325" lon="5.4961">
        <ele>1628</ele>
        <time>2019-05-30T09:29:26Z</time>
      </trkpt>
      <trkpt lat="44.86329" lon="5.49611">
        <ele>1628.2</ele>
        <time>2019-05-30T09:29:28Z</time>
      </trkpt>
      <trkpt lat="44.86332" lon="5.49612">
        <ele>1628.4</ele>
        <time>2019-05-30T09:29:30Z</time>
      </trkpt>
      <trkpt lat="44.86335" lon="5.49612">
        <ele>1628.6</ele>
        <time>2019-05-30T09:29:32Z</time>
      </trkpt>
      <trkpt lat="44.86338" lon="5.49612">
        <ele>1628.7</ele>
        <time>2019-05-30T09:29:34Z</time>
      </trkpt>
      <trkpt lat="44.86341" lon="5.49613">
        <ele>1628.9</ele>
        <time>2019-05-30T09:29:36Z</time>
      </trkpt>
      <trkpt lat="44.86344" lon="5.49614">
        <ele>1629.1</ele>
        <time>2019-05-30T09:29:39Z</time>
      </trkpt>
      <trkpt lat="44.86348" lon="5.49614">
        <ele>1629.1</ele>
        <time>2019-05-30T09:29:42Z</time>
      </trkpt>
      <trkpt lat="44.86351" lon="5.49615">
        <ele>1629.1</ele>
        <time>2019-05-30T09:29:44Z</time>
      </trkpt>
      <trkpt lat="44.86355" lon="5.49615">
        <ele>1628.9</ele>
        <time>2019-05-30T09:29:47Z</time>
      </trkpt>
      <trkpt lat="44.86359" lon="5.49616">
        <ele>1628.7</ele>
        <time>2019-05-30T09:29:50Z</time>
      </trkpt>
      <trkpt lat="44.86362" lon="5.49616">
        <ele>1628.4</ele>
        <time>2019-05-30T09:29:54Z</time>
      </trkpt>
      <trkpt lat="44.86365" lon="5.49617">
        <ele>1628.2</ele>
        <time>2019-05-30T09:30:00Z</time>
      </trkpt>
      <trkpt lat="44.86368" lon="5.49617">
        <ele>1627.8</ele>
        <time>2019-05-30T09:30:03Z</time>
      </trkpt>
      <trkpt lat="44.86371" lon="5.49618">
        <ele>1627.4</ele>
        <time>2019-05-30T09:30:06Z</time>
      </trkpt>
      <trkpt lat="44.86375" lon="5.49618">
        <ele>1627</ele>
        <time>2019-05-30T09:30:11Z</time>
      </trkpt>
      <trkpt lat="44.86378" lon="5.49617">
        <ele>1626.8</ele>
        <time>2019-05-30T09:30:14Z</time>
      </trkpt>
      <trkpt lat="44.86382" lon="5.49618">
        <ele>1626.6</ele>
        <time>2019-05-30T09:30:18Z</time>
      </trkpt>
      <trkpt lat="44.86384" lon="5.49618">
        <ele>1626.5</ele>
        <time>2019-05-30T09:30:21Z</time>
      </trkpt>
      <trkpt lat="44.86387" lon="5.49619">
        <ele>1626.3</ele>
        <time>2019-05-30T09:30:24Z</time>
      </trkpt>
      <trkpt lat="44.86391" lon="5.4962">
        <ele>1626.1</ele>
        <time>2019-05-30T09:30:27Z</time>
      </trkpt>
      <trkpt lat="44.86394" lon="5.49622">
        <ele>1625.9</ele>
        <time>2019-05-30T09:30:29Z</time>
      </trkpt>
      <trkpt lat="44.86398" lon="5.49623">
        <ele>1625.7</ele>
        <time>2019-05-30T09:30:32Z</time>
      </trkpt>
      <trkpt lat="44.86403" lon="5.49626">
        <ele>1625.2</ele>
        <time>2019-05-30T09:30:34Z</time>
      </trkpt>
      <trkpt lat="44.86406" lon="5.49628">
        <ele>1625.1</ele>
        <time>2019-05-30T09:30:36Z</time>
      </trkpt>
      <trkpt lat="44.86409" lon="5.49629">
        <ele>1625</ele>
        <time>2019-05-30T09:30:39Z</time>
      </trkpt>
      <trkpt lat="44.86413" lon="5.49631">
        <ele>1624.8</ele>
        <time>2019-05-30T09:30:42Z</time>
      </trkpt>
      <trkpt lat="44.86415" lon="5.49632">
        <ele>1624.8</ele>
        <time>2019-05-30T09:30:43Z</time>
      </trkpt>
      <trkpt lat="44.86418" lon="5.49633">
        <ele>1624.7</ele>
        <time>2019-05-30T09:30:44Z</time>
      </trkpt>
      <trkpt lat="44.86422" lon="5.49634">
        <ele>1624.4</ele>
        <time>2019-05-30T09:30:46Z</time>
      </trkpt>
      <trkpt lat="44.86425" lon="5.49636">
        <ele>1624.2</ele>
        <time>2019-05-30T09:30:48Z</time>
      </trkpt>
      <trkpt lat="44.86428" lon="5.49637">
        <ele>1624.2</ele>
        <time>2019-05-30T09:30:50Z</time>
      </trkpt>
      <trkpt lat="44.86431" lon="5.49639">
        <ele>1624.2</ele>
        <time>2019-05-30T09:30:52Z</time>
      </trkpt>
      <trkpt lat="44.86434" lon="5.4964">
        <ele>1624.2</ele>
        <time>2019-05-30T09:30:54Z</time>
      </trkpt>
      <trkpt lat="44.86437" lon="5.49642">
        <ele>1624.1</ele>
        <time>2019-05-30T09:30:56Z</time>
      </trkpt>
      <trkpt lat="44.86439" lon="5.49643">
        <ele>1624</ele>
        <time>2019-05-30T09:30:58Z</time>
      </trkpt>
      <trkpt lat="44.86443" lon="5.49645">
        <ele>1623.9</ele>
        <time>2019-05-30T09:31:00Z</time>
      </trkpt>
      <trkpt lat="44.86446" lon="5.49646">
        <ele>1624</ele>
        <time>2019-05-30T09:31:02Z</time>
      </trkpt>
      <trkpt lat="44.86449" lon="5.49647">
        <ele>1624</ele>
        <time>2019-05-30T09:31:04Z</time>
      </trkpt>
      <trkpt lat="44.86452" lon="5.49648">
        <ele>1624.1</ele>
        <time>2019-05-30T09:31:06Z</time>
      </trkpt>
      <trkpt lat="44.86455" lon="5.49648">
        <ele>1624.1</ele>
        <time>2019-05-30T09:31:08Z</time>
      </trkpt>
      <trkpt lat="44.86458" lon="5.49649">
        <ele>1624.1</ele>
        <time>2019-05-30T09:31:10Z</time>
      </trkpt>
      <trkpt lat="44.86462" lon="5.4965">
        <ele>1624.1</ele>
        <time>2019-05-30T09:31:13Z</time>
      </trkpt>
      <trkpt lat="44.86465" lon="5.49652">
        <ele>1624.1</ele>
        <time>2019-05-30T09:31:16Z</time>
      </trkpt>
      <trkpt lat="44.86468" lon="5.49652">
        <ele>1624.2</ele>
        <time>2019-05-30T09:31:19Z</time>
      </trkpt>
      <trkpt lat="44.86471" lon="5.49651">
        <ele>1624.3</ele>
        <time>2019-05-30T09:31:23Z</time>
      </trkpt>
      <trkpt lat="44.86474" lon="5.49651">
        <ele>1624.3</ele>
        <time>2019-05-30T09:31:26Z</time>
      </trkpt>
      <trkpt lat="44.86478" lon="5.49652">
        <ele>1624.3</ele>
        <time>2019-05-30T09:31:29Z</time>
      </trkpt>
      <trkpt lat="44.86481" lon="5.49653">
        <ele>1624.3</ele>
        <time>2019-05-30T09:31:31Z</time>
      </trkpt>
      <trkpt lat="44.86484" lon="5.49653">
        <ele>1624.4</ele>
        <time>2019-05-30T09:31:33Z</time>
      </trkpt>
      <trkpt lat="44.86486" lon="5.49653">
        <ele>1624.4</ele>
        <time>2019-05-30T09:31:35Z</time>
      </trkpt>
      <trkpt lat="44.86489" lon="5.49654">
        <ele>1624.4</ele>
        <time>2019-05-30T09:31:37Z</time>
      </trkpt>
      <trkpt lat="44.86492" lon="5.49655">
        <ele>1624.4</ele>
        <time>2019-05-30T09:31:39Z</time>
      </trkpt>
      <trkpt lat="44.86495" lon="5.49656">
        <ele>1624.5</ele>
        <time>2019-05-30T09:31:41Z</time>
      </trkpt>
      <trkpt lat="44.86499" lon="5.49656">
        <ele>1624.6</ele>
        <time>2019-05-30T09:31:44Z</time>
      </trkpt>
      <trkpt lat="44.86502" lon="5.49657">
        <ele>1624.7</ele>
        <time>2019-05-30T09:31:47Z</time>
      </trkpt>
      <trkpt lat="44.86506" lon="5.49656">
        <ele>1624.8</ele>
        <time>2019-05-30T09:31:50Z</time>
      </trkpt>
      <trkpt lat="44.86509" lon="5.49657">
        <ele>1624.8</ele>
        <time>2019-05-30T09:31:59Z</time>
      </trkpt>
      <trkpt lat="44.86512" lon="5.49657">
        <ele>1624.9</ele>
        <time>2019-05-30T09:32:15Z</time>
      </trkpt>
      <trkpt lat="44.86515" lon="5.49656">
        <ele>1625</ele>
        <time>2019-05-30T09:32:22Z</time>
      </trkpt>
      <trkpt lat="44.86519" lon="5.49656">
        <ele>1625.1</ele>
        <time>2019-05-30T09:32:25Z</time>
      </trkpt>
      <trkpt lat="44.86522" lon="5.49656">
        <ele>1625.1</ele>
        <time>2019-05-30T09:32:28Z</time>
      </trkpt>
      <trkpt lat="44.86525" lon="5.49656">
        <ele>1625.2</ele>
        <time>2019-05-30T09:32:31Z</time>
      </trkpt>
      <trkpt lat="44.86528" lon="5.49656">
        <ele>1625.4</ele>
        <time>2019-05-30T09:32:33Z</time>
      </trkpt>
      <trkpt lat="44.86532" lon="5.49656">
        <ele>1625.6</ele>
        <time>2019-05-30T09:32:35Z</time>
      </trkpt>
      <trkpt lat="44.86536" lon="5.49657">
        <ele>1625.9</ele>
        <time>2019-05-30T09:32:37Z</time>
      </trkpt>
      <trkpt lat="44.86539" lon="5.49658">
        <ele>1626.1</ele>
        <time>2019-05-30T09:32:40Z</time>
      </trkpt>
      <trkpt lat="44.86542" lon="5.49657">
        <ele>1626.3</ele>
        <time>2019-05-30T09:32:44Z</time>
      </trkpt>
      <trkpt lat="44.86545" lon="5.49656">
        <ele>1626.5</ele>
        <time>2019-05-30T09:32:47Z</time>
      </trkpt>
      <trkpt lat="44.86548" lon="5.49656">
        <ele>1626.8</ele>
        <time>2019-05-30T09:32:50Z</time>
      </trkpt>
      <trkpt lat="44.86552" lon="5.49656">
        <ele>1627</ele>
        <time>2019-05-30T09:32:53Z</time>
      </trkpt>
      <trkpt lat="44.86555" lon="5.49656">
        <ele>1627.3</ele>
        <time>2019-05-30T09:32:55Z</time>
      </trkpt>
      <trkpt lat="44.86558" lon="5.49656">
        <ele>1627.5</ele>
        <time>2019-05-30T09:32:57Z</time>
      </trkpt>
      <trkpt lat="44.86562" lon="5.49656">
        <ele>1627.8</ele>
        <time>2019-05-30T09:32:59Z</time>
      </trkpt>
      <trkpt lat="44.86566" lon="5.49654">
        <ele>1628.1</ele>
        <time>2019-05-30T09:33:01Z</time>
      </trkpt>
      <trkpt lat="44.8657" lon="5.49653">
        <ele>1628.3</ele>
        <time>2019-05-30T09:33:03Z</time>
      </trkpt>
      <trkpt lat="44.86574" lon="5.49653">
        <ele>1628.5</ele>
        <time>2019-05-30T09:33:05Z</time>
      </trkpt>
      <trkpt lat="44.86577" lon="5.49652">
        <ele>1628.6</ele>
        <time>2019-05-30T09:33:07Z</time>
      </trkpt>
      <trkpt lat="44.8658" lon="5.4965">
        <ele>1628.6</ele>
        <time>2019-05-30T09:33:09Z</time>
      </trkpt>
      <trkpt lat="44.86583" lon="5.49649">
        <ele>1628.6</ele>
        <time>2019-05-30T09:33:11Z</time>
      </trkpt>
      <trkpt lat="44.86586" lon="5.49648">
        <ele>1628.6</ele>
        <time>2019-05-30T09:33:14Z</time>
      </trkpt>
      <trkpt lat="44.86589" lon="5.49647">
        <ele>1628.7</ele>
        <time>2019-05-30T09:33:17Z</time>
      </trkpt>
      <trkpt lat="44.86592" lon="5.49647">
        <ele>1628.9</ele>
        <time>2019-05-30T09:33:20Z</time>
      </trkpt>
      <trkpt lat="44.86595" lon="5.49646">
        <ele>1628.9</ele>
        <time>2019-05-30T09:33:24Z</time>
      </trkpt>
      <trkpt lat="44.86599" lon="5.49647">
        <ele>1629</ele>
        <time>2019-05-30T09:33:27Z</time>
      </trkpt>
      <trkpt lat="44.86602" lon="5.49648">
        <ele>1628.9</ele>
        <time>2019-05-30T09:33:30Z</time>
      </trkpt>
      <trkpt lat="44.86606" lon="5.49648">
        <ele>1628.8</ele>
        <time>2019-05-30T09:33:33Z</time>
      </trkpt>
      <trkpt lat="44.86609" lon="5.49648">
        <ele>1628.6</ele>
        <time>2019-05-30T09:33:36Z</time>
      </trkpt>
      <trkpt lat="44.86612" lon="5.49647">
        <ele>1628.7</ele>
        <time>2019-05-30T09:33:39Z</time>
      </trkpt>
      <trkpt lat="44.86616" lon="5.49644">
        <ele>1628.7</ele>
        <time>2019-05-30T09:33:42Z</time>
      </trkpt>
      <trkpt lat="44.86619" lon="5.49643">
        <ele>1628.6</ele>
        <time>2019-05-30T09:33:45Z</time>
      </trkpt>
      <trkpt lat="44.86622" lon="5.49642">
        <ele>1628.4</ele>
        <time>2019-05-30T09:33:48Z</time>
      </trkpt>
      <trkpt lat="44.86625" lon="5.49643">
        <ele>1628.3</ele>
        <time>2019-05-30T09:33:51Z</time>
      </trkpt>
      <trkpt lat="44.86629" lon="5.49643">
        <ele>1628.3</ele>
        <time>2019-05-30T09:33:54Z</time>
      </trkpt>
      <trkpt lat="44.86631" lon="5.49641">
        <ele>1628.3</ele>
        <time>2019-05-30T09:33:56Z</time>
      </trkpt>
      <trkpt lat="44.86635" lon="5.4964">
        <ele>1628.3</ele>
        <time>2019-05-30T09:33:59Z</time>
      </trkpt>
      <trkpt lat="44.86638" lon="5.4964">
        <ele>1628.3</ele>
        <time>2019-05-30T09:34:01Z</time>
      </trkpt>
      <trkpt lat="44.86641" lon="5.49638">
        <ele>1628.2</ele>
        <time>2019-05-30T09:34:03Z</time>
      </trkpt>
      <trkpt lat="44.86644" lon="5.49637">
        <ele>1628.2</ele>
        <time>2019-05-30T09:34:05Z</time>
      </trkpt>
      <trkpt lat="44.86647" lon="5.49637">
        <ele>1628.1</ele>
        <time>2019-05-30T09:34:07Z</time>
      </trkpt>
      <trkpt lat="44.86651" lon="5.49637">
        <ele>1628</ele>
        <time>2019-05-30T09:34:09Z</time>
      </trkpt>
      <trkpt lat="44.86655" lon="5.49637">
        <ele>1627.9</ele>
        <time>2019-05-30T09:34:12Z</time>
      </trkpt>
      <trkpt lat="44.86658" lon="5.49638">
        <ele>1627.7</ele>
        <time>2019-05-30T09:34:14Z</time>
      </trkpt>
      <trkpt lat="44.86661" lon="5.49639">
        <ele>1627.2</ele>
        <time>2019-05-30T09:34:17Z</time>
      </trkpt>
      <trkpt lat="44.86664" lon="5.4964">
        <ele>1627.1</ele>
        <time>2019-05-30T09:34:19Z</time>
      </trkpt>
      <trkpt lat="44.86668" lon="5.49641">
        <ele>1627.2</ele>
        <time>2019-05-30T09:34:21Z</time>
      </trkpt>
      <trkpt lat="44.86671" lon="5.49642">
        <ele>1627.3</ele>
        <time>2019-05-30T09:34:24Z</time>
      </trkpt>
      <trkpt lat="44.86675" lon="5.49644">
        <ele>1627</ele>
        <time>2019-05-30T09:34:27Z</time>
      </trkpt>
      <trkpt lat="44.86677" lon="5.49645">
        <ele>1626.8</ele>
        <time>2019-05-30T09:34:29Z</time>
      </trkpt>
      <trkpt lat="44.86681" lon="5.49648">
        <ele>1626.4</ele>
        <time>2019-05-30T09:34:32Z</time>
      </trkpt>
      <trkpt lat="44.86684" lon="5.49649">
        <ele>1626</ele>
        <time>2019-05-30T09:34:34Z</time>
      </trkpt>
      <trkpt lat="44.86687" lon="5.4965">
        <ele>1625.7</ele>
        <time>2019-05-30T09:34:36Z</time>
      </trkpt>
      <trkpt lat="44.8669" lon="5.4965">
        <ele>1625.4</ele>
        <time>2019-05-30T09:34:39Z</time>
      </trkpt>
      <trkpt lat="44.86694" lon="5.49648">
        <ele>1625.2</ele>
        <time>2019-05-30T09:34:42Z</time>
      </trkpt>
      <trkpt lat="44.86697" lon="5.49647">
        <ele>1625.2</ele>
        <time>2019-05-30T09:34:45Z</time>
      </trkpt>
      <trkpt lat="44.86701" lon="5.49645">
        <ele>1625.2</ele>
        <time>2019-05-30T09:34:48Z</time>
      </trkpt>
      <trkpt lat="44.86704" lon="5.49643">
        <ele>1625</ele>
        <time>2019-05-30T09:34:51Z</time>
      </trkpt>
      <trkpt lat="44.86707" lon="5.49642">
        <ele>1624.8</ele>
        <time>2019-05-30T09:34:54Z</time>
      </trkpt>
      <trkpt lat="44.8671" lon="5.49641">
        <ele>1624.5</ele>
        <time>2019-05-30T09:34:57Z</time>
      </trkpt>
      <trkpt lat="44.86713" lon="5.49641">
        <ele>1624.3</ele>
        <time>2019-05-30T09:35:00Z</time>
      </trkpt>
      <trkpt lat="44.86716" lon="5.49641">
        <ele>1624</ele>
        <time>2019-05-30T09:35:04Z</time>
      </trkpt>
      <trkpt lat="44.8672" lon="5.49642">
        <ele>1623.9</ele>
        <time>2019-05-30T09:35:09Z</time>
      </trkpt>
      <trkpt lat="44.86722" lon="5.49644">
        <ele>1623.9</ele>
        <time>2019-05-30T09:35:21Z</time>
      </trkpt>
      <trkpt lat="44.86725" lon="5.49644">
        <ele>1623.9</ele>
        <time>2019-05-30T09:35:28Z</time>
      </trkpt>
      <trkpt lat="44.86727" lon="5.49648">
        <ele>1623.8</ele>
        <time>2019-05-30T09:35:32Z</time>
      </trkpt>
      <trkpt lat="44.86731" lon="5.49649">
        <ele>1623.7</ele>
        <time>2019-05-30T09:35:37Z</time>
      </trkpt>
      <trkpt lat="44.86734" lon="5.49649">
        <ele>1623.6</ele>
        <time>2019-05-30T09:35:41Z</time>
      </trkpt>
      <trkpt lat="44.86738" lon="5.49649">
        <ele>1623.4</ele>
        <time>2019-05-30T09:35:44Z</time>
      </trkpt>
      <trkpt lat="44.86741" lon="5.49649">
        <ele>1623.3</ele>
        <time>2019-05-30T09:35:46Z</time>
      </trkpt>
      <trkpt lat="44.86745" lon="5.49649">
        <ele>1623.1</ele>
        <time>2019-05-30T09:35:48Z</time>
      </trkpt>
      <trkpt lat="44.86748" lon="5.49649">
        <ele>1622.9</ele>
        <time>2019-05-30T09:35:50Z</time>
      </trkpt>
      <trkpt lat="44.86751" lon="5.49649">
        <ele>1622.6</ele>
        <time>2019-05-30T09:35:56Z</time>
      </trkpt>
      <trkpt lat="44.86753" lon="5.49644">
        <ele>1622.3</ele>
        <time>2019-05-30T09:36:00Z</time>
      </trkpt>
      <trkpt lat="44.86755" lon="5.49641">
        <ele>1622.1</ele>
        <time>2019-05-30T09:36:02Z</time>
      </trkpt>
      <trkpt lat="44.86757" lon="5.49636">
        <ele>1622</ele>
        <time>2019-05-30T09:36:05Z</time>
      </trkpt>
      <trkpt lat="44.86759" lon="5.49631">
        <ele>1621.8</ele>
        <time>2019-05-30T09:36:07Z</time>
      </trkpt>
      <trkpt lat="44.86762" lon="5.49629">
        <ele>1621.8</ele>
        <time>2019-05-30T09:36:09Z</time>
      </trkpt>
      <trkpt lat="44.86765" lon="5.49627">
        <ele>1621.8</ele>
        <time>2019-05-30T09:36:12Z</time>
      </trkpt>
      <trkpt lat="44.86769" lon="5.49626">
        <ele>1621.8</ele>
        <time>2019-05-30T09:36:15Z</time>
      </trkpt>
      <trkpt lat="44.86772" lon="5.49625">
        <ele>1621.9</ele>
        <time>2019-05-30T09:36:17Z</time>
      </trkpt>
      <trkpt lat="44.86775" lon="5.49625">
        <ele>1622.1</ele>
        <time>2019-05-30T09:36:20Z</time>
      </trkpt>
      <trkpt lat="44.86779" lon="5.49626">
        <ele>1622.3</ele>
        <time>2019-05-30T09:36:23Z</time>
      </trkpt>
      <trkpt lat="44.86783" lon="5.49628">
        <ele>1622.6</ele>
        <time>2019-05-30T09:36:26Z</time>
      </trkpt>
      <trkpt lat="44.86786" lon="5.49629">
        <ele>1622.8</ele>
        <time>2019-05-30T09:36:29Z</time>
      </trkpt>
      <trkpt lat="44.8679" lon="5.4963">
        <ele>1623</ele>
        <time>2019-05-30T09:36:32Z</time>
      </trkpt>
      <trkpt lat="44.86793" lon="5.49631">
        <ele>1623.2</ele>
        <time>2019-05-30T09:36:35Z</time>
      </trkpt>
      <trkpt lat="44.86796" lon="5.49633">
        <ele>1623.4</ele>
        <time>2019-05-30T09:36:38Z</time>
      </trkpt>
      <trkpt lat="44.86799" lon="5.49632">
        <ele>1623.7</ele>
        <time>2019-05-30T09:36:42Z</time>
      </trkpt>
      <trkpt lat="44.86801" lon="5.4963">
        <ele>1623.6</ele>
        <time>2019-05-30T09:36:45Z</time>
      </trkpt>
      <trkpt lat="44.86804" lon="5.49628">
        <ele>1623.6</ele>
        <time>2019-05-30T09:36:48Z</time>
      </trkpt>
      <trkpt lat="44.86808" lon="5.49631">
        <ele>1623.8</ele>
        <time>2019-05-30T09:37:23Z</time>
      </trkpt>
      <trkpt lat="44.8681" lon="5.49631">
        <ele>1623.9</ele>
        <time>2019-05-30T09:37:36Z</time>
      </trkpt>
      <trkpt lat="44.86813" lon="5.49633">
        <ele>1624.2</ele>
        <time>2019-05-30T09:37:41Z</time>
      </trkpt>
      <trkpt lat="44.86815" lon="5.49635">
        <ele>1624.5</ele>
        <time>2019-05-30T09:37:46Z</time>
      </trkpt>
      <trkpt lat="44.86818" lon="5.49637">
        <ele>1624.7</ele>
        <time>2019-05-30T09:37:52Z</time>
      </trkpt>
      <trkpt lat="44.86821" lon="5.4964">
        <ele>1624.8</ele>
        <time>2019-05-30T09:37:57Z</time>
      </trkpt>
      <trkpt lat="44.86825" lon="5.49641">
        <ele>1624.9</ele>
        <time>2019-05-30T09:37:59Z</time>
      </trkpt>
      <trkpt lat="44.8683" lon="5.49642">
        <ele>1625.2</ele>
        <time>2019-05-30T09:38:03Z</time>
      </trkpt>
      <trkpt lat="44.86833" lon="5.49642">
        <ele>1625.5</ele>
        <time>2019-05-30T09:38:05Z</time>
      </trkpt>
      <trkpt lat="44.86837" lon="5.49642">
        <ele>1625.9</ele>
        <time>2019-05-30T09:38:07Z</time>
      </trkpt>
      <trkpt lat="44.86842" lon="5.49643">
        <ele>1626.3</ele>
        <time>2019-05-30T09:38:09Z</time>
      </trkpt>
      <trkpt lat="44.86846" lon="5.49644">
        <ele>1626.5</ele>
        <time>2019-05-30T09:38:11Z</time>
      </trkpt>
      <trkpt lat="44.86849" lon="5.49645">
        <ele>1626.4</ele>
        <time>2019-05-30T09:38:14Z</time>
      </trkpt>
      <trkpt lat="44.86852" lon="5.49644">
        <ele>1626.4</ele>
        <time>2019-05-30T09:38:18Z</time>
      </trkpt>
      <trkpt lat="44.86855" lon="5.49643">
        <ele>1626.3</ele>
        <time>2019-05-30T09:38:21Z</time>
      </trkpt>
      <trkpt lat="44.86858" lon="5.49643">
        <ele>1626.1</ele>
        <time>2019-05-30T09:38:23Z</time>
      </trkpt>
      <trkpt lat="44.86861" lon="5.49643">
        <ele>1625.9</ele>
        <time>2019-05-30T09:38:26Z</time>
      </trkpt>
      <trkpt lat="44.86867" lon="5.49644">
        <ele>1625.5</ele>
        <time>2019-05-30T09:38:29Z</time>
      </trkpt>
      <trkpt lat="44.86872" lon="5.49645">
        <ele>1625.1</ele>
        <time>2019-05-30T09:38:30Z</time>
      </trkpt>
      <trkpt lat="44.86877" lon="5.49646">
        <ele>1624.5</ele>
        <time>2019-05-30T09:38:32Z</time>
      </trkpt>
      <trkpt lat="44.86882" lon="5.49648">
        <ele>1624.2</ele>
        <time>2019-05-30T09:38:34Z</time>
      </trkpt>
      <trkpt lat="44.86886" lon="5.49649">
        <ele>1624</ele>
        <time>2019-05-30T09:38:35Z</time>
      </trkpt>
      <trkpt lat="44.86889" lon="5.4965">
        <ele>1623.6</ele>
        <time>2019-05-30T09:38:37Z</time>
      </trkpt>
      <trkpt lat="44.86892" lon="5.49649">
        <ele>1623.3</ele>
        <time>2019-05-30T09:38:41Z</time>
      </trkpt>
      <trkpt lat="44.86895" lon="5.49648">
        <ele>1622.9</ele>
        <time>2019-05-30T09:38:44Z</time>
      </trkpt>
      <trkpt lat="44.86898" lon="5.49647">
        <ele>1622.5</ele>
        <time>2019-05-30T09:38:48Z</time>
      </trkpt>
      <trkpt lat="44.86902" lon="5.49645">
        <ele>1621.5</ele>
        <time>2019-05-30T09:38:51Z</time>
      </trkpt>
      <trkpt lat="44.86907" lon="5.49643">
        <ele>1621.5</ele>
        <time>2019-05-30T09:38:53Z</time>
      </trkpt>
      <trkpt lat="44.8691" lon="5.49641">
        <ele>1621</ele>
        <time>2019-05-30T09:38:54Z</time>
      </trkpt>
      <trkpt lat="44.86913" lon="5.4964">
        <ele>1620.2</ele>
        <time>2019-05-30T09:38:55Z</time>
      </trkpt>
      <trkpt lat="44.86918" lon="5.49637">
        <ele>1619.3</ele>
        <time>2019-05-30T09:38:57Z</time>
      </trkpt>
      <trkpt lat="44.86921" lon="5.49635">
        <ele>1618.6</ele>
        <time>2019-05-30T09:38:59Z</time>
      </trkpt>
      <trkpt lat="44.86923" lon="5.49633">
        <ele>1618.1</ele>
        <time>2019-05-30T09:39:01Z</time>
      </trkpt>
      <trkpt lat="44.86926" lon="5.4963">
        <ele>1617.6</ele>
        <time>2019-05-30T09:39:04Z</time>
      </trkpt>
      <trkpt lat="44.8693" lon="5.49628">
        <ele>1617.1</ele>
        <time>2019-05-30T09:39:07Z</time>
      </trkpt>
      <trkpt lat="44.86932" lon="5.49626">
        <ele>1616.8</ele>
        <time>2019-05-30T09:39:09Z</time>
      </trkpt>
      <trkpt lat="44.86935" lon="5.49624">
        <ele>1616.4</ele>
        <time>2019-05-30T09:39:11Z</time>
      </trkpt>
      <trkpt lat="44.86937" lon="5.49623">
        <ele>1616</ele>
        <time>2019-05-30T09:39:13Z</time>
      </trkpt>
      <trkpt lat="44.8694" lon="5.49622">
        <ele>1615.6</ele>
        <time>2019-05-30T09:39:15Z</time>
      </trkpt>
      <trkpt lat="44.86943" lon="5.49621">
        <ele>1615.2</ele>
        <time>2019-05-30T09:39:17Z</time>
      </trkpt>
      <trkpt lat="44.86947" lon="5.4962">
        <ele>1614.8</ele>
        <time>2019-05-30T09:39:20Z</time>
      </trkpt>
      <trkpt lat="44.8695" lon="5.49619">
        <ele>1614.4</ele>
        <time>2019-05-30T09:39:22Z</time>
      </trkpt>
      <trkpt lat="44.86953" lon="5.49617">
        <ele>1614.1</ele>
        <time>2019-05-30T09:39:24Z</time>
      </trkpt>
      <trkpt lat="44.86955" lon="5.49615">
        <ele>1613.8</ele>
        <time>2019-05-30T09:39:26Z</time>
      </trkpt>
      <trkpt lat="44.86958" lon="5.49613">
        <ele>1613.5</ele>
        <time>2019-05-30T09:39:29Z</time>
      </trkpt>
      <trkpt lat="44.86962" lon="5.4961">
        <ele>1613.2</ele>
        <time>2019-05-30T09:39:32Z</time>
      </trkpt>
      <trkpt lat="44.86965" lon="5.49607">
        <ele>1612.9</ele>
        <time>2019-05-30T09:39:35Z</time>
      </trkpt>
      <trkpt lat="44.86968" lon="5.49606">
        <ele>1612.7</ele>
        <time>2019-05-30T09:39:38Z</time>
      </trkpt>
      <trkpt lat="44.86971" lon="5.49604">
        <ele>1612.5</ele>
        <time>2019-05-30T09:39:41Z</time>
      </trkpt>
      <trkpt lat="44.86974" lon="5.49602">
        <ele>1612.4</ele>
        <time>2019-05-30T09:39:44Z</time>
      </trkpt>
      <trkpt lat="44.86977" lon="5.49601">
        <ele>1612.2</ele>
        <time>2019-05-30T09:39:49Z</time>
      </trkpt>
      <trkpt lat="44.8698" lon="5.49599">
        <ele>1612</ele>
        <time>2019-05-30T09:39:52Z</time>
      </trkpt>
      <trkpt lat="44.86984" lon="5.49597">
        <ele>1611.8</ele>
        <time>2019-05-30T09:39:55Z</time>
      </trkpt>
      <trkpt lat="44.86987" lon="5.49595">
        <ele>1611.7</ele>
        <time>2019-05-30T09:39:58Z</time>
      </trkpt>
      <trkpt lat="44.86991" lon="5.49592">
        <ele>1611.6</ele>
        <time>2019-05-30T09:40:00Z</time>
      </trkpt>
      <trkpt lat="44.86993" lon="5.4959">
        <ele>1611.5</ele>
        <time>2019-05-30T09:40:02Z</time>
      </trkpt>
      <trkpt lat="44.86996" lon="5.49587">
        <ele>1611.5</ele>
        <time>2019-05-30T09:40:04Z</time>
      </trkpt>
      <trkpt lat="44.86999" lon="5.49584">
        <ele>1611.4</ele>
        <time>2019-05-30T09:40:06Z</time>
      </trkpt>
      <trkpt lat="44.87001" lon="5.49581">
        <ele>1611.4</ele>
        <time>2019-05-30T09:40:08Z</time>
      </trkpt>
      <trkpt lat="44.87003" lon="5.49578">
        <ele>1611.4</ele>
        <time>2019-05-30T09:40:10Z</time>
      </trkpt>
      <trkpt lat="44.87006" lon="5.49576">
        <ele>1611.3</ele>
        <time>2019-05-30T09:40:12Z</time>
      </trkpt>
      <trkpt lat="44.87008" lon="5.49574">
        <ele>1611.3</ele>
        <time>2019-05-30T09:40:14Z</time>
      </trkpt>
      <trkpt lat="44.87011" lon="5.49572">
        <ele>1611.3</ele>
        <time>2019-05-30T09:40:16Z</time>
      </trkpt>
      <trkpt lat="44.87014" lon="5.49571">
        <ele>1611.3</ele>
        <time>2019-05-30T09:40:18Z</time>
      </trkpt>
      <trkpt lat="44.87017" lon="5.4957">
        <ele>1611.2</ele>
        <time>2019-05-30T09:40:20Z</time>
      </trkpt>
      <trkpt lat="44.8702" lon="5.4957">
        <ele>1611.2</ele>
        <time>2019-05-30T09:40:22Z</time>
      </trkpt>
      <trkpt lat="44.87023" lon="5.49571">
        <ele>1611.1</ele>
        <time>2019-05-30T09:40:24Z</time>
      </trkpt>
      <trkpt lat="44.87026" lon="5.49572">
        <ele>1611.1</ele>
        <time>2019-05-30T09:40:26Z</time>
      </trkpt>
      <trkpt lat="44.8703" lon="5.49574">
        <ele>1611.1</ele>
        <time>2019-05-30T09:40:29Z</time>
      </trkpt>
      <trkpt lat="44.87033" lon="5.49573">
        <ele>1611.1</ele>
        <time>2019-05-30T09:40:31Z</time>
      </trkpt>
      <trkpt lat="44.87036" lon="5.49572">
        <ele>1611.1</ele>
        <time>2019-05-30T09:40:34Z</time>
      </trkpt>
      <trkpt lat="44.8704" lon="5.4957">
        <ele>1611.1</ele>
        <time>2019-05-30T09:40:38Z</time>
      </trkpt>
      <trkpt lat="44.87042" lon="5.49569">
        <ele>1611.1</ele>
        <time>2019-05-30T09:40:41Z</time>
      </trkpt>
      <trkpt lat="44.87045" lon="5.49569">
        <ele>1611.1</ele>
        <time>2019-05-30T09:40:44Z</time>
      </trkpt>
      <trkpt lat="44.87049" lon="5.49568">
        <ele>1611.1</ele>
        <time>2019-05-30T09:40:47Z</time>
      </trkpt>
      <trkpt lat="44.87052" lon="5.49567">
        <ele>1611</ele>
        <time>2019-05-30T09:40:49Z</time>
      </trkpt>
      <trkpt lat="44.87055" lon="5.49567">
        <ele>1611</ele>
        <time>2019-05-30T09:40:51Z</time>
      </trkpt>
      <trkpt lat="44.87058" lon="5.49568">
        <ele>1611</ele>
        <time>2019-05-30T09:40:53Z</time>
      </trkpt>
      <trkpt lat="44.87062" lon="5.49569">
        <ele>1610.9</ele>
        <time>2019-05-30T09:40:55Z</time>
      </trkpt>
      <trkpt lat="44.87066" lon="5.49569">
        <ele>1610.9</ele>
        <time>2019-05-30T09:40:57Z</time>
      </trkpt>
      <trkpt lat="44.87069" lon="5.4957">
        <ele>1610.9</ele>
        <time>2019-05-30T09:40:59Z</time>
      </trkpt>
      <trkpt lat="44.87072" lon="5.49571">
        <ele>1610.8</ele>
        <time>2019-05-30T09:41:12Z</time>
      </trkpt>
      <trkpt lat="44.87075" lon="5.49573">
        <ele>1610.8</ele>
        <time>2019-05-30T09:41:15Z</time>
      </trkpt>
      <trkpt lat="44.87079" lon="5.49575">
        <ele>1610.7</ele>
        <time>2019-05-30T09:41:18Z</time>
      </trkpt>
      <trkpt lat="44.87082" lon="5.49575">
        <ele>1610.6</ele>
        <time>2019-05-30T09:41:21Z</time>
      </trkpt>
      <trkpt lat="44.87085" lon="5.49576">
        <ele>1610.6</ele>
        <time>2019-05-30T09:41:24Z</time>
      </trkpt>
      <trkpt lat="44.87088" lon="5.49577">
        <ele>1610.5</ele>
        <time>2019-05-30T09:41:27Z</time>
      </trkpt>
      <trkpt lat="44.87091" lon="5.49578">
        <ele>1610.4</ele>
        <time>2019-05-30T09:41:30Z</time>
      </trkpt>
      <trkpt lat="44.87094" lon="5.49579">
        <ele>1610.4</ele>
        <time>2019-05-30T09:41:33Z</time>
      </trkpt>
      <trkpt lat="44.87096" lon="5.49583">
        <ele>1610.3</ele>
        <time>2019-05-30T09:41:37Z</time>
      </trkpt>
      <trkpt lat="44.87097" lon="5.49587">
        <ele>1610.1</ele>
        <time>2019-05-30T09:41:42Z</time>
      </trkpt>
      <trkpt lat="44.871" lon="5.49589">
        <ele>1609.9</ele>
        <time>2019-05-30T09:41:46Z</time>
      </trkpt>
      <trkpt lat="44.87103" lon="5.4959">
        <ele>1609.8</ele>
        <time>2019-05-30T09:41:48Z</time>
      </trkpt>
      <trkpt lat="44.87105" lon="5.49591">
        <ele>1609.7</ele>
        <time>2019-05-30T09:41:50Z</time>
      </trkpt>
      <trkpt lat="44.87109" lon="5.49592">
        <ele>1609.6</ele>
        <time>2019-05-30T09:41:52Z</time>
      </trkpt>
      <trkpt lat="44.87113" lon="5.49593">
        <ele>1609.4</ele>
        <time>2019-05-30T09:41:54Z</time>
      </trkpt>
      <trkpt lat="44.87116" lon="5.49593">
        <ele>1609.3</ele>
        <time>2019-05-30T09:41:56Z</time>
      </trkpt>
      <trkpt lat="44.87119" lon="5.49593">
        <ele>1609.1</ele>
        <time>2019-05-30T09:41:59Z</time>
      </trkpt>
      <trkpt lat="44.87123" lon="5.49593">
        <ele>1608.9</ele>
        <time>2019-05-30T09:42:03Z</time>
      </trkpt>
      <trkpt lat="44.87126" lon="5.49593">
        <ele>1608.8</ele>
        <time>2019-05-30T09:42:07Z</time>
      </trkpt>
      <trkpt lat="44.87129" lon="5.49593">
        <ele>1608.7</ele>
        <time>2019-05-30T09:42:10Z</time>
      </trkpt>
      <trkpt lat="44.87132" lon="5.49594">
        <ele>1608.5</ele>
        <time>2019-05-30T09:42:13Z</time>
      </trkpt>
      <trkpt lat="44.87134" lon="5.49596">
        <ele>1608.2</ele>
        <time>2019-05-30T09:42:17Z</time>
      </trkpt>
      <trkpt lat="44.87135" lon="5.496">
        <ele>1608</ele>
        <time>2019-05-30T09:42:21Z</time>
      </trkpt>
      <trkpt lat="44.87134" lon="5.49604">
        <ele>1607.8</ele>
        <time>2019-05-30T09:42:24Z</time>
      </trkpt>
      <trkpt lat="44.87133" lon="5.49608">
        <ele>1607.6</ele>
        <time>2019-05-30T09:42:28Z</time>
      </trkpt>
      <trkpt lat="44.87135" lon="5.49604">
        <ele>1607.4</ele>
        <time>2019-05-30T09:42:48Z</time>
      </trkpt>
      <trkpt lat="44.87137" lon="5.49601">
        <ele>1607.2</ele>
        <time>2019-05-30T09:42:52Z</time>
      </trkpt>
      <trkpt lat="44.8714" lon="5.49599">
        <ele>1607</ele>
        <time>2019-05-30T09:42:55Z</time>
      </trkpt>
      <trkpt lat="44.87143" lon="5.49598">
        <ele>1606.8</ele>
        <time>2019-05-30T09:42:57Z</time>
      </trkpt>
      <trkpt lat="44.87147" lon="5.49596">
        <ele>1606.6</ele>
        <time>2019-05-30T09:42:59Z</time>
      </trkpt>
      <trkpt lat="44.8715" lon="5.49595">
        <ele>1606.4</ele>
        <time>2019-05-30T09:43:02Z</time>
      </trkpt>
      <trkpt lat="44.87154" lon="5.49595">
        <ele>1606.1</ele>
        <time>2019-05-30T09:43:05Z</time>
      </trkpt>
      <trkpt lat="44.87157" lon="5.49594">
        <ele>1605.9</ele>
        <time>2019-05-30T09:43:07Z</time>
      </trkpt>
      <trkpt lat="44.87162" lon="5.49593">
        <ele>1605.7</ele>
        <time>2019-05-30T09:43:09Z</time>
      </trkpt>
      <trkpt lat="44.87166" lon="5.49591">
        <ele>1605.5</ele>
        <time>2019-05-30T09:43:11Z</time>
      </trkpt>
      <trkpt lat="44.87169" lon="5.49589">
        <ele>1605.3</ele>
        <time>2019-05-30T09:43:13Z</time>
      </trkpt>
      <trkpt lat="44.87172" lon="5.49587">
        <ele>1605</ele>
        <time>2019-05-30T09:43:15Z</time>
      </trkpt>
      <trkpt lat="44.87175" lon="5.49587">
        <ele>1604.9</ele>
        <time>2019-05-30T09:43:17Z</time>
      </trkpt>
      <trkpt lat="44.87178" lon="5.49586">
        <ele>1604.8</ele>
        <time>2019-05-30T09:43:20Z</time>
      </trkpt>
      <trkpt lat="44.8718" lon="5.49583">
        <ele>1604.7</ele>
        <time>2019-05-30T09:43:22Z</time>
      </trkpt>
      <trkpt lat="44.87179" lon="5.4958">
        <ele>1604.7</ele>
        <time>2019-05-30T09:43:24Z</time>
      </trkpt>
      <trkpt lat="44.87179" lon="5.49575">
        <ele>1604.6</ele>
        <time>2019-05-30T09:43:27Z</time>
      </trkpt>
      <trkpt lat="44.8718" lon="5.49571">
        <ele>1604.5</ele>
        <time>2019-05-30T09:43:30Z</time>
      </trkpt>
      <trkpt lat="44.87182" lon="5.49566">
        <ele>1604.3</ele>
        <time>2019-05-30T09:43:33Z</time>
      </trkpt>
      <trkpt lat="44.87183" lon="5.4956">
        <ele>1604</ele>
        <time>2019-05-30T09:43:35Z</time>
      </trkpt>
      <trkpt lat="44.87184" lon="5.49554">
        <ele>1603.8</ele>
        <time>2019-05-30T09:43:37Z</time>
      </trkpt>
      <trkpt lat="44.87185" lon="5.4955">
        <ele>1603.8</ele>
        <time>2019-05-30T09:43:39Z</time>
      </trkpt>
      <trkpt lat="44.87185" lon="5.49546">
        <ele>1603.8</ele>
        <time>2019-05-30T09:43:41Z</time>
      </trkpt>
      <trkpt lat="44.87185" lon="5.49542">
        <ele>1603.8</ele>
        <time>2019-05-30T09:43:43Z</time>
      </trkpt>
      <trkpt lat="44.87186" lon="5.49538">
        <ele>1603.7</ele>
        <time>2019-05-30T09:43:45Z</time>
      </trkpt>
      <trkpt lat="44.87186" lon="5.49533">
        <ele>1603.6</ele>
        <time>2019-05-30T09:43:48Z</time>
      </trkpt>
      <trkpt lat="44.87185" lon="5.49528">
        <ele>1603.5</ele>
        <time>2019-05-30T09:43:52Z</time>
      </trkpt>
      <trkpt lat="44.87184" lon="5.49525">
        <ele>1603.4</ele>
        <time>2019-05-30T09:43:55Z</time>
      </trkpt>
      <trkpt lat="44.87184" lon="5.49519">
        <ele>1603.3</ele>
        <time>2019-05-30T09:44:00Z</time>
      </trkpt>
      <trkpt lat="44.87184" lon="5.49516">
        <ele>1603.2</ele>
        <time>2019-05-30T09:44:02Z</time>
      </trkpt>
      <trkpt lat="44.87185" lon="5.49512">
        <ele>1603.1</ele>
        <time>2019-05-30T09:44:04Z</time>
      </trkpt>
      <trkpt lat="44.87188" lon="5.49509">
        <ele>1603.1</ele>
        <time>2019-05-30T09:44:07Z</time>
      </trkpt>
      <trkpt lat="44.87191" lon="5.49508">
        <ele>1603.1</ele>
        <time>2019-05-30T09:44:09Z</time>
      </trkpt>
      <trkpt lat="44.87193" lon="5.49506">
        <ele>1603.1</ele>
        <time>2019-05-30T09:44:11Z</time>
      </trkpt>
      <trkpt lat="44.87196" lon="5.49505">
        <ele>1603.1</ele>
        <time>2019-05-30T09:44:14Z</time>
      </trkpt>
      <trkpt lat="44.872" lon="5.49504">
        <ele>1603</ele>
        <time>2019-05-30T09:44:17Z</time>
      </trkpt>
      <trkpt lat="44.87204" lon="5.49502">
        <ele>1602.9</ele>
        <time>2019-05-30T09:44:19Z</time>
      </trkpt>
      <trkpt lat="44.87207" lon="5.49501">
        <ele>1602.8</ele>
        <time>2019-05-30T09:44:21Z</time>
      </trkpt>
      <trkpt lat="44.8721" lon="5.495">
        <ele>1602.8</ele>
        <time>2019-05-30T09:44:23Z</time>
      </trkpt>
      <trkpt lat="44.87213" lon="5.49498">
        <ele>1602.8</ele>
        <time>2019-05-30T09:44:25Z</time>
      </trkpt>
      <trkpt lat="44.87216" lon="5.49496">
        <ele>1602.8</ele>
        <time>2019-05-30T09:44:27Z</time>
      </trkpt>
      <trkpt lat="44.8722" lon="5.49495">
        <ele>1602.8</ele>
        <time>2019-05-30T09:44:28Z</time>
      </trkpt>
      <trkpt lat="44.87224" lon="5.49495">
        <ele>1602.8</ele>
        <time>2019-05-30T09:44:29Z</time>
      </trkpt>
      <trkpt lat="44.87227" lon="5.49495">
        <ele>1602.8</ele>
        <time>2019-05-30T09:44:31Z</time>
      </trkpt>
      <trkpt lat="44.87231" lon="5.49494">
        <ele>1602.9</ele>
        <time>2019-05-30T09:44:34Z</time>
      </trkpt>
      <trkpt lat="44.87233" lon="5.49496">
        <ele>1602.9</ele>
        <time>2019-05-30T09:44:37Z</time>
      </trkpt>
      <trkpt lat="44.87236" lon="5.49496">
        <ele>1602.9</ele>
        <time>2019-05-30T09:44:45Z</time>
      </trkpt>
      <trkpt lat="44.87239" lon="5.49492">
        <ele>1602.9</ele>
        <time>2019-05-30T09:44:51Z</time>
      </trkpt>
      <trkpt lat="44.87242" lon="5.49489">
        <ele>1602.9</ele>
        <time>2019-05-30T09:44:54Z</time>
      </trkpt>
      <trkpt lat="44.87245" lon="5.49486">
        <ele>1602.9</ele>
        <time>2019-05-30T09:44:57Z</time>
      </trkpt>
      <trkpt lat="44.87248" lon="5.49485">
        <ele>1602.9</ele>
        <time>2019-05-30T09:44:59Z</time>
      </trkpt>
      <trkpt lat="44.87251" lon="5.49485">
        <ele>1602.9</ele>
        <time>2019-05-30T09:45:02Z</time>
      </trkpt>
      <trkpt lat="44.87254" lon="5.49486">
        <ele>1602.8</ele>
        <time>2019-05-30T09:45:06Z</time>
      </trkpt>
      <trkpt lat="44.87257" lon="5.49485">
        <ele>1602.8</ele>
        <time>2019-05-30T09:45:09Z</time>
      </trkpt>
      <trkpt lat="44.8726" lon="5.49484">
        <ele>1602.7</ele>
        <time>2019-05-30T09:45:12Z</time>
      </trkpt>
      <trkpt lat="44.87263" lon="5.49481">
        <ele>1602.6</ele>
        <time>2019-05-30T09:45:15Z</time>
      </trkpt>
      <trkpt lat="44.87266" lon="5.49478">
        <ele>1602.4</ele>
        <time>2019-05-30T09:45:18Z</time>
      </trkpt>
      <trkpt lat="44.87269" lon="5.49475">
        <ele>1602.3</ele>
        <time>2019-05-30T09:45:20Z</time>
      </trkpt>
      <trkpt lat="44.87271" lon="5.49472">
        <ele>1602.1</ele>
        <time>2019-05-30T09:45:22Z</time>
      </trkpt>
      <trkpt lat="44.87273" lon="5.49469">
        <ele>1601.8</ele>
        <time>2019-05-30T09:45:24Z</time>
      </trkpt>
      <trkpt lat="44.87276" lon="5.49465">
        <ele>1601.5</ele>
        <time>2019-05-30T09:45:26Z</time>
      </trkpt>
      <trkpt lat="44.87279" lon="5.49462">
        <ele>1601.3</ele>
        <time>2019-05-30T09:45:28Z</time>
      </trkpt>
      <trkpt lat="44.87281" lon="5.49459">
        <ele>1601.1</ele>
        <time>2019-05-30T09:45:30Z</time>
      </trkpt>
      <trkpt lat="44.87283" lon="5.49456">
        <ele>1600.9</ele>
        <time>2019-05-30T09:45:32Z</time>
      </trkpt>
      <trkpt lat="44.87284" lon="5.49452">
        <ele>1600.6</ele>
        <time>2019-05-30T09:45:34Z</time>
      </trkpt>
      <trkpt lat="44.87286" lon="5.49448">
        <ele>1600.4</ele>
        <time>2019-05-30T09:45:36Z</time>
      </trkpt>
      <trkpt lat="44.87288" lon="5.49444">
        <ele>1600.1</ele>
        <time>2019-05-30T09:45:38Z</time>
      </trkpt>
      <trkpt lat="44.8729" lon="5.49438">
        <ele>1599.7</ele>
        <time>2019-05-30T09:45:40Z</time>
      </trkpt>
      <trkpt lat="44.87291" lon="5.49434">
        <ele>1599.4</ele>
        <time>2019-05-30T09:45:42Z</time>
      </trkpt>
      <trkpt lat="44.87294" lon="5.49432">
        <ele>1599.3</ele>
        <time>2019-05-30T09:45:45Z</time>
      </trkpt>
      <trkpt lat="44.87297" lon="5.49433">
        <ele>1599.3</ele>
        <time>2019-05-30T09:45:48Z</time>
      </trkpt>
      <trkpt lat="44.873" lon="5.49436">
        <ele>1599.2</ele>
        <time>2019-05-30T09:45:51Z</time>
      </trkpt>
      <trkpt lat="44.87303" lon="5.49439">
        <ele>1598.9</ele>
        <time>2019-05-30T09:45:54Z</time>
      </trkpt>
      <trkpt lat="44.87305" lon="5.49443">
        <ele>1598.7</ele>
        <time>2019-05-30T09:45:57Z</time>
      </trkpt>
      <trkpt lat="44.87308" lon="5.49445">
        <ele>1598.5</ele>
        <time>2019-05-30T09:46:00Z</time>
      </trkpt>
      <trkpt lat="44.87311" lon="5.49447">
        <ele>1598.3</ele>
        <time>2019-05-30T09:46:02Z</time>
      </trkpt>
      <trkpt lat="44.87313" lon="5.4945">
        <ele>1598.1</ele>
        <time>2019-05-30T09:46:04Z</time>
      </trkpt>
      <trkpt lat="44.87315" lon="5.49453">
        <ele>1597.9</ele>
        <time>2019-05-30T09:46:06Z</time>
      </trkpt>
      <trkpt lat="44.87316" lon="5.49456">
        <ele>1597.7</ele>
        <time>2019-05-30T09:46:08Z</time>
      </trkpt>
      <trkpt lat="44.8732" lon="5.49458">
        <ele>1597.5</ele>
        <time>2019-05-30T09:46:11Z</time>
      </trkpt>
      <trkpt lat="44.87323" lon="5.49457">
        <ele>1597.3</ele>
        <time>2019-05-30T09:46:14Z</time>
      </trkpt>
      <trkpt lat="44.87326" lon="5.49457">
        <ele>1597.1</ele>
        <time>2019-05-30T09:46:17Z</time>
      </trkpt>
      <trkpt lat="44.87329" lon="5.49459">
        <ele>1596.8</ele>
        <time>2019-05-30T09:46:20Z</time>
      </trkpt>
      <trkpt lat="44.87333" lon="5.49461">
        <ele>1596.5</ele>
        <time>2019-05-30T09:46:23Z</time>
      </trkpt>
      <trkpt lat="44.87336" lon="5.49463">
        <ele>1596.2</ele>
        <time>2019-05-30T09:46:26Z</time>
      </trkpt>
      <trkpt lat="44.87339" lon="5.49463">
        <ele>1596</ele>
        <time>2019-05-30T09:46:28Z</time>
      </trkpt>
      <trkpt lat="44.87343" lon="5.49464">
        <ele>1595.9</ele>
        <time>2019-05-30T09:46:31Z</time>
      </trkpt>
      <trkpt lat="44.87346" lon="5.49465">
        <ele>1595.6</ele>
        <time>2019-05-30T09:46:34Z</time>
      </trkpt>
      <trkpt lat="44.87349" lon="5.49465">
        <ele>1595.4</ele>
        <time>2019-05-30T09:46:37Z</time>
      </trkpt>
      <trkpt lat="44.87352" lon="5.49465">
        <ele>1595.2</ele>
        <time>2019-05-30T09:46:40Z</time>
      </trkpt>
      <trkpt lat="44.87355" lon="5.49464">
        <ele>1595</ele>
        <time>2019-05-30T09:46:42Z</time>
      </trkpt>
      <trkpt lat="44.87359" lon="5.49463">
        <ele>1594.8</ele>
        <time>2019-05-30T09:46:45Z</time>
      </trkpt>
      <trkpt lat="44.87363" lon="5.49462">
        <ele>1594.3</ele>
        <time>2019-05-30T09:46:47Z</time>
      </trkpt>
      <trkpt lat="44.87366" lon="5.49461">
        <ele>1594.2</ele>
        <time>2019-05-30T09:46:49Z</time>
      </trkpt>
      <trkpt lat="44.8737" lon="5.4946">
        <ele>1593.9</ele>
        <time>2019-05-30T09:46:52Z</time>
      </trkpt>
      <trkpt lat="44.87373" lon="5.49458">
        <ele>1593.8</ele>
        <time>2019-05-30T09:46:55Z</time>
      </trkpt>
      <trkpt lat="44.87377" lon="5.49456">
        <ele>1593.5</ele>
        <time>2019-05-30T09:46:58Z</time>
      </trkpt>
      <trkpt lat="44.8738" lon="5.49454">
        <ele>1593.4</ele>
        <time>2019-05-30T09:47:01Z</time>
      </trkpt>
      <trkpt lat="44.87384" lon="5.49452">
        <ele>1593.1</ele>
        <time>2019-05-30T09:47:04Z</time>
      </trkpt>
      <trkpt lat="44.87386" lon="5.49451">
        <ele>1593.1</ele>
        <time>2019-05-30T09:47:07Z</time>
      </trkpt>
      <trkpt lat="44.8739" lon="5.49451">
        <ele>1593</ele>
        <time>2019-05-30T09:47:11Z</time>
      </trkpt>
      <trkpt lat="44.87392" lon="5.49448">
        <ele>1592.7</ele>
        <time>2019-05-30T09:47:16Z</time>
      </trkpt>
      <trkpt lat="44.87395" lon="5.49445">
        <ele>1592.4</ele>
        <time>2019-05-30T09:47:20Z</time>
      </trkpt>
      <trkpt lat="44.87397" lon="5.49442">
        <ele>1592.4</ele>
        <time>2019-05-30T09:47:23Z</time>
      </trkpt>
      <trkpt lat="44.87399" lon="5.49439">
        <ele>1592.1</ele>
        <time>2019-05-30T09:47:26Z</time>
      </trkpt>
      <trkpt lat="44.87401" lon="5.49434">
        <ele>1591.8</ele>
        <time>2019-05-30T09:47:29Z</time>
      </trkpt>
      <trkpt lat="44.87402" lon="5.49429">
        <ele>1591.5</ele>
        <time>2019-05-30T09:47:32Z</time>
      </trkpt>
      <trkpt lat="44.87405" lon="5.49426">
        <ele>1591.2</ele>
        <time>2019-05-30T09:47:35Z</time>
      </trkpt>
      <trkpt lat="44.87407" lon="5.49424">
        <ele>1590.9</ele>
        <time>2019-05-30T09:47:38Z</time>
      </trkpt>
      <trkpt lat="44.87409" lon="5.4942">
        <ele>1590.9</ele>
        <time>2019-05-30T09:47:42Z</time>
      </trkpt>
      <trkpt lat="44.87411" lon="5.49417">
        <ele>1590.6</ele>
        <time>2019-05-30T09:47:45Z</time>
      </trkpt>
      <trkpt lat="44.87413" lon="5.49413">
        <ele>1590.4</ele>
        <time>2019-05-30T09:47:48Z</time>
      </trkpt>
      <trkpt lat="44.87415" lon="5.49409">
        <ele>1590.2</ele>
        <time>2019-05-30T09:47:50Z</time>
      </trkpt>
      <trkpt lat="44.87416" lon="5.49405">
        <ele>1590.1</ele>
        <time>2019-05-30T09:47:52Z</time>
      </trkpt>
      <trkpt lat="44.87418" lon="5.49399">
        <ele>1590</ele>
        <time>2019-05-30T09:48:10Z</time>
      </trkpt>
      <trkpt lat="44.87422" lon="5.49397">
        <ele>1590</ele>
        <time>2019-05-30T09:48:13Z</time>
      </trkpt>
      <trkpt lat="44.87425" lon="5.49396">
        <ele>1590.1</ele>
        <time>2019-05-30T09:48:16Z</time>
      </trkpt>
      <trkpt lat="44.87429" lon="5.49395">
        <ele>1590.3</ele>
        <time>2019-05-30T09:48:18Z</time>
      </trkpt>
      <trkpt lat="44.87432" lon="5.49394">
        <ele>1590.5</ele>
        <time>2019-05-30T09:48:20Z</time>
      </trkpt>
      <trkpt lat="44.87435" lon="5.49394">
        <ele>1590.5</ele>
        <time>2019-05-30T09:48:23Z</time>
      </trkpt>
      <trkpt lat="44.87436" lon="5.49397">
        <ele>1590.9</ele>
        <time>2019-05-30T09:48:29Z</time>
      </trkpt>
      <trkpt lat="44.87434" lon="5.49398">
        <ele>1590.7</ele>
        <time>2019-05-30T09:48:33Z</time>
      </trkpt>
      <trkpt lat="44.87434" lon="5.49394">
        <ele>1590.5</ele>
        <time>2019-05-30T09:48:51Z</time>
      </trkpt>
      <trkpt lat="44.87437" lon="5.49391">
        <ele>1590.7</ele>
        <time>2019-05-30T09:48:55Z</time>
      </trkpt>
      <trkpt lat="44.8744" lon="5.49389">
        <ele>1590.8</ele>
        <time>2019-05-30T09:48:57Z</time>
      </trkpt>
      <trkpt lat="44.87443" lon="5.49387">
        <ele>1591.1</ele>
        <time>2019-05-30T09:49:00Z</time>
      </trkpt>
      <trkpt lat="44.87446" lon="5.49384">
        <ele>1591.2</ele>
        <time>2019-05-30T09:49:03Z</time>
      </trkpt>
      <trkpt lat="44.87448" lon="5.49382">
        <ele>1591.2</ele>
        <time>2019-05-30T09:49:05Z</time>
      </trkpt>
      <trkpt lat="44.87451" lon="5.49379">
        <ele>1591.3</ele>
        <time>2019-05-30T09:49:07Z</time>
      </trkpt>
      <trkpt lat="44.87454" lon="5.49376">
        <ele>1591.4</ele>
        <time>2019-05-30T09:49:09Z</time>
      </trkpt>
      <trkpt lat="44.87457" lon="5.49372">
        <ele>1591.6</ele>
        <time>2019-05-30T09:49:12Z</time>
      </trkpt>
      <trkpt lat="44.87458" lon="5.49367">
        <ele>1591.7</ele>
        <time>2019-05-30T09:49:15Z</time>
      </trkpt>
      <trkpt lat="44.8746" lon="5.49364">
        <ele>1591.7</ele>
        <time>2019-05-30T09:49:17Z</time>
      </trkpt>
      <trkpt lat="44.87462" lon="5.49359">
        <ele>1591.8</ele>
        <time>2019-05-30T09:49:19Z</time>
      </trkpt>
      <trkpt lat="44.87464" lon="5.49355">
        <ele>1591.7</ele>
        <time>2019-05-30T09:49:22Z</time>
      </trkpt>
      <trkpt lat="44.87465" lon="5.49351">
        <ele>1591.9</ele>
        <time>2019-05-30T09:49:25Z</time>
      </trkpt>
      <trkpt lat="44.87466" lon="5.49347">
        <ele>1591.7</ele>
        <time>2019-05-30T09:49:27Z</time>
      </trkpt>
      <trkpt lat="44.87467" lon="5.49343">
        <ele>1591.8</ele>
        <time>2019-05-30T09:49:29Z</time>
      </trkpt>
      <trkpt lat="44.87469" lon="5.49337">
        <ele>1591.4</ele>
        <time>2019-05-30T09:49:31Z</time>
      </trkpt>
      <trkpt lat="44.87471" lon="5.49332">
        <ele>1591.5</ele>
        <time>2019-05-30T09:49:33Z</time>
      </trkpt>
      <trkpt lat="44.87473" lon="5.49327">
        <ele>1591.5</ele>
        <time>2019-05-30T09:49:36Z</time>
      </trkpt>
      <trkpt lat="44.87475" lon="5.49324">
        <ele>1591.2</ele>
        <time>2019-05-30T09:49:38Z</time>
      </trkpt>
      <trkpt lat="44.87476" lon="5.4932">
        <ele>1591.2</ele>
        <time>2019-05-30T09:49:40Z</time>
      </trkpt>
      <trkpt lat="44.87478" lon="5.49316">
        <ele>1590.8</ele>
        <time>2019-05-30T09:49:43Z</time>
      </trkpt>
      <trkpt lat="44.8748" lon="5.49312">
        <ele>1590.8</ele>
        <time>2019-05-30T09:49:46Z</time>
      </trkpt>
      <trkpt lat="44.87482" lon="5.49308">
        <ele>1590.7</ele>
        <time>2019-05-30T09:49:48Z</time>
      </trkpt>
      <trkpt lat="44.87483" lon="5.49304">
        <ele>1590.7</ele>
        <time>2019-05-30T09:49:50Z</time>
      </trkpt>
      <trkpt lat="44.87484" lon="5.49299">
        <ele>1590.4</ele>
        <time>2019-05-30T09:49:53Z</time>
      </trkpt>
      <trkpt lat="44.87485" lon="5.49295">
        <ele>1590.3</ele>
        <time>2019-05-30T09:49:55Z</time>
      </trkpt>
      <trkpt lat="44.87486" lon="5.49291">
        <ele>1590.3</ele>
        <time>2019-05-30T09:49:57Z</time>
      </trkpt>
      <trkpt lat="44.87488" lon="5.49287">
        <ele>1590.3</ele>
        <time>2019-05-30T09:50:00Z</time>
      </trkpt>
      <trkpt lat="44.87489" lon="5.49283">
        <ele>1590.1</ele>
        <time>2019-05-30T09:50:02Z</time>
      </trkpt>
      <trkpt lat="44.8749" lon="5.49279">
        <ele>1589.9</ele>
        <time>2019-05-30T09:50:04Z</time>
      </trkpt>
      <trkpt lat="44.87492" lon="5.49276">
        <ele>1589.8</ele>
        <time>2019-05-30T09:50:06Z</time>
      </trkpt>
      <trkpt lat="44.87494" lon="5.49272">
        <ele>1589.7</ele>
        <time>2019-05-30T09:50:09Z</time>
      </trkpt>
      <trkpt lat="44.87497" lon="5.49268">
        <ele>1589.5</ele>
        <time>2019-05-30T09:50:12Z</time>
      </trkpt>
      <trkpt lat="44.87498" lon="5.49265">
        <ele>1589.4</ele>
        <time>2019-05-30T09:50:14Z</time>
      </trkpt>
      <trkpt lat="44.875" lon="5.49261">
        <ele>1589.5</ele>
        <time>2019-05-30T09:50:16Z</time>
      </trkpt>
      <trkpt lat="44.87502" lon="5.49258">
        <ele>1589.3</ele>
        <time>2019-05-30T09:50:18Z</time>
      </trkpt>
      <trkpt lat="44.87504" lon="5.49254">
        <ele>1589.1</ele>
        <time>2019-05-30T09:50:21Z</time>
      </trkpt>
      <trkpt lat="44.87506" lon="5.4925">
        <ele>1588.8</ele>
        <time>2019-05-30T09:50:24Z</time>
      </trkpt>
      <trkpt lat="44.87508" lon="5.49246">
        <ele>1588.7</ele>
        <time>2019-05-30T09:50:27Z</time>
      </trkpt>
      <trkpt lat="44.87509" lon="5.49243">
        <ele>1588.5</ele>
        <time>2019-05-30T09:50:30Z</time>
      </trkpt>
      <trkpt lat="44.87511" lon="5.49239">
        <ele>1588.2</ele>
        <time>2019-05-30T09:50:33Z</time>
      </trkpt>
      <trkpt lat="44.87513" lon="5.49235">
        <ele>1588.4</ele>
        <time>2019-05-30T09:50:36Z</time>
      </trkpt>
      <trkpt lat="44.87514" lon="5.49231">
        <ele>1588.1</ele>
        <time>2019-05-30T09:50:39Z</time>
      </trkpt>
      <trkpt lat="44.87517" lon="5.49229">
        <ele>1588</ele>
        <time>2019-05-30T09:50:42Z</time>
      </trkpt>
      <trkpt lat="44.8752" lon="5.49227">
        <ele>1588.1</ele>
        <time>2019-05-30T09:50:45Z</time>
      </trkpt>
      <trkpt lat="44.87523" lon="5.49227">
        <ele>1588.1</ele>
        <time>2019-05-30T09:50:48Z</time>
      </trkpt>
      <trkpt lat="44.87526" lon="5.49227">
        <ele>1588.2</ele>
        <time>2019-05-30T09:50:52Z</time>
      </trkpt>
      <trkpt lat="44.87529" lon="5.49227">
        <ele>1588.3</ele>
        <time>2019-05-30T09:50:56Z</time>
      </trkpt>
      <trkpt lat="44.87532" lon="5.49227">
        <ele>1588.4</ele>
        <time>2019-05-30T09:50:59Z</time>
      </trkpt>
      <trkpt lat="44.87535" lon="5.49224">
        <ele>1588.2</ele>
        <time>2019-05-30T09:51:10Z</time>
      </trkpt>
      <trkpt lat="44.87537" lon="5.49221">
        <ele>1587.9</ele>
        <time>2019-05-30T09:51:14Z</time>
      </trkpt>
      <trkpt lat="44.87538" lon="5.49216">
        <ele>1587.7</ele>
        <time>2019-05-30T09:51:19Z</time>
      </trkpt>
      <trkpt lat="44.8754" lon="5.49212">
        <ele>1587.4</ele>
        <time>2019-05-30T09:51:22Z</time>
      </trkpt>
      <trkpt lat="44.87544" lon="5.49208">
        <ele>1587.1</ele>
        <time>2019-05-30T09:51:24Z</time>
      </trkpt>
      <trkpt lat="44.87546" lon="5.49206">
        <ele>1587.2</ele>
        <time>2019-05-30T09:51:26Z</time>
      </trkpt>
      <trkpt lat="44.87549" lon="5.49202">
        <ele>1586.9</ele>
        <time>2019-05-30T09:51:29Z</time>
      </trkpt>
      <trkpt lat="44.87551" lon="5.492">
        <ele>1586.5</ele>
        <time>2019-05-30T09:51:31Z</time>
      </trkpt>
      <trkpt lat="44.87554" lon="5.49196">
        <ele>1586.2</ele>
        <time>2019-05-30T09:51:33Z</time>
      </trkpt>
      <trkpt lat="44.87557" lon="5.49192">
        <ele>1585.9</ele>
        <time>2019-05-30T09:51:35Z</time>
      </trkpt>
      <trkpt lat="44.87558" lon="5.49189">
        <ele>1586</ele>
        <time>2019-05-30T09:51:37Z</time>
      </trkpt>
      <trkpt lat="44.87561" lon="5.49185">
        <ele>1585.6</ele>
        <time>2019-05-30T09:51:40Z</time>
      </trkpt>
      <trkpt lat="44.87563" lon="5.49182">
        <ele>1585.3</ele>
        <time>2019-05-30T09:51:42Z</time>
      </trkpt>
      <trkpt lat="44.87565" lon="5.49178">
        <ele>1585.1</ele>
        <time>2019-05-30T09:51:44Z</time>
      </trkpt>
      <trkpt lat="44.87566" lon="5.49174">
        <ele>1584.7</ele>
        <time>2019-05-30T09:51:46Z</time>
      </trkpt>
      <trkpt lat="44.87567" lon="5.4917">
        <ele>1584.4</ele>
        <time>2019-05-30T09:51:50Z</time>
      </trkpt>
      <trkpt lat="44.8757" lon="5.49168">
        <ele>1584.4</ele>
        <time>2019-05-30T09:51:53Z</time>
      </trkpt>
      <trkpt lat="44.87572" lon="5.49165">
        <ele>1584.1</ele>
        <time>2019-05-30T09:51:57Z</time>
      </trkpt>
      <trkpt lat="44.87575" lon="5.49163">
        <ele>1584.2</ele>
        <time>2019-05-30T09:52:00Z</time>
      </trkpt>
      <trkpt lat="44.87577" lon="5.49161">
        <ele>1583.9</ele>
        <time>2019-05-30T09:52:03Z</time>
      </trkpt>
      <trkpt lat="44.8758" lon="5.49158">
        <ele>1584</ele>
        <time>2019-05-30T09:52:06Z</time>
      </trkpt>
      <trkpt lat="44.87584" lon="5.49156">
        <ele>1583.7</ele>
        <time>2019-05-30T09:52:09Z</time>
      </trkpt>
      <trkpt lat="44.87587" lon="5.49153">
        <ele>1583.3</ele>
        <time>2019-05-30T09:52:12Z</time>
      </trkpt>
      <trkpt lat="44.8759" lon="5.49152">
        <ele>1583.4</ele>
        <time>2019-05-30T09:52:15Z</time>
      </trkpt>
      <trkpt lat="44.87592" lon="5.49153">
        <ele>1583.4</ele>
        <time>2019-05-30T09:52:22Z</time>
      </trkpt>
      <trkpt lat="44.87595" lon="5.49153">
        <ele>1583.4</ele>
        <time>2019-05-30T09:52:28Z</time>
      </trkpt>
      <trkpt lat="44.87599" lon="5.49154">
        <ele>1583.8</ele>
        <time>2019-05-30T09:52:31Z</time>
      </trkpt>
      <trkpt lat="44.87602" lon="5.49155">
        <ele>1583.8</ele>
        <time>2019-05-30T09:52:35Z</time>
      </trkpt>
      <trkpt lat="44.87605" lon="5.49155">
        <ele>1583.8</ele>
        <time>2019-05-30T09:52:37Z</time>
      </trkpt>
      <trkpt lat="44.87609" lon="5.49157">
        <ele>1583.8</ele>
        <time>2019-05-30T09:52:39Z</time>
      </trkpt>
      <trkpt lat="44.87612" lon="5.49158">
        <ele>1584.2</ele>
        <time>2019-05-30T09:52:42Z</time>
      </trkpt>
      <trkpt lat="44.87616" lon="5.49159">
        <ele>1584.2</ele>
        <time>2019-05-30T09:52:45Z</time>
      </trkpt>
      <trkpt lat="44.87621" lon="5.4916">
        <ele>1584.2</ele>
        <time>2019-05-30T09:52:47Z</time>
      </trkpt>
      <trkpt lat="44.87624" lon="5.49161">
        <ele>1584.2</ele>
        <time>2019-05-30T09:52:49Z</time>
      </trkpt>
      <trkpt lat="44.87628" lon="5.4916">
        <ele>1584.2</ele>
        <time>2019-05-30T09:52:51Z</time>
      </trkpt>
      <trkpt lat="44.87631" lon="5.49161">
        <ele>1584.2</ele>
        <time>2019-05-30T09:52:53Z</time>
      </trkpt>
      <trkpt lat="44.87634" lon="5.49162">
        <ele>1584.3</ele>
        <time>2019-05-30T09:52:55Z</time>
      </trkpt>
      <trkpt lat="44.87637" lon="5.49162">
        <ele>1584.1</ele>
        <time>2019-05-30T09:52:57Z</time>
      </trkpt>
      <trkpt lat="44.8764" lon="5.49163">
        <ele>1583.9</ele>
        <time>2019-05-30T09:52:59Z</time>
      </trkpt>
      <trkpt lat="44.87643" lon="5.49164">
        <ele>1583.7</ele>
        <time>2019-05-30T09:53:02Z</time>
      </trkpt>
      <trkpt lat="44.87647" lon="5.49163">
        <ele>1583.5</ele>
        <time>2019-05-30T09:53:06Z</time>
      </trkpt>
      <trkpt lat="44.8765" lon="5.49164">
        <ele>1583.4</ele>
        <time>2019-05-30T09:53:09Z</time>
      </trkpt>
      <trkpt lat="44.87653" lon="5.49163">
        <ele>1583.7</ele>
        <time>2019-05-30T09:53:13Z</time>
      </trkpt>
      <trkpt lat="44.87657" lon="5.49162">
        <ele>1584</ele>
        <time>2019-05-30T09:53:16Z</time>
      </trkpt>
      <trkpt lat="44.8766" lon="5.49162">
        <ele>1584.2</ele>
        <time>2019-05-30T09:53:18Z</time>
      </trkpt>
      <trkpt lat="44.87663" lon="5.49161">
        <ele>1584.5</ele>
        <time>2019-05-30T09:53:20Z</time>
      </trkpt>
      <trkpt lat="44.87667" lon="5.4916">
        <ele>1584.8</ele>
        <time>2019-05-30T09:53:22Z</time>
      </trkpt>
      <trkpt lat="44.8767" lon="5.4916">
        <ele>1584.9</ele>
        <time>2019-05-30T09:53:24Z</time>
      </trkpt>
      <trkpt lat="44.87674" lon="5.49159">
        <ele>1585</ele>
        <time>2019-05-30T09:53:26Z</time>
      </trkpt>
      <trkpt lat="44.87677" lon="5.49159">
        <ele>1585.2</ele>
        <time>2019-05-30T09:53:28Z</time>
      </trkpt>
      <trkpt lat="44.87681" lon="5.49158">
        <ele>1585.6</ele>
        <time>2019-05-30T09:53:30Z</time>
      </trkpt>
      <trkpt lat="44.87684" lon="5.49157">
        <ele>1586</ele>
        <time>2019-05-30T09:53:33Z</time>
      </trkpt>
      <trkpt lat="44.87688" lon="5.49156">
        <ele>1586.2</ele>
        <time>2019-05-30T09:53:36Z</time>
      </trkpt>
      <trkpt lat="44.87691" lon="5.49156">
        <ele>1586.4</ele>
        <time>2019-05-30T09:53:39Z</time>
      </trkpt>
      <trkpt lat="44.87694" lon="5.49157">
        <ele>1586.5</ele>
        <time>2019-05-30T09:53:42Z</time>
      </trkpt>
      <trkpt lat="44.87698" lon="5.49158">
        <ele>1586.5</ele>
        <time>2019-05-30T09:53:45Z</time>
      </trkpt>
      <trkpt lat="44.87701" lon="5.4916">
        <ele>1586.5</ele>
        <time>2019-05-30T09:53:48Z</time>
      </trkpt>
      <trkpt lat="44.87704" lon="5.4916">
        <ele>1586.4</ele>
        <time>2019-05-30T09:53:51Z</time>
      </trkpt>
      <trkpt lat="44.87707" lon="5.4916">
        <ele>1586.3</ele>
        <time>2019-05-30T09:53:54Z</time>
      </trkpt>
      <trkpt lat="44.8771" lon="5.4916">
        <ele>1586.3</ele>
        <time>2019-05-30T09:53:56Z</time>
      </trkpt>
      <trkpt lat="44.87713" lon="5.4916">
        <ele>1586.5</ele>
        <time>2019-05-30T09:53:58Z</time>
      </trkpt>
      <trkpt lat="44.87716" lon="5.49159">
        <ele>1586.7</ele>
        <time>2019-05-30T09:54:00Z</time>
      </trkpt>
      <trkpt lat="44.87719" lon="5.49158">
        <ele>1587</ele>
        <time>2019-05-30T09:54:03Z</time>
      </trkpt>
      <trkpt lat="44.87722" lon="5.49158">
        <ele>1587.3</ele>
        <time>2019-05-30T09:54:06Z</time>
      </trkpt>
      <trkpt lat="44.87726" lon="5.49158">
        <ele>1587.8</ele>
        <time>2019-05-30T09:54:09Z</time>
      </trkpt>
      <trkpt lat="44.87729" lon="5.49158">
        <ele>1588.4</ele>
        <time>2019-05-30T09:54:12Z</time>
      </trkpt>
      <trkpt lat="44.87732" lon="5.49158">
        <ele>1588.9</ele>
        <time>2019-05-30T09:54:15Z</time>
      </trkpt>
      <trkpt lat="44.87735" lon="5.4916">
        <ele>1589.5</ele>
        <time>2019-05-30T09:54:19Z</time>
      </trkpt>
      <trkpt lat="44.87737" lon="5.49162">
        <ele>1589.7</ele>
        <time>2019-05-30T09:54:23Z</time>
      </trkpt>
      <trkpt lat="44.87739" lon="5.49165">
        <ele>1589.9</ele>
        <time>2019-05-30T09:54:26Z</time>
      </trkpt>
      <trkpt lat="44.87743" lon="5.49167">
        <ele>1590.1</ele>
        <time>2019-05-30T09:54:29Z</time>
      </trkpt>
      <trkpt lat="44.87745" lon="5.49168">
        <ele>1590.3</ele>
        <time>2019-05-30T09:54:32Z</time>
      </trkpt>
      <trkpt lat="44.87749" lon="5.49169">
        <ele>1590.6</ele>
        <time>2019-05-30T09:54:36Z</time>
      </trkpt>
      <trkpt lat="44.87752" lon="5.49169">
        <ele>1590.9</ele>
        <time>2019-05-30T09:54:39Z</time>
      </trkpt>
      <trkpt lat="44.87755" lon="5.49171">
        <ele>1591.2</ele>
        <time>2019-05-30T09:54:42Z</time>
      </trkpt>
      <trkpt lat="44.87758" lon="5.4917">
        <ele>1591.5</ele>
        <time>2019-05-30T09:54:45Z</time>
      </trkpt>
      <trkpt lat="44.87761" lon="5.49171">
        <ele>1591.8</ele>
        <time>2019-05-30T09:54:48Z</time>
      </trkpt>
      <trkpt lat="44.87764" lon="5.4917">
        <ele>1592.2</ele>
        <time>2019-05-30T09:54:51Z</time>
      </trkpt>
      <trkpt lat="44.87766" lon="5.49169">
        <ele>1592.7</ele>
        <time>2019-05-30T09:54:54Z</time>
      </trkpt>
      <trkpt lat="44.8777" lon="5.49169">
        <ele>1593.1</ele>
        <time>2019-05-30T09:54:58Z</time>
      </trkpt>
      <trkpt lat="44.87773" lon="5.4917">
        <ele>1593.3</ele>
        <time>2019-05-30T09:55:01Z</time>
      </trkpt>
      <trkpt lat="44.87776" lon="5.4917">
        <ele>1593.7</ele>
        <time>2019-05-30T09:55:04Z</time>
      </trkpt>
      <trkpt lat="44.87779" lon="5.49168">
        <ele>1594.3</ele>
        <time>2019-05-30T09:55:07Z</time>
      </trkpt>
      <trkpt lat="44.87782" lon="5.49165">
        <ele>1594.7</ele>
        <time>2019-05-30T09:55:10Z</time>
      </trkpt>
      <trkpt lat="44.87784" lon="5.49162">
        <ele>1594.8</ele>
        <time>2019-05-30T09:55:13Z</time>
      </trkpt>
      <trkpt lat="44.87786" lon="5.49157">
        <ele>1594.8</ele>
        <time>2019-05-30T09:55:16Z</time>
      </trkpt>
      <trkpt lat="44.87788" lon="5.49154">
        <ele>1594.8</ele>
        <time>2019-05-30T09:55:19Z</time>
      </trkpt>
      <trkpt lat="44.87791" lon="5.49151">
        <ele>1594.9</ele>
        <time>2019-05-30T09:55:22Z</time>
      </trkpt>
      <trkpt lat="44.87794" lon="5.49148">
        <ele>1595</ele>
        <time>2019-05-30T09:55:25Z</time>
      </trkpt>
      <trkpt lat="44.87797" lon="5.49147">
        <ele>1595.1</ele>
        <time>2019-05-30T09:55:28Z</time>
      </trkpt>
      <trkpt lat="44.878" lon="5.49148">
        <ele>1595.1</ele>
        <time>2019-05-30T09:55:32Z</time>
      </trkpt>
      <trkpt lat="44.87802" lon="5.49151">
        <ele>1595.2</ele>
        <time>2019-05-30T09:55:35Z</time>
      </trkpt>
      <trkpt lat="44.87804" lon="5.49152">
        <ele>1595.2</ele>
        <time>2019-05-30T09:55:38Z</time>
      </trkpt>
      <trkpt lat="44.87807" lon="5.49153">
        <ele>1595.1</ele>
        <time>2019-05-30T09:55:41Z</time>
      </trkpt>
      <trkpt lat="44.8781" lon="5.49155">
        <ele>1595.2</ele>
        <time>2019-05-30T09:55:44Z</time>
      </trkpt>
      <trkpt lat="44.87812" lon="5.49158">
        <ele>1595.4</ele>
        <time>2019-05-30T09:55:49Z</time>
      </trkpt>
      <trkpt lat="44.87815" lon="5.49162">
        <ele>1595.7</ele>
        <time>2019-05-30T09:55:53Z</time>
      </trkpt>
      <trkpt lat="44.87816" lon="5.49165">
        <ele>1596.2</ele>
        <time>2019-05-30T09:55:56Z</time>
      </trkpt>
      <trkpt lat="44.87818" lon="5.49169">
        <ele>1596.8</ele>
        <time>2019-05-30T09:56:02Z</time>
      </trkpt>
      <trkpt lat="44.87819" lon="5.49173">
        <ele>1597.1</ele>
        <time>2019-05-30T09:56:07Z</time>
      </trkpt>
      <trkpt lat="44.87819" lon="5.49177">
        <ele>1597.4</ele>
        <time>2019-05-30T09:56:11Z</time>
      </trkpt>
      <trkpt lat="44.87819" lon="5.49182">
        <ele>1597.7</ele>
        <time>2019-05-30T09:56:15Z</time>
      </trkpt>
      <trkpt lat="44.87819" lon="5.49186">
        <ele>1598</ele>
        <time>2019-05-30T09:56:18Z</time>
      </trkpt>
      <trkpt lat="44.87818" lon="5.4919">
        <ele>1598.4</ele>
        <time>2019-05-30T09:56:21Z</time>
      </trkpt>
      <trkpt lat="44.87819" lon="5.49194">
        <ele>1598.7</ele>
        <time>2019-05-30T09:56:24Z</time>
      </trkpt>
      <trkpt lat="44.87821" lon="5.49197">
        <ele>1599</ele>
        <time>2019-05-30T09:56:27Z</time>
      </trkpt>
      <trkpt lat="44.87824" lon="5.49199">
        <ele>1599.2</ele>
        <time>2019-05-30T09:56:30Z</time>
      </trkpt>
      <trkpt lat="44.87827" lon="5.492">
        <ele>1599.4</ele>
        <time>2019-05-30T09:56:33Z</time>
      </trkpt>
      <trkpt lat="44.8783" lon="5.492">
        <ele>1599.5</ele>
        <time>2019-05-30T09:56:36Z</time>
      </trkpt>
      <trkpt lat="44.87833" lon="5.49202">
        <ele>1599.7</ele>
        <time>2019-05-30T09:56:40Z</time>
      </trkpt>
      <trkpt lat="44.87839" lon="5.49204">
        <ele>1600.2</ele>
        <time>2019-05-30T09:56:42Z</time>
      </trkpt>
      <trkpt lat="44.87844" lon="5.49205">
        <ele>1600.5</ele>
        <time>2019-05-30T09:56:43Z</time>
      </trkpt>
      <trkpt lat="44.87847" lon="5.49206">
        <ele>1600.8</ele>
        <time>2019-05-30T09:56:44Z</time>
      </trkpt>
      <trkpt lat="44.8785" lon="5.49206">
        <ele>1601</ele>
        <time>2019-05-30T09:56:45Z</time>
      </trkpt>
      <trkpt lat="44.87854" lon="5.49205">
        <ele>1601.2</ele>
        <time>2019-05-30T09:56:47Z</time>
      </trkpt>
      <trkpt lat="44.87857" lon="5.49204">
        <ele>1601.5</ele>
        <time>2019-05-30T09:56:50Z</time>
      </trkpt>
      <trkpt lat="44.8786" lon="5.49204">
        <ele>1601.7</ele>
        <time>2019-05-30T09:56:54Z</time>
      </trkpt>
      <trkpt lat="44.87864" lon="5.49204">
        <ele>1601.9</ele>
        <time>2019-05-30T09:56:58Z</time>
      </trkpt>
      <trkpt lat="44.87866" lon="5.49207">
        <ele>1602.1</ele>
        <time>2019-05-30T09:57:02Z</time>
      </trkpt>
      <trkpt lat="44.87869" lon="5.49209">
        <ele>1602.2</ele>
        <time>2019-05-30T09:57:06Z</time>
      </trkpt>
      <trkpt lat="44.87873" lon="5.49211">
        <ele>1602.4</ele>
        <time>2019-05-30T09:57:10Z</time>
      </trkpt>
      <trkpt lat="44.87875" lon="5.49212">
        <ele>1602.6</ele>
        <time>2019-05-30T09:57:12Z</time>
      </trkpt>
      <trkpt lat="44.8788" lon="5.49214">
        <ele>1603</ele>
        <time>2019-05-30T09:57:14Z</time>
      </trkpt>
      <trkpt lat="44.87884" lon="5.49215">
        <ele>1603.1</ele>
        <time>2019-05-30T09:57:16Z</time>
      </trkpt>
      <trkpt lat="44.87887" lon="5.49215">
        <ele>1603.3</ele>
        <time>2019-05-30T09:57:18Z</time>
      </trkpt>
      <trkpt lat="44.87891" lon="5.49216">
        <ele>1603.4</ele>
        <time>2019-05-30T09:57:22Z</time>
      </trkpt>
      <trkpt lat="44.87894" lon="5.49217">
        <ele>1603.5</ele>
        <time>2019-05-30T09:57:24Z</time>
      </trkpt>
      <trkpt lat="44.87897" lon="5.49219">
        <ele>1603.7</ele>
        <time>2019-05-30T09:57:26Z</time>
      </trkpt>
      <trkpt lat="44.87899" lon="5.49221">
        <ele>1603.8</ele>
        <time>2019-05-30T09:57:29Z</time>
      </trkpt>
      <trkpt lat="44.87901" lon="5.49225">
        <ele>1603.9</ele>
        <time>2019-05-30T09:57:35Z</time>
      </trkpt>
      <trkpt lat="44.87903" lon="5.49229">
        <ele>1604</ele>
        <time>2019-05-30T09:57:38Z</time>
      </trkpt>
      <trkpt lat="44.87906" lon="5.49232">
        <ele>1604.1</ele>
        <time>2019-05-30T09:57:41Z</time>
      </trkpt>
      <trkpt lat="44.87909" lon="5.49234">
        <ele>1604.2</ele>
        <time>2019-05-30T09:57:43Z</time>
      </trkpt>
      <trkpt lat="44.87912" lon="5.49236">
        <ele>1604.3</ele>
        <time>2019-05-30T09:57:46Z</time>
      </trkpt>
      <trkpt lat="44.87916" lon="5.49238">
        <ele>1604.4</ele>
        <time>2019-05-30T09:57:48Z</time>
      </trkpt>
      <trkpt lat="44.87918" lon="5.49241">
        <ele>1604.4</ele>
        <time>2019-05-30T09:57:51Z</time>
      </trkpt>
      <trkpt lat="44.8792" lon="5.49244">
        <ele>1604.5</ele>
        <time>2019-05-30T09:57:54Z</time>
      </trkpt>
      <trkpt lat="44.87923" lon="5.49248">
        <ele>1604.6</ele>
        <time>2019-05-30T09:57:57Z</time>
      </trkpt>
      <trkpt lat="44.87925" lon="5.49251">
        <ele>1604.7</ele>
        <time>2019-05-30T09:58:00Z</time>
      </trkpt>
      <trkpt lat="44.87927" lon="5.49255">
        <ele>1604.8</ele>
        <time>2019-05-30T09:58:04Z</time>
      </trkpt>
      <trkpt lat="44.87929" lon="5.49259">
        <ele>1604.9</ele>
        <time>2019-05-30T09:58:08Z</time>
      </trkpt>
      <trkpt lat="44.8793" lon="5.49263">
        <ele>1605</ele>
        <time>2019-05-30T09:58:12Z</time>
      </trkpt>
      <trkpt lat="44.87931" lon="5.49267">
        <ele>1605.1</ele>
        <time>2019-05-30T09:58:16Z</time>
      </trkpt>
      <trkpt lat="44.87934" lon="5.4927">
        <ele>1605.1</ele>
        <time>2019-05-30T09:58:19Z</time>
      </trkpt>
      <trkpt lat="44.87937" lon="5.49273">
        <ele>1605.1</ele>
        <time>2019-05-30T09:58:22Z</time>
      </trkpt>
      <trkpt lat="44.87941" lon="5.49275">
        <ele>1605.2</ele>
        <time>2019-05-30T09:58:24Z</time>
      </trkpt>
      <trkpt lat="44.87943" lon="5.49278">
        <ele>1605.3</ele>
        <time>2019-05-30T09:58:26Z</time>
      </trkpt>
      <trkpt lat="44.87946" lon="5.49281">
        <ele>1605.4</ele>
        <time>2019-05-30T09:58:29Z</time>
      </trkpt>
      <trkpt lat="44.87949" lon="5.49283">
        <ele>1605.5</ele>
        <time>2019-05-30T09:58:31Z</time>
      </trkpt>
      <trkpt lat="44.87952" lon="5.49285">
        <ele>1605.5</ele>
        <time>2019-05-30T09:58:33Z</time>
      </trkpt>
      <trkpt lat="44.87955" lon="5.49287">
        <ele>1605.6</ele>
        <time>2019-05-30T09:58:36Z</time>
      </trkpt>
      <trkpt lat="44.87958" lon="5.4929">
        <ele>1605.7</ele>
        <time>2019-05-30T09:58:39Z</time>
      </trkpt>
      <trkpt lat="44.8796" lon="5.49292">
        <ele>1605.8</ele>
        <time>2019-05-30T09:58:41Z</time>
      </trkpt>
      <trkpt lat="44.87964" lon="5.49294">
        <ele>1605.8</ele>
        <time>2019-05-30T09:58:43Z</time>
      </trkpt>
      <trkpt lat="44.87967" lon="5.49296">
        <ele>1605.8</ele>
        <time>2019-05-30T09:58:45Z</time>
      </trkpt>
      <trkpt lat="44.8797" lon="5.49297">
        <ele>1605.9</ele>
        <time>2019-05-30T09:58:47Z</time>
      </trkpt>
      <trkpt lat="44.87974" lon="5.49298">
        <ele>1606</ele>
        <time>2019-05-30T09:58:49Z</time>
      </trkpt>
      <trkpt lat="44.87979" lon="5.49299">
        <ele>1606.1</ele>
        <time>2019-05-30T09:58:51Z</time>
      </trkpt>
      <trkpt lat="44.87983" lon="5.493">
        <ele>1606.1</ele>
        <time>2019-05-30T09:58:53Z</time>
      </trkpt>
      <trkpt lat="44.87987" lon="5.493">
        <ele>1606</ele>
        <time>2019-05-30T09:58:55Z</time>
      </trkpt>
      <trkpt lat="44.8799" lon="5.49302">
        <ele>1605.7</ele>
        <time>2019-05-30T09:58:57Z</time>
      </trkpt>
      <trkpt lat="44.87995" lon="5.49303">
        <ele>1605.2</ele>
        <time>2019-05-30T09:58:59Z</time>
      </trkpt>
      <trkpt lat="44.88001" lon="5.49304">
        <ele>1604.9</ele>
        <time>2019-05-30T09:59:01Z</time>
      </trkpt>
      <trkpt lat="44.88004" lon="5.49305">
        <ele>1604.7</ele>
        <time>2019-05-30T09:59:02Z</time>
      </trkpt>
      <trkpt lat="44.88007" lon="5.49307">
        <ele>1604.4</ele>
        <time>2019-05-30T09:59:04Z</time>
      </trkpt>
      <trkpt lat="44.88011" lon="5.49306">
        <ele>1604.1</ele>
        <time>2019-05-30T09:59:07Z</time>
      </trkpt>
      <trkpt lat="44.88014" lon="5.49307">
        <ele>1603.8</ele>
        <time>2019-05-30T09:59:10Z</time>
      </trkpt>
      <trkpt lat="44.88017" lon="5.49307">
        <ele>1603.5</ele>
        <time>2019-05-30T09:59:15Z</time>
      </trkpt>
      <trkpt lat="44.8802" lon="5.49309">
        <ele>1603.2</ele>
        <time>2019-05-30T09:59:20Z</time>
      </trkpt>
      <trkpt lat="44.88023" lon="5.49311">
        <ele>1603.2</ele>
        <time>2019-05-30T09:59:23Z</time>
      </trkpt>
      <trkpt lat="44.88025" lon="5.49315">
        <ele>1602.9</ele>
        <time>2019-05-30T09:59:29Z</time>
      </trkpt>
      <trkpt lat="44.88028" lon="5.49317">
        <ele>1602.6</ele>
        <time>2019-05-30T09:59:32Z</time>
      </trkpt>
      <trkpt lat="44.8803" lon="5.49321">
        <ele>1602.2</ele>
        <time>2019-05-30T09:59:35Z</time>
      </trkpt>
      <trkpt lat="44.88032" lon="5.49324">
        <ele>1602.2</ele>
        <time>2019-05-30T09:59:37Z</time>
      </trkpt>
      <trkpt lat="44.88035" lon="5.49327">
        <ele>1601.9</ele>
        <time>2019-05-30T09:59:39Z</time>
      </trkpt>
      <trkpt lat="44.88038" lon="5.49329">
        <ele>1601.4</ele>
        <time>2019-05-30T09:59:40Z</time>
      </trkpt>
      <trkpt lat="44.8804" lon="5.49332">
        <ele>1601</ele>
        <time>2019-05-30T09:59:41Z</time>
      </trkpt>
      <trkpt lat="44.88044" lon="5.49336">
        <ele>1600.5</ele>
        <time>2019-05-30T09:59:43Z</time>
      </trkpt>
      <trkpt lat="44.88046" lon="5.4934">
        <ele>1600</ele>
        <time>2019-05-30T09:59:46Z</time>
      </trkpt>
      <trkpt lat="44.88048" lon="5.49343">
        <ele>1599.5</ele>
        <time>2019-05-30T09:59:49Z</time>
      </trkpt>
      <trkpt lat="44.88051" lon="5.49345">
        <ele>1599.5</ele>
        <time>2019-05-30T09:59:52Z</time>
      </trkpt>
      <trkpt lat="44.88053" lon="5.49347">
        <ele>1598.9</ele>
        <time>2019-05-30T09:59:55Z</time>
      </trkpt>
      <trkpt lat="44.88055" lon="5.49349">
        <ele>1598.3</ele>
        <time>2019-05-30T09:59:58Z</time>
      </trkpt>
      <trkpt lat="44.88057" lon="5.49352">
        <ele>1597.7</ele>
        <time>2019-05-30T10:00:01Z</time>
      </trkpt>
      <trkpt lat="44.88059" lon="5.49356">
        <ele>1597.7</ele>
        <time>2019-05-30T10:00:04Z</time>
      </trkpt>
      <trkpt lat="44.88061" lon="5.4936">
        <ele>1597.1</ele>
        <time>2019-05-30T10:00:08Z</time>
      </trkpt>
      <trkpt lat="44.8806" lon="5.49364">
        <ele>1597.1</ele>
        <time>2019-05-30T10:00:12Z</time>
      </trkpt>
      <trkpt lat="44.88061" lon="5.49369">
        <ele>1597.1</ele>
        <time>2019-05-30T10:00:16Z</time>
      </trkpt>
      <trkpt lat="44.8806" lon="5.49374">
        <ele>1597.2</ele>
        <time>2019-05-30T10:00:19Z</time>
      </trkpt>
      <trkpt lat="44.88059" lon="5.49378">
        <ele>1597.8</ele>
        <time>2019-05-30T10:00:22Z</time>
      </trkpt>
      <trkpt lat="44.88057" lon="5.49383">
        <ele>1597.8</ele>
        <time>2019-05-30T10:00:25Z</time>
      </trkpt>
      <trkpt lat="44.88056" lon="5.49386">
        <ele>1598.5</ele>
        <time>2019-05-30T10:00:28Z</time>
      </trkpt>
      <trkpt lat="44.88055" lon="5.49391">
        <ele>1598.6</ele>
        <time>2019-05-30T10:00:31Z</time>
      </trkpt>
      <trkpt lat="44.88056" lon="5.49395">
        <ele>1598.7</ele>
        <time>2019-05-30T10:00:34Z</time>
      </trkpt>
      <trkpt lat="44.88056" lon="5.494">
        <ele>1598.8</ele>
        <time>2019-05-30T10:00:37Z</time>
      </trkpt>
      <trkpt lat="44.88058" lon="5.49404">
        <ele>1598.4</ele>
        <time>2019-05-30T10:00:39Z</time>
      </trkpt>
      <trkpt lat="44.88061" lon="5.49409">
        <ele>1598</ele>
        <time>2019-05-30T10:00:41Z</time>
      </trkpt>
      <trkpt lat="44.88063" lon="5.49413">
        <ele>1597.8</ele>
        <time>2019-05-30T10:00:43Z</time>
      </trkpt>
      <trkpt lat="44.88065" lon="5.49417">
        <ele>1598</ele>
        <time>2019-05-30T10:00:45Z</time>
      </trkpt>
      <trkpt lat="44.88065" lon="5.49421">
        <ele>1598.3</ele>
        <time>2019-05-30T10:00:47Z</time>
      </trkpt>
      <trkpt lat="44.88065" lon="5.49425">
        <ele>1598.5</ele>
        <time>2019-05-30T10:00:49Z</time>
      </trkpt>
      <trkpt lat="44.88065" lon="5.49431">
        <ele>1598.8</ele>
        <time>2019-05-30T10:00:52Z</time>
      </trkpt>
      <trkpt lat="44.88065" lon="5.49435">
        <ele>1599</ele>
        <time>2019-05-30T10:00:54Z</time>
      </trkpt>
      <trkpt lat="44.88064" lon="5.49439">
        <ele>1599.2</ele>
        <time>2019-05-30T10:00:56Z</time>
      </trkpt>
      <trkpt lat="44.88064" lon="5.49444">
        <ele>1599.4</ele>
        <time>2019-05-30T10:00:59Z</time>
      </trkpt>
      <trkpt lat="44.88063" lon="5.49449">
        <ele>1599.6</ele>
        <time>2019-05-30T10:01:02Z</time>
      </trkpt>
      <trkpt lat="44.88063" lon="5.49453">
        <ele>1599.8</ele>
        <time>2019-05-30T10:01:05Z</time>
      </trkpt>
      <trkpt lat="44.88063" lon="5.49458">
        <ele>1600.2</ele>
        <time>2019-05-30T10:01:08Z</time>
      </trkpt>
      <trkpt lat="44.88063" lon="5.49464">
        <ele>1600.9</ele>
        <time>2019-05-30T10:01:11Z</time>
      </trkpt>
      <trkpt lat="44.88064" lon="5.49468">
        <ele>1600.6</ele>
        <time>2019-05-30T10:01:14Z</time>
      </trkpt>
      <trkpt lat="44.88065" lon="5.49471">
        <ele>1600.6</ele>
        <time>2019-05-30T10:01:17Z</time>
      </trkpt>
      <trkpt lat="44.88067" lon="5.49475">
        <ele>1600.4</ele>
        <time>2019-05-30T10:01:21Z</time>
      </trkpt>
      <trkpt lat="44.88067" lon="5.4948">
        <ele>1600.8</ele>
        <time>2019-05-30T10:01:24Z</time>
      </trkpt>
      <trkpt lat="44.88067" lon="5.49485">
        <ele>1601</ele>
        <time>2019-05-30T10:01:28Z</time>
      </trkpt>
      <trkpt lat="44.88068" lon="5.49489">
        <ele>1601.2</ele>
        <time>2019-05-30T10:01:32Z</time>
      </trkpt>
      <trkpt lat="44.8807" lon="5.49492">
        <ele>1600.7</ele>
        <time>2019-05-30T10:01:38Z</time>
      </trkpt>
      <trkpt lat="44.88068" lon="5.49496">
        <ele>1601.3</ele>
        <time>2019-05-30T10:01:42Z</time>
      </trkpt>
      <trkpt lat="44.8807" lon="5.495">
        <ele>1601</ele>
        <time>2019-05-30T10:01:47Z</time>
      </trkpt>
      <trkpt lat="44.88069" lon="5.49503">
        <ele>1601.6</ele>
        <time>2019-05-30T10:01:53Z</time>
      </trkpt>
      <trkpt lat="44.88067" lon="5.49506">
        <ele>1601.8</ele>
        <time>2019-05-30T10:01:56Z</time>
      </trkpt>
      <trkpt lat="44.88066" lon="5.49511">
        <ele>1601.9</ele>
        <time>2019-05-30T10:02:00Z</time>
      </trkpt>
      <trkpt lat="44.88067" lon="5.49515">
        <ele>1602.1</ele>
        <time>2019-05-30T10:02:03Z</time>
      </trkpt>
      <trkpt lat="44.88068" lon="5.49518">
        <ele>1602.3</ele>
        <time>2019-05-30T10:02:07Z</time>
      </trkpt>
      <trkpt lat="44.8807" lon="5.49522">
        <ele>1601.9</ele>
        <time>2019-05-30T10:02:10Z</time>
      </trkpt>
      <trkpt lat="44.88073" lon="5.49521">
        <ele>1601.6</ele>
        <time>2019-05-30T10:02:17Z</time>
      </trkpt>
      <trkpt lat="44.88076" lon="5.49518">
        <ele>1600.9</ele>
        <time>2019-05-30T10:02:19Z</time>
      </trkpt>
      <trkpt lat="44.88083" lon="5.49514">
        <ele>1600.1</ele>
        <time>2019-05-30T10:02:21Z</time>
      </trkpt>
      <trkpt lat="44.88086" lon="5.49512">
        <ele>1599.4</ele>
        <time>2019-05-30T10:02:22Z</time>
      </trkpt>
      <trkpt lat="44.88088" lon="5.4951">
        <ele>1599.1</ele>
        <time>2019-05-30T10:02:23Z</time>
      </trkpt>
      <trkpt lat="44.88091" lon="5.49508">
        <ele>1598.5</ele>
        <time>2019-05-30T10:02:24Z</time>
      </trkpt>
      <trkpt lat="44.88093" lon="5.49507">
        <ele>1598.1</ele>
        <time>2019-05-30T10:02:26Z</time>
      </trkpt>
      <trkpt lat="44.88096" lon="5.49504">
        <ele>1597.9</ele>
        <time>2019-05-30T10:02:29Z</time>
      </trkpt>
      <trkpt lat="44.88099" lon="5.49502">
        <ele>1597.6</ele>
        <time>2019-05-30T10:02:31Z</time>
      </trkpt>
      <trkpt lat="44.88102" lon="5.49499">
        <ele>1597</ele>
        <time>2019-05-30T10:02:33Z</time>
      </trkpt>
      <trkpt lat="44.88104" lon="5.49496">
        <ele>1596.5</ele>
        <time>2019-05-30T10:02:35Z</time>
      </trkpt>
      <trkpt lat="44.88107" lon="5.49493">
        <ele>1596.2</ele>
        <time>2019-05-30T10:02:37Z</time>
      </trkpt>
      <trkpt lat="44.88111" lon="5.49489">
        <ele>1595.7</ele>
        <time>2019-05-30T10:02:39Z</time>
      </trkpt>
      <trkpt lat="44.88113" lon="5.49486">
        <ele>1595.2</ele>
        <time>2019-05-30T10:02:41Z</time>
      </trkpt>
      <trkpt lat="44.88115" lon="5.49483">
        <ele>1594.8</ele>
        <time>2019-05-30T10:02:43Z</time>
      </trkpt>
      <trkpt lat="44.88117" lon="5.49479">
        <ele>1594.5</ele>
        <time>2019-05-30T10:02:45Z</time>
      </trkpt>
      <trkpt lat="44.88121" lon="5.49477">
        <ele>1594.1</ele>
        <time>2019-05-30T10:02:48Z</time>
      </trkpt>
      <trkpt lat="44.88124" lon="5.49475">
        <ele>1594.1</ele>
        <time>2019-05-30T10:02:51Z</time>
      </trkpt>
      <trkpt lat="44.88127" lon="5.49473">
        <ele>1593.5</ele>
        <time>2019-05-30T10:02:54Z</time>
      </trkpt>
      <trkpt lat="44.8813" lon="5.49471">
        <ele>1592.9</ele>
        <time>2019-05-30T10:02:57Z</time>
      </trkpt>
      <trkpt lat="44.88133" lon="5.49469">
        <ele>1592.7</ele>
        <time>2019-05-30T10:02:59Z</time>
      </trkpt>
      <trkpt lat="44.88136" lon="5.49466">
        <ele>1592.1</ele>
        <time>2019-05-30T10:03:02Z</time>
      </trkpt>
      <trkpt lat="44.88138" lon="5.49463">
        <ele>1592</ele>
        <time>2019-05-30T10:03:05Z</time>
      </trkpt>
      <trkpt lat="44.8814" lon="5.4946">
        <ele>1592.5</ele>
        <time>2019-05-30T10:03:08Z</time>
      </trkpt>
      <trkpt lat="44.88143" lon="5.49457">
        <ele>1592.8</ele>
        <time>2019-05-30T10:03:11Z</time>
      </trkpt>
      <trkpt lat="44.88142" lon="5.49462">
        <ele>1593.2</ele>
        <time>2019-05-30T10:03:19Z</time>
      </trkpt>
      <trkpt lat="44.88142" lon="5.49467">
        <ele>1593.5</ele>
        <time>2019-05-30T10:03:23Z</time>
      </trkpt>
      <trkpt lat="44.88142" lon="5.49473">
        <ele>1593.7</ele>
        <time>2019-05-30T10:03:26Z</time>
      </trkpt>
      <trkpt lat="44.88142" lon="5.49477">
        <ele>1593.8</ele>
        <time>2019-05-30T10:03:28Z</time>
      </trkpt>
      <trkpt lat="44.88141" lon="5.49482">
        <ele>1593.9</ele>
        <time>2019-05-30T10:03:31Z</time>
      </trkpt>
      <trkpt lat="44.88141" lon="5.49487">
        <ele>1594</ele>
        <time>2019-05-30T10:03:35Z</time>
      </trkpt>
      <trkpt lat="44.88141" lon="5.49493">
        <ele>1594.2</ele>
        <time>2019-05-30T10:03:37Z</time>
      </trkpt>
      <trkpt lat="44.88144" lon="5.49496">
        <ele>1594.3</ele>
        <time>2019-05-30T10:03:40Z</time>
      </trkpt>
      <trkpt lat="44.88147" lon="5.49498">
        <ele>1594.4</ele>
        <time>2019-05-30T10:03:43Z</time>
      </trkpt>
      <trkpt lat="44.88149" lon="5.49502">
        <ele>1594.5</ele>
        <time>2019-05-30T10:03:45Z</time>
      </trkpt>
      <trkpt lat="44.8815" lon="5.49505">
        <ele>1594.6</ele>
        <time>2019-05-30T10:03:47Z</time>
      </trkpt>
      <trkpt lat="44.88151" lon="5.49509">
        <ele>1594.8</ele>
        <time>2019-05-30T10:03:50Z</time>
      </trkpt>
      <trkpt lat="44.88151" lon="5.49514">
        <ele>1595</ele>
        <time>2019-05-30T10:03:53Z</time>
      </trkpt>
      <trkpt lat="44.8815" lon="5.49518">
        <ele>1595.3</ele>
        <time>2019-05-30T10:03:56Z</time>
      </trkpt>
      <trkpt lat="44.88151" lon="5.49524">
        <ele>1595.7</ele>
        <time>2019-05-30T10:03:59Z</time>
      </trkpt>
      <trkpt lat="44.88151" lon="5.4953">
        <ele>1596.1</ele>
        <time>2019-05-30T10:04:02Z</time>
      </trkpt>
      <trkpt lat="44.88151" lon="5.49535">
        <ele>1596.4</ele>
        <time>2019-05-30T10:04:05Z</time>
      </trkpt>
      <trkpt lat="44.88152" lon="5.4954">
        <ele>1596.6</ele>
        <time>2019-05-30T10:04:08Z</time>
      </trkpt>
      <trkpt lat="44.88151" lon="5.49544">
        <ele>1597</ele>
        <time>2019-05-30T10:04:11Z</time>
      </trkpt>
      <trkpt lat="44.8815" lon="5.49549">
        <ele>1597.4</ele>
        <time>2019-05-30T10:04:14Z</time>
      </trkpt>
      <trkpt lat="44.88149" lon="5.49554">
        <ele>1598.2</ele>
        <time>2019-05-30T10:04:17Z</time>
      </trkpt>
      <trkpt lat="44.88147" lon="5.49561">
        <ele>1599.2</ele>
        <time>2019-05-30T10:04:19Z</time>
      </trkpt>
      <trkpt lat="44.88146" lon="5.49565">
        <ele>1599.6</ele>
        <time>2019-05-30T10:04:20Z</time>
      </trkpt>
      <trkpt lat="44.88144" lon="5.4957">
        <ele>1600.2</ele>
        <time>2019-05-30T10:04:22Z</time>
      </trkpt>
      <trkpt lat="44.88146" lon="5.49577">
        <ele>1600.9</ele>
        <time>2019-05-30T10:04:25Z</time>
      </trkpt>
      <trkpt lat="44.88148" lon="5.4958">
        <ele>1601.2</ele>
        <time>2019-05-30T10:04:30Z</time>
      </trkpt>
      <trkpt lat="44.8815" lon="5.49582">
        <ele>1601.3</ele>
        <time>2019-05-30T10:04:34Z</time>
      </trkpt>
      <trkpt lat="44.88152" lon="5.49585">
        <ele>1601.4</ele>
        <time>2019-05-30T10:04:40Z</time>
      </trkpt>
      <trkpt lat="44.88154" lon="5.49588">
        <ele>1601.6</ele>
        <time>2019-05-30T10:04:44Z</time>
      </trkpt>
      <trkpt lat="44.88156" lon="5.4959">
        <ele>1601.7</ele>
        <time>2019-05-30T10:04:49Z</time>
      </trkpt>
      <trkpt lat="44.88158" lon="5.49593">
        <ele>1601.9</ele>
        <time>2019-05-30T10:04:56Z</time>
      </trkpt>
      <trkpt lat="44.8816" lon="5.49596">
        <ele>1601.9</ele>
        <time>2019-05-30T10:05:01Z</time>
      </trkpt>
      <trkpt lat="44.88163" lon="5.49598">
        <ele>1601.9</ele>
        <time>2019-05-30T10:05:02Z</time>
      </trkpt>
      <trkpt lat="44.8817" lon="5.496">
        <ele>1602.1</ele>
        <time>2019-05-30T10:05:03Z</time>
      </trkpt>
      <trkpt lat="44.88175" lon="5.49601">
        <ele>1602.4</ele>
        <time>2019-05-30T10:05:04Z</time>
      </trkpt>
      <trkpt lat="44.88178" lon="5.49602">
        <ele>1602.7</ele>
        <time>2019-05-30T10:05:05Z</time>
      </trkpt>
      <trkpt lat="44.88183" lon="5.49604">
        <ele>1602.9</ele>
        <time>2019-05-30T10:05:07Z</time>
      </trkpt>
      <trkpt lat="44.88187" lon="5.49605">
        <ele>1602.9</ele>
        <time>2019-05-30T10:05:09Z</time>
      </trkpt>
      <trkpt lat="44.88188" lon="5.49607">
        <ele>1602.9</ele>
        <time>2019-05-30T10:05:11Z</time>
      </trkpt>
      <trkpt lat="44.8819" lon="5.49609">
        <ele>1603</ele>
        <time>2019-05-30T10:05:14Z</time>
      </trkpt>
      <trkpt lat="44.88192" lon="5.4961">
        <ele>1603.1</ele>
        <time>2019-05-30T10:05:18Z</time>
      </trkpt>
      <trkpt lat="44.88193" lon="5.49612">
        <ele>1603.2</ele>
        <time>2019-05-30T10:05:22Z</time>
      </trkpt>
      <trkpt lat="44.88195" lon="5.49614">
        <ele>1603.3</ele>
        <time>2019-05-30T10:05:27Z</time>
      </trkpt>
      <trkpt lat="44.88196" lon="5.49615">
        <ele>1603.3</ele>
        <time>2019-05-30T10:05:31Z</time>
      </trkpt>
      <trkpt lat="44.88198" lon="5.49617">
        <ele>1603.3</ele>
        <time>2019-05-30T10:05:38Z</time>
      </trkpt>
      <trkpt lat="44.88199" lon="5.49619">
        <ele>1603.2</ele>
        <time>2019-05-30T10:05:43Z</time>
      </trkpt>
      <trkpt lat="44.88201" lon="5.4962">
        <ele>1603.2</ele>
        <time>2019-05-30T10:05:47Z</time>
      </trkpt>
      <trkpt lat="44.88202" lon="5.49622">
        <ele>1603.3</ele>
        <time>2019-05-30T10:05:50Z</time>
      </trkpt>
      <trkpt lat="44.88204" lon="5.49624">
        <ele>1603.6</ele>
        <time>2019-05-30T10:05:56Z</time>
      </trkpt>
      <trkpt lat="44.88205" lon="5.49625">
        <ele>1603.8</ele>
        <time>2019-05-30T10:06:08Z</time>
      </trkpt>
      <trkpt lat="44.88207" lon="5.49627">
        <ele>1604</ele>
        <time>2019-05-30T10:06:13Z</time>
      </trkpt>
      <trkpt lat="44.88208" lon="5.49629">
        <ele>1604.2</ele>
        <time>2019-05-30T10:06:17Z</time>
      </trkpt>
      <trkpt lat="44.8821" lon="5.4963">
        <ele>1604.4</ele>
        <time>2019-05-30T10:06:21Z</time>
      </trkpt>
      <trkpt lat="44.88211" lon="5.49632">
        <ele>1604.6</ele>
        <time>2019-05-30T10:06:26Z</time>
      </trkpt>
      <trkpt lat="44.88213" lon="5.49634">
        <ele>1604.8</ele>
        <time>2019-05-30T10:06:30Z</time>
      </trkpt>
      <trkpt lat="44.88214" lon="5.49635">
        <ele>1605</ele>
        <time>2019-05-30T10:06:33Z</time>
      </trkpt>
      <trkpt lat="44.88216" lon="5.49637">
        <ele>1605.3</ele>
        <time>2019-05-30T10:06:36Z</time>
      </trkpt>
      <trkpt lat="44.88217" lon="5.49639">
        <ele>1605.5</ele>
        <time>2019-05-30T10:06:40Z</time>
      </trkpt>
      <trkpt lat="44.88219" lon="5.4964">
        <ele>1605.7</ele>
        <time>2019-05-30T10:06:46Z</time>
      </trkpt>
      <trkpt lat="44.8822" lon="5.49642">
        <ele>1606</ele>
        <time>2019-05-30T10:06:47Z</time>
      </trkpt>
      <trkpt lat="44.88228" lon="5.49647">
        <ele>1607.1</ele>
        <time>2019-05-30T10:06:48Z</time>
      </trkpt>
      <trkpt lat="44.88232" lon="5.49651">
        <ele>1607.8</ele>
        <time>2019-05-30T10:06:49Z</time>
      </trkpt>
      <trkpt lat="44.88236" lon="5.49654">
        <ele>1608.3</ele>
        <time>2019-05-30T10:06:51Z</time>
      </trkpt>
      <trkpt lat="44.88238" lon="5.49656">
        <ele>1608.7</ele>
        <time>2019-05-30T10:06:54Z</time>
      </trkpt>
      <trkpt lat="44.88238" lon="5.4966">
        <ele>1609.1</ele>
        <time>2019-05-30T10:07:01Z</time>
      </trkpt>
      <trkpt lat="44.88239" lon="5.49664">
        <ele>1609.4</ele>
        <time>2019-05-30T10:07:05Z</time>
      </trkpt>
      <trkpt lat="44.8824" lon="5.49667">
        <ele>1609.8</ele>
        <time>2019-05-30T10:07:12Z</time>
      </trkpt>
      <trkpt lat="44.88245" lon="5.49671">
        <ele>1610.6</ele>
        <time>2019-05-30T10:07:14Z</time>
      </trkpt>
      <trkpt lat="44.88248" lon="5.49675">
        <ele>1611.4</ele>
        <time>2019-05-30T10:07:16Z</time>
      </trkpt>
      <trkpt lat="44.88252" lon="5.49679">
        <ele>1611.9</ele>
        <time>2019-05-30T10:07:18Z</time>
      </trkpt>
      <trkpt lat="44.88256" lon="5.49684">
        <ele>1612.4</ele>
        <time>2019-05-30T10:07:20Z</time>
      </trkpt>
      <trkpt lat="44.88259" lon="5.49687">
        <ele>1612.6</ele>
        <time>2019-05-30T10:07:21Z</time>
      </trkpt>
      <trkpt lat="44.88262" lon="5.49691">
        <ele>1613</ele>
        <time>2019-05-30T10:07:23Z</time>
      </trkpt>
      <trkpt lat="44.88264" lon="5.49693">
        <ele>1613.2</ele>
        <time>2019-05-30T10:07:25Z</time>
      </trkpt>
      <trkpt lat="44.88267" lon="5.49696">
        <ele>1613.4</ele>
        <time>2019-05-30T10:07:28Z</time>
      </trkpt>
      <trkpt lat="44.88269" lon="5.497">
        <ele>1613.6</ele>
        <time>2019-05-30T10:07:32Z</time>
      </trkpt>
      <trkpt lat="44.8827" lon="5.49703">
        <ele>1613.8</ele>
        <time>2019-05-30T10:07:35Z</time>
      </trkpt>
      <trkpt lat="44.88272" lon="5.49707">
        <ele>1614</ele>
        <time>2019-05-30T10:07:38Z</time>
      </trkpt>
      <trkpt lat="44.88274" lon="5.49711">
        <ele>1614.1</ele>
        <time>2019-05-30T10:07:40Z</time>
      </trkpt>
      <trkpt lat="44.88276" lon="5.49716">
        <ele>1614.2</ele>
        <time>2019-05-30T10:07:42Z</time>
      </trkpt>
      <trkpt lat="44.88278" lon="5.4972">
        <ele>1614.4</ele>
        <time>2019-05-30T10:07:44Z</time>
      </trkpt>
      <trkpt lat="44.88281" lon="5.49724">
        <ele>1614.6</ele>
        <time>2019-05-30T10:07:47Z</time>
      </trkpt>
      <trkpt lat="44.88283" lon="5.49728">
        <ele>1614.8</ele>
        <time>2019-05-30T10:07:50Z</time>
      </trkpt>
      <trkpt lat="44.88285" lon="5.4973">
        <ele>1615.1</ele>
        <time>2019-05-30T10:07:54Z</time>
      </trkpt>
      <trkpt lat="44.88286" lon="5.49735">
        <ele>1615.3</ele>
        <time>2019-05-30T10:07:58Z</time>
      </trkpt>
      <trkpt lat="44.88288" lon="5.49739">
        <ele>1615.5</ele>
        <time>2019-05-30T10:08:01Z</time>
      </trkpt>
      <trkpt lat="44.8829" lon="5.49742">
        <ele>1615.8</ele>
        <time>2019-05-30T10:08:04Z</time>
      </trkpt>
      <trkpt lat="44.88292" lon="5.49746">
        <ele>1616</ele>
        <time>2019-05-30T10:08:07Z</time>
      </trkpt>
      <trkpt lat="44.88294" lon="5.4975">
        <ele>1616.2</ele>
        <time>2019-05-30T10:08:11Z</time>
      </trkpt>
      <trkpt lat="44.88296" lon="5.49754">
        <ele>1616.3</ele>
        <time>2019-05-30T10:08:15Z</time>
      </trkpt>
      <trkpt lat="44.88296" lon="5.49758">
        <ele>1616.5</ele>
        <time>2019-05-30T10:08:18Z</time>
      </trkpt>
      <trkpt lat="44.88294" lon="5.49762">
        <ele>1616.7</ele>
        <time>2019-05-30T10:08:22Z</time>
      </trkpt>
      <trkpt lat="44.88294" lon="5.49767">
        <ele>1617</ele>
        <time>2019-05-30T10:08:27Z</time>
      </trkpt>
      <trkpt lat="44.88293" lon="5.49771">
        <ele>1617.2</ele>
        <time>2019-05-30T10:08:30Z</time>
      </trkpt>
      <trkpt lat="44.88293" lon="5.49774">
        <ele>1617.4</ele>
        <time>2019-05-30T10:08:33Z</time>
      </trkpt>
      <trkpt lat="44.88292" lon="5.49779">
        <ele>1617.7</ele>
        <time>2019-05-30T10:08:37Z</time>
      </trkpt>
      <trkpt lat="44.88294" lon="5.49783">
        <ele>1618.2</ele>
        <time>2019-05-30T10:08:41Z</time>
      </trkpt>
      <trkpt lat="44.88299" lon="5.49786">
        <ele>1618.8</ele>
        <time>2019-05-30T10:08:44Z</time>
      </trkpt>
      <trkpt lat="44.88302" lon="5.49788">
        <ele>1619.1</ele>
        <time>2019-05-30T10:08:46Z</time>
      </trkpt>
      <trkpt lat="44.88305" lon="5.4979">
        <ele>1619.3</ele>
        <time>2019-05-30T10:08:48Z</time>
      </trkpt>
      <trkpt lat="44.88307" lon="5.49792">
        <ele>1619.5</ele>
        <time>2019-05-30T10:08:50Z</time>
      </trkpt>
      <trkpt lat="44.88309" lon="5.49796">
        <ele>1619.8</ele>
        <time>2019-05-30T10:08:54Z</time>
      </trkpt>
      <trkpt lat="44.88311" lon="5.49801">
        <ele>1620.1</ele>
        <time>2019-05-30T10:08:57Z</time>
      </trkpt>
      <trkpt lat="44.88313" lon="5.49805">
        <ele>1620.4</ele>
        <time>2019-05-30T10:09:00Z</time>
      </trkpt>
      <trkpt lat="44.88316" lon="5.49809">
        <ele>1620.6</ele>
        <time>2019-05-30T10:09:03Z</time>
      </trkpt>
      <trkpt lat="44.88319" lon="5.49812">
        <ele>1620.8</ele>
        <time>2019-05-30T10:09:06Z</time>
      </trkpt>
      <trkpt lat="44.88321" lon="5.49815">
        <ele>1621.1</ele>
        <time>2019-05-30T10:09:09Z</time>
      </trkpt>
      <trkpt lat="44.88323" lon="5.49818">
        <ele>1621.4</ele>
        <time>2019-05-30T10:09:12Z</time>
      </trkpt>
      <trkpt lat="44.88325" lon="5.49821">
        <ele>1621.6</ele>
        <time>2019-05-30T10:09:14Z</time>
      </trkpt>
      <trkpt lat="44.88327" lon="5.49824">
        <ele>1621.8</ele>
        <time>2019-05-30T10:09:16Z</time>
      </trkpt>
      <trkpt lat="44.8833" lon="5.49828">
        <ele>1622.1</ele>
        <time>2019-05-30T10:09:18Z</time>
      </trkpt>
      <trkpt lat="44.88333" lon="5.49831">
        <ele>1622.3</ele>
        <time>2019-05-30T10:09:21Z</time>
      </trkpt>
      <trkpt lat="44.88335" lon="5.49834">
        <ele>1622.4</ele>
        <time>2019-05-30T10:09:24Z</time>
      </trkpt>
      <trkpt lat="44.88337" lon="5.49838">
        <ele>1622.5</ele>
        <time>2019-05-30T10:09:27Z</time>
      </trkpt>
      <trkpt lat="44.88339" lon="5.49842">
        <ele>1622.6</ele>
        <time>2019-05-30T10:09:31Z</time>
      </trkpt>
      <trkpt lat="44.8834" lon="5.49845">
        <ele>1622.6</ele>
        <time>2019-05-30T10:09:34Z</time>
      </trkpt>
      <trkpt lat="44.88342" lon="5.4985">
        <ele>1622.7</ele>
        <time>2019-05-30T10:09:38Z</time>
      </trkpt>
      <trkpt lat="44.88342" lon="5.49854">
        <ele>1622.7</ele>
        <time>2019-05-30T10:09:43Z</time>
      </trkpt>
      <trkpt lat="44.88344" lon="5.49857">
        <ele>1622.7</ele>
        <time>2019-05-30T10:09:47Z</time>
      </trkpt>
      <trkpt lat="44.88346" lon="5.4986">
        <ele>1622.6</ele>
        <time>2019-05-30T10:09:50Z</time>
      </trkpt>
      <trkpt lat="44.88349" lon="5.49865">
        <ele>1622.5</ele>
        <time>2019-05-30T10:09:52Z</time>
      </trkpt>
      <trkpt lat="44.88352" lon="5.49868">
        <ele>1622.5</ele>
        <time>2019-05-30T10:09:54Z</time>
      </trkpt>
      <trkpt lat="44.88353" lon="5.49871">
        <ele>1622.5</ele>
        <time>2019-05-30T10:09:58Z</time>
      </trkpt>
      <trkpt lat="44.88355" lon="5.49875">
        <ele>1622.4</ele>
        <time>2019-05-30T10:10:02Z</time>
      </trkpt>
      <trkpt lat="44.88357" lon="5.49878">
        <ele>1622.5</ele>
        <time>2019-05-30T10:10:05Z</time>
      </trkpt>
      <trkpt lat="44.88359" lon="5.49883">
        <ele>1622.7</ele>
        <time>2019-05-30T10:10:08Z</time>
      </trkpt>
      <trkpt lat="44.88362" lon="5.49887">
        <ele>1622.3</ele>
        <time>2019-05-30T10:10:10Z</time>
      </trkpt>
      <trkpt lat="44.88365" lon="5.49889">
        <ele>1622.3</ele>
        <time>2019-05-30T10:10:13Z</time>
      </trkpt>
      <trkpt lat="44.88367" lon="5.49892">
        <ele>1622.2</ele>
        <time>2019-05-30T10:10:18Z</time>
      </trkpt>
      <trkpt lat="44.8837" lon="5.49895">
        <ele>1622.2</ele>
        <time>2019-05-30T10:10:22Z</time>
      </trkpt>
      <trkpt lat="44.88372" lon="5.49898">
        <ele>1622.2</ele>
        <time>2019-05-30T10:10:26Z</time>
      </trkpt>
      <trkpt lat="44.88373" lon="5.49903">
        <ele>1622.5</ele>
        <time>2019-05-30T10:10:31Z</time>
      </trkpt>
      <trkpt lat="44.88375" lon="5.49907">
        <ele>1622.5</ele>
        <time>2019-05-30T10:10:35Z</time>
      </trkpt>
      <trkpt lat="44.88376" lon="5.49911">
        <ele>1622.6</ele>
        <time>2019-05-30T10:10:38Z</time>
      </trkpt>
      <trkpt lat="44.88376" lon="5.49916">
        <ele>1623.1</ele>
        <time>2019-05-30T10:10:42Z</time>
      </trkpt>
      <trkpt lat="44.88375" lon="5.4992">
        <ele>1623.8</ele>
        <time>2019-05-30T10:10:44Z</time>
      </trkpt>
      <trkpt lat="44.88375" lon="5.49925">
        <ele>1624.2</ele>
        <time>2019-05-30T10:10:47Z</time>
      </trkpt>
      <trkpt lat="44.88377" lon="5.4993">
        <ele>1624.8</ele>
        <time>2019-05-30T10:10:51Z</time>
      </trkpt>
      <trkpt lat="44.88379" lon="5.49934">
        <ele>1624.8</ele>
        <time>2019-05-30T10:10:53Z</time>
      </trkpt>
      <trkpt lat="44.88381" lon="5.49938">
        <ele>1624.9</ele>
        <time>2019-05-30T10:10:55Z</time>
      </trkpt>
      <trkpt lat="44.88384" lon="5.49939">
        <ele>1625</ele>
        <time>2019-05-30T10:11:01Z</time>
      </trkpt>
      <trkpt lat="44.88393" lon="5.49936">
        <ele>1623.7</ele>
        <time>2019-05-30T10:11:11Z</time>
      </trkpt>
      <trkpt lat="44.88395" lon="5.49938">
        <ele>1623.4</ele>
        <time>2019-05-30T10:11:14Z</time>
      </trkpt>
      <trkpt lat="44.88396" lon="5.49942">
        <ele>1623.7</ele>
        <time>2019-05-30T10:11:19Z</time>
      </trkpt>
      <trkpt lat="44.88398" lon="5.49945">
        <ele>1623.8</ele>
        <time>2019-05-30T10:11:25Z</time>
      </trkpt>
      <trkpt lat="44.88395" lon="5.49944">
        <ele>1624.1</ele>
        <time>2019-05-30T10:11:33Z</time>
      </trkpt>
      <trkpt lat="44.88393" lon="5.4994">
        <ele>1624.1</ele>
        <time>2019-05-30T10:11:39Z</time>
      </trkpt>
      <trkpt lat="44.8839" lon="5.49941">
        <ele>1624.4</ele>
        <time>2019-05-30T10:11:46Z</time>
      </trkpt>
      <trkpt lat="44.88388" lon="5.4995">
        <ele>1625.1</ele>
        <time>2019-05-30T10:11:56Z</time>
      </trkpt>
      <trkpt lat="44.88386" lon="5.49955">
        <ele>1625.8</ele>
        <time>2019-05-30T10:12:12Z</time>
      </trkpt>
      <trkpt lat="44.88384" lon="5.49958">
        <ele>1626.5</ele>
        <time>2019-05-30T10:12:17Z</time>
      </trkpt>
      <trkpt lat="44.88381" lon="5.49959">
        <ele>1626.8</ele>
        <time>2019-05-30T10:12:42Z</time>
      </trkpt>
      <trkpt lat="44.88373" lon="5.49959">
        <ele>1627.3</ele>
        <time>2019-05-30T10:13:23Z</time>
      </trkpt>
      <trkpt lat="44.88371" lon="5.49962">
        <ele>1627.8</ele>
        <time>2019-05-30T10:13:28Z</time>
      </trkpt>
      <trkpt lat="44.88372" lon="5.49966">
        <ele>1628.2</ele>
        <time>2019-05-30T10:15:06Z</time>
      </trkpt>
      <trkpt lat="44.88373" lon="5.49972">
        <ele>1628.3</ele>
        <time>2019-05-30T10:15:09Z</time>
      </trkpt>
      <trkpt lat="44.88374" lon="5.49976">
        <ele>1628.6</ele>
        <time>2019-05-30T10:15:11Z</time>
      </trkpt>
      <trkpt lat="44.88374" lon="5.49981">
        <ele>1628.9</ele>
        <time>2019-05-30T10:15:13Z</time>
      </trkpt>
      <trkpt lat="44.88373" lon="5.49985">
        <ele>1629.3</ele>
        <time>2019-05-30T10:15:16Z</time>
      </trkpt>
      <trkpt lat="44.88372" lon="5.49989">
        <ele>1629.9</ele>
        <time>2019-05-30T10:15:19Z</time>
      </trkpt>
      <trkpt lat="44.88371" lon="5.49993">
        <ele>1630.3</ele>
        <time>2019-05-30T10:15:22Z</time>
      </trkpt>
      <trkpt lat="44.88369" lon="5.49998">
        <ele>1631</ele>
        <time>2019-05-30T10:15:26Z</time>
      </trkpt>
      <trkpt lat="44.88369" lon="5.50002">
        <ele>1631.4</ele>
        <time>2019-05-30T10:15:28Z</time>
      </trkpt>
      <trkpt lat="44.88368" lon="5.50007">
        <ele>1631.9</ele>
        <time>2019-05-30T10:15:31Z</time>
      </trkpt>
      <trkpt lat="44.88368" lon="5.50011">
        <ele>1632.4</ele>
        <time>2019-05-30T10:15:34Z</time>
      </trkpt>
      <trkpt lat="44.88367" lon="5.50015">
        <ele>1632.8</ele>
        <time>2019-05-30T10:15:37Z</time>
      </trkpt>
      <trkpt lat="44.88366" lon="5.50018">
        <ele>1633.6</ele>
        <time>2019-05-30T10:15:41Z</time>
      </trkpt>
      <trkpt lat="44.88366" lon="5.50023">
        <ele>1634</ele>
        <time>2019-05-30T10:15:45Z</time>
      </trkpt>
      <trkpt lat="44.88366" lon="5.50028">
        <ele>1634.3</ele>
        <time>2019-05-30T10:15:49Z</time>
      </trkpt>
      <trkpt lat="44.88368" lon="5.50032">
        <ele>1634.3</ele>
        <time>2019-05-30T10:15:53Z</time>
      </trkpt>
      <trkpt lat="44.88369" lon="5.50036">
        <ele>1634.7</ele>
        <time>2019-05-30T10:15:57Z</time>
      </trkpt>
      <trkpt lat="44.8837" lon="5.5004">
        <ele>1635.1</ele>
        <time>2019-05-30T10:16:01Z</time>
      </trkpt>
      <trkpt lat="44.8837" lon="5.50044">
        <ele>1635.2</ele>
        <time>2019-05-30T10:16:05Z</time>
      </trkpt>
      <trkpt lat="44.8837" lon="5.50048">
        <ele>1635.9</ele>
        <time>2019-05-30T10:16:09Z</time>
      </trkpt>
      <trkpt lat="44.8837" lon="5.50053">
        <ele>1636</ele>
        <time>2019-05-30T10:16:13Z</time>
      </trkpt>
      <trkpt lat="44.88371" lon="5.50057">
        <ele>1636.5</ele>
        <time>2019-05-30T10:16:17Z</time>
      </trkpt>
      <trkpt lat="44.88373" lon="5.5006">
        <ele>1636.7</ele>
        <time>2019-05-30T10:16:21Z</time>
      </trkpt>
      <trkpt lat="44.88376" lon="5.50063">
        <ele>1636.4</ele>
        <time>2019-05-30T10:16:24Z</time>
      </trkpt>
      <trkpt lat="44.88379" lon="5.50065">
        <ele>1636.4</ele>
        <time>2019-05-30T10:16:27Z</time>
      </trkpt>
      <trkpt lat="44.88383" lon="5.50066">
        <ele>1636.1</ele>
        <time>2019-05-30T10:16:30Z</time>
      </trkpt>
      <trkpt lat="44.88386" lon="5.50066">
        <ele>1635.7</ele>
        <time>2019-05-30T10:16:33Z</time>
      </trkpt>
      <trkpt lat="44.8839" lon="5.50067">
        <ele>1635.2</ele>
        <time>2019-05-30T10:16:36Z</time>
      </trkpt>
      <trkpt lat="44.88393" lon="5.50067">
        <ele>1634.8</ele>
        <time>2019-05-30T10:16:38Z</time>
      </trkpt>
      <trkpt lat="44.88397" lon="5.50067">
        <ele>1634.5</ele>
        <time>2019-05-30T10:16:41Z</time>
      </trkpt>
      <trkpt lat="44.884" lon="5.50067">
        <ele>1633.8</ele>
        <time>2019-05-30T10:16:44Z</time>
      </trkpt>
      <trkpt lat="44.88404" lon="5.50067">
        <ele>1633.4</ele>
        <time>2019-05-30T10:16:47Z</time>
      </trkpt>
      <trkpt lat="44.88408" lon="5.50066">
        <ele>1633.1</ele>
        <time>2019-05-30T10:16:50Z</time>
      </trkpt>
      <trkpt lat="44.88411" lon="5.50066">
        <ele>1632.8</ele>
        <time>2019-05-30T10:16:52Z</time>
      </trkpt>
      <trkpt lat="44.88414" lon="5.50065">
        <ele>1632.5</ele>
        <time>2019-05-30T10:16:54Z</time>
      </trkpt>
      <trkpt lat="44.88417" lon="5.50065">
        <ele>1632.2</ele>
        <time>2019-05-30T10:16:57Z</time>
      </trkpt>
      <trkpt lat="44.88421" lon="5.50064">
        <ele>1631.9</ele>
        <time>2019-05-30T10:17:00Z</time>
      </trkpt>
      <trkpt lat="44.88424" lon="5.50063">
        <ele>1631.5</ele>
        <time>2019-05-30T10:17:03Z</time>
      </trkpt>
      <trkpt lat="44.88427" lon="5.50062">
        <ele>1630.9</ele>
        <time>2019-05-30T10:17:05Z</time>
      </trkpt>
      <trkpt lat="44.8843" lon="5.50062">
        <ele>1630.6</ele>
        <time>2019-05-30T10:17:08Z</time>
      </trkpt>
      <trkpt lat="44.88433" lon="5.5006">
        <ele>1630.3</ele>
        <time>2019-05-30T10:17:11Z</time>
      </trkpt>
      <trkpt lat="44.88435" lon="5.50057">
        <ele>1629.6</ele>
        <time>2019-05-30T10:17:14Z</time>
      </trkpt>
      <trkpt lat="44.88437" lon="5.50053">
        <ele>1629.2</ele>
        <time>2019-05-30T10:17:16Z</time>
      </trkpt>
      <trkpt lat="44.88438" lon="5.5005">
        <ele>1628.6</ele>
        <time>2019-05-30T10:17:18Z</time>
      </trkpt>
      <trkpt lat="44.8844" lon="5.50046">
        <ele>1628.3</ele>
        <time>2019-05-30T10:17:21Z</time>
      </trkpt>
      <trkpt lat="44.88443" lon="5.50043">
        <ele>1627.6</ele>
        <time>2019-05-30T10:17:43Z</time>
      </trkpt>
      <trkpt lat="44.88445" lon="5.5004">
        <ele>1627.3</ele>
        <time>2019-05-30T10:17:45Z</time>
      </trkpt>
      <trkpt lat="44.88448" lon="5.50037">
        <ele>1626.7</ele>
        <time>2019-05-30T10:17:48Z</time>
      </trkpt>
      <trkpt lat="44.8845" lon="5.50035">
        <ele>1626.4</ele>
        <time>2019-05-30T10:17:51Z</time>
      </trkpt>
      <trkpt lat="44.88454" lon="5.50031">
        <ele>1625.8</ele>
        <time>2019-05-30T10:17:54Z</time>
      </trkpt>
      <trkpt lat="44.88456" lon="5.50029">
        <ele>1625.3</ele>
        <time>2019-05-30T10:17:56Z</time>
      </trkpt>
      <trkpt lat="44.88458" lon="5.50026">
        <ele>1625.3</ele>
        <time>2019-05-30T10:17:58Z</time>
      </trkpt>
      <trkpt lat="44.88459" lon="5.50023">
        <ele>1624.8</ele>
        <time>2019-05-30T10:18:00Z</time>
      </trkpt>
      <trkpt lat="44.88462" lon="5.50019">
        <ele>1624.2</ele>
        <time>2019-05-30T10:18:03Z</time>
      </trkpt>
      <trkpt lat="44.88465" lon="5.50017">
        <ele>1624</ele>
        <time>2019-05-30T10:18:06Z</time>
      </trkpt>
      <trkpt lat="44.88468" lon="5.50017">
        <ele>1623.8</ele>
        <time>2019-05-30T10:18:09Z</time>
      </trkpt>
      <trkpt lat="44.88472" lon="5.50016">
        <ele>1623.6</ele>
        <time>2019-05-30T10:18:12Z</time>
      </trkpt>
      <trkpt lat="44.88475" lon="5.50018">
        <ele>1623.4</ele>
        <time>2019-05-30T10:18:15Z</time>
      </trkpt>
      <trkpt lat="44.88477" lon="5.50021">
        <ele>1623.6</ele>
        <time>2019-05-30T10:18:18Z</time>
      </trkpt>
      <trkpt lat="44.88475" lon="5.50026">
        <ele>1624.1</ele>
        <time>2019-05-30T10:18:22Z</time>
      </trkpt>
      <trkpt lat="44.88472" lon="5.50028">
        <ele>1624.3</ele>
        <time>2019-05-30T10:18:25Z</time>
      </trkpt>
      <trkpt lat="44.88469" lon="5.50031">
        <ele>1624.8</ele>
        <time>2019-05-30T10:18:29Z</time>
      </trkpt>
      <trkpt lat="44.88469" lon="5.50035">
        <ele>1625.1</ele>
        <time>2019-05-30T10:18:33Z</time>
      </trkpt>
      <trkpt lat="44.88469" lon="5.50039">
        <ele>1625.4</ele>
        <time>2019-05-30T10:18:36Z</time>
      </trkpt>
      <trkpt lat="44.8847" lon="5.50043">
        <ele>1625.8</ele>
        <time>2019-05-30T10:18:39Z</time>
      </trkpt>
      <trkpt lat="44.8847" lon="5.50047">
        <ele>1626.2</ele>
        <time>2019-05-30T10:18:42Z</time>
      </trkpt>
      <trkpt lat="44.88471" lon="5.50051">
        <ele>1626.5</ele>
        <time>2019-05-30T10:18:45Z</time>
      </trkpt>
      <trkpt lat="44.88473" lon="5.50056">
        <ele>1626.8</ele>
        <time>2019-05-30T10:18:48Z</time>
      </trkpt>
      <trkpt lat="44.88475" lon="5.50059">
        <ele>1627.1</ele>
        <time>2019-05-30T10:18:51Z</time>
      </trkpt>
      <trkpt lat="44.88476" lon="5.50062">
        <ele>1627.5</ele>
        <time>2019-05-30T10:18:54Z</time>
      </trkpt>
      <trkpt lat="44.88479" lon="5.50066">
        <ele>1628</ele>
        <time>2019-05-30T10:18:58Z</time>
      </trkpt>
      <trkpt lat="44.88481" lon="5.50071">
        <ele>1628.3</ele>
        <time>2019-05-30T10:19:01Z</time>
      </trkpt>
      <trkpt lat="44.88482" lon="5.50076">
        <ele>1628.6</ele>
        <time>2019-05-30T10:19:04Z</time>
      </trkpt>
      <trkpt lat="44.88484" lon="5.50079">
        <ele>1629</ele>
        <time>2019-05-30T10:19:06Z</time>
      </trkpt>
      <trkpt lat="44.88485" lon="5.50084">
        <ele>1629.2</ele>
        <time>2019-05-30T10:19:09Z</time>
      </trkpt>
      <trkpt lat="44.88486" lon="5.50088">
        <ele>1629.4</ele>
        <time>2019-05-30T10:19:12Z</time>
      </trkpt>
      <trkpt lat="44.88487" lon="5.50092">
        <ele>1629.9</ele>
        <time>2019-05-30T10:19:15Z</time>
      </trkpt>
      <trkpt lat="44.88487" lon="5.50097">
        <ele>1630.2</ele>
        <time>2019-05-30T10:19:18Z</time>
      </trkpt>
      <trkpt lat="44.88487" lon="5.50102">
        <ele>1630.3</ele>
        <time>2019-05-30T10:19:23Z</time>
      </trkpt>
      <trkpt lat="44.88487" lon="5.50106">
        <ele>1630.5</ele>
        <time>2019-05-30T10:19:27Z</time>
      </trkpt>
      <trkpt lat="44.88486" lon="5.50111">
        <ele>1630.7</ele>
        <time>2019-05-30T10:19:30Z</time>
      </trkpt>
      <trkpt lat="44.88485" lon="5.50116">
        <ele>1631</ele>
        <time>2019-05-30T10:19:33Z</time>
      </trkpt>
      <trkpt lat="44.88485" lon="5.5012">
        <ele>1631.1</ele>
        <time>2019-05-30T10:19:36Z</time>
      </trkpt>
      <trkpt lat="44.88486" lon="5.50125">
        <ele>1631.3</ele>
        <time>2019-05-30T10:19:39Z</time>
      </trkpt>
      <trkpt lat="44.88487" lon="5.50129">
        <ele>1631.4</ele>
        <time>2019-05-30T10:19:41Z</time>
      </trkpt>
      <trkpt lat="44.88487" lon="5.50133">
        <ele>1631.5</ele>
        <time>2019-05-30T10:19:46Z</time>
      </trkpt>
      <trkpt lat="44.88489" lon="5.50137">
        <ele>1631.5</ele>
        <time>2019-05-30T10:19:50Z</time>
      </trkpt>
      <trkpt lat="44.88491" lon="5.5014">
        <ele>1631.6</ele>
        <time>2019-05-30T10:19:54Z</time>
      </trkpt>
      <trkpt lat="44.88493" lon="5.50142">
        <ele>1631.6</ele>
        <time>2019-05-30T10:19:57Z</time>
      </trkpt>
      <trkpt lat="44.88496" lon="5.50144">
        <ele>1631.6</ele>
        <time>2019-05-30T10:20:00Z</time>
      </trkpt>
      <trkpt lat="44.88498" lon="5.50147">
        <ele>1631.7</ele>
        <time>2019-05-30T10:20:03Z</time>
      </trkpt>
      <trkpt lat="44.885" lon="5.50151">
        <ele>1631.7</ele>
        <time>2019-05-30T10:20:06Z</time>
      </trkpt>
      <trkpt lat="44.88503" lon="5.50154">
        <ele>1631.7</ele>
        <time>2019-05-30T10:20:10Z</time>
      </trkpt>
      <trkpt lat="44.88505" lon="5.50157">
        <ele>1631.7</ele>
        <time>2019-05-30T10:20:14Z</time>
      </trkpt>
      <trkpt lat="44.88508" lon="5.5016">
        <ele>1631.3</ele>
        <time>2019-05-30T10:20:17Z</time>
      </trkpt>
      <trkpt lat="44.88512" lon="5.50164">
        <ele>1630.8</ele>
        <time>2019-05-30T10:20:19Z</time>
      </trkpt>
      <trkpt lat="44.88514" lon="5.50168">
        <ele>1630.4</ele>
        <time>2019-05-30T10:20:21Z</time>
      </trkpt>
      <trkpt lat="44.88516" lon="5.50172">
        <ele>1630.1</ele>
        <time>2019-05-30T10:20:23Z</time>
      </trkpt>
      <trkpt lat="44.88519" lon="5.50177">
        <ele>1629.8</ele>
        <time>2019-05-30T10:20:25Z</time>
      </trkpt>
      <trkpt lat="44.88521" lon="5.50181">
        <ele>1629.6</ele>
        <time>2019-05-30T10:20:27Z</time>
      </trkpt>
      <trkpt lat="44.88523" lon="5.50185">
        <ele>1629.4</ele>
        <time>2019-05-30T10:20:29Z</time>
      </trkpt>
      <trkpt lat="44.88525" lon="5.50189">
        <ele>1629.3</ele>
        <time>2019-05-30T10:20:31Z</time>
      </trkpt>
      <trkpt lat="44.88527" lon="5.50193">
        <ele>1629.1</ele>
        <time>2019-05-30T10:20:33Z</time>
      </trkpt>
      <trkpt lat="44.88528" lon="5.50196">
        <ele>1629</ele>
        <time>2019-05-30T10:20:35Z</time>
      </trkpt>
      <trkpt lat="44.8853" lon="5.50201">
        <ele>1628.9</ele>
        <time>2019-05-30T10:20:38Z</time>
      </trkpt>
      <trkpt lat="44.8853" lon="5.50205">
        <ele>1628.8</ele>
        <time>2019-05-30T10:20:40Z</time>
      </trkpt>
      <trkpt lat="44.88531" lon="5.50209">
        <ele>1628.7</ele>
        <time>2019-05-30T10:20:42Z</time>
      </trkpt>
      <trkpt lat="44.88531" lon="5.50214">
        <ele>1628.7</ele>
        <time>2019-05-30T10:20:45Z</time>
      </trkpt>
      <trkpt lat="44.8853" lon="5.5022">
        <ele>1628.7</ele>
        <time>2019-05-30T10:20:48Z</time>
      </trkpt>
      <trkpt lat="44.8853" lon="5.50224">
        <ele>1628.8</ele>
        <time>2019-05-30T10:20:50Z</time>
      </trkpt>
      <trkpt lat="44.88529" lon="5.50229">
        <ele>1628.9</ele>
        <time>2019-05-30T10:20:53Z</time>
      </trkpt>
      <trkpt lat="44.88528" lon="5.50233">
        <ele>1628.9</ele>
        <time>2019-05-30T10:20:55Z</time>
      </trkpt>
      <trkpt lat="44.88526" lon="5.50237">
        <ele>1629.1</ele>
        <time>2019-05-30T10:20:58Z</time>
      </trkpt>
      <trkpt lat="44.88524" lon="5.50242">
        <ele>1629.2</ele>
        <time>2019-05-30T10:21:01Z</time>
      </trkpt>
      <trkpt lat="44.88522" lon="5.50246">
        <ele>1629.3</ele>
        <time>2019-05-30T10:21:04Z</time>
      </trkpt>
      <trkpt lat="44.8852" lon="5.50251">
        <ele>1629.5</ele>
        <time>2019-05-30T10:21:07Z</time>
      </trkpt>
      <trkpt lat="44.88518" lon="5.50255">
        <ele>1629.6</ele>
        <time>2019-05-30T10:21:10Z</time>
      </trkpt>
      <trkpt lat="44.88517" lon="5.50258">
        <ele>1629.6</ele>
        <time>2019-05-30T10:21:13Z</time>
      </trkpt>
      <trkpt lat="44.88515" lon="5.50262">
        <ele>1629.6</ele>
        <time>2019-05-30T10:21:16Z</time>
      </trkpt>
      <trkpt lat="44.88513" lon="5.50266">
        <ele>1629.6</ele>
        <time>2019-05-30T10:21:19Z</time>
      </trkpt>
      <trkpt lat="44.88512" lon="5.5027">
        <ele>1629.5</ele>
        <time>2019-05-30T10:21:22Z</time>
      </trkpt>
      <trkpt lat="44.8851" lon="5.50274">
        <ele>1629.5</ele>
        <time>2019-05-30T10:21:25Z</time>
      </trkpt>
      <trkpt lat="44.8851" lon="5.50278">
        <ele>1629.4</ele>
        <time>2019-05-30T10:21:28Z</time>
      </trkpt>
      <trkpt lat="44.88509" lon="5.50283">
        <ele>1629.3</ele>
        <time>2019-05-30T10:21:31Z</time>
      </trkpt>
      <trkpt lat="44.88508" lon="5.50288">
        <ele>1629.2</ele>
        <time>2019-05-30T10:21:34Z</time>
      </trkpt>
      <trkpt lat="44.88508" lon="5.50293">
        <ele>1629</ele>
        <time>2019-05-30T10:21:37Z</time>
      </trkpt>
      <trkpt lat="44.88508" lon="5.50297">
        <ele>1628.8</ele>
        <time>2019-05-30T10:21:39Z</time>
      </trkpt>
      <trkpt lat="44.88508" lon="5.50303">
        <ele>1628.5</ele>
        <time>2019-05-30T10:21:42Z</time>
      </trkpt>
      <trkpt lat="44.88509" lon="5.50307">
        <ele>1628.1</ele>
        <time>2019-05-30T10:21:45Z</time>
      </trkpt>
      <trkpt lat="44.8851" lon="5.50312">
        <ele>1627.8</ele>
        <time>2019-05-30T10:21:48Z</time>
      </trkpt>
      <trkpt lat="44.8851" lon="5.50317">
        <ele>1627.5</ele>
        <time>2019-05-30T10:21:51Z</time>
      </trkpt>
      <trkpt lat="44.88509" lon="5.50321">
        <ele>1627.2</ele>
        <time>2019-05-30T10:21:54Z</time>
      </trkpt>
      <trkpt lat="44.88509" lon="5.50326">
        <ele>1626.9</ele>
        <time>2019-05-30T10:21:57Z</time>
      </trkpt>
      <trkpt lat="44.88509" lon="5.5033">
        <ele>1626.7</ele>
        <time>2019-05-30T10:21:59Z</time>
      </trkpt>
      <trkpt lat="44.88508" lon="5.50334">
        <ele>1626.4</ele>
        <time>2019-05-30T10:22:01Z</time>
      </trkpt>
      <trkpt lat="44.88507" lon="5.50338">
        <ele>1626.2</ele>
        <time>2019-05-30T10:22:04Z</time>
      </trkpt>
      <trkpt lat="44.88506" lon="5.50343">
        <ele>1625.9</ele>
        <time>2019-05-30T10:22:07Z</time>
      </trkpt>
      <trkpt lat="44.88506" lon="5.50347">
        <ele>1625.7</ele>
        <time>2019-05-30T10:22:10Z</time>
      </trkpt>
      <trkpt lat="44.88505" lon="5.50352">
        <ele>1625.4</ele>
        <time>2019-05-30T10:22:13Z</time>
      </trkpt>
      <trkpt lat="44.88505" lon="5.50357">
        <ele>1625.1</ele>
        <time>2019-05-30T10:22:16Z</time>
      </trkpt>
      <trkpt lat="44.88505" lon="5.50362">
        <ele>1624.8</ele>
        <time>2019-05-30T10:22:19Z</time>
      </trkpt>
      <trkpt lat="44.88506" lon="5.50367">
        <ele>1624.5</ele>
        <time>2019-05-30T10:22:22Z</time>
      </trkpt>
      <trkpt lat="44.88506" lon="5.50372">
        <ele>1624.3</ele>
        <time>2019-05-30T10:22:24Z</time>
      </trkpt>
      <trkpt lat="44.88507" lon="5.50377">
        <ele>1624.1</ele>
        <time>2019-05-30T10:22:27Z</time>
      </trkpt>
      <trkpt lat="44.88508" lon="5.50382">
        <ele>1623.8</ele>
        <time>2019-05-30T10:22:30Z</time>
      </trkpt>
      <trkpt lat="44.88509" lon="5.50387">
        <ele>1623.5</ele>
        <time>2019-05-30T10:22:33Z</time>
      </trkpt>
      <trkpt lat="44.8851" lon="5.50391">
        <ele>1623.2</ele>
        <time>2019-05-30T10:22:35Z</time>
      </trkpt>
      <trkpt lat="44.88511" lon="5.50395">
        <ele>1622.9</ele>
        <time>2019-05-30T10:22:37Z</time>
      </trkpt>
      <trkpt lat="44.88512" lon="5.504">
        <ele>1622.6</ele>
        <time>2019-05-30T10:22:40Z</time>
      </trkpt>
      <trkpt lat="44.88513" lon="5.50404">
        <ele>1622.4</ele>
        <time>2019-05-30T10:22:42Z</time>
      </trkpt>
      <trkpt lat="44.88513" lon="5.50408">
        <ele>1622.1</ele>
        <time>2019-05-30T10:22:44Z</time>
      </trkpt>
      <trkpt lat="44.88514" lon="5.50412">
        <ele>1621.9</ele>
        <time>2019-05-30T10:22:46Z</time>
      </trkpt>
      <trkpt lat="44.88515" lon="5.50417">
        <ele>1621.6</ele>
        <time>2019-05-30T10:22:49Z</time>
      </trkpt>
      <trkpt lat="44.88516" lon="5.50421">
        <ele>1621.4</ele>
        <time>2019-05-30T10:22:51Z</time>
      </trkpt>
      <trkpt lat="44.88517" lon="5.50425">
        <ele>1621.2</ele>
        <time>2019-05-30T10:22:53Z</time>
      </trkpt>
      <trkpt lat="44.88517" lon="5.5043">
        <ele>1620.9</ele>
        <time>2019-05-30T10:22:56Z</time>
      </trkpt>
      <trkpt lat="44.88516" lon="5.50434">
        <ele>1620.7</ele>
        <time>2019-05-30T10:22:58Z</time>
      </trkpt>
      <trkpt lat="44.88516" lon="5.50439">
        <ele>1620.6</ele>
        <time>2019-05-30T10:23:00Z</time>
      </trkpt>
      <trkpt lat="44.88516" lon="5.50444">
        <ele>1620.4</ele>
        <time>2019-05-30T10:23:03Z</time>
      </trkpt>
      <trkpt lat="44.88516" lon="5.50449">
        <ele>1620.2</ele>
        <time>2019-05-30T10:23:06Z</time>
      </trkpt>
      <trkpt lat="44.88516" lon="5.50455">
        <ele>1620.1</ele>
        <time>2019-05-30T10:23:09Z</time>
      </trkpt>
      <trkpt lat="44.88517" lon="5.50459">
        <ele>1620</ele>
        <time>2019-05-30T10:23:11Z</time>
      </trkpt>
      <trkpt lat="44.88517" lon="5.50463">
        <ele>1619.9</ele>
        <time>2019-05-30T10:23:13Z</time>
      </trkpt>
      <trkpt lat="44.88518" lon="5.50469">
        <ele>1619.8</ele>
        <time>2019-05-30T10:23:16Z</time>
      </trkpt>
      <trkpt lat="44.88518" lon="5.50473">
        <ele>1619.7</ele>
        <time>2019-05-30T10:23:18Z</time>
      </trkpt>
      <trkpt lat="44.88518" lon="5.50478">
        <ele>1619.6</ele>
        <time>2019-05-30T10:23:21Z</time>
      </trkpt>
      <trkpt lat="44.88518" lon="5.50484">
        <ele>1619.5</ele>
        <time>2019-05-30T10:23:24Z</time>
      </trkpt>
      <trkpt lat="44.88518" lon="5.50487">
        <ele>1619.5</ele>
        <time>2019-05-30T10:23:26Z</time>
      </trkpt>
      <trkpt lat="44.88517" lon="5.50492">
        <ele>1619.4</ele>
        <time>2019-05-30T10:23:29Z</time>
      </trkpt>
      <trkpt lat="44.88516" lon="5.50497">
        <ele>1619.4</ele>
        <time>2019-05-30T10:23:32Z</time>
      </trkpt>
      <trkpt lat="44.88516" lon="5.50502">
        <ele>1619.3</ele>
        <time>2019-05-30T10:23:35Z</time>
      </trkpt>
      <trkpt lat="44.88515" lon="5.50507">
        <ele>1619.3</ele>
        <time>2019-05-30T10:23:38Z</time>
      </trkpt>
      <trkpt lat="44.88514" lon="5.50511">
        <ele>1619.2</ele>
        <time>2019-05-30T10:23:58Z</time>
      </trkpt>
      <trkpt lat="44.88514" lon="5.50515">
        <ele>1619.2</ele>
        <time>2019-05-30T10:24:01Z</time>
      </trkpt>
      <trkpt lat="44.88513" lon="5.50519">
        <ele>1619.2</ele>
        <time>2019-05-30T10:24:04Z</time>
      </trkpt>
      <trkpt lat="44.88512" lon="5.50523">
        <ele>1619.2</ele>
        <time>2019-05-30T10:24:07Z</time>
      </trkpt>
      <trkpt lat="44.88511" lon="5.50528">
        <ele>1619.2</ele>
        <time>2019-05-30T10:24:10Z</time>
      </trkpt>
      <trkpt lat="44.8851" lon="5.50533">
        <ele>1619.2</ele>
        <time>2019-05-30T10:24:13Z</time>
      </trkpt>
      <trkpt lat="44.88509" lon="5.50538">
        <ele>1619.3</ele>
        <time>2019-05-30T10:24:16Z</time>
      </trkpt>
      <trkpt lat="44.88508" lon="5.50543">
        <ele>1619.4</ele>
        <time>2019-05-30T10:24:19Z</time>
      </trkpt>
      <trkpt lat="44.88509" lon="5.50548">
        <ele>1619.4</ele>
        <time>2019-05-30T10:24:22Z</time>
      </trkpt>
      <trkpt lat="44.88508" lon="5.50553">
        <ele>1619.5</ele>
        <time>2019-05-30T10:24:25Z</time>
      </trkpt>
      <trkpt lat="44.88508" lon="5.50558">
        <ele>1619.8</ele>
        <time>2019-05-30T10:24:28Z</time>
      </trkpt>
      <trkpt lat="44.88507" lon="5.50564">
        <ele>1620</ele>
        <time>2019-05-30T10:24:31Z</time>
      </trkpt>
      <trkpt lat="44.88506" lon="5.50569">
        <ele>1620.3</ele>
        <time>2019-05-30T10:24:34Z</time>
      </trkpt>
      <trkpt lat="44.88504" lon="5.50574">
        <ele>1620.8</ele>
        <time>2019-05-30T10:24:54Z</time>
      </trkpt>
      <trkpt lat="44.88502" lon="5.50578">
        <ele>1621.3</ele>
        <time>2019-05-30T10:25:00Z</time>
      </trkpt>
      <trkpt lat="44.88501" lon="5.50583">
        <ele>1621.7</ele>
        <time>2019-05-30T10:25:02Z</time>
      </trkpt>
      <trkpt lat="44.885" lon="5.50586">
        <ele>1621.9</ele>
        <time>2019-05-30T10:25:04Z</time>
      </trkpt>
      <trkpt lat="44.885" lon="5.5059">
        <ele>1622.2</ele>
        <time>2019-05-30T10:25:07Z</time>
      </trkpt>
      <trkpt lat="44.885" lon="5.50595">
        <ele>1622.5</ele>
        <time>2019-05-30T10:25:09Z</time>
      </trkpt>
      <trkpt lat="44.885" lon="5.506">
        <ele>1622.9</ele>
        <time>2019-05-30T10:25:12Z</time>
      </trkpt>
      <trkpt lat="44.88499" lon="5.50605">
        <ele>1623.3</ele>
        <time>2019-05-30T10:25:16Z</time>
      </trkpt>
      <trkpt lat="44.88498" lon="5.50609">
        <ele>1623.7</ele>
        <time>2019-05-30T10:25:20Z</time>
      </trkpt>
      <trkpt lat="44.88496" lon="5.50615">
        <ele>1624.1</ele>
        <time>2019-05-30T10:25:22Z</time>
      </trkpt>
      <trkpt lat="44.88494" lon="5.50619">
        <ele>1624.3</ele>
        <time>2019-05-30T10:25:24Z</time>
      </trkpt>
      <trkpt lat="44.88493" lon="5.50622">
        <ele>1624.6</ele>
        <time>2019-05-30T10:25:26Z</time>
      </trkpt>
      <trkpt lat="44.88492" lon="5.50626">
        <ele>1624.8</ele>
        <time>2019-05-30T10:25:29Z</time>
      </trkpt>
      <trkpt lat="44.88491" lon="5.50631">
        <ele>1625</ele>
        <time>2019-05-30T10:25:32Z</time>
      </trkpt>
      <trkpt lat="44.8849" lon="5.50636">
        <ele>1625.1</ele>
        <time>2019-05-30T10:25:34Z</time>
      </trkpt>
      <trkpt lat="44.88489" lon="5.5064">
        <ele>1625.2</ele>
        <time>2019-05-30T10:25:36Z</time>
      </trkpt>
      <trkpt lat="44.88488" lon="5.50645">
        <ele>1625.3</ele>
        <time>2019-05-30T10:25:39Z</time>
      </trkpt>
      <trkpt lat="44.88488" lon="5.50651">
        <ele>1625.4</ele>
        <time>2019-05-30T10:25:42Z</time>
      </trkpt>
      <trkpt lat="44.88487" lon="5.50655">
        <ele>1625.4</ele>
        <time>2019-05-30T10:25:45Z</time>
      </trkpt>
      <trkpt lat="44.88487" lon="5.50661">
        <ele>1625.5</ele>
        <time>2019-05-30T10:25:48Z</time>
      </trkpt>
      <trkpt lat="44.88487" lon="5.50666">
        <ele>1625.6</ele>
        <time>2019-05-30T10:25:51Z</time>
      </trkpt>
      <trkpt lat="44.88487" lon="5.50671">
        <ele>1625.6</ele>
        <time>2019-05-30T10:25:53Z</time>
      </trkpt>
      <trkpt lat="44.88487" lon="5.50675">
        <ele>1625.7</ele>
        <time>2019-05-30T10:25:55Z</time>
      </trkpt>
      <trkpt lat="44.88487" lon="5.5068">
        <ele>1625.9</ele>
        <time>2019-05-30T10:25:58Z</time>
      </trkpt>
      <trkpt lat="44.88486" lon="5.50684">
        <ele>1626</ele>
        <time>2019-05-30T10:26:01Z</time>
      </trkpt>
      <trkpt lat="44.88486" lon="5.5069">
        <ele>1626.1</ele>
        <time>2019-05-30T10:26:04Z</time>
      </trkpt>
      <trkpt lat="44.88486" lon="5.50694">
        <ele>1626.2</ele>
        <time>2019-05-30T10:26:07Z</time>
      </trkpt>
      <trkpt lat="44.88487" lon="5.50699">
        <ele>1626.3</ele>
        <time>2019-05-30T10:26:10Z</time>
      </trkpt>
      <trkpt lat="44.88486" lon="5.50704">
        <ele>1626.4</ele>
        <time>2019-05-30T10:26:13Z</time>
      </trkpt>
      <trkpt lat="44.88485" lon="5.50708">
        <ele>1626.6</ele>
        <time>2019-05-30T10:26:16Z</time>
      </trkpt>
      <trkpt lat="44.88483" lon="5.50714">
        <ele>1626.9</ele>
        <time>2019-05-30T10:26:19Z</time>
      </trkpt>
      <trkpt lat="44.88482" lon="5.50718">
        <ele>1627.2</ele>
        <time>2019-05-30T10:26:21Z</time>
      </trkpt>
      <trkpt lat="44.88482" lon="5.50722">
        <ele>1627.6</ele>
        <time>2019-05-30T10:26:23Z</time>
      </trkpt>
      <trkpt lat="44.88481" lon="5.50726">
        <ele>1627.9</ele>
        <time>2019-05-30T10:26:25Z</time>
      </trkpt>
      <trkpt lat="44.88481" lon="5.5073">
        <ele>1628.2</ele>
        <time>2019-05-30T10:26:27Z</time>
      </trkpt>
      <trkpt lat="44.8848" lon="5.50735">
        <ele>1628.6</ele>
        <time>2019-05-30T10:26:30Z</time>
      </trkpt>
      <trkpt lat="44.88479" lon="5.50739">
        <ele>1629.2</ele>
        <time>2019-05-30T10:26:34Z</time>
      </trkpt>
      <trkpt lat="44.88478" lon="5.50744">
        <ele>1629.2</ele>
        <time>2019-05-30T10:26:39Z</time>
      </trkpt>
      <trkpt lat="44.88479" lon="5.50748">
        <ele>1629.1</ele>
        <time>2019-05-30T10:26:44Z</time>
      </trkpt>
      <trkpt lat="44.88481" lon="5.50751">
        <ele>1629</ele>
        <time>2019-05-30T10:26:48Z</time>
      </trkpt>
      <trkpt lat="44.88484" lon="5.50752">
        <ele>1629</ele>
        <time>2019-05-30T10:26:52Z</time>
      </trkpt>
      <trkpt lat="44.88488" lon="5.50752">
        <ele>1628.9</ele>
        <time>2019-05-30T10:26:55Z</time>
      </trkpt>
      <trkpt lat="44.88491" lon="5.50751">
        <ele>1628.9</ele>
        <time>2019-05-30T10:26:58Z</time>
      </trkpt>
      <trkpt lat="44.88495" lon="5.5075">
        <ele>1628.8</ele>
        <time>2019-05-30T10:27:00Z</time>
      </trkpt>
      <trkpt lat="44.88497" lon="5.50749">
        <ele>1628.7</ele>
        <time>2019-05-30T10:27:02Z</time>
      </trkpt>
      <trkpt lat="44.88501" lon="5.50749">
        <ele>1628.7</ele>
        <time>2019-05-30T10:27:05Z</time>
      </trkpt>
      <trkpt lat="44.88505" lon="5.50749">
        <ele>1628.6</ele>
        <time>2019-05-30T10:27:08Z</time>
      </trkpt>
      <trkpt lat="44.88508" lon="5.50749">
        <ele>1628.6</ele>
        <time>2019-05-30T10:27:10Z</time>
      </trkpt>
      <trkpt lat="44.88511" lon="5.50749">
        <ele>1628.5</ele>
        <time>2019-05-30T10:27:13Z</time>
      </trkpt>
      <trkpt lat="44.88515" lon="5.5075">
        <ele>1628.4</ele>
        <time>2019-05-30T10:27:15Z</time>
      </trkpt>
      <trkpt lat="44.88518" lon="5.50751">
        <ele>1628.4</ele>
        <time>2019-05-30T10:27:17Z</time>
      </trkpt>
      <trkpt lat="44.88522" lon="5.50752">
        <ele>1628.3</ele>
        <time>2019-05-30T10:27:20Z</time>
      </trkpt>
      <trkpt lat="44.88525" lon="5.50755">
        <ele>1628.2</ele>
        <time>2019-05-30T10:27:23Z</time>
      </trkpt>
      <trkpt lat="44.88528" lon="5.50757">
        <ele>1628.1</ele>
        <time>2019-05-30T10:27:26Z</time>
      </trkpt>
      <trkpt lat="44.88532" lon="5.50759">
        <ele>1628</ele>
        <time>2019-05-30T10:27:29Z</time>
      </trkpt>
      <trkpt lat="44.88535" lon="5.50761">
        <ele>1628</ele>
        <time>2019-05-30T10:27:31Z</time>
      </trkpt>
      <trkpt lat="44.88537" lon="5.50762">
        <ele>1627.9</ele>
        <time>2019-05-30T10:27:33Z</time>
      </trkpt>
      <trkpt lat="44.88541" lon="5.50763">
        <ele>1627.8</ele>
        <time>2019-05-30T10:27:36Z</time>
      </trkpt>
      <trkpt lat="44.88543" lon="5.50763">
        <ele>1627.7</ele>
        <time>2019-05-30T10:27:38Z</time>
      </trkpt>
      <trkpt lat="44.88546" lon="5.50764">
        <ele>1627.6</ele>
        <time>2019-05-30T10:27:40Z</time>
      </trkpt>
      <trkpt lat="44.88549" lon="5.50764">
        <ele>1627.6</ele>
        <time>2019-05-30T10:27:42Z</time>
      </trkpt>
      <trkpt lat="44.88552" lon="5.50764">
        <ele>1627.4</ele>
        <time>2019-05-30T10:27:45Z</time>
      </trkpt>
      <trkpt lat="44.88555" lon="5.50761">
        <ele>1627.3</ele>
        <time>2019-05-30T10:27:49Z</time>
      </trkpt>
      <trkpt lat="44.88558" lon="5.50759">
        <ele>1627.3</ele>
        <time>2019-05-30T10:27:52Z</time>
      </trkpt>
      <trkpt lat="44.88561" lon="5.50758">
        <ele>1627.2</ele>
        <time>2019-05-30T10:27:55Z</time>
      </trkpt>
      <trkpt lat="44.88565" lon="5.50757">
        <ele>1627.1</ele>
        <time>2019-05-30T10:27:58Z</time>
      </trkpt>
      <trkpt lat="44.88568" lon="5.50758">
        <ele>1627</ele>
        <time>2019-05-30T10:28:01Z</time>
      </trkpt>
      <trkpt lat="44.88572" lon="5.50759">
        <ele>1626.9</ele>
        <time>2019-05-30T10:28:04Z</time>
      </trkpt>
      <trkpt lat="44.88575" lon="5.5076">
        <ele>1626.7</ele>
        <time>2019-05-30T10:28:07Z</time>
      </trkpt>
      <trkpt lat="44.88578" lon="5.5076">
        <ele>1626.6</ele>
        <time>2019-05-30T10:28:09Z</time>
      </trkpt>
      <trkpt lat="44.88581" lon="5.50761">
        <ele>1626.5</ele>
        <time>2019-05-30T10:28:11Z</time>
      </trkpt>
      <trkpt lat="44.88585" lon="5.50759">
        <ele>1626.4</ele>
        <time>2019-05-30T10:28:14Z</time>
      </trkpt>
      <trkpt lat="44.88587" lon="5.50757">
        <ele>1626.3</ele>
        <time>2019-05-30T10:28:20Z</time>
      </trkpt>
      <trkpt lat="44.88589" lon="5.50754">
        <ele>1626.1</ele>
        <time>2019-05-30T10:28:25Z</time>
      </trkpt>
      <trkpt lat="44.88591" lon="5.5075">
        <ele>1626</ele>
        <time>2019-05-30T10:28:29Z</time>
      </trkpt>
      <trkpt lat="44.88594" lon="5.50752">
        <ele>1625.8</ele>
        <time>2019-05-30T10:28:39Z</time>
      </trkpt>
      <trkpt lat="44.88597" lon="5.50752">
        <ele>1625.6</ele>
        <time>2019-05-30T10:28:42Z</time>
      </trkpt>
      <trkpt lat="44.88599" lon="5.50754">
        <ele>1625.4</ele>
        <time>2019-05-30T10:28:44Z</time>
      </trkpt>
      <trkpt lat="44.88603" lon="5.50757">
        <ele>1625.2</ele>
        <time>2019-05-30T10:28:47Z</time>
      </trkpt>
      <trkpt lat="44.88605" lon="5.5076">
        <ele>1625</ele>
        <time>2019-05-30T10:28:52Z</time>
      </trkpt>
      <trkpt lat="44.88607" lon="5.50764">
        <ele>1624.7</ele>
        <time>2019-05-30T10:28:55Z</time>
      </trkpt>
      <trkpt lat="44.88609" lon="5.50768">
        <ele>1624.6</ele>
        <time>2019-05-30T10:28:59Z</time>
      </trkpt>
      <trkpt lat="44.88613" lon="5.50767">
        <ele>1624.4</ele>
        <time>2019-05-30T10:29:03Z</time>
      </trkpt>
      <trkpt lat="44.88615" lon="5.50766">
        <ele>1624.3</ele>
        <time>2019-05-30T10:29:05Z</time>
      </trkpt>
      <trkpt lat="44.88618" lon="5.50765">
        <ele>1624.2</ele>
        <time>2019-05-30T10:29:08Z</time>
      </trkpt>
      <trkpt lat="44.88621" lon="5.50764">
        <ele>1624</ele>
        <time>2019-05-30T10:29:11Z</time>
      </trkpt>
      <trkpt lat="44.88624" lon="5.50762">
        <ele>1623.9</ele>
        <time>2019-05-30T10:29:14Z</time>
      </trkpt>
      <trkpt lat="44.88628" lon="5.50763">
        <ele>1623.7</ele>
        <time>2019-05-30T10:29:16Z</time>
      </trkpt>
      <trkpt lat="44.88631" lon="5.50763">
        <ele>1623.5</ele>
        <time>2019-05-30T10:29:18Z</time>
      </trkpt>
      <trkpt lat="44.88634" lon="5.50764">
        <ele>1623.4</ele>
        <time>2019-05-30T10:29:20Z</time>
      </trkpt>
      <trkpt lat="44.88637" lon="5.50765">
        <ele>1623.2</ele>
        <time>2019-05-30T10:29:22Z</time>
      </trkpt>
      <trkpt lat="44.8864" lon="5.50766">
        <ele>1623.1</ele>
        <time>2019-05-30T10:29:24Z</time>
      </trkpt>
      <trkpt lat="44.88643" lon="5.50768">
        <ele>1622.9</ele>
        <time>2019-05-30T10:29:27Z</time>
      </trkpt>
      <trkpt lat="44.88646" lon="5.50772">
        <ele>1622.7</ele>
        <time>2019-05-30T10:29:30Z</time>
      </trkpt>
      <trkpt lat="44.88648" lon="5.50774">
        <ele>1622.5</ele>
        <time>2019-05-30T10:29:32Z</time>
      </trkpt>
      <trkpt lat="44.88651" lon="5.50776">
        <ele>1622.3</ele>
        <time>2019-05-30T10:29:34Z</time>
      </trkpt>
      <trkpt lat="44.88654" lon="5.50778">
        <ele>1621.9</ele>
        <time>2019-05-30T10:29:37Z</time>
      </trkpt>
      <trkpt lat="44.88657" lon="5.50781">
        <ele>1621.7</ele>
        <time>2019-05-30T10:29:40Z</time>
      </trkpt>
      <trkpt lat="44.88659" lon="5.50785">
        <ele>1621.4</ele>
        <time>2019-05-30T10:29:44Z</time>
      </trkpt>
      <trkpt lat="44.88661" lon="5.50788">
        <ele>1621.2</ele>
        <time>2019-05-30T10:29:49Z</time>
      </trkpt>
      <trkpt lat="44.88662" lon="5.50792">
        <ele>1621</ele>
        <time>2019-05-30T10:29:52Z</time>
      </trkpt>
      <trkpt lat="44.88664" lon="5.50794">
        <ele>1620.8</ele>
        <time>2019-05-30T10:29:55Z</time>
      </trkpt>
      <trkpt lat="44.88667" lon="5.50796">
        <ele>1620.6</ele>
        <time>2019-05-30T10:29:57Z</time>
      </trkpt>
      <trkpt lat="44.8867" lon="5.50798">
        <ele>1620.3</ele>
        <time>2019-05-30T10:29:59Z</time>
      </trkpt>
      <trkpt lat="44.88672" lon="5.508">
        <ele>1620.2</ele>
        <time>2019-05-30T10:30:01Z</time>
      </trkpt>
      <trkpt lat="44.88674" lon="5.50804">
        <ele>1620.1</ele>
        <time>2019-05-30T10:30:04Z</time>
      </trkpt>
      <trkpt lat="44.88677" lon="5.50808">
        <ele>1619.9</ele>
        <time>2019-05-30T10:30:07Z</time>
      </trkpt>
      <trkpt lat="44.88679" lon="5.50812">
        <ele>1619.8</ele>
        <time>2019-05-30T10:30:10Z</time>
      </trkpt>
      <trkpt lat="44.88682" lon="5.50815">
        <ele>1619.8</ele>
        <time>2019-05-30T10:30:13Z</time>
      </trkpt>
      <trkpt lat="44.88685" lon="5.50818">
        <ele>1619.8</ele>
        <time>2019-05-30T10:30:16Z</time>
      </trkpt>
      <trkpt lat="44.88688" lon="5.50822">
        <ele>1619.7</ele>
        <time>2019-05-30T10:30:20Z</time>
      </trkpt>
      <trkpt lat="44.8869" lon="5.50826">
        <ele>1619.7</ele>
        <time>2019-05-30T10:30:23Z</time>
      </trkpt>
      <trkpt lat="44.88693" lon="5.50828">
        <ele>1619.7</ele>
        <time>2019-05-30T10:30:26Z</time>
      </trkpt>
      <trkpt lat="44.88697" lon="5.50831">
        <ele>1619.7</ele>
        <time>2019-05-30T10:30:29Z</time>
      </trkpt>
      <trkpt lat="44.887" lon="5.50832">
        <ele>1619.8</ele>
        <time>2019-05-30T10:30:31Z</time>
      </trkpt>
      <trkpt lat="44.88704" lon="5.50833">
        <ele>1619.8</ele>
        <time>2019-05-30T10:30:34Z</time>
      </trkpt>
      <trkpt lat="44.88706" lon="5.50835">
        <ele>1619.9</ele>
        <time>2019-05-30T10:30:37Z</time>
      </trkpt>
      <trkpt lat="44.88709" lon="5.50837">
        <ele>1619.9</ele>
        <time>2019-05-30T10:30:40Z</time>
      </trkpt>
      <trkpt lat="44.88712" lon="5.50839">
        <ele>1620</ele>
        <time>2019-05-30T10:30:44Z</time>
      </trkpt>
      <trkpt lat="44.88714" lon="5.50842">
        <ele>1620.2</ele>
        <time>2019-05-30T10:30:47Z</time>
      </trkpt>
      <trkpt lat="44.88717" lon="5.50845">
        <ele>1620.4</ele>
        <time>2019-05-30T10:30:50Z</time>
      </trkpt>
      <trkpt lat="44.8872" lon="5.50849">
        <ele>1620.6</ele>
        <time>2019-05-30T10:30:53Z</time>
      </trkpt>
      <trkpt lat="44.88723" lon="5.50851">
        <ele>1620.8</ele>
        <time>2019-05-30T10:30:56Z</time>
      </trkpt>
      <trkpt lat="44.88726" lon="5.50855">
        <ele>1621</ele>
        <time>2019-05-30T10:30:59Z</time>
      </trkpt>
      <trkpt lat="44.88729" lon="5.50857">
        <ele>1621.1</ele>
        <time>2019-05-30T10:31:02Z</time>
      </trkpt>
      <trkpt lat="44.88732" lon="5.5086">
        <ele>1621.2</ele>
        <time>2019-05-30T10:31:05Z</time>
      </trkpt>
      <trkpt lat="44.88735" lon="5.50863">
        <ele>1621.2</ele>
        <time>2019-05-30T10:31:08Z</time>
      </trkpt>
      <trkpt lat="44.88738" lon="5.50865">
        <ele>1621.3</ele>
        <time>2019-05-30T10:31:11Z</time>
      </trkpt>
      <trkpt lat="44.88741" lon="5.50868">
        <ele>1621.3</ele>
        <time>2019-05-30T10:31:14Z</time>
      </trkpt>
      <trkpt lat="44.88743" lon="5.5087">
        <ele>1621.4</ele>
        <time>2019-05-30T10:31:16Z</time>
      </trkpt>
      <trkpt lat="44.88745" lon="5.50873">
        <ele>1621.4</ele>
        <time>2019-05-30T10:31:18Z</time>
      </trkpt>
      <trkpt lat="44.88748" lon="5.50875">
        <ele>1621.4</ele>
        <time>2019-05-30T10:31:20Z</time>
      </trkpt>
      <trkpt lat="44.88751" lon="5.50877">
        <ele>1621.4</ele>
        <time>2019-05-30T10:31:23Z</time>
      </trkpt>
      <trkpt lat="44.88753" lon="5.5088">
        <ele>1621.4</ele>
        <time>2019-05-30T10:31:26Z</time>
      </trkpt>
      <trkpt lat="44.88756" lon="5.50882">
        <ele>1621.4</ele>
        <time>2019-05-30T10:31:29Z</time>
      </trkpt>
      <trkpt lat="44.88758" lon="5.50884">
        <ele>1621.4</ele>
        <time>2019-05-30T10:31:31Z</time>
      </trkpt>
      <trkpt lat="44.88761" lon="5.50886">
        <ele>1621.4</ele>
        <time>2019-05-30T10:31:33Z</time>
      </trkpt>
      <trkpt lat="44.88764" lon="5.50889">
        <ele>1621.4</ele>
        <time>2019-05-30T10:31:36Z</time>
      </trkpt>
      <trkpt lat="44.88766" lon="5.50891">
        <ele>1621.3</ele>
        <time>2019-05-30T10:31:38Z</time>
      </trkpt>
      <trkpt lat="44.88769" lon="5.50893">
        <ele>1621.3</ele>
        <time>2019-05-30T10:31:40Z</time>
      </trkpt>
      <trkpt lat="44.88772" lon="5.50896">
        <ele>1621.2</ele>
        <time>2019-05-30T10:31:42Z</time>
      </trkpt>
      <trkpt lat="44.88774" lon="5.509">
        <ele>1621.1</ele>
        <time>2019-05-30T10:31:45Z</time>
      </trkpt>
      <trkpt lat="44.88777" lon="5.50904">
        <ele>1621</ele>
        <time>2019-05-30T10:31:48Z</time>
      </trkpt>
      <trkpt lat="44.88779" lon="5.50906">
        <ele>1621</ele>
        <time>2019-05-30T10:31:50Z</time>
      </trkpt>
      <trkpt lat="44.88782" lon="5.50909">
        <ele>1620.8</ele>
        <time>2019-05-30T10:31:53Z</time>
      </trkpt>
      <trkpt lat="44.88784" lon="5.50912">
        <ele>1620.7</ele>
        <time>2019-05-30T10:31:56Z</time>
      </trkpt>
      <trkpt lat="44.88785" lon="5.50916">
        <ele>1620.6</ele>
        <time>2019-05-30T10:31:59Z</time>
      </trkpt>
      <trkpt lat="44.88789" lon="5.50918">
        <ele>1620.5</ele>
        <time>2019-05-30T10:32:02Z</time>
      </trkpt>
      <trkpt lat="44.88792" lon="5.50919">
        <ele>1620.4</ele>
        <time>2019-05-30T10:32:05Z</time>
      </trkpt>
      <trkpt lat="44.88795" lon="5.50919">
        <ele>1620.3</ele>
        <time>2019-05-30T10:32:08Z</time>
      </trkpt>
      <trkpt lat="44.88797" lon="5.50921">
        <ele>1620.1</ele>
        <time>2019-05-30T10:32:11Z</time>
      </trkpt>
      <trkpt lat="44.888" lon="5.50922">
        <ele>1620</ele>
        <time>2019-05-30T10:32:13Z</time>
      </trkpt>
      <trkpt lat="44.88803" lon="5.50925">
        <ele>1619.9</ele>
        <time>2019-05-30T10:32:16Z</time>
      </trkpt>
      <trkpt lat="44.88805" lon="5.50927">
        <ele>1619.8</ele>
        <time>2019-05-30T10:32:19Z</time>
      </trkpt>
      <trkpt lat="44.88807" lon="5.50929">
        <ele>1619.6</ele>
        <time>2019-05-30T10:32:21Z</time>
      </trkpt>
      <trkpt lat="44.8881" lon="5.5093">
        <ele>1619.5</ele>
        <time>2019-05-30T10:32:23Z</time>
      </trkpt>
      <trkpt lat="44.88814" lon="5.50932">
        <ele>1619.4</ele>
        <time>2019-05-30T10:32:25Z</time>
      </trkpt>
      <trkpt lat="44.88817" lon="5.50934">
        <ele>1619.2</ele>
        <time>2019-05-30T10:32:27Z</time>
      </trkpt>
      <trkpt lat="44.88821" lon="5.50936">
        <ele>1619</ele>
        <time>2019-05-30T10:32:30Z</time>
      </trkpt>
      <trkpt lat="44.88824" lon="5.50937">
        <ele>1618.9</ele>
        <time>2019-05-30T10:32:33Z</time>
      </trkpt>
      <trkpt lat="44.88827" lon="5.5094">
        <ele>1618.7</ele>
        <time>2019-05-30T10:32:36Z</time>
      </trkpt>
      <trkpt lat="44.88829" lon="5.50943">
        <ele>1618.6</ele>
        <time>2019-05-30T10:32:39Z</time>
      </trkpt>
      <trkpt lat="44.88832" lon="5.50945">
        <ele>1618.4</ele>
        <time>2019-05-30T10:32:42Z</time>
      </trkpt>
      <trkpt lat="44.88835" lon="5.50948">
        <ele>1618.2</ele>
        <time>2019-05-30T10:32:45Z</time>
      </trkpt>
      <trkpt lat="44.88838" lon="5.5095">
        <ele>1618.1</ele>
        <time>2019-05-30T10:32:48Z</time>
      </trkpt>
      <trkpt lat="44.88842" lon="5.5095">
        <ele>1618</ele>
        <time>2019-05-30T10:32:53Z</time>
      </trkpt>
      <trkpt lat="44.88844" lon="5.5095">
        <ele>1617.9</ele>
        <time>2019-05-30T10:32:59Z</time>
      </trkpt>
      <trkpt lat="44.88847" lon="5.50947">
        <ele>1617.8</ele>
        <time>2019-05-30T10:33:08Z</time>
      </trkpt>
      <trkpt lat="44.88849" lon="5.50948">
        <ele>1617.7</ele>
        <time>2019-05-30T10:34:58Z</time>
      </trkpt>
      <trkpt lat="44.88846" lon="5.50949">
        <ele>1617.5</ele>
        <time>2019-05-30T10:35:03Z</time>
      </trkpt>
      <trkpt lat="44.88843" lon="5.50949">
        <ele>1617.4</ele>
        <time>2019-05-30T10:35:07Z</time>
      </trkpt>
      <trkpt lat="44.8884" lon="5.5095">
        <ele>1617.3</ele>
        <time>2019-05-30T10:35:10Z</time>
      </trkpt>
      <trkpt lat="44.88837" lon="5.50951">
        <ele>1617.2</ele>
        <time>2019-05-30T10:35:14Z</time>
      </trkpt>
      <trkpt lat="44.88834" lon="5.5095">
        <ele>1617.2</ele>
        <time>2019-05-30T10:35:18Z</time>
      </trkpt>
      <trkpt lat="44.88831" lon="5.50952">
        <ele>1617.8</ele>
        <time>2019-05-30T10:35:21Z</time>
      </trkpt>
      <trkpt lat="44.88829" lon="5.50955">
        <ele>1617.8</ele>
        <time>2019-05-30T10:35:25Z</time>
      </trkpt>
      <trkpt lat="44.88826" lon="5.50956">
        <ele>1618.5</ele>
        <time>2019-05-30T10:35:27Z</time>
      </trkpt>
      <trkpt lat="44.88823" lon="5.50958">
        <ele>1618.5</ele>
        <time>2019-05-30T10:35:29Z</time>
      </trkpt>
      <trkpt lat="44.8882" lon="5.50959">
        <ele>1618.6</ele>
        <time>2019-05-30T10:35:31Z</time>
      </trkpt>
      <trkpt lat="44.88816" lon="5.5096">
        <ele>1619.2</ele>
        <time>2019-05-30T10:35:33Z</time>
      </trkpt>
      <trkpt lat="44.88813" lon="5.50961">
        <ele>1619.3</ele>
        <time>2019-05-30T10:35:36Z</time>
      </trkpt>
      <trkpt lat="44.8881" lon="5.50962">
        <ele>1619.4</ele>
        <time>2019-05-30T10:35:38Z</time>
      </trkpt>
      <trkpt lat="44.88807" lon="5.50962">
        <ele>1619.5</ele>
        <time>2019-05-30T10:35:42Z</time>
      </trkpt>
      <trkpt lat="44.88804" lon="5.5096">
        <ele>1619.2</ele>
        <time>2019-05-30T10:35:45Z</time>
      </trkpt>
      <trkpt lat="44.88801" lon="5.50958">
        <ele>1619.3</ele>
        <time>2019-05-30T10:35:47Z</time>
      </trkpt>
      <trkpt lat="44.88798" lon="5.50957">
        <ele>1619.3</ele>
        <time>2019-05-30T10:35:50Z</time>
      </trkpt>
      <trkpt lat="44.88794" lon="5.50956">
        <ele>1619.4</ele>
        <time>2019-05-30T10:35:53Z</time>
      </trkpt>
      <trkpt lat="44.88792" lon="5.50956">
        <ele>1619.5</ele>
        <time>2019-05-30T10:35:56Z</time>
      </trkpt>
      <trkpt lat="44.88789" lon="5.50956">
        <ele>1619.1</ele>
        <time>2019-05-30T10:35:59Z</time>
      </trkpt>
      <trkpt lat="44.88785" lon="5.50957">
        <ele>1619.5</ele>
        <time>2019-05-30T10:36:03Z</time>
      </trkpt>
      <trkpt lat="44.88782" lon="5.5096">
        <ele>1619.5</ele>
        <time>2019-05-30T10:36:07Z</time>
      </trkpt>
      <trkpt lat="44.8878" lon="5.50961">
        <ele>1619.8</ele>
        <time>2019-05-30T10:36:10Z</time>
      </trkpt>
      <trkpt lat="44.88777" lon="5.50962">
        <ele>1619.7</ele>
        <time>2019-05-30T10:36:13Z</time>
      </trkpt>
      <trkpt lat="44.88774" lon="5.50963">
        <ele>1619.6</ele>
        <time>2019-05-30T10:36:17Z</time>
      </trkpt>
      <trkpt lat="44.88771" lon="5.50962">
        <ele>1619.5</ele>
        <time>2019-05-30T10:36:20Z</time>
      </trkpt>
      <trkpt lat="44.88768" lon="5.50959">
        <ele>1619.1</ele>
        <time>2019-05-30T10:36:23Z</time>
      </trkpt>
      <trkpt lat="44.88765" lon="5.50957">
        <ele>1618.9</ele>
        <time>2019-05-30T10:36:26Z</time>
      </trkpt>
      <trkpt lat="44.88762" lon="5.50954">
        <ele>1618.4</ele>
        <time>2019-05-30T10:36:29Z</time>
      </trkpt>
      <trkpt lat="44.8876" lon="5.50951">
        <ele>1618</ele>
        <time>2019-05-30T10:36:32Z</time>
      </trkpt>
      <trkpt lat="44.88759" lon="5.50948">
        <ele>1617.9</ele>
        <time>2019-05-30T10:36:36Z</time>
      </trkpt>
      <trkpt lat="44.88757" lon="5.50951">
        <ele>1617.9</ele>
        <time>2019-05-30T10:36:48Z</time>
      </trkpt>
      <trkpt lat="44.88755" lon="5.50953">
        <ele>1618.2</ele>
        <time>2019-05-30T10:36:51Z</time>
      </trkpt>
      <trkpt lat="44.88752" lon="5.50951">
        <ele>1617.8</ele>
        <time>2019-05-30T10:36:58Z</time>
      </trkpt>
      <trkpt lat="44.88749" lon="5.50952">
        <ele>1618.1</ele>
        <time>2019-05-30T10:37:01Z</time>
      </trkpt>
      <trkpt lat="44.88747" lon="5.50954">
        <ele>1618.1</ele>
        <time>2019-05-30T10:37:04Z</time>
      </trkpt>
      <trkpt lat="44.88745" lon="5.50958">
        <ele>1618.4</ele>
        <time>2019-05-30T10:37:09Z</time>
      </trkpt>
      <trkpt lat="44.88744" lon="5.50962">
        <ele>1618.7</ele>
        <time>2019-05-30T10:37:12Z</time>
      </trkpt>
      <trkpt lat="44.88743" lon="5.50966">
        <ele>1619</ele>
        <time>2019-05-30T10:37:16Z</time>
      </trkpt>
      <trkpt lat="44.88741" lon="5.5097">
        <ele>1619.3</ele>
        <time>2019-05-30T10:37:19Z</time>
      </trkpt>
      <trkpt lat="44.8874" lon="5.50974">
        <ele>1619.6</ele>
        <time>2019-05-30T10:37:25Z</time>
      </trkpt>
      <trkpt lat="44.8874" lon="5.50969">
        <ele>1619.3</ele>
        <time>2019-05-30T10:37:40Z</time>
      </trkpt>
      <trkpt lat="44.88741" lon="5.50965">
        <ele>1619</ele>
        <time>2019-05-30T10:37:43Z</time>
      </trkpt>
      <trkpt lat="44.88742" lon="5.50962">
        <ele>1618.7</ele>
        <time>2019-05-30T10:37:45Z</time>
      </trkpt>
      <trkpt lat="44.88744" lon="5.50958">
        <ele>1618.4</ele>
        <time>2019-05-30T10:37:48Z</time>
      </trkpt>
      <trkpt lat="44.88746" lon="5.50954">
        <ele>1618.1</ele>
        <time>2019-05-30T10:37:53Z</time>
      </trkpt>
      <trkpt lat="44.88746" lon="5.50949">
        <ele>1617.7</ele>
        <time>2019-05-30T10:37:57Z</time>
      </trkpt>
      <trkpt lat="44.88746" lon="5.50944">
        <ele>1617.4</ele>
        <time>2019-05-30T10:38:00Z</time>
      </trkpt>
      <trkpt lat="44.88745" lon="5.50941">
        <ele>1617.1</ele>
        <time>2019-05-30T10:38:08Z</time>
      </trkpt>
      <trkpt lat="44.88744" lon="5.50937">
        <ele>1616.8</ele>
        <time>2019-05-30T10:38:15Z</time>
      </trkpt>
      <trkpt lat="44.88741" lon="5.50939">
        <ele>1617.1</ele>
        <time>2019-05-30T10:38:20Z</time>
      </trkpt>
    </trkseg>
  </trk>
</gpx>